<?xml version='1.0' encoding='UTF-8'?><gpx version="1.1" creator="JPX - https://github.com/jenetics/jpx" xmlns="http://www.topografix.com/GPX/1/1"><trk><trkseg><trkpt lat="47.9094275" lon="7.3584318"><ele>262.0</ele><time>2026-04-03T12:19:52.901Z</time></trkpt></trkseg><trkseg><trkpt lat="47.9094581" lon="7.3583374"><ele>209.0</ele><time>2026-04-03T12:38:49.706Z</time></trkpt><trkpt lat="47.9094051" lon="7.3584065"><ele>209.0</ele><time>2026-04-03T12:38:55.9Z</time></trkpt><trkpt lat="47.9093363" lon="7.3582351"><ele>209.0</ele><time>2026-04-03T12:46:50.898Z</time></trkpt><trkpt lat="47.9093496" lon="7.3581432"><ele>209.0</ele><time>2026-04-03T12:46:53.899Z</time></trkpt><trkpt lat="47.9094147" lon="7.3581183"><ele>209.0</ele><time>2026-04-03T12:46:55.898Z</time></trkpt><trkpt lat="47.9095304" lon="7.358147"><ele>209.0</ele><time>2026-04-03T12:46:57.899Z</time></trkpt><trkpt lat="47.909605" lon="7.3581669"><ele>209.0</ele><time>2026-04-03T12:46:58.899Z</time></trkpt><trkpt lat="47.9096904" lon="7.3581892"><ele>209.0</ele><time>2026-04-03T12:46:59.898Z</time></trkpt><trkpt lat="47.9097899" lon="7.3582188"><ele>209.0</ele><time>2026-04-03T12:47:00.898Z</time></trkpt><trkpt lat="47.9099073" lon="7.3582525"><ele>209.0</ele><time>2026-04-03T12:47:01.9Z</time></trkpt><trkpt lat="47.910024" lon="7.35829"><ele>208.5</ele><time>2026-04-03T12:47:02.899Z</time></trkpt><trkpt lat="47.9101344" lon="7.358323"><ele>208.0</ele><time>2026-04-03T12:47:03.899Z</time></trkpt><trkpt lat="47.9102492" lon="7.358353"><ele>207.5</ele><time>2026-04-03T12:47:04.898Z</time></trkpt><trkpt lat="47.9103717" lon="7.3583858"><ele>207.0</ele><time>2026-04-03T12:47:05.899Z</time></trkpt><trkpt lat="47.9104983" lon="7.358417"><ele>207.0</ele><time>2026-04-03T12:47:06.899Z</time></trkpt><trkpt lat="47.9106231" lon="7.3584485"><ele>207.0</ele><time>2026-04-03T12:47:07.898Z</time></trkpt><trkpt lat="47.9107433" lon="7.3584803"><ele>207.0</ele><time>2026-04-03T12:47:08.9Z</time></trkpt><trkpt lat="47.9108515" lon="7.3585089"><ele>207.0</ele><time>2026-04-03T12:47:09.899Z</time></trkpt><trkpt lat="47.910947" lon="7.3585302"><ele>206.66666666666666</ele><time>2026-04-03T12:47:10.898Z</time></trkpt><trkpt lat="47.9110273" lon="7.3585467"><ele>206.33333333333331</ele><time>2026-04-03T12:47:11.898Z</time></trkpt><trkpt lat="47.9111025" lon="7.3585624"><ele>206.0</ele><time>2026-04-03T12:47:12.9Z</time></trkpt><trkpt lat="47.9111663" lon="7.3585718"><ele>205.66666666666666</ele><time>2026-04-03T12:47:13.899Z</time></trkpt><trkpt lat="47.911255" lon="7.3585817"><ele>205.33333333333331</ele><time>2026-04-03T12:47:15.899Z</time></trkpt><trkpt lat="47.9113488" lon="7.3585432"><ele>205.0</ele><time>2026-04-03T12:47:17.898Z</time></trkpt><trkpt lat="47.9114164" lon="7.3585006"><ele>205.0</ele><time>2026-04-03T12:47:18.898Z</time></trkpt><trkpt lat="47.9114774" lon="7.3584398"><ele>205.0</ele><time>2026-04-03T12:47:19.899Z</time></trkpt><trkpt lat="47.9115377" lon="7.3583622"><ele>205.0</ele><time>2026-04-03T12:47:20.899Z</time></trkpt><trkpt lat="47.9115948" lon="7.3582748"><ele>205.0</ele><time>2026-04-03T12:47:21.898Z</time></trkpt><trkpt lat="47.9116613" lon="7.3581476"><ele>205.0</ele><time>2026-04-03T12:47:22.898Z</time></trkpt><trkpt lat="47.9117241" lon="7.3580181"><ele>205.8</ele><time>2026-04-03T12:47:23.899Z</time></trkpt><trkpt lat="47.9117938" lon="7.3578838"><ele>206.6</ele><time>2026-04-03T12:47:24.899Z</time></trkpt><trkpt lat="47.9118529" lon="7.3577589"><ele>207.39999999999998</ele><time>2026-04-03T12:47:25.898Z</time></trkpt><trkpt lat="47.9119132" lon="7.357647"><ele>208.2</ele><time>2026-04-03T12:47:26.899Z</time></trkpt><trkpt lat="47.9119686" lon="7.3575393"><ele>209.0</ele><time>2026-04-03T12:47:27.898Z</time></trkpt><trkpt lat="47.9120265" lon="7.3574247"><ele>209.00000000000003</ele><time>2026-04-03T12:47:28.899Z</time></trkpt><trkpt lat="47.9120761" lon="7.3573228"><ele>209.0</ele><time>2026-04-03T12:47:29.897Z</time></trkpt><trkpt lat="47.9121291" lon="7.3572193"><ele>209.0</ele><time>2026-04-03T12:47:30.899Z</time></trkpt><trkpt lat="47.9121749" lon="7.3571236"><ele>209.0</ele><time>2026-04-03T12:47:31.899Z</time></trkpt><trkpt lat="47.9122242" lon="7.3570286"><ele>209.00000000000003</ele><time>2026-04-03T12:47:32.897Z</time></trkpt><trkpt lat="47.912269" lon="7.3569356"><ele>209.0</ele><time>2026-04-03T12:47:33.897Z</time></trkpt><trkpt lat="47.9123101" lon="7.3568613"><ele>208.79999999999998</ele><time>2026-04-03T12:47:34.898Z</time></trkpt><trkpt lat="47.9123854" lon="7.3567012"><ele>208.6</ele><time>2026-04-03T12:47:36.898Z</time></trkpt><trkpt lat="47.9124236" lon="7.3566188"><ele>208.4</ele><time>2026-04-03T12:47:37.898Z</time></trkpt><trkpt lat="47.9124926" lon="7.3564885"><ele>208.2</ele><time>2026-04-03T12:47:39.898Z</time></trkpt><trkpt lat="47.9125454" lon="7.3563827"><ele>208.0</ele><time>2026-04-03T12:47:41.897Z</time></trkpt><trkpt lat="47.9126035" lon="7.3562651"><ele>208.33333333333331</ele><time>2026-04-03T12:47:43.899Z</time></trkpt><trkpt lat="47.9126806" lon="7.356207"><ele>208.66666666666666</ele><time>2026-04-03T12:47:45.898Z</time></trkpt><trkpt lat="47.9127731" lon="7.3561736"><ele>209.0</ele><time>2026-04-03T12:47:47.899Z</time></trkpt><trkpt lat="47.9128481" lon="7.3561836"><ele>209.33333333333331</ele><time>2026-04-03T12:47:49.897Z</time></trkpt><trkpt lat="47.9129304" lon="7.3561738"><ele>209.66666666666666</ele><time>2026-04-03T12:47:52.897Z</time></trkpt><trkpt lat="47.9130029" lon="7.356159"><ele>210.0</ele><time>2026-04-03T12:47:55.897Z</time></trkpt><trkpt lat="47.9130733" lon="7.3561409"><ele>210.0</ele><time>2026-04-03T12:48:00.899Z</time></trkpt><trkpt lat="47.9131488" lon="7.3561477"><ele>210.0</ele><time>2026-04-03T12:48:07.898Z</time></trkpt><trkpt lat="47.913265" lon="7.3561071"><ele>210.0</ele><time>2026-04-03T12:48:09.898Z</time></trkpt><trkpt lat="47.9133468" lon="7.3560884"><ele>210.0</ele><time>2026-04-03T12:48:10.899Z</time></trkpt><trkpt lat="47.913437" lon="7.3560059"><ele>210.0</ele><time>2026-04-03T12:48:12.897Z</time></trkpt><trkpt lat="47.9134411" lon="7.3557982"><ele>210.0</ele><time>2026-04-03T12:48:14.897Z</time></trkpt><trkpt lat="47.9134331" lon="7.3556271"><ele>210.0</ele><time>2026-04-03T12:48:15.898Z</time></trkpt><trkpt lat="47.9134292" lon="7.3554452"><ele>210.0</ele><time>2026-04-03T12:48:16.899Z</time></trkpt><trkpt lat="47.9134287" lon="7.3552709"><ele>210.0</ele><time>2026-04-03T12:48:17.9Z</time></trkpt><trkpt lat="47.9134313" lon="7.3551162"><ele>209.6</ele><time>2026-04-03T12:48:18.897Z</time></trkpt><trkpt lat="47.9134324" lon="7.3549595"><ele>209.2</ele><time>2026-04-03T12:48:19.897Z</time></trkpt><trkpt lat="47.9134361" lon="7.3548133"><ele>208.8</ele><time>2026-04-03T12:48:20.898Z</time></trkpt><trkpt lat="47.9134436" lon="7.3546557"><ele>208.4</ele><time>2026-04-03T12:48:21.898Z</time></trkpt><trkpt lat="47.9134553" lon="7.3545061"><ele>208.0</ele><time>2026-04-03T12:48:22.898Z</time></trkpt><trkpt lat="47.913498" lon="7.3543842"><ele>208.0</ele><time>2026-04-03T12:48:23.898Z</time></trkpt><trkpt lat="47.9135302" lon="7.3542332"><ele>208.0</ele><time>2026-04-03T12:48:24.898Z</time></trkpt><trkpt lat="47.9135464" lon="7.3540814"><ele>208.0</ele><time>2026-04-03T12:48:25.898Z</time></trkpt><trkpt lat="47.9135568" lon="7.3539142"><ele>208.0</ele><time>2026-04-03T12:48:26.899Z</time></trkpt><trkpt lat="47.9135666" lon="7.3537557"><ele>208.0</ele><time>2026-04-03T12:48:27.898Z</time></trkpt><trkpt lat="47.9135691" lon="7.3536043"><ele>208.0</ele><time>2026-04-03T12:48:28.897Z</time></trkpt><trkpt lat="47.9135705" lon="7.3534362"><ele>208.0</ele><time>2026-04-03T12:48:29.898Z</time></trkpt><trkpt lat="47.9135635" lon="7.3532529"><ele>208.0</ele><time>2026-04-03T12:48:30.897Z</time></trkpt><trkpt lat="47.9135533" lon="7.3530377"><ele>208.0</ele><time>2026-04-03T12:48:31.897Z</time></trkpt><trkpt lat="47.9135451" lon="7.3528158"><ele>208.0</ele><time>2026-04-03T12:48:32.899Z</time></trkpt><trkpt lat="47.9135363" lon="7.3526243"><ele>208.0</ele><time>2026-04-03T12:48:33.898Z</time></trkpt><trkpt lat="47.9135344" lon="7.3524368"><ele>208.0</ele><time>2026-04-03T12:48:34.9Z</time></trkpt><trkpt lat="47.9135284" lon="7.3522361"><ele>208.0</ele><time>2026-04-03T12:48:35.898Z</time></trkpt><trkpt lat="47.9135266" lon="7.3520401"><ele>208.0</ele><time>2026-04-03T12:48:36.899Z</time></trkpt><trkpt lat="47.9135216" lon="7.351829"><ele>208.0</ele><time>2026-04-03T12:48:37.899Z</time></trkpt><trkpt lat="47.9135161" lon="7.3516093"><ele>208.0</ele><time>2026-04-03T12:48:38.898Z</time></trkpt><trkpt lat="47.9135098" lon="7.351421"><ele>208.0</ele><time>2026-04-03T12:48:39.898Z</time></trkpt><trkpt lat="47.9135098" lon="7.3512342"><ele>207.75</ele><time>2026-04-03T12:48:40.9Z</time></trkpt><trkpt lat="47.9134997" lon="7.3510575"><ele>207.5</ele><time>2026-04-03T12:48:41.9Z</time></trkpt><trkpt lat="47.913498" lon="7.3508811"><ele>207.25</ele><time>2026-04-03T12:48:42.898Z</time></trkpt><trkpt lat="47.9134957" lon="7.3506949"><ele>207.0</ele><time>2026-04-03T12:48:43.898Z</time></trkpt><trkpt lat="47.9134909" lon="7.3505064"><ele>207.0</ele><time>2026-04-03T12:48:44.898Z</time></trkpt><trkpt lat="47.9134891" lon="7.3503224"><ele>207.0</ele><time>2026-04-03T12:48:45.897Z</time></trkpt><trkpt lat="47.9134846" lon="7.3501353"><ele>207.0</ele><time>2026-04-03T12:48:46.899Z</time></trkpt><trkpt lat="47.9134811" lon="7.34994"><ele>207.0</ele><time>2026-04-03T12:48:47.898Z</time></trkpt><trkpt lat="47.913476" lon="7.3497514"><ele>206.75</ele><time>2026-04-03T12:48:48.898Z</time></trkpt><trkpt lat="47.9134708" lon="7.3495576"><ele>206.5</ele><time>2026-04-03T12:48:49.898Z</time></trkpt><trkpt lat="47.9134725" lon="7.349365"><ele>206.25</ele><time>2026-04-03T12:48:50.897Z</time></trkpt><trkpt lat="47.9134724" lon="7.349164"><ele>206.0</ele><time>2026-04-03T12:48:51.898Z</time></trkpt><trkpt lat="47.9134733" lon="7.3489692"><ele>206.75</ele><time>2026-04-03T12:48:52.9Z</time></trkpt><trkpt lat="47.9134707" lon="7.3487662"><ele>207.5</ele><time>2026-04-03T12:48:53.898Z</time></trkpt><trkpt lat="47.9134748" lon="7.348566"><ele>208.25</ele><time>2026-04-03T12:48:54.897Z</time></trkpt><trkpt lat="47.9134986" lon="7.3483741"><ele>209.0</ele><time>2026-04-03T12:48:55.899Z</time></trkpt><trkpt lat="47.9135225" lon="7.3481774"><ele>208.75</ele><time>2026-04-03T12:48:56.899Z</time></trkpt><trkpt lat="47.913553" lon="7.3479832"><ele>208.5</ele><time>2026-04-03T12:48:57.897Z</time></trkpt><trkpt lat="47.9135833" lon="7.3477872"><ele>208.25</ele><time>2026-04-03T12:48:58.898Z</time></trkpt><trkpt lat="47.9136115" lon="7.3475994"><ele>208.0</ele><time>2026-04-03T12:48:59.897Z</time></trkpt><trkpt lat="47.9136399" lon="7.3474109"><ele>208.0</ele><time>2026-04-03T12:49:00.897Z</time></trkpt><trkpt lat="47.913665" lon="7.3472213"><ele>208.0</ele><time>2026-04-03T12:49:01.898Z</time></trkpt><trkpt lat="47.9137042" lon="7.34703"><ele>208.0</ele><time>2026-04-03T12:49:02.899Z</time></trkpt><trkpt lat="47.9137479" lon="7.3468404"><ele>208.0</ele><time>2026-04-03T12:49:03.897Z</time></trkpt><trkpt lat="47.9137832" lon="7.3466425"><ele>208.25</ele><time>2026-04-03T12:49:04.898Z</time></trkpt><trkpt lat="47.9138288" lon="7.3464423"><ele>208.5</ele><time>2026-04-03T12:49:05.898Z</time></trkpt><trkpt lat="47.9138778" lon="7.3462352"><ele>208.75</ele><time>2026-04-03T12:49:06.897Z</time></trkpt><trkpt lat="47.9139273" lon="7.3460226"><ele>209.0</ele><time>2026-04-03T12:49:07.899Z</time></trkpt><trkpt lat="47.913977" lon="7.3458084"><ele>209.0</ele><time>2026-04-03T12:49:08.899Z</time></trkpt><trkpt lat="47.914031" lon="7.3455961"><ele>209.0</ele><time>2026-04-03T12:49:09.898Z</time></trkpt><trkpt lat="47.9140762" lon="7.3453944"><ele>209.0</ele><time>2026-04-03T12:49:10.899Z</time></trkpt><trkpt lat="47.9141097" lon="7.3452035"><ele>209.0</ele><time>2026-04-03T12:49:11.898Z</time></trkpt><trkpt lat="47.9141294" lon="7.3450277"><ele>208.5</ele><time>2026-04-03T12:49:12.897Z</time></trkpt><trkpt lat="47.9141422" lon="7.3448541"><ele>208.0</ele><time>2026-04-03T12:49:13.897Z</time></trkpt><trkpt lat="47.9141573" lon="7.3446525"><ele>207.5</ele><time>2026-04-03T12:49:14.897Z</time></trkpt><trkpt lat="47.9141737" lon="7.3444306"><ele>207.0</ele><time>2026-04-03T12:49:15.897Z</time></trkpt><trkpt lat="47.9141802" lon="7.3442291"><ele>207.0</ele><time>2026-04-03T12:49:16.898Z</time></trkpt><trkpt lat="47.9141904" lon="7.3440191"><ele>207.0</ele><time>2026-04-03T12:49:17.898Z</time></trkpt><trkpt lat="47.9141969" lon="7.34381"><ele>207.0</ele><time>2026-04-03T12:49:18.898Z</time></trkpt><trkpt lat="47.9142025" lon="7.3435827"><ele>207.0</ele><time>2026-04-03T12:49:19.898Z</time></trkpt><trkpt lat="47.914192" lon="7.3433178"><ele>207.0</ele><time>2026-04-03T12:49:20.899Z</time></trkpt><trkpt lat="47.9141798" lon="7.3430165"><ele>207.0</ele><time>2026-04-03T12:49:21.898Z</time></trkpt><trkpt lat="47.9141759" lon="7.3426932"><ele>207.0</ele><time>2026-04-03T12:49:22.897Z</time></trkpt><trkpt lat="47.9141851" lon="7.3423551"><ele>207.0</ele><time>2026-04-03T12:49:23.897Z</time></trkpt><trkpt lat="47.9142289" lon="7.3419956"><ele>207.0</ele><time>2026-04-03T12:49:24.897Z</time></trkpt><trkpt lat="47.9142944" lon="7.3416368"><ele>207.0</ele><time>2026-04-03T12:49:25.898Z</time></trkpt><trkpt lat="47.9143558" lon="7.3412574"><ele>207.0</ele><time>2026-04-03T12:49:26.898Z</time></trkpt><trkpt lat="47.9144149" lon="7.3408953"><ele>207.0</ele><time>2026-04-03T12:49:27.898Z</time></trkpt><trkpt lat="47.9144653" lon="7.3405538"><ele>207.0</ele><time>2026-04-03T12:49:28.899Z</time></trkpt><trkpt lat="47.9145133" lon="7.3402221"><ele>207.0</ele><time>2026-04-03T12:49:29.899Z</time></trkpt><trkpt lat="47.914555" lon="7.3398922"><ele>207.0</ele><time>2026-04-03T12:49:30.898Z</time></trkpt><trkpt lat="47.9145849" lon="7.3395614"><ele>207.0</ele><time>2026-04-03T12:49:31.899Z</time></trkpt><trkpt lat="47.9145923" lon="7.3392234"><ele>206.5</ele><time>2026-04-03T12:49:32.899Z</time></trkpt><trkpt lat="47.914571" lon="7.3388865"><ele>206.0</ele><time>2026-04-03T12:49:33.899Z</time></trkpt><trkpt lat="47.9145264" lon="7.3385459"><ele>207.0</ele><time>2026-04-03T12:49:34.9Z</time></trkpt><trkpt lat="47.9144713" lon="7.3382007"><ele>208.0</ele><time>2026-04-03T12:49:35.897Z</time></trkpt><trkpt lat="47.914408" lon="7.3378534"><ele>208.0</ele><time>2026-04-03T12:49:36.898Z</time></trkpt><trkpt lat="47.9143486" lon="7.3375127"><ele>208.0</ele><time>2026-04-03T12:49:37.899Z</time></trkpt><trkpt lat="47.9142853" lon="7.3371753"><ele>207.0</ele><time>2026-04-03T12:49:38.898Z</time></trkpt><trkpt lat="47.9142209" lon="7.3368389"><ele>206.0</ele><time>2026-04-03T12:49:39.899Z</time></trkpt><trkpt lat="47.9141568" lon="7.336509"><ele>207.0</ele><time>2026-04-03T12:49:40.898Z</time></trkpt><trkpt lat="47.9140936" lon="7.3361769"><ele>208.0</ele><time>2026-04-03T12:49:41.898Z</time></trkpt><trkpt lat="47.9140371" lon="7.3358459"><ele>208.0</ele><time>2026-04-03T12:49:42.898Z</time></trkpt><trkpt lat="47.9139722" lon="7.335518"><ele>208.0</ele><time>2026-04-03T12:49:43.899Z</time></trkpt><trkpt lat="47.9139123" lon="7.3351836"><ele>208.0</ele><time>2026-04-03T12:49:44.899Z</time></trkpt><trkpt lat="47.9138539" lon="7.3348622"><ele>208.0</ele><time>2026-04-03T12:49:45.898Z</time></trkpt><trkpt lat="47.9137963" lon="7.3345489"><ele>208.0</ele><time>2026-04-03T12:49:46.899Z</time></trkpt><trkpt lat="47.9137385" lon="7.3342384"><ele>208.0</ele><time>2026-04-03T12:49:47.898Z</time></trkpt><trkpt lat="47.913682" lon="7.3339272"><ele>208.0</ele><time>2026-04-03T12:49:48.9Z</time></trkpt><trkpt lat="47.9136292" lon="7.3336171"><ele>208.0</ele><time>2026-04-03T12:49:49.897Z</time></trkpt><trkpt lat="47.9135791" lon="7.3333039"><ele>207.66666666666666</ele><time>2026-04-03T12:49:50.898Z</time></trkpt><trkpt lat="47.9135427" lon="7.3329849"><ele>207.33333333333331</ele><time>2026-04-03T12:49:51.899Z</time></trkpt><trkpt lat="47.9135286" lon="7.332664"><ele>207.0</ele><time>2026-04-03T12:49:52.898Z</time></trkpt><trkpt lat="47.9135325" lon="7.3323621"><ele>207.0</ele><time>2026-04-03T12:49:53.899Z</time></trkpt><trkpt lat="47.9137644" lon="7.3292091"><ele>207.0</ele><time>2026-04-03T12:50:04.897Z</time></trkpt><trkpt lat="47.913716" lon="7.3289315"><ele>207.0</ele><time>2026-04-03T12:50:05.899Z</time></trkpt><trkpt lat="47.9136588" lon="7.3286564"><ele>206.0</ele><time>2026-04-03T12:50:06.897Z</time></trkpt></trkseg><trkseg><trkpt lat="47.9127748" lon="7.3226495"><ele>211.0</ele><time>2026-04-03T12:50:27.898Z</time></trkpt><trkpt lat="47.9127624" lon="7.3223801"><ele>211.0</ele><time>2026-04-03T12:50:28.899Z</time></trkpt><trkpt lat="47.9127517" lon="7.3221102"><ele>211.0</ele><time>2026-04-03T12:50:29.898Z</time></trkpt><trkpt lat="47.9127448" lon="7.3218334"><ele>212.66666666666666</ele><time>2026-04-03T12:50:30.899Z</time></trkpt><trkpt lat="47.9127376" lon="7.3215398"><ele>214.33333333333331</ele><time>2026-04-03T12:50:31.9Z</time></trkpt><trkpt lat="47.9127306" lon="7.3212437"><ele>216.0</ele><time>2026-04-03T12:50:32.899Z</time></trkpt><trkpt lat="47.912725" lon="7.3209428"><ele>216.0</ele><time>2026-04-03T12:50:33.899Z</time></trkpt><trkpt lat="47.9127224" lon="7.3206377"><ele>216.0</ele><time>2026-04-03T12:50:34.898Z</time></trkpt><trkpt lat="47.9127218" lon="7.3203298"><ele>216.0</ele><time>2026-04-03T12:50:35.898Z</time></trkpt><trkpt lat="47.912719" lon="7.3200164"><ele>215.33333333333331</ele><time>2026-04-03T12:50:36.899Z</time></trkpt><trkpt lat="47.9127169" lon="7.3197023"><ele>214.66666666666666</ele><time>2026-04-03T12:50:37.898Z</time></trkpt><trkpt lat="47.9127136" lon="7.3193873"><ele>214.0</ele><time>2026-04-03T12:50:38.897Z</time></trkpt><trkpt lat="47.9127114" lon="7.3190687"><ele>214.66666666666666</ele><time>2026-04-03T12:50:39.898Z</time></trkpt><trkpt lat="47.9127084" lon="7.3187392"><ele>215.33333333333331</ele><time>2026-04-03T12:50:40.898Z</time></trkpt><trkpt lat="47.9127069" lon="7.318403"><ele>216.0</ele><time>2026-04-03T12:50:41.897Z</time></trkpt><trkpt lat="47.9127036" lon="7.318067"><ele>216.33333333333331</ele><time>2026-04-03T12:50:42.899Z</time></trkpt><trkpt lat="47.9127002" lon="7.3177554"><ele>216.66666666666666</ele><time>2026-04-03T12:50:43.897Z</time></trkpt><trkpt lat="47.9126974" lon="7.3174377"><ele>217.0</ele><time>2026-04-03T12:50:44.897Z</time></trkpt><trkpt lat="47.9126965" lon="7.3171239"><ele>217.0</ele><time>2026-04-03T12:50:45.897Z</time></trkpt><trkpt lat="47.912695" lon="7.3168094"><ele>217.0</ele><time>2026-04-03T12:50:46.897Z</time></trkpt><trkpt lat="47.9126916" lon="7.3164931"><ele>217.0</ele><time>2026-04-03T12:50:47.898Z</time></trkpt><trkpt lat="47.9126875" lon="7.3161744"><ele>216.33333333333331</ele><time>2026-04-03T12:50:48.897Z</time></trkpt><trkpt lat="47.9126861" lon="7.3158396"><ele>215.66666666666669</ele><time>2026-04-03T12:50:49.898Z</time></trkpt><trkpt lat="47.9126907" lon="7.3155238"><ele>215.0</ele><time>2026-04-03T12:50:50.897Z</time></trkpt><trkpt lat="47.9126841" lon="7.3151929"><ele>215.0</ele><time>2026-04-03T12:50:51.897Z</time></trkpt><trkpt lat="47.9126808" lon="7.3148641"><ele>215.0</ele><time>2026-04-03T12:50:52.897Z</time></trkpt><trkpt lat="47.9126787" lon="7.3145343"><ele>215.0</ele><time>2026-04-03T12:50:53.898Z</time></trkpt><trkpt lat="47.9126736" lon="7.314205"><ele>213.33333333333334</ele><time>2026-04-03T12:50:54.898Z</time></trkpt><trkpt lat="47.9126614" lon="7.313878"><ele>211.66666666666669</ele><time>2026-04-03T12:50:55.898Z</time></trkpt><trkpt lat="47.9126409" lon="7.3135492"><ele>210.0</ele><time>2026-04-03T12:50:56.897Z</time></trkpt><trkpt lat="47.9126162" lon="7.3132239"><ele>209.33333333333331</ele><time>2026-04-03T12:50:57.898Z</time></trkpt><trkpt lat="47.9125852" lon="7.3128998"><ele>208.66666666666666</ele><time>2026-04-03T12:50:58.897Z</time></trkpt><trkpt lat="47.9125531" lon="7.3125784"><ele>208.0</ele><time>2026-04-03T12:50:59.898Z</time></trkpt><trkpt lat="47.9125235" lon="7.3122573"><ele>207.66666666666666</ele><time>2026-04-03T12:51:00.897Z</time></trkpt><trkpt lat="47.9125" lon="7.3119419"><ele>207.33333333333331</ele><time>2026-04-03T12:51:01.899Z</time></trkpt><trkpt lat="47.9124842" lon="7.311642"><ele>207.0</ele><time>2026-04-03T12:51:02.898Z</time></trkpt><trkpt lat="47.9124765" lon="7.3113364"><ele>207.0</ele><time>2026-04-03T12:51:03.897Z</time></trkpt><trkpt lat="47.9124784" lon="7.3110263"><ele>207.0</ele><time>2026-04-03T12:51:04.899Z</time></trkpt><trkpt lat="47.9124872" lon="7.3107152"><ele>207.0</ele><time>2026-04-03T12:51:05.897Z</time></trkpt><trkpt lat="47.912503" lon="7.3104009"><ele>207.33333333333331</ele><time>2026-04-03T12:51:06.898Z</time></trkpt><trkpt lat="47.9125234" lon="7.3100823"><ele>207.66666666666666</ele><time>2026-04-03T12:51:07.897Z</time></trkpt><trkpt lat="47.9125474" lon="7.309767"><ele>208.0</ele><time>2026-04-03T12:51:08.897Z</time></trkpt><trkpt lat="47.9125701" lon="7.309436"><ele>208.5</ele><time>2026-04-03T12:51:09.898Z</time></trkpt><trkpt lat="47.9125955" lon="7.3090845"><ele>209.0</ele><time>2026-04-03T12:51:10.898Z</time></trkpt><trkpt lat="47.9126207" lon="7.3087455"><ele>209.0</ele><time>2026-04-03T12:51:11.897Z</time></trkpt><trkpt lat="47.9126436" lon="7.3084143"><ele>209.0</ele><time>2026-04-03T12:51:12.898Z</time></trkpt><trkpt lat="47.9126661" lon="7.3080873"><ele>209.0</ele><time>2026-04-03T12:51:13.897Z</time></trkpt><trkpt lat="47.9126881" lon="7.307762"><ele>209.0</ele><time>2026-04-03T12:51:14.897Z</time></trkpt><trkpt lat="47.9127118" lon="7.3074363"><ele>209.0</ele><time>2026-04-03T12:51:15.898Z</time></trkpt><trkpt lat="47.9127423" lon="7.3071126"><ele>209.0</ele><time>2026-04-03T12:51:16.897Z</time></trkpt><trkpt lat="47.9127614" lon="7.3067838"><ele>208.66666666666669</ele><time>2026-04-03T12:51:17.897Z</time></trkpt><trkpt lat="47.9127912" lon="7.30646"><ele>208.33333333333331</ele><time>2026-04-03T12:51:18.897Z</time></trkpt><trkpt lat="47.912812" lon="7.306138"><ele>208.0</ele><time>2026-04-03T12:51:19.897Z</time></trkpt><trkpt lat="47.9128291" lon="7.305842"><ele>207.66666666666666</ele><time>2026-04-03T12:51:20.897Z</time></trkpt><trkpt lat="47.9128511" lon="7.3055597"><ele>207.33333333333331</ele><time>2026-04-03T12:51:21.897Z</time></trkpt><trkpt lat="47.9128648" lon="7.3052936"><ele>207.0</ele><time>2026-04-03T12:51:22.897Z</time></trkpt><trkpt lat="47.9128832" lon="7.3050366"><ele>207.0</ele><time>2026-04-03T12:51:23.899Z</time></trkpt><trkpt lat="47.9128995" lon="7.3048017"><ele>207.0</ele><time>2026-04-03T12:51:24.898Z</time></trkpt><trkpt lat="47.9129143" lon="7.3045777"><ele>207.0</ele><time>2026-04-03T12:51:25.898Z</time></trkpt><trkpt lat="47.9129332" lon="7.3043771"><ele>207.0</ele><time>2026-04-03T12:51:26.898Z</time></trkpt><trkpt lat="47.9129496" lon="7.3041941"><ele>207.2</ele><time>2026-04-03T12:51:27.899Z</time></trkpt><trkpt lat="47.9129731" lon="7.3040305"><ele>207.39999999999998</ele><time>2026-04-03T12:51:28.898Z</time></trkpt><trkpt lat="47.9129969" lon="7.3038829"><ele>207.60000000000002</ele><time>2026-04-03T12:51:29.897Z</time></trkpt><trkpt lat="47.9130249" lon="7.3037566"><ele>207.8</ele><time>2026-04-03T12:51:30.899Z</time></trkpt><trkpt lat="47.9130466" lon="7.303648"><ele>208.0</ele><time>2026-04-03T12:51:31.897Z</time></trkpt><trkpt lat="47.9130797" lon="7.303478"><ele>208.2</ele><time>2026-04-03T12:51:33.898Z</time></trkpt><trkpt lat="47.9131107" lon="7.3033139"><ele>208.4</ele><time>2026-04-03T12:51:35.899Z</time></trkpt><trkpt lat="47.913149" lon="7.3031603"><ele>208.6</ele><time>2026-04-03T12:51:37.898Z</time></trkpt><trkpt lat="47.9131736" lon="7.3030719"><ele>208.79999999999998</ele><time>2026-04-03T12:51:38.897Z</time></trkpt><trkpt lat="47.9132027" lon="7.3029495"><ele>209.0</ele><time>2026-04-03T12:51:39.898Z</time></trkpt><trkpt lat="47.9132328" lon="7.3028009"><ele>209.75</ele><time>2026-04-03T12:51:40.899Z</time></trkpt><trkpt lat="47.9132709" lon="7.3026214"><ele>210.5</ele><time>2026-04-03T12:51:41.898Z</time></trkpt><trkpt lat="47.9133063" lon="7.3024477"><ele>211.25</ele><time>2026-04-03T12:51:42.897Z</time></trkpt><trkpt lat="47.9133264" lon="7.3022749"><ele>212.0</ele><time>2026-04-03T12:51:43.897Z</time></trkpt><trkpt lat="47.9133231" lon="7.3021017"><ele>212.0</ele><time>2026-04-03T12:51:44.897Z</time></trkpt><trkpt lat="47.9133008" lon="7.3019252"><ele>212.0</ele><time>2026-04-03T12:51:45.899Z</time></trkpt><trkpt lat="47.9132654" lon="7.301751"><ele>212.0</ele><time>2026-04-03T12:51:46.897Z</time></trkpt><trkpt lat="47.9132203" lon="7.3015765"><ele>212.0</ele><time>2026-04-03T12:51:47.897Z</time></trkpt><trkpt lat="47.9131674" lon="7.3013967"><ele>211.75</ele><time>2026-04-03T12:51:48.898Z</time></trkpt><trkpt lat="47.9131075" lon="7.301207"><ele>211.5</ele><time>2026-04-03T12:51:49.897Z</time></trkpt><trkpt lat="47.9130511" lon="7.3010318"><ele>211.25</ele><time>2026-04-03T12:51:50.898Z</time></trkpt><trkpt lat="47.9129946" lon="7.3008559"><ele>211.0</ele><time>2026-04-03T12:51:51.898Z</time></trkpt><trkpt lat="47.9129437" lon="7.3006789"><ele>211.75</ele><time>2026-04-03T12:51:52.898Z</time></trkpt><trkpt lat="47.9128837" lon="7.3004939"><ele>212.5</ele><time>2026-04-03T12:51:53.899Z</time></trkpt><trkpt lat="47.912831" lon="7.3003048"><ele>213.25</ele><time>2026-04-03T12:51:54.898Z</time></trkpt><trkpt lat="47.9127767" lon="7.3001187"><ele>214.0</ele><time>2026-04-03T12:51:55.898Z</time></trkpt><trkpt lat="47.9127288" lon="7.299944"><ele>214.0</ele><time>2026-04-03T12:51:56.898Z</time></trkpt><trkpt lat="47.9126806" lon="7.2997786"><ele>214.0</ele><time>2026-04-03T12:51:57.898Z</time></trkpt><trkpt lat="47.9126322" lon="7.2996088"><ele>214.0</ele><time>2026-04-03T12:51:58.899Z</time></trkpt><trkpt lat="47.9125838" lon="7.2994356"><ele>214.0</ele><time>2026-04-03T12:51:59.898Z</time></trkpt><trkpt lat="47.9125371" lon="7.2992561"><ele>213.5</ele><time>2026-04-03T12:52:00.897Z</time></trkpt><trkpt lat="47.9125022" lon="7.2990799"><ele>213.0</ele><time>2026-04-03T12:52:01.897Z</time></trkpt><trkpt lat="47.9124685" lon="7.2989083"><ele>212.5</ele><time>2026-04-03T12:52:02.897Z</time></trkpt><trkpt lat="47.9124354" lon="7.2987299"><ele>212.0</ele><time>2026-04-03T12:52:03.899Z</time></trkpt><trkpt lat="47.9123998" lon="7.2985482"><ele>212.0</ele><time>2026-04-03T12:52:04.899Z</time></trkpt><trkpt lat="47.9123674" lon="7.2983696"><ele>212.0</ele><time>2026-04-03T12:52:05.897Z</time></trkpt><trkpt lat="47.912335" lon="7.2982021"><ele>212.0</ele><time>2026-04-03T12:52:06.898Z</time></trkpt><trkpt lat="47.9123044" lon="7.298026"><ele>212.0</ele><time>2026-04-03T12:52:07.899Z</time></trkpt><trkpt lat="47.9122767" lon="7.2978502"><ele>212.25</ele><time>2026-04-03T12:52:08.898Z</time></trkpt><trkpt lat="47.9122465" lon="7.2976809"><ele>212.5</ele><time>2026-04-03T12:52:09.898Z</time></trkpt><trkpt lat="47.912217" lon="7.2975104"><ele>212.75</ele><time>2026-04-03T12:52:10.899Z</time></trkpt><trkpt lat="47.9121994" lon="7.2973383"><ele>213.0</ele><time>2026-04-03T12:52:11.899Z</time></trkpt><trkpt lat="47.9121826" lon="7.2971759"><ele>213.75</ele><time>2026-04-03T12:52:12.898Z</time></trkpt><trkpt lat="47.9121749" lon="7.2970122"><ele>214.5</ele><time>2026-04-03T12:52:13.898Z</time></trkpt><trkpt lat="47.9121644" lon="7.2968387"><ele>215.25</ele><time>2026-04-03T12:52:14.899Z</time></trkpt><trkpt lat="47.9121539" lon="7.296658"><ele>216.0</ele><time>2026-04-03T12:52:15.898Z</time></trkpt><trkpt lat="47.9121284" lon="7.2964739"><ele>216.25</ele><time>2026-04-03T12:52:16.898Z</time></trkpt><trkpt lat="47.9120876" lon="7.2962875"><ele>216.5</ele><time>2026-04-03T12:52:17.898Z</time></trkpt><trkpt lat="47.9120263" lon="7.2961069"><ele>216.75</ele><time>2026-04-03T12:52:18.898Z</time></trkpt><trkpt lat="47.9119553" lon="7.2959289"><ele>217.0</ele><time>2026-04-03T12:52:19.897Z</time></trkpt><trkpt lat="47.9118743" lon="7.2957457"><ele>216.66666666666666</ele><time>2026-04-03T12:52:20.897Z</time></trkpt><trkpt lat="47.9117839" lon="7.2955608"><ele>216.33333333333331</ele><time>2026-04-03T12:52:21.897Z</time></trkpt><trkpt lat="47.9116946" lon="7.2953741"><ele>216.0</ele><time>2026-04-03T12:52:22.897Z</time></trkpt><trkpt lat="47.9116021" lon="7.2951949"><ele>216.0</ele><time>2026-04-03T12:52:23.898Z</time></trkpt><trkpt lat="47.9115147" lon="7.2950181"><ele>216.0</ele><time>2026-04-03T12:52:24.898Z</time></trkpt><trkpt lat="47.9114337" lon="7.2948533"><ele>216.0</ele><time>2026-04-03T12:52:25.899Z</time></trkpt><trkpt lat="47.9113543" lon="7.2946911"><ele>216.0</ele><time>2026-04-03T12:52:26.897Z</time></trkpt><trkpt lat="47.9112782" lon="7.2945375"><ele>216.0</ele><time>2026-04-03T12:52:27.898Z</time></trkpt><trkpt lat="47.9111981" lon="7.2943792"><ele>216.0</ele><time>2026-04-03T12:52:28.897Z</time></trkpt><trkpt lat="47.9111265" lon="7.2942109"><ele>216.0</ele><time>2026-04-03T12:52:29.899Z</time></trkpt><trkpt lat="47.9110491" lon="7.2940464"><ele>216.0</ele><time>2026-04-03T12:52:30.898Z</time></trkpt><trkpt lat="47.9109804" lon="7.2938815"><ele>215.8</ele><time>2026-04-03T12:52:31.899Z</time></trkpt><trkpt lat="47.9109382" lon="7.2937171"><ele>215.60000000000002</ele><time>2026-04-03T12:52:32.898Z</time></trkpt><trkpt lat="47.9109228" lon="7.2935492"><ele>215.4</ele><time>2026-04-03T12:52:33.898Z</time></trkpt><trkpt lat="47.9109181" lon="7.2933909"><ele>215.2</ele><time>2026-04-03T12:52:34.897Z</time></trkpt><trkpt lat="47.9109278" lon="7.2932672"><ele>215.0</ele><time>2026-04-03T12:52:35.898Z</time></trkpt><trkpt lat="47.9109396" lon="7.2931659"><ele>215.4</ele><time>2026-04-03T12:52:36.899Z</time></trkpt><trkpt lat="47.9109707" lon="7.2930671"><ele>215.8</ele><time>2026-04-03T12:52:37.897Z</time></trkpt><trkpt lat="47.9110189" lon="7.2929746"><ele>216.2</ele><time>2026-04-03T12:52:38.898Z</time></trkpt><trkpt lat="47.9110964" lon="7.2928517"><ele>216.6</ele><time>2026-04-03T12:52:40.898Z</time></trkpt><trkpt lat="47.9111723" lon="7.2927379"><ele>217.0</ele><time>2026-04-03T12:52:42.897Z</time></trkpt><trkpt lat="47.9112325" lon="7.2926533"><ele>217.0</ele><time>2026-04-03T12:52:43.899Z</time></trkpt><trkpt lat="47.9113395" lon="7.292529"><ele>217.0</ele><time>2026-04-03T12:52:44.899Z</time></trkpt><trkpt lat="47.9114395" lon="7.2924444"><ele>217.0</ele><time>2026-04-03T12:52:45.897Z</time></trkpt><trkpt lat="47.911538" lon="7.2923729"><ele>217.0</ele><time>2026-04-03T12:52:46.897Z</time></trkpt><trkpt lat="47.9116343" lon="7.292308"><ele>217.0</ele><time>2026-04-03T12:52:47.898Z</time></trkpt><trkpt lat="47.911735" lon="7.2922433"><ele>217.0</ele><time>2026-04-03T12:52:48.898Z</time></trkpt><trkpt lat="47.9118302" lon="7.2921837"><ele>217.0</ele><time>2026-04-03T12:52:49.897Z</time></trkpt><trkpt lat="47.9119175" lon="7.2921185"><ele>217.0</ele><time>2026-04-03T12:52:50.898Z</time></trkpt><trkpt lat="47.9120041" lon="7.2920456"><ele>217.0</ele><time>2026-04-03T12:52:51.9Z</time></trkpt><trkpt lat="47.9120868" lon="7.2919697"><ele>217.0</ele><time>2026-04-03T12:52:52.897Z</time></trkpt><trkpt lat="47.9121631" lon="7.2918835"><ele>217.0</ele><time>2026-04-03T12:52:53.898Z</time></trkpt><trkpt lat="47.9122435" lon="7.2917982"><ele>217.0</ele><time>2026-04-03T12:52:54.899Z</time></trkpt><trkpt lat="47.9123293" lon="7.2917183"><ele>217.0</ele><time>2026-04-03T12:52:55.899Z</time></trkpt><trkpt lat="47.9124231" lon="7.291646"><ele>217.0</ele><time>2026-04-03T12:52:56.899Z</time></trkpt><trkpt lat="47.9125192" lon="7.2915851"><ele>217.0</ele><time>2026-04-03T12:52:57.897Z</time></trkpt><trkpt lat="47.9126152" lon="7.2915277"><ele>217.0</ele><time>2026-04-03T12:52:58.898Z</time></trkpt><trkpt lat="47.9127104" lon="7.2914751"><ele>217.0</ele><time>2026-04-03T12:52:59.898Z</time></trkpt><trkpt lat="47.9128129" lon="7.2914163"><ele>217.0</ele><time>2026-04-03T12:53:00.898Z</time></trkpt><trkpt lat="47.9129112" lon="7.2913709"><ele>217.0</ele><time>2026-04-03T12:53:01.898Z</time></trkpt><trkpt lat="47.9129987" lon="7.2913394"><ele>216.99999999999997</ele><time>2026-04-03T12:53:02.898Z</time></trkpt><trkpt lat="47.9130857" lon="7.2912965"><ele>217.0</ele><time>2026-04-03T12:53:03.898Z</time></trkpt><trkpt lat="47.9131561" lon="7.2912448"><ele>217.0</ele><time>2026-04-03T12:53:04.899Z</time></trkpt><trkpt lat="47.9131641" lon="7.2911369"><ele>217.0</ele><time>2026-04-03T12:53:05.897Z</time></trkpt><trkpt lat="47.9131554" lon="7.2910252"><ele>216.99999999999997</ele><time>2026-04-03T12:53:06.897Z</time></trkpt><trkpt lat="47.9131241" lon="7.2908953"><ele>217.0</ele><time>2026-04-03T12:53:07.898Z</time></trkpt><trkpt lat="47.9130852" lon="7.2907503"><ele>216.75</ele><time>2026-04-03T12:53:08.898Z</time></trkpt><trkpt lat="47.9130413" lon="7.2905757"><ele>216.5</ele><time>2026-04-03T12:53:09.897Z</time></trkpt><trkpt lat="47.9129917" lon="7.2903911"><ele>216.25</ele><time>2026-04-03T12:53:10.898Z</time></trkpt><trkpt lat="47.9129432" lon="7.2902119"><ele>216.0</ele><time>2026-04-03T12:53:11.898Z</time></trkpt><trkpt lat="47.9129071" lon="7.2900363"><ele>216.0</ele><time>2026-04-03T12:53:12.897Z</time></trkpt><trkpt lat="47.9128641" lon="7.2898636"><ele>216.0</ele><time>2026-04-03T12:53:13.897Z</time></trkpt><trkpt lat="47.9128195" lon="7.2896949"><ele>216.0</ele><time>2026-04-03T12:53:14.898Z</time></trkpt><trkpt lat="47.9127765" lon="7.2895122"><ele>216.0</ele><time>2026-04-03T12:53:15.897Z</time></trkpt><trkpt lat="47.9127321" lon="7.289333"><ele>216.0</ele><time>2026-04-03T12:53:16.897Z</time></trkpt><trkpt lat="47.9126912" lon="7.2891454"><ele>216.0</ele><time>2026-04-03T12:53:17.899Z</time></trkpt><trkpt lat="47.912652" lon="7.2889643"><ele>216.0</ele><time>2026-04-03T12:53:18.898Z</time></trkpt><trkpt lat="47.9126124" lon="7.2887745"><ele>216.0</ele><time>2026-04-03T12:53:19.898Z</time></trkpt><trkpt lat="47.9125739" lon="7.2885818"><ele>216.75</ele><time>2026-04-03T12:53:20.898Z</time></trkpt><trkpt lat="47.9125349" lon="7.2883864"><ele>217.5</ele><time>2026-04-03T12:53:21.897Z</time></trkpt><trkpt lat="47.9124964" lon="7.2881953"><ele>218.25</ele><time>2026-04-03T12:53:22.898Z</time></trkpt><trkpt lat="47.9124582" lon="7.2880098"><ele>219.0</ele><time>2026-04-03T12:53:23.898Z</time></trkpt><trkpt lat="47.9124234" lon="7.2878266"><ele>219.0</ele><time>2026-04-03T12:53:24.899Z</time></trkpt><trkpt lat="47.9123852" lon="7.2876477"><ele>219.0</ele><time>2026-04-03T12:53:25.898Z</time></trkpt><trkpt lat="47.9123496" lon="7.2874836"><ele>219.0</ele><time>2026-04-03T12:53:26.897Z</time></trkpt><trkpt lat="47.9123154" lon="7.2873294"><ele>219.0</ele><time>2026-04-03T12:53:27.899Z</time></trkpt><trkpt lat="47.9122827" lon="7.2871877"><ele>219.0</ele><time>2026-04-03T12:53:28.897Z</time></trkpt><trkpt lat="47.9122562" lon="7.2870501"><ele>218.99999999999997</ele><time>2026-04-03T12:53:29.898Z</time></trkpt><trkpt lat="47.912225" lon="7.2869151"><ele>218.99999999999997</ele><time>2026-04-03T12:53:30.898Z</time></trkpt><trkpt lat="47.9121964" lon="7.2867792"><ele>219.0</ele><time>2026-04-03T12:53:31.898Z</time></trkpt><trkpt lat="47.9121557" lon="7.2866263"><ele>219.0</ele><time>2026-04-03T12:53:32.899Z</time></trkpt><trkpt lat="47.9121209" lon="7.2864714"><ele>219.25</ele><time>2026-04-03T12:53:33.897Z</time></trkpt><trkpt lat="47.9120845" lon="7.2863003"><ele>219.5</ele><time>2026-04-03T12:53:34.897Z</time></trkpt><trkpt lat="47.9120414" lon="7.2861191"><ele>219.75</ele><time>2026-04-03T12:53:35.898Z</time></trkpt><trkpt lat="47.9119979" lon="7.2859346"><ele>220.0</ele><time>2026-04-03T12:53:36.898Z</time></trkpt><trkpt lat="47.9119532" lon="7.2857353"><ele>220.33333333333331</ele><time>2026-04-03T12:53:37.898Z</time></trkpt><trkpt lat="47.9119078" lon="7.2855267"><ele>220.66666666666669</ele><time>2026-04-03T12:53:38.899Z</time></trkpt><trkpt lat="47.9118559" lon="7.2853066"><ele>221.0</ele><time>2026-04-03T12:53:39.898Z</time></trkpt><trkpt lat="47.9118026" lon="7.285083"><ele>221.0</ele><time>2026-04-03T12:53:40.897Z</time></trkpt><trkpt lat="47.9117571" lon="7.284856"><ele>221.0</ele><time>2026-04-03T12:53:41.898Z</time></trkpt><trkpt lat="47.9117088" lon="7.2846334"><ele>221.0</ele><time>2026-04-03T12:53:42.897Z</time></trkpt><trkpt lat="47.9116603" lon="7.2844081"><ele>221.0</ele><time>2026-04-03T12:53:43.9Z</time></trkpt><trkpt lat="47.9116117" lon="7.284191"><ele>221.0</ele><time>2026-04-03T12:53:44.897Z</time></trkpt><trkpt lat="47.9115614" lon="7.2839752"><ele>221.0</ele><time>2026-04-03T12:53:45.898Z</time></trkpt><trkpt lat="47.9115167" lon="7.2837793"><ele>221.0</ele><time>2026-04-03T12:53:46.897Z</time></trkpt><trkpt lat="47.9114735" lon="7.2835786"><ele>221.25</ele><time>2026-04-03T12:53:47.899Z</time></trkpt><trkpt lat="47.9114296" lon="7.2833777"><ele>221.5</ele><time>2026-04-03T12:53:48.897Z</time></trkpt><trkpt lat="47.9113912" lon="7.2831873"><ele>221.75</ele><time>2026-04-03T12:53:49.898Z</time></trkpt><trkpt lat="47.9113511" lon="7.2830031"><ele>222.0</ele><time>2026-04-03T12:53:50.898Z</time></trkpt><trkpt lat="47.9113064" lon="7.2828273"><ele>222.25</ele><time>2026-04-03T12:53:51.899Z</time></trkpt><trkpt lat="47.9112664" lon="7.2826431"><ele>222.5</ele><time>2026-04-03T12:53:52.898Z</time></trkpt><trkpt lat="47.9112232" lon="7.2824602"><ele>222.75</ele><time>2026-04-03T12:53:53.899Z</time></trkpt><trkpt lat="47.91118" lon="7.2822713"><ele>223.0</ele><time>2026-04-03T12:53:54.897Z</time></trkpt><trkpt lat="47.9111432" lon="7.282079"><ele>223.0</ele><time>2026-04-03T12:53:55.899Z</time></trkpt><trkpt lat="47.9111" lon="7.2818934"><ele>223.0</ele><time>2026-04-03T12:53:56.899Z</time></trkpt><trkpt lat="47.9110587" lon="7.2817162"><ele>223.0</ele><time>2026-04-03T12:53:57.899Z</time></trkpt><trkpt lat="47.9110171" lon="7.2815453"><ele>223.0</ele><time>2026-04-03T12:53:58.898Z</time></trkpt><trkpt lat="47.9109825" lon="7.2813886"><ele>222.75</ele><time>2026-04-03T12:53:59.899Z</time></trkpt><trkpt lat="47.9109489" lon="7.28123"><ele>222.5</ele><time>2026-04-03T12:54:00.898Z</time></trkpt><trkpt lat="47.9109097" lon="7.281067"><ele>222.25</ele><time>2026-04-03T12:54:01.898Z</time></trkpt><trkpt lat="47.9108748" lon="7.2809014"><ele>222.0</ele><time>2026-04-03T12:54:02.897Z</time></trkpt><trkpt lat="47.9108432" lon="7.2807471"><ele>222.5</ele><time>2026-04-03T12:54:03.898Z</time></trkpt><trkpt lat="47.9108042" lon="7.2805803"><ele>223.0</ele><time>2026-04-03T12:54:04.897Z</time></trkpt><trkpt lat="47.9107609" lon="7.2803978"><ele>223.5</ele><time>2026-04-03T12:54:05.899Z</time></trkpt><trkpt lat="47.9107201" lon="7.2802053"><ele>224.0</ele><time>2026-04-03T12:54:06.899Z</time></trkpt><trkpt lat="47.9106809" lon="7.2800088"><ele>224.0</ele><time>2026-04-03T12:54:07.897Z</time></trkpt><trkpt lat="47.9106514" lon="7.2798083"><ele>224.0</ele><time>2026-04-03T12:54:08.898Z</time></trkpt><trkpt lat="47.9106221" lon="7.2796232"><ele>224.0</ele><time>2026-04-03T12:54:09.897Z</time></trkpt><trkpt lat="47.9106009" lon="7.2794248"><ele>224.0</ele><time>2026-04-03T12:54:10.897Z</time></trkpt><trkpt lat="47.9105747" lon="7.2792275"><ele>224.0</ele><time>2026-04-03T12:54:11.898Z</time></trkpt><trkpt lat="47.9105583" lon="7.2790128"><ele>224.0</ele><time>2026-04-03T12:54:12.898Z</time></trkpt><trkpt lat="47.9105389" lon="7.2787917"><ele>224.0</ele><time>2026-04-03T12:54:13.898Z</time></trkpt><trkpt lat="47.9105263" lon="7.278537"><ele>224.0</ele><time>2026-04-03T12:54:14.897Z</time></trkpt><trkpt lat="47.9105108" lon="7.2782408"><ele>224.0</ele><time>2026-04-03T12:54:15.898Z</time></trkpt><trkpt lat="47.9104929" lon="7.2779187"><ele>224.0</ele><time>2026-04-03T12:54:16.898Z</time></trkpt><trkpt lat="47.9104708" lon="7.2775741"><ele>224.33333333333334</ele><time>2026-04-03T12:54:17.897Z</time></trkpt><trkpt lat="47.9104561" lon="7.2772288"><ele>224.66666666666669</ele><time>2026-04-03T12:54:18.899Z</time></trkpt><trkpt lat="47.9104378" lon="7.2769059"><ele>225.0</ele><time>2026-04-03T12:54:19.898Z</time></trkpt><trkpt lat="47.9104175" lon="7.2765866"><ele>225.0</ele><time>2026-04-03T12:54:20.898Z</time></trkpt><trkpt lat="47.9103977" lon="7.2762779"><ele>225.0</ele><time>2026-04-03T12:54:21.898Z</time></trkpt><trkpt lat="47.9103801" lon="7.2759599"><ele>225.0</ele><time>2026-04-03T12:54:22.898Z</time></trkpt><trkpt lat="47.9103643" lon="7.2756196"><ele>225.33333333333331</ele><time>2026-04-03T12:54:23.897Z</time></trkpt><trkpt lat="47.9103528" lon="7.2752975"><ele>225.66666666666666</ele><time>2026-04-03T12:54:24.897Z</time></trkpt><trkpt lat="47.9103436" lon="7.2749911"><ele>226.0</ele><time>2026-04-03T12:54:25.897Z</time></trkpt><trkpt lat="47.9103383" lon="7.2746954"><ele>226.0</ele><time>2026-04-03T12:54:26.897Z</time></trkpt><trkpt lat="47.9103448" lon="7.2743728"><ele>226.0</ele><time>2026-04-03T12:54:27.897Z</time></trkpt><trkpt lat="47.9103672" lon="7.2740415"><ele>226.0</ele><time>2026-04-03T12:54:28.897Z</time></trkpt><trkpt lat="47.9103993" lon="7.2737076"><ele>226.33333333333331</ele><time>2026-04-03T12:54:29.897Z</time></trkpt><trkpt lat="47.9104238" lon="7.2733876"><ele>226.66666666666669</ele><time>2026-04-03T12:54:30.899Z</time></trkpt><trkpt lat="47.9104454" lon="7.2730704"><ele>227.0</ele><time>2026-04-03T12:54:31.897Z</time></trkpt><trkpt lat="47.9104704" lon="7.2727753"><ele>227.33333333333334</ele><time>2026-04-03T12:54:32.897Z</time></trkpt><trkpt lat="47.9104943" lon="7.2724745"><ele>227.66666666666669</ele><time>2026-04-03T12:54:33.898Z</time></trkpt><trkpt lat="47.9105216" lon="7.2721711"><ele>228.0</ele><time>2026-04-03T12:54:34.899Z</time></trkpt><trkpt lat="47.910543" lon="7.271862"><ele>228.0</ele><time>2026-04-03T12:54:35.898Z</time></trkpt><trkpt lat="47.9105488" lon="7.2715439"><ele>228.0</ele><time>2026-04-03T12:54:36.898Z</time></trkpt><trkpt lat="47.9105419" lon="7.2712149"><ele>228.0</ele><time>2026-04-03T12:54:37.897Z</time></trkpt><trkpt lat="47.9105366" lon="7.2708727"><ele>228.0</ele><time>2026-04-03T12:54:38.898Z</time></trkpt><trkpt lat="47.9105283" lon="7.2705301"><ele>228.0</ele><time>2026-04-03T12:54:39.897Z</time></trkpt><trkpt lat="47.9105233" lon="7.2701979"><ele>228.0</ele><time>2026-04-03T12:54:40.897Z</time></trkpt><trkpt lat="47.9105191" lon="7.2698807"><ele>228.0</ele><time>2026-04-03T12:54:41.897Z</time></trkpt><trkpt lat="47.9105166" lon="7.2695832"><ele>228.0</ele><time>2026-04-03T12:54:42.897Z</time></trkpt><trkpt lat="47.9105115" lon="7.2692855"><ele>228.33333333333331</ele><time>2026-04-03T12:54:43.899Z</time></trkpt><trkpt lat="47.9105083" lon="7.2689649"><ele>228.66666666666666</ele><time>2026-04-03T12:54:44.897Z</time></trkpt><trkpt lat="47.9105057" lon="7.2686619"><ele>229.0</ele><time>2026-04-03T12:54:45.897Z</time></trkpt><trkpt lat="47.9105084" lon="7.2683754"><ele>229.66666666666666</ele><time>2026-04-03T12:54:46.899Z</time></trkpt><trkpt lat="47.910507" lon="7.2680956"><ele>230.33333333333331</ele><time>2026-04-03T12:54:47.898Z</time></trkpt><trkpt lat="47.9105147" lon="7.2678222"><ele>231.0</ele><time>2026-04-03T12:54:48.897Z</time></trkpt><trkpt lat="47.910513" lon="7.2675483"><ele>231.33333333333331</ele><time>2026-04-03T12:54:49.898Z</time></trkpt><trkpt lat="47.9105201" lon="7.2672741"><ele>231.66666666666666</ele><time>2026-04-03T12:54:50.898Z</time></trkpt><trkpt lat="47.9105156" lon="7.2669973"><ele>232.0</ele><time>2026-04-03T12:54:51.897Z</time></trkpt><trkpt lat="47.9105153" lon="7.2667044"><ele>232.0</ele><time>2026-04-03T12:54:52.897Z</time></trkpt><trkpt lat="47.9105143" lon="7.2664026"><ele>232.0</ele><time>2026-04-03T12:54:53.897Z</time></trkpt><trkpt lat="47.9105085" lon="7.2661158"><ele>232.0</ele><time>2026-04-03T12:54:54.898Z</time></trkpt><trkpt lat="47.9105051" lon="7.2658421"><ele>232.0</ele><time>2026-04-03T12:54:55.897Z</time></trkpt><trkpt lat="47.9104995" lon="7.2655784"><ele>232.0</ele><time>2026-04-03T12:54:56.899Z</time></trkpt><trkpt lat="47.9104894" lon="7.2653151"><ele>232.0</ele><time>2026-04-03T12:54:57.898Z</time></trkpt><trkpt lat="47.9104782" lon="7.2650358"><ele>232.0</ele><time>2026-04-03T12:54:58.898Z</time></trkpt><trkpt lat="47.9104589" lon="7.2647604"><ele>232.0</ele><time>2026-04-03T12:54:59.898Z</time></trkpt><trkpt lat="47.910434" lon="7.2644842"><ele>232.0</ele><time>2026-04-03T12:55:00.898Z</time></trkpt><trkpt lat="47.9104019" lon="7.2642131"><ele>233.33333333333331</ele><time>2026-04-03T12:55:01.899Z</time></trkpt><trkpt lat="47.9103659" lon="7.2639365"><ele>234.66666666666669</ele><time>2026-04-03T12:55:02.898Z</time></trkpt><trkpt lat="47.9103347" lon="7.2636591"><ele>236.0</ele><time>2026-04-03T12:55:03.897Z</time></trkpt><trkpt lat="47.9102976" lon="7.2633882"><ele>236.33333333333334</ele><time>2026-04-03T12:55:04.897Z</time></trkpt><trkpt lat="47.910257" lon="7.2631092"><ele>236.66666666666669</ele><time>2026-04-03T12:55:05.898Z</time></trkpt><trkpt lat="47.9102043" lon="7.2628391"><ele>237.0</ele><time>2026-04-03T12:55:06.899Z</time></trkpt><trkpt lat="47.9101505" lon="7.2625873"><ele>237.0</ele><time>2026-04-03T12:55:07.899Z</time></trkpt><trkpt lat="47.9101002" lon="7.2623172"><ele>237.0</ele><time>2026-04-03T12:55:08.898Z</time></trkpt><trkpt lat="47.9100492" lon="7.2620451"><ele>237.0</ele><time>2026-04-03T12:55:09.898Z</time></trkpt><trkpt lat="47.9099988" lon="7.2617828"><ele>237.0</ele><time>2026-04-03T12:55:10.897Z</time></trkpt><trkpt lat="47.9099501" lon="7.2615091"><ele>237.0</ele><time>2026-04-03T12:55:11.897Z</time></trkpt><trkpt lat="47.9099005" lon="7.2612354"><ele>237.0</ele><time>2026-04-03T12:55:12.898Z</time></trkpt><trkpt lat="47.9098529" lon="7.2609521"><ele>237.0</ele><time>2026-04-03T12:55:13.897Z</time></trkpt><trkpt lat="47.9098021" lon="7.2606497"><ele>237.0</ele><time>2026-04-03T12:55:14.898Z</time></trkpt><trkpt lat="47.9097522" lon="7.260361"><ele>237.0</ele><time>2026-04-03T12:55:15.899Z</time></trkpt><trkpt lat="47.9097017" lon="7.2600732"><ele>237.33333333333331</ele><time>2026-04-03T12:55:16.898Z</time></trkpt><trkpt lat="47.9096511" lon="7.259794"><ele>237.66666666666666</ele><time>2026-04-03T12:55:17.899Z</time></trkpt><trkpt lat="47.9096108" lon="7.2595198"><ele>238.0</ele><time>2026-04-03T12:55:18.897Z</time></trkpt><trkpt lat="47.9095747" lon="7.2592438"><ele>238.0</ele><time>2026-04-03T12:55:19.898Z</time></trkpt><trkpt lat="47.9095395" lon="7.2589761"><ele>238.0</ele><time>2026-04-03T12:55:20.897Z</time></trkpt><trkpt lat="47.9095023" lon="7.2586938"><ele>238.0</ele><time>2026-04-03T12:55:21.898Z</time></trkpt><trkpt lat="47.9094711" lon="7.2584339"><ele>238.66666666666666</ele><time>2026-04-03T12:55:22.897Z</time></trkpt><trkpt lat="47.9094437" lon="7.2581899"><ele>239.33333333333331</ele><time>2026-04-03T12:55:23.899Z</time></trkpt><trkpt lat="47.9094145" lon="7.257967"><ele>240.0</ele><time>2026-04-03T12:55:24.897Z</time></trkpt><trkpt lat="47.9093911" lon="7.2577653"><ele>240.0</ele><time>2026-04-03T12:55:25.898Z</time></trkpt><trkpt lat="47.9093725" lon="7.2575786"><ele>240.0</ele><time>2026-04-03T12:55:26.897Z</time></trkpt><trkpt lat="47.9093636" lon="7.2574168"><ele>240.0</ele><time>2026-04-03T12:55:27.898Z</time></trkpt><trkpt lat="47.9093659" lon="7.257269"><ele>240.0</ele><time>2026-04-03T12:55:28.897Z</time></trkpt><trkpt lat="47.9094009" lon="7.257126"><ele>240.0</ele><time>2026-04-03T12:55:29.898Z</time></trkpt><trkpt lat="47.9094708" lon="7.2569979"><ele>240.0</ele><time>2026-04-03T12:55:30.898Z</time></trkpt><trkpt lat="47.9095439" lon="7.2568579"><ele>240.0</ele><time>2026-04-03T12:55:31.898Z</time></trkpt><trkpt lat="47.9095882" lon="7.2566986"><ele>240.0</ele><time>2026-04-03T12:55:32.898Z</time></trkpt><trkpt lat="47.909596" lon="7.2565376"><ele>240.0</ele><time>2026-04-03T12:55:33.898Z</time></trkpt><trkpt lat="47.9095618" lon="7.2563798"><ele>240.0</ele><time>2026-04-03T12:55:34.898Z</time></trkpt><trkpt lat="47.9094928" lon="7.2562486"><ele>240.0</ele><time>2026-04-03T12:55:35.897Z</time></trkpt><trkpt lat="47.90939" lon="7.2561715"><ele>240.0</ele><time>2026-04-03T12:55:36.898Z</time></trkpt><trkpt lat="47.9092749" lon="7.2561053"><ele>240.0</ele><time>2026-04-03T12:55:37.899Z</time></trkpt><trkpt lat="47.9091714" lon="7.2559888"><ele>240.0</ele><time>2026-04-03T12:55:38.898Z</time></trkpt><trkpt lat="47.9091012" lon="7.2558131"><ele>240.0</ele><time>2026-04-03T12:55:39.9Z</time></trkpt><trkpt lat="47.9090527" lon="7.2556133"><ele>240.0</ele><time>2026-04-03T12:55:40.898Z</time></trkpt><trkpt lat="47.909007" lon="7.25542"><ele>240.0</ele><time>2026-04-03T12:55:41.897Z</time></trkpt><trkpt lat="47.9089669" lon="7.2552055"><ele>240.66666666666669</ele><time>2026-04-03T12:55:42.9Z</time></trkpt><trkpt lat="47.9089221" lon="7.2549918"><ele>241.33333333333334</ele><time>2026-04-03T12:55:43.899Z</time></trkpt><trkpt lat="47.9088505" lon="7.2547753"><ele>242.0</ele><time>2026-04-03T12:55:44.898Z</time></trkpt><trkpt lat="47.9087724" lon="7.254549"><ele>242.0</ele><time>2026-04-03T12:55:45.897Z</time></trkpt><trkpt lat="47.9086882" lon="7.2543206"><ele>242.0</ele><time>2026-04-03T12:55:46.898Z</time></trkpt><trkpt lat="47.9086093" lon="7.2541045"><ele>242.0</ele><time>2026-04-03T12:55:47.898Z</time></trkpt><trkpt lat="47.9085283" lon="7.2539067"><ele>242.0</ele><time>2026-04-03T12:55:48.898Z</time></trkpt><trkpt lat="47.9084515" lon="7.2537107"><ele>242.0</ele><time>2026-04-03T12:55:49.898Z</time></trkpt><trkpt lat="47.908375" lon="7.2535033"><ele>242.0</ele><time>2026-04-03T12:55:50.899Z</time></trkpt><trkpt lat="47.9082934" lon="7.2533042"><ele>243.0</ele><time>2026-04-03T12:55:51.898Z</time></trkpt><trkpt lat="47.9082121" lon="7.2531035"><ele>244.0</ele><time>2026-04-03T12:55:52.898Z</time></trkpt><trkpt lat="47.9081364" lon="7.2528898"><ele>245.0</ele><time>2026-04-03T12:55:53.897Z</time></trkpt><trkpt lat="47.9080604" lon="7.2526667"><ele>245.0</ele><time>2026-04-03T12:55:54.898Z</time></trkpt><trkpt lat="47.9079842" lon="7.2524394"><ele>245.0</ele><time>2026-04-03T12:55:55.897Z</time></trkpt><trkpt lat="47.9079123" lon="7.2522088"><ele>245.0</ele><time>2026-04-03T12:55:56.897Z</time></trkpt><trkpt lat="47.9078461" lon="7.2519694"><ele>245.33333333333334</ele><time>2026-04-03T12:55:57.897Z</time></trkpt><trkpt lat="47.9077802" lon="7.25174"><ele>245.66666666666669</ele><time>2026-04-03T12:55:58.898Z</time></trkpt><trkpt lat="47.907725" lon="7.2515097"><ele>246.0</ele><time>2026-04-03T12:55:59.897Z</time></trkpt><trkpt lat="47.9076781" lon="7.2512885"><ele>246.33333333333331</ele><time>2026-04-03T12:56:00.898Z</time></trkpt><trkpt lat="47.9076383" lon="7.2510606"><ele>246.66666666666666</ele><time>2026-04-03T12:56:01.897Z</time></trkpt><trkpt lat="47.9076011" lon="7.2508327"><ele>247.0</ele><time>2026-04-03T12:56:02.898Z</time></trkpt><trkpt lat="47.9075617" lon="7.250601"><ele>247.75</ele><time>2026-04-03T12:56:03.897Z</time></trkpt><trkpt lat="47.9075248" lon="7.2503918"><ele>248.5</ele><time>2026-04-03T12:56:04.897Z</time></trkpt><trkpt lat="47.9074881" lon="7.2501966"><ele>249.25</ele><time>2026-04-03T12:56:05.897Z</time></trkpt><trkpt lat="47.9074546" lon="7.2500114"><ele>250.0</ele><time>2026-04-03T12:56:06.899Z</time></trkpt><trkpt lat="47.907427" lon="7.2498269"><ele>250.25</ele><time>2026-04-03T12:56:07.898Z</time></trkpt><trkpt lat="47.9073903" lon="7.2496355"><ele>250.5</ele><time>2026-04-03T12:56:08.897Z</time></trkpt><trkpt lat="47.9073467" lon="7.2494385"><ele>250.75</ele><time>2026-04-03T12:56:09.899Z</time></trkpt><trkpt lat="47.9073029" lon="7.249238"><ele>251.0</ele><time>2026-04-03T12:56:10.898Z</time></trkpt><trkpt lat="47.9072593" lon="7.2490351"><ele>251.0</ele><time>2026-04-03T12:56:11.898Z</time></trkpt><trkpt lat="47.9072178" lon="7.2488428"><ele>251.0</ele><time>2026-04-03T12:56:12.898Z</time></trkpt><trkpt lat="47.9071755" lon="7.2486531"><ele>251.0</ele><time>2026-04-03T12:56:13.898Z</time></trkpt><trkpt lat="47.9071275" lon="7.2484721"><ele>251.0</ele><time>2026-04-03T12:56:14.897Z</time></trkpt><trkpt lat="47.9070877" lon="7.248288"><ele>251.0</ele><time>2026-04-03T12:56:15.897Z</time></trkpt><trkpt lat="47.9070388" lon="7.2481059"><ele>251.0</ele><time>2026-04-03T12:56:16.898Z</time></trkpt><trkpt lat="47.9069906" lon="7.2479264"><ele>251.0</ele><time>2026-04-03T12:56:17.899Z</time></trkpt><trkpt lat="47.9069444" lon="7.2477341"><ele>251.0</ele><time>2026-04-03T12:56:18.898Z</time></trkpt><trkpt lat="47.9069038" lon="7.2475403"><ele>251.0</ele><time>2026-04-03T12:56:19.898Z</time></trkpt><trkpt lat="47.9068566" lon="7.2473443"><ele>251.0</ele><time>2026-04-03T12:56:20.897Z</time></trkpt><trkpt lat="47.9068073" lon="7.2471409"><ele>251.0</ele><time>2026-04-03T12:56:21.897Z</time></trkpt><trkpt lat="47.9067577" lon="7.246919"><ele>251.0</ele><time>2026-04-03T12:56:22.897Z</time></trkpt><trkpt lat="47.9067108" lon="7.24669"><ele>251.33333333333334</ele><time>2026-04-03T12:56:23.897Z</time></trkpt><trkpt lat="47.9066564" lon="7.246455"><ele>251.66666666666669</ele><time>2026-04-03T12:56:24.898Z</time></trkpt><trkpt lat="47.906601" lon="7.2462352"><ele>252.0</ele><time>2026-04-03T12:56:25.897Z</time></trkpt><trkpt lat="47.9065526" lon="7.246026"><ele>252.0</ele><time>2026-04-03T12:56:26.899Z</time></trkpt><trkpt lat="47.9065041" lon="7.2458168"><ele>252.0</ele><time>2026-04-03T12:56:27.898Z</time></trkpt><trkpt lat="47.9064641" lon="7.2456062"><ele>252.0</ele><time>2026-04-03T12:56:28.898Z</time></trkpt><trkpt lat="47.9064205" lon="7.2453911"><ele>252.0</ele><time>2026-04-03T12:56:29.897Z</time></trkpt><trkpt lat="47.9063718" lon="7.2451737"><ele>252.0</ele><time>2026-04-03T12:56:30.899Z</time></trkpt><trkpt lat="47.9063198" lon="7.2449638"><ele>252.0</ele><time>2026-04-03T12:56:31.897Z</time></trkpt><trkpt lat="47.9062691" lon="7.2447493"><ele>252.0</ele><time>2026-04-03T12:56:32.898Z</time></trkpt><trkpt lat="47.9062195" lon="7.2445308"><ele>252.0</ele><time>2026-04-03T12:56:33.897Z</time></trkpt><trkpt lat="47.90617" lon="7.2443134"><ele>252.0</ele><time>2026-04-03T12:56:34.898Z</time></trkpt><trkpt lat="47.9061245" lon="7.2441135"><ele>252.0</ele><time>2026-04-03T12:56:35.897Z</time></trkpt><trkpt lat="47.9060904" lon="7.2439239"><ele>252.0</ele><time>2026-04-03T12:56:36.897Z</time></trkpt><trkpt lat="47.9060595" lon="7.243749"><ele>252.0</ele><time>2026-04-03T12:56:37.897Z</time></trkpt><trkpt lat="47.9060392" lon="7.243569"><ele>252.0</ele><time>2026-04-03T12:56:38.897Z</time></trkpt><trkpt lat="47.9060172" lon="7.2433766"><ele>252.0</ele><time>2026-04-03T12:56:39.899Z</time></trkpt><trkpt lat="47.9059946" lon="7.2432041"><ele>252.0</ele><time>2026-04-03T12:56:40.897Z</time></trkpt><trkpt lat="47.9059741" lon="7.2430504"><ele>252.0</ele><time>2026-04-03T12:56:41.897Z</time></trkpt><trkpt lat="47.9059591" lon="7.2429135"><ele>252.0</ele><time>2026-04-03T12:56:42.897Z</time></trkpt><trkpt lat="47.9059518" lon="7.2427904"><ele>252.0</ele><time>2026-04-03T12:56:43.898Z</time></trkpt><trkpt lat="47.9059582" lon="7.2426814"><ele>252.0</ele><time>2026-04-03T12:56:44.899Z</time></trkpt><trkpt lat="47.9059779" lon="7.2425581"><ele>252.0</ele><time>2026-04-03T12:56:45.897Z</time></trkpt><trkpt lat="47.906006" lon="7.2424166"><ele>252.0</ele><time>2026-04-03T12:56:46.897Z</time></trkpt><trkpt lat="47.9060072" lon="7.242293"><ele>252.33333333333334</ele><time>2026-04-03T12:56:47.899Z</time></trkpt><trkpt lat="47.9059772" lon="7.2421999"><ele>252.66666666666669</ele><time>2026-04-03T12:56:48.899Z</time></trkpt><trkpt lat="47.9059283" lon="7.2421155"><ele>253.0</ele><time>2026-04-03T12:56:49.897Z</time></trkpt><trkpt lat="47.9058901" lon="7.2420102"><ele>253.33333333333334</ele><time>2026-04-03T12:56:50.897Z</time></trkpt><trkpt lat="47.9058649" lon="7.2418971"><ele>253.66666666666669</ele><time>2026-04-03T12:56:51.899Z</time></trkpt><trkpt lat="47.9058406" lon="7.2417666"><ele>254.0</ele><time>2026-04-03T12:56:52.897Z</time></trkpt><trkpt lat="47.9058181" lon="7.2416156"><ele>255.0</ele><time>2026-04-03T12:56:53.898Z</time></trkpt><trkpt lat="47.9057994" lon="7.2414487"><ele>256.0</ele><time>2026-04-03T12:56:54.897Z</time></trkpt><trkpt lat="47.905785" lon="7.2412634"><ele>257.0</ele><time>2026-04-03T12:56:55.899Z</time></trkpt><trkpt lat="47.9057788" lon="7.2410586"><ele>258.0</ele><time>2026-04-03T12:56:56.898Z</time></trkpt><trkpt lat="47.9057721" lon="7.2408352"><ele>257.75</ele><time>2026-04-03T12:56:57.897Z</time></trkpt><trkpt lat="47.9057757" lon="7.2406161"><ele>257.5</ele><time>2026-04-03T12:56:58.897Z</time></trkpt><trkpt lat="47.9057855" lon="7.240394"><ele>257.25</ele><time>2026-04-03T12:56:59.898Z</time></trkpt><trkpt lat="47.9057968" lon="7.2401688"><ele>257.0</ele><time>2026-04-03T12:57:00.897Z</time></trkpt><trkpt lat="47.9058143" lon="7.2399351"><ele>258.0</ele><time>2026-04-03T12:57:01.898Z</time></trkpt><trkpt lat="47.9058343" lon="7.239701"><ele>259.0</ele><time>2026-04-03T12:57:02.898Z</time></trkpt><trkpt lat="47.9058545" lon="7.2394762"><ele>260.0</ele><time>2026-04-03T12:57:03.899Z</time></trkpt><trkpt lat="47.9058718" lon="7.2392482"><ele>260.0</ele><time>2026-04-03T12:57:04.898Z</time></trkpt><trkpt lat="47.9058757" lon="7.2390169"><ele>260.0</ele><time>2026-04-03T12:57:05.897Z</time></trkpt><trkpt lat="47.9058707" lon="7.2387775"><ele>260.0</ele><time>2026-04-03T12:57:06.899Z</time></trkpt><trkpt lat="47.9058672" lon="7.2385424"><ele>260.0</ele><time>2026-04-03T12:57:07.897Z</time></trkpt><trkpt lat="47.9058595" lon="7.2383029"><ele>260.0</ele><time>2026-04-03T12:57:08.897Z</time></trkpt><trkpt lat="47.9058498" lon="7.2380587"><ele>260.0</ele><time>2026-04-03T12:57:09.897Z</time></trkpt><trkpt lat="47.9058409" lon="7.2377995"><ele>260.6666666666667</ele><time>2026-04-03T12:57:10.898Z</time></trkpt><trkpt lat="47.9058298" lon="7.2375262"><ele>261.3333333333333</ele><time>2026-04-03T12:57:11.897Z</time></trkpt><trkpt lat="47.9058253" lon="7.237281"><ele>262.0</ele><time>2026-04-03T12:57:12.897Z</time></trkpt><trkpt lat="47.9058239" lon="7.2370419"><ele>262.66666666666663</ele><time>2026-04-03T12:57:13.897Z</time></trkpt><trkpt lat="47.9058156" lon="7.2368006"><ele>263.3333333333333</ele><time>2026-04-03T12:57:14.897Z</time></trkpt><trkpt lat="47.9058124" lon="7.2365577"><ele>264.0</ele><time>2026-04-03T12:57:15.897Z</time></trkpt><trkpt lat="47.9058107" lon="7.2363138"><ele>264.0</ele><time>2026-04-03T12:57:16.897Z</time></trkpt><trkpt lat="47.9058057" lon="7.2360599"><ele>264.0</ele><time>2026-04-03T12:57:17.898Z</time></trkpt><trkpt lat="47.9058009" lon="7.235806"><ele>264.0</ele><time>2026-04-03T12:57:18.898Z</time></trkpt><trkpt lat="47.9057971" lon="7.2355386"><ele>263.6666666666667</ele><time>2026-04-03T12:57:19.898Z</time></trkpt><trkpt lat="47.9057878" lon="7.2352737"><ele>263.33333333333337</ele><time>2026-04-03T12:57:20.897Z</time></trkpt><trkpt lat="47.9057787" lon="7.2350057"><ele>263.0</ele><time>2026-04-03T12:57:21.897Z</time></trkpt><trkpt lat="47.9057763" lon="7.234725"><ele>263.0</ele><time>2026-04-03T12:57:22.897Z</time></trkpt><trkpt lat="47.9057729" lon="7.2344607"><ele>263.0</ele><time>2026-04-03T12:57:23.898Z</time></trkpt><trkpt lat="47.9057648" lon="7.2342019"><ele>263.0</ele><time>2026-04-03T12:57:24.899Z</time></trkpt><trkpt lat="47.9057501" lon="7.2339154"><ele>263.6666666666667</ele><time>2026-04-03T12:57:25.898Z</time></trkpt><trkpt lat="47.9057308" lon="7.2336256"><ele>264.3333333333333</ele><time>2026-04-03T12:57:26.897Z</time></trkpt><trkpt lat="47.9057062" lon="7.2333449"><ele>265.0</ele><time>2026-04-03T12:57:27.897Z</time></trkpt><trkpt lat="47.9056836" lon="7.2331027"><ele>265.3333333333333</ele><time>2026-04-03T12:57:28.897Z</time></trkpt><trkpt lat="47.9056628" lon="7.2328683"><ele>265.6666666666667</ele><time>2026-04-03T12:57:29.898Z</time></trkpt><trkpt lat="47.9056394" lon="7.2326372"><ele>266.0</ele><time>2026-04-03T12:57:30.898Z</time></trkpt><trkpt lat="47.9056097" lon="7.2324061"><ele>265.6666666666667</ele><time>2026-04-03T12:57:31.898Z</time></trkpt><trkpt lat="47.9055794" lon="7.2321704"><ele>265.3333333333333</ele><time>2026-04-03T12:57:32.898Z</time></trkpt><trkpt lat="47.9055491" lon="7.2319304"><ele>265.0</ele><time>2026-04-03T12:57:33.898Z</time></trkpt><trkpt lat="47.9055198" lon="7.2316808"><ele>265.66666666666663</ele><time>2026-04-03T12:57:34.898Z</time></trkpt><trkpt lat="47.9054984" lon="7.2314222"><ele>266.3333333333333</ele><time>2026-04-03T12:57:35.899Z</time></trkpt><trkpt lat="47.9054759" lon="7.2311656"><ele>267.0</ele><time>2026-04-03T12:57:36.897Z</time></trkpt><trkpt lat="47.9054584" lon="7.2309039"><ele>267.0</ele><time>2026-04-03T12:57:37.897Z</time></trkpt><trkpt lat="47.905439" lon="7.2306563"><ele>267.0</ele><time>2026-04-03T12:57:38.897Z</time></trkpt><trkpt lat="47.9054206" lon="7.2304233"><ele>267.0</ele><time>2026-04-03T12:57:39.897Z</time></trkpt><trkpt lat="47.9054024" lon="7.2302026"><ele>267.5</ele><time>2026-04-03T12:57:40.898Z</time></trkpt><trkpt lat="47.9053803" lon="7.2299771"><ele>268.0</ele><time>2026-04-03T12:57:41.898Z</time></trkpt><trkpt lat="47.9053613" lon="7.2297547"><ele>268.5</ele><time>2026-04-03T12:57:42.897Z</time></trkpt><trkpt lat="47.9053337" lon="7.2295546"><ele>269.0</ele><time>2026-04-03T12:57:43.899Z</time></trkpt><trkpt lat="47.9053059" lon="7.2293661"><ele>269.2</ele><time>2026-04-03T12:57:44.899Z</time></trkpt><trkpt lat="47.9052775" lon="7.229213"><ele>269.4</ele><time>2026-04-03T12:57:45.898Z</time></trkpt><trkpt lat="47.9052469" lon="7.2290659"><ele>269.6</ele><time>2026-04-03T12:57:46.897Z</time></trkpt><trkpt lat="47.9052195" lon="7.2289197"><ele>269.8</ele><time>2026-04-03T12:57:47.898Z</time></trkpt><trkpt lat="47.9051917" lon="7.2287663"><ele>270.0</ele><time>2026-04-03T12:57:48.898Z</time></trkpt><trkpt lat="47.9051644" lon="7.2286121"><ele>270.4</ele><time>2026-04-03T12:57:49.897Z</time></trkpt><trkpt lat="47.9051364" lon="7.2284552"><ele>270.8</ele><time>2026-04-03T12:57:50.898Z</time></trkpt><trkpt lat="47.9051116" lon="7.2282915"><ele>271.2</ele><time>2026-04-03T12:57:51.898Z</time></trkpt><trkpt lat="47.9050817" lon="7.2281354"><ele>271.6</ele><time>2026-04-03T12:57:52.898Z</time></trkpt><trkpt lat="47.9050551" lon="7.2279795"><ele>272.0</ele><time>2026-04-03T12:57:53.898Z</time></trkpt><trkpt lat="47.9050268" lon="7.22782"><ele>272.0</ele><time>2026-04-03T12:57:54.899Z</time></trkpt><trkpt lat="47.9049995" lon="7.2276596"><ele>272.0</ele><time>2026-04-03T12:57:55.898Z</time></trkpt><trkpt lat="47.9049716" lon="7.2275024"><ele>272.0</ele><time>2026-04-03T12:57:56.897Z</time></trkpt><trkpt lat="47.9049423" lon="7.227341"><ele>272.0</ele><time>2026-04-03T12:57:57.898Z</time></trkpt><trkpt lat="47.9049128" lon="7.2271835"><ele>272.0</ele><time>2026-04-03T12:57:58.897Z</time></trkpt><trkpt lat="47.904883" lon="7.2270253"><ele>272.25</ele><time>2026-04-03T12:57:59.9Z</time></trkpt><trkpt lat="47.9048597" lon="7.2268555"><ele>272.5</ele><time>2026-04-03T12:58:00.899Z</time></trkpt><trkpt lat="47.9048416" lon="7.2266754"><ele>272.75</ele><time>2026-04-03T12:58:01.897Z</time></trkpt><trkpt lat="47.9048368" lon="7.2264693"><ele>273.0</ele><time>2026-04-03T12:58:02.899Z</time></trkpt><trkpt lat="47.9048334" lon="7.2262806"><ele>273.5</ele><time>2026-04-03T12:58:03.897Z</time></trkpt><trkpt lat="47.9048338" lon="7.2261075"><ele>274.0</ele><time>2026-04-03T12:58:04.897Z</time></trkpt><trkpt lat="47.9048352" lon="7.2259315"><ele>274.5</ele><time>2026-04-03T12:58:05.898Z</time></trkpt><trkpt lat="47.9048371" lon="7.2257551"><ele>275.0</ele><time>2026-04-03T12:58:06.898Z</time></trkpt><trkpt lat="47.9048437" lon="7.2255838"><ele>275.75</ele><time>2026-04-03T12:58:07.899Z</time></trkpt><trkpt lat="47.9048448" lon="7.225414"><ele>276.5</ele><time>2026-04-03T12:58:08.898Z</time></trkpt><trkpt lat="47.9048477" lon="7.2252373"><ele>277.25</ele><time>2026-04-03T12:58:09.897Z</time></trkpt><trkpt lat="47.90485" lon="7.2250733"><ele>278.0</ele><time>2026-04-03T12:58:10.898Z</time></trkpt><trkpt lat="47.9048501" lon="7.2249113"><ele>279.75</ele><time>2026-04-03T12:58:11.897Z</time></trkpt><trkpt lat="47.9048503" lon="7.2247496"><ele>281.5</ele><time>2026-04-03T12:58:12.897Z</time></trkpt><trkpt lat="47.904837" lon="7.2245789"><ele>283.25</ele><time>2026-04-03T12:58:13.897Z</time></trkpt><trkpt lat="47.9047951" lon="7.2244145"><ele>285.0</ele><time>2026-04-03T12:58:14.897Z</time></trkpt><trkpt lat="47.9047485" lon="7.224245"><ele>285.0</ele><time>2026-04-03T12:58:15.899Z</time></trkpt><trkpt lat="47.9047041" lon="7.2240855"><ele>285.0</ele><time>2026-04-03T12:58:16.898Z</time></trkpt><trkpt lat="47.9046664" lon="7.2239376"><ele>285.0</ele><time>2026-04-03T12:58:17.898Z</time></trkpt><trkpt lat="47.9046321" lon="7.223798"><ele>285.0</ele><time>2026-04-03T12:58:18.898Z</time></trkpt><trkpt lat="47.9045991" lon="7.2236442"><ele>285.0</ele><time>2026-04-03T12:58:19.898Z</time></trkpt><trkpt lat="47.9045665" lon="7.2234833"><ele>287.25</ele><time>2026-04-03T12:58:20.898Z</time></trkpt><trkpt lat="47.9045316" lon="7.2233194"><ele>289.5</ele><time>2026-04-03T12:58:21.898Z</time></trkpt><trkpt lat="47.9045055" lon="7.2231408"><ele>291.75</ele><time>2026-04-03T12:58:22.899Z</time></trkpt><trkpt lat="47.9044881" lon="7.2229537"><ele>294.0</ele><time>2026-04-03T12:58:23.897Z</time></trkpt><trkpt lat="47.9044777" lon="7.2227894"><ele>294.4</ele><time>2026-04-03T12:58:24.899Z</time></trkpt><trkpt lat="47.9044768" lon="7.2226418"><ele>294.79999999999995</ele><time>2026-04-03T12:58:25.898Z</time></trkpt><trkpt lat="47.904478" lon="7.2225061"><ele>295.20000000000005</ele><time>2026-04-03T12:58:26.898Z</time></trkpt><trkpt lat="47.9044868" lon="7.2223978"><ele>295.6</ele><time>2026-04-03T12:58:27.898Z</time></trkpt><trkpt lat="47.9045118" lon="7.2222345"><ele>296.0</ele><time>2026-04-03T12:58:29.897Z</time></trkpt><trkpt lat="47.9045299" lon="7.2221197"><ele>296.0</ele><time>2026-04-03T12:58:31.897Z</time></trkpt><trkpt lat="47.9045443" lon="7.2219872"><ele>296.0</ele><time>2026-04-03T12:58:45.897Z</time></trkpt><trkpt lat="47.9045679" lon="7.2218668"><ele>296.0</ele><time>2026-04-03T12:58:47.897Z</time></trkpt><trkpt lat="47.9045986" lon="7.2217834"><ele>296.0</ele><time>2026-04-03T12:58:48.898Z</time></trkpt><trkpt lat="47.9046448" lon="7.2216969"><ele>296.0</ele><time>2026-04-03T12:58:49.899Z</time></trkpt><trkpt lat="47.9046929" lon="7.2216044"><ele>296.0</ele><time>2026-04-03T12:58:50.897Z</time></trkpt><trkpt lat="47.9047383" lon="7.2215163"><ele>297.6666666666667</ele><time>2026-04-03T12:58:51.898Z</time></trkpt><trkpt lat="47.9047877" lon="7.221425"><ele>299.33333333333337</ele><time>2026-04-03T12:58:52.897Z</time></trkpt><trkpt lat="47.9048426" lon="7.2213324"><ele>301.0</ele><time>2026-04-03T12:58:53.897Z</time></trkpt><trkpt lat="47.9049021" lon="7.2212404"><ele>302.6666666666667</ele><time>2026-04-03T12:58:54.897Z</time></trkpt><trkpt lat="47.9049679" lon="7.2211488"><ele>304.3333333333333</ele><time>2026-04-03T12:58:55.898Z</time></trkpt><trkpt lat="47.9050358" lon="7.2210571"><ele>306.0</ele><time>2026-04-03T12:58:56.899Z</time></trkpt><trkpt lat="47.9051088" lon="7.2209709"><ele>306.0</ele><time>2026-04-03T12:58:57.898Z</time></trkpt><trkpt lat="47.9051823" lon="7.220881"><ele>306.0</ele><time>2026-04-03T12:58:58.898Z</time></trkpt><trkpt lat="47.9052581" lon="7.2207912"><ele>306.0</ele><time>2026-04-03T12:58:59.897Z</time></trkpt><trkpt lat="47.9053328" lon="7.2206978"><ele>306.0</ele><time>2026-04-03T12:59:00.898Z</time></trkpt><trkpt lat="47.9054042" lon="7.2206059"><ele>306.0</ele><time>2026-04-03T12:59:01.897Z</time></trkpt><trkpt lat="47.9054788" lon="7.2205145"><ele>302.6</ele><time>2026-04-03T12:59:02.899Z</time></trkpt><trkpt lat="47.9055508" lon="7.2204239"><ele>299.20000000000005</ele><time>2026-04-03T12:59:03.899Z</time></trkpt><trkpt lat="47.9056171" lon="7.2203354"><ele>295.79999999999995</ele><time>2026-04-03T12:59:04.897Z</time></trkpt><trkpt lat="47.9056823" lon="7.2202462"><ele>292.4</ele><time>2026-04-03T12:59:05.897Z</time></trkpt><trkpt lat="47.9057559" lon="7.2201534"><ele>289.0</ele><time>2026-04-03T12:59:06.898Z</time></trkpt><trkpt lat="47.9058209" lon="7.2200585"><ele>289.0</ele><time>2026-04-03T12:59:07.897Z</time></trkpt><trkpt lat="47.9058949" lon="7.2199597"><ele>289.0</ele><time>2026-04-03T12:59:08.897Z</time></trkpt><trkpt lat="47.9059649" lon="7.2198413"><ele>289.0</ele><time>2026-04-03T12:59:09.897Z</time></trkpt><trkpt lat="47.9060419" lon="7.219698"><ele>289.0</ele><time>2026-04-03T12:59:10.897Z</time></trkpt><trkpt lat="47.9061159" lon="7.2195629"><ele>289.0</ele><time>2026-04-03T12:59:11.897Z</time></trkpt><trkpt lat="47.9061824" lon="7.2194377"><ele>288.2</ele><time>2026-04-03T12:59:12.898Z</time></trkpt><trkpt lat="47.9062453" lon="7.2193249"><ele>287.4</ele><time>2026-04-03T12:59:13.897Z</time></trkpt><trkpt lat="47.9063068" lon="7.2192161"><ele>286.6</ele><time>2026-04-03T12:59:14.898Z</time></trkpt><trkpt lat="47.9063702" lon="7.2190945"><ele>285.8</ele><time>2026-04-03T12:59:15.898Z</time></trkpt><trkpt lat="47.9064352" lon="7.2189611"><ele>285.0</ele><time>2026-04-03T12:59:16.897Z</time></trkpt><trkpt lat="47.9065056" lon="7.2188177"><ele>284.8</ele><time>2026-04-03T12:59:17.897Z</time></trkpt><trkpt lat="47.9065642" lon="7.2186772"><ele>284.6</ele><time>2026-04-03T12:59:18.898Z</time></trkpt><trkpt lat="47.9066199" lon="7.2185328"><ele>284.4</ele><time>2026-04-03T12:59:19.898Z</time></trkpt><trkpt lat="47.9066782" lon="7.2184038"><ele>284.2</ele><time>2026-04-03T12:59:20.897Z</time></trkpt><trkpt lat="47.9067302" lon="7.2182823"><ele>284.0</ele><time>2026-04-03T12:59:21.898Z</time></trkpt><trkpt lat="47.9067805" lon="7.2181827"><ele>284.83333333333337</ele><time>2026-04-03T12:59:22.899Z</time></trkpt><trkpt lat="47.906844" lon="7.2180941"><ele>285.6666666666667</ele><time>2026-04-03T12:59:23.898Z</time></trkpt><trkpt lat="47.9069016" lon="7.2180259"><ele>286.5</ele><time>2026-04-03T12:59:24.897Z</time></trkpt><trkpt lat="47.9069479" lon="7.2179611"><ele>287.3333333333333</ele><time>2026-04-03T12:59:25.897Z</time></trkpt><trkpt lat="47.9070204" lon="7.2178724"><ele>288.16666666666663</ele><time>2026-04-03T12:59:27.898Z</time></trkpt><trkpt lat="47.9070981" lon="7.2177708"><ele>289.0</ele><time>2026-04-03T12:59:29.898Z</time></trkpt><trkpt lat="47.907173" lon="7.2176696"><ele>289.0</ele><time>2026-04-03T12:59:31.898Z</time></trkpt><trkpt lat="47.9072516" lon="7.2175533"><ele>289.0</ele><time>2026-04-03T12:59:33.898Z</time></trkpt><trkpt lat="47.9073009" lon="7.217479"><ele>289.0</ele><time>2026-04-03T12:59:34.898Z</time></trkpt><trkpt lat="47.9073558" lon="7.217402"><ele>289.0</ele><time>2026-04-03T12:59:35.898Z</time></trkpt><trkpt lat="47.9074087" lon="7.2173248"><ele>289.0</ele><time>2026-04-03T12:59:36.897Z</time></trkpt><trkpt lat="47.9074666" lon="7.2172504"><ele>289.0</ele><time>2026-04-03T12:59:37.898Z</time></trkpt><trkpt lat="47.9075319" lon="7.2171755"><ele>289.8</ele><time>2026-04-03T12:59:38.898Z</time></trkpt><trkpt lat="47.9076049" lon="7.2171051"><ele>290.59999999999997</ele><time>2026-04-03T12:59:39.897Z</time></trkpt><trkpt lat="47.9076776" lon="7.217033"><ele>291.4</ele><time>2026-04-03T12:59:40.897Z</time></trkpt><trkpt lat="47.9077466" lon="7.2169637"><ele>292.2</ele><time>2026-04-03T12:59:41.898Z</time></trkpt><trkpt lat="47.9078295" lon="7.2168876"><ele>293.0</ele><time>2026-04-03T12:59:42.897Z</time></trkpt><trkpt lat="47.9079132" lon="7.2168053"><ele>293.0</ele><time>2026-04-03T12:59:43.897Z</time></trkpt><trkpt lat="47.9079938" lon="7.2167282"><ele>293.0</ele><time>2026-04-03T12:59:44.898Z</time></trkpt><trkpt lat="47.9080672" lon="7.216658"><ele>293.0</ele><time>2026-04-03T12:59:45.899Z</time></trkpt><trkpt lat="47.9081421" lon="7.216588"><ele>293.0</ele><time>2026-04-03T12:59:46.898Z</time></trkpt><trkpt lat="47.9082222" lon="7.2165203"><ele>293.0</ele><time>2026-04-03T12:59:47.897Z</time></trkpt><trkpt lat="47.9082991" lon="7.2164481"><ele>292.4</ele><time>2026-04-03T12:59:48.898Z</time></trkpt><trkpt lat="47.9083758" lon="7.2163563"><ele>291.8</ele><time>2026-04-03T12:59:49.898Z</time></trkpt><trkpt lat="47.9084466" lon="7.2162722"><ele>291.2</ele><time>2026-04-03T12:59:50.897Z</time></trkpt><trkpt lat="47.9085187" lon="7.2161722"><ele>290.6</ele><time>2026-04-03T12:59:51.898Z</time></trkpt><trkpt lat="47.9085863" lon="7.2160656"><ele>290.0</ele><time>2026-04-03T12:59:52.897Z</time></trkpt><trkpt lat="47.9086561" lon="7.2159516"><ele>290.4</ele><time>2026-04-03T12:59:53.897Z</time></trkpt><trkpt lat="47.9087195" lon="7.2158471"><ele>290.8</ele><time>2026-04-03T12:59:54.898Z</time></trkpt><trkpt lat="47.9087816" lon="7.2157465"><ele>291.2</ele><time>2026-04-03T12:59:55.897Z</time></trkpt><trkpt lat="47.9088393" lon="7.2156419"><ele>291.6</ele><time>2026-04-03T12:59:56.897Z</time></trkpt><trkpt lat="47.9088992" lon="7.2155339"><ele>292.0</ele><time>2026-04-03T12:59:57.897Z</time></trkpt><trkpt lat="47.9089572" lon="7.2154182"><ele>292.0</ele><time>2026-04-03T12:59:58.897Z</time></trkpt><trkpt lat="47.9090236" lon="7.2152935"><ele>292.0</ele><time>2026-04-03T12:59:59.898Z</time></trkpt><trkpt lat="47.9090904" lon="7.2151716"><ele>292.0</ele><time>2026-04-03T13:00:00.898Z</time></trkpt><trkpt lat="47.9091567" lon="7.215062"><ele>292.0</ele><time>2026-04-03T13:00:01.897Z</time></trkpt><trkpt lat="47.9092196" lon="7.214951"><ele>292.0</ele><time>2026-04-03T13:00:02.897Z</time></trkpt><trkpt lat="47.9092794" lon="7.2148496"><ele>292.8</ele><time>2026-04-03T13:00:03.898Z</time></trkpt><trkpt lat="47.9093397" lon="7.2147429"><ele>293.6</ele><time>2026-04-03T13:00:04.897Z</time></trkpt><trkpt lat="47.9094114" lon="7.2146222"><ele>294.40000000000003</ele><time>2026-04-03T13:00:05.897Z</time></trkpt><trkpt lat="47.9094842" lon="7.2145007"><ele>295.2</ele><time>2026-04-03T13:00:06.897Z</time></trkpt><trkpt lat="47.9095473" lon="7.2143922"><ele>296.0</ele><time>2026-04-03T13:00:07.897Z</time></trkpt><trkpt lat="47.9096108" lon="7.214292"><ele>296.0</ele><time>2026-04-03T13:00:08.897Z</time></trkpt><trkpt lat="47.9096779" lon="7.2141808"><ele>296.0</ele><time>2026-04-03T13:00:09.897Z</time></trkpt><trkpt lat="47.9097495" lon="7.2140672"><ele>296.0</ele><time>2026-04-03T13:00:10.897Z</time></trkpt><trkpt lat="47.9098269" lon="7.2139561"><ele>296.0</ele><time>2026-04-03T13:00:11.898Z</time></trkpt><trkpt lat="47.9099061" lon="7.2138519"><ele>296.0</ele><time>2026-04-03T13:00:12.897Z</time></trkpt><trkpt lat="47.9099832" lon="7.2137418"><ele>295.40000000000003</ele><time>2026-04-03T13:00:13.897Z</time></trkpt><trkpt lat="47.9100585" lon="7.2136342"><ele>294.8</ele><time>2026-04-03T13:00:14.898Z</time></trkpt><trkpt lat="47.9101398" lon="7.2135196"><ele>294.20000000000005</ele><time>2026-04-03T13:00:15.897Z</time></trkpt><trkpt lat="47.9102192" lon="7.2134058"><ele>293.6</ele><time>2026-04-03T13:00:16.897Z</time></trkpt><trkpt lat="47.9103028" lon="7.2132851"><ele>293.0</ele><time>2026-04-03T13:00:17.897Z</time></trkpt><trkpt lat="47.9103903" lon="7.2131561"><ele>294.0</ele><time>2026-04-03T13:00:18.897Z</time></trkpt><trkpt lat="47.910476" lon="7.2130285"><ele>295.0</ele><time>2026-04-03T13:00:19.897Z</time></trkpt><trkpt lat="47.9105579" lon="7.2129136"><ele>296.0</ele><time>2026-04-03T13:00:20.897Z</time></trkpt><trkpt lat="47.9106356" lon="7.2127965"><ele>297.0</ele><time>2026-04-03T13:00:21.897Z</time></trkpt><trkpt lat="47.9107156" lon="7.2126853"><ele>297.0</ele><time>2026-04-03T13:00:22.898Z</time></trkpt><trkpt lat="47.910797" lon="7.2125735"><ele>297.0</ele><time>2026-04-03T13:00:23.897Z</time></trkpt><trkpt lat="47.9108775" lon="7.212464"><ele>297.0</ele><time>2026-04-03T13:00:24.898Z</time></trkpt><trkpt lat="47.9109603" lon="7.2123595"><ele>297.0</ele><time>2026-04-03T13:00:25.897Z</time></trkpt><trkpt lat="47.9110477" lon="7.2122577"><ele>297.0</ele><time>2026-04-03T13:00:26.897Z</time></trkpt><trkpt lat="47.9111377" lon="7.2121639"><ele>297.4</ele><time>2026-04-03T13:00:27.897Z</time></trkpt><trkpt lat="47.9112297" lon="7.2120756"><ele>297.79999999999995</ele><time>2026-04-03T13:00:28.898Z</time></trkpt><trkpt lat="47.9113241" lon="7.2119863"><ele>298.2</ele><time>2026-04-03T13:00:29.897Z</time></trkpt><trkpt lat="47.911422" lon="7.2118982"><ele>298.59999999999997</ele><time>2026-04-03T13:00:30.897Z</time></trkpt><trkpt lat="47.9115132" lon="7.2118058"><ele>299.0</ele><time>2026-04-03T13:00:31.897Z</time></trkpt><trkpt lat="47.9116117" lon="7.2117105"><ele>299.0</ele><time>2026-04-03T13:00:32.897Z</time></trkpt><trkpt lat="47.9117028" lon="7.2116127"><ele>299.0</ele><time>2026-04-03T13:00:33.899Z</time></trkpt><trkpt lat="47.9117963" lon="7.2115116"><ele>299.0</ele><time>2026-04-03T13:00:34.898Z</time></trkpt><trkpt lat="47.9118895" lon="7.211411"><ele>299.0</ele><time>2026-04-03T13:00:35.897Z</time></trkpt><trkpt lat="47.9119841" lon="7.2112991"><ele>299.5</ele><time>2026-04-03T13:00:36.898Z</time></trkpt><trkpt lat="47.9120812" lon="7.2111884"><ele>300.0</ele><time>2026-04-03T13:00:37.898Z</time></trkpt><trkpt lat="47.9121805" lon="7.2110732"><ele>300.5</ele><time>2026-04-03T13:00:38.897Z</time></trkpt><trkpt lat="47.912276" lon="7.2109601"><ele>301.0</ele><time>2026-04-03T13:00:39.897Z</time></trkpt><trkpt lat="47.9123742" lon="7.2108472"><ele>301.0</ele><time>2026-04-03T13:00:40.898Z</time></trkpt><trkpt lat="47.9124765" lon="7.2107288"><ele>301.0</ele><time>2026-04-03T13:00:41.897Z</time></trkpt><trkpt lat="47.9125691" lon="7.2106125"><ele>301.0</ele><time>2026-04-03T13:00:42.897Z</time></trkpt><trkpt lat="47.9126671" lon="7.2105016"><ele>301.0</ele><time>2026-04-03T13:00:43.898Z</time></trkpt><trkpt lat="47.9127616" lon="7.2103866"><ele>301.0</ele><time>2026-04-03T13:00:44.897Z</time></trkpt><trkpt lat="47.912857" lon="7.2102682"><ele>301.0</ele><time>2026-04-03T13:00:45.898Z</time></trkpt><trkpt lat="47.9129492" lon="7.2101589"><ele>301.0</ele><time>2026-04-03T13:00:46.898Z</time></trkpt><trkpt lat="47.9130428" lon="7.2100437"><ele>301.0</ele><time>2026-04-03T13:00:47.898Z</time></trkpt><trkpt lat="47.9131404" lon="7.2099298"><ele>301.0</ele><time>2026-04-03T13:00:48.898Z</time></trkpt><trkpt lat="47.9132426" lon="7.2098078"><ele>301.0</ele><time>2026-04-03T13:00:49.898Z</time></trkpt><trkpt lat="47.9133293" lon="7.2096975"><ele>301.0</ele><time>2026-04-03T13:00:50.899Z</time></trkpt><trkpt lat="47.9134203" lon="7.2095964"><ele>301.0</ele><time>2026-04-03T13:00:51.897Z</time></trkpt><trkpt lat="47.9135173" lon="7.2094938"><ele>300.66666666666663</ele><time>2026-04-03T13:00:52.897Z</time></trkpt><trkpt lat="47.9136078" lon="7.2094117"><ele>300.3333333333333</ele><time>2026-04-03T13:00:53.898Z</time></trkpt><trkpt lat="47.9136834" lon="7.2093579"><ele>300.0</ele><time>2026-04-03T13:00:54.897Z</time></trkpt><trkpt lat="47.9137431" lon="7.2093174"><ele>299.6666666666667</ele><time>2026-04-03T13:00:55.897Z</time></trkpt><trkpt lat="47.9138272" lon="7.2092727"><ele>299.33333333333337</ele><time>2026-04-03T13:00:57.898Z</time></trkpt><trkpt lat="47.9139058" lon="7.2092418"><ele>299.0</ele><time>2026-04-03T13:00:59.898Z</time></trkpt><trkpt lat="47.9140034" lon="7.209201"><ele>299.0</ele><time>2026-04-03T13:01:01.897Z</time></trkpt><trkpt lat="47.9141127" lon="7.2091599"><ele>299.0</ele><time>2026-04-03T13:01:03.897Z</time></trkpt><trkpt lat="47.9142498" lon="7.2090984"><ele>299.0</ele><time>2026-04-03T13:01:05.897Z</time></trkpt><trkpt lat="47.9143373" lon="7.2090536"><ele>299.0</ele><time>2026-04-03T13:01:06.897Z</time></trkpt><trkpt lat="47.9144362" lon="7.2089964"><ele>299.75</ele><time>2026-04-03T13:01:07.897Z</time></trkpt><trkpt lat="47.914536" lon="7.208938"><ele>300.5</ele><time>2026-04-03T13:01:08.897Z</time></trkpt><trkpt lat="47.9146383" lon="7.2088644"><ele>301.25</ele><time>2026-04-03T13:01:09.897Z</time></trkpt><trkpt lat="47.9147451" lon="7.2087877"><ele>302.0</ele><time>2026-04-03T13:01:10.898Z</time></trkpt><trkpt lat="47.9148634" lon="7.208701"><ele>302.0</ele><time>2026-04-03T13:01:11.897Z</time></trkpt><trkpt lat="47.9149758" lon="7.2086155"><ele>302.0</ele><time>2026-04-03T13:01:12.898Z</time></trkpt><trkpt lat="47.9150763" lon="7.2085339"><ele>302.0</ele><time>2026-04-03T13:01:13.897Z</time></trkpt><trkpt lat="47.9151774" lon="7.2084528"><ele>302.0</ele><time>2026-04-03T13:01:14.898Z</time></trkpt><trkpt lat="47.915281" lon="7.2083651"><ele>303.25</ele><time>2026-04-03T13:01:15.898Z</time></trkpt><trkpt lat="47.9153859" lon="7.2082802"><ele>304.5</ele><time>2026-04-03T13:01:16.897Z</time></trkpt><trkpt lat="47.9154967" lon="7.2081906"><ele>305.75</ele><time>2026-04-03T13:01:17.897Z</time></trkpt><trkpt lat="47.9156045" lon="7.208093"><ele>307.0</ele><time>2026-04-03T13:01:18.897Z</time></trkpt><trkpt lat="47.915702" lon="7.2079868"><ele>307.0</ele><time>2026-04-03T13:01:19.899Z</time></trkpt><trkpt lat="47.9157935" lon="7.2078699"><ele>307.0</ele><time>2026-04-03T13:01:20.897Z</time></trkpt><trkpt lat="47.9158781" lon="7.2077412"><ele>307.0</ele><time>2026-04-03T13:01:21.898Z</time></trkpt><trkpt lat="47.9159632" lon="7.2076022"><ele>307.0</ele><time>2026-04-03T13:01:22.899Z</time></trkpt><trkpt lat="47.916042" lon="7.2074562"><ele>308.5</ele><time>2026-04-03T13:01:23.899Z</time></trkpt><trkpt lat="47.9161107" lon="7.2072943"><ele>310.0</ele><time>2026-04-03T13:01:24.898Z</time></trkpt><trkpt lat="47.9161683" lon="7.2071213"><ele>311.5</ele><time>2026-04-03T13:01:25.898Z</time></trkpt><trkpt lat="47.9162185" lon="7.2069503"><ele>313.0</ele><time>2026-04-03T13:01:26.896Z</time></trkpt><trkpt lat="47.9162695" lon="7.2067858"><ele>313.0</ele><time>2026-04-03T13:01:27.897Z</time></trkpt><trkpt lat="47.9163208" lon="7.2066227"><ele>313.0</ele><time>2026-04-03T13:01:28.898Z</time></trkpt><trkpt lat="47.9163647" lon="7.206461"><ele>313.0</ele><time>2026-04-03T13:01:29.897Z</time></trkpt><trkpt lat="47.9164121" lon="7.2062962"><ele>313.0</ele><time>2026-04-03T13:01:30.898Z</time></trkpt><trkpt lat="47.9164609" lon="7.2061326"><ele>312.6</ele><time>2026-04-03T13:01:31.897Z</time></trkpt><trkpt lat="47.9165126" lon="7.2059786"><ele>312.20000000000005</ele><time>2026-04-03T13:01:32.899Z</time></trkpt><trkpt lat="47.9165642" lon="7.2058427"><ele>311.8</ele><time>2026-04-03T13:01:33.897Z</time></trkpt><trkpt lat="47.9166117" lon="7.2057263"><ele>311.40000000000003</ele><time>2026-04-03T13:01:34.897Z</time></trkpt><trkpt lat="47.9166464" lon="7.2056344"><ele>311.0</ele><time>2026-04-03T13:01:35.898Z</time></trkpt><trkpt lat="47.9167035" lon="7.2055022"><ele>311.8</ele><time>2026-04-03T13:01:37.897Z</time></trkpt><trkpt lat="47.9167442" lon="7.2054161"><ele>312.6</ele><time>2026-04-03T13:01:39.897Z</time></trkpt><trkpt lat="47.9167912" lon="7.205307"><ele>313.4</ele><time>2026-04-03T13:02:01.897Z</time></trkpt><trkpt lat="47.916871" lon="7.2051516"><ele>314.2</ele><time>2026-04-03T13:02:03.899Z</time></trkpt><trkpt lat="47.9169241" lon="7.205048"><ele>315.0</ele><time>2026-04-03T13:02:04.899Z</time></trkpt><trkpt lat="47.9169857" lon="7.2049257"><ele>314.0</ele><time>2026-04-03T13:02:05.899Z</time></trkpt><trkpt lat="47.9170492" lon="7.2048022"><ele>313.0</ele><time>2026-04-03T13:02:06.898Z</time></trkpt><trkpt lat="47.9171199" lon="7.2046628"><ele>312.0</ele><time>2026-04-03T13:02:07.898Z</time></trkpt><trkpt lat="47.9171906" lon="7.2045257"><ele>311.0</ele><time>2026-04-03T13:02:08.897Z</time></trkpt><trkpt lat="47.9172655" lon="7.2043786"><ele>311.0</ele><time>2026-04-03T13:02:09.898Z</time></trkpt><trkpt lat="47.9173383" lon="7.2042355"><ele>311.0</ele><time>2026-04-03T13:02:10.898Z</time></trkpt><trkpt lat="47.9174154" lon="7.2040861"><ele>311.0</ele><time>2026-04-03T13:02:11.896Z</time></trkpt><trkpt lat="47.9174948" lon="7.2039306"><ele>311.0</ele><time>2026-04-03T13:02:12.897Z</time></trkpt><trkpt lat="47.9175823" lon="7.2037696"><ele>310.75</ele><time>2026-04-03T13:02:13.898Z</time></trkpt><trkpt lat="47.9176743" lon="7.2035994"><ele>310.5</ele><time>2026-04-03T13:02:14.897Z</time></trkpt><trkpt lat="47.9177662" lon="7.2034341"><ele>310.25</ele><time>2026-04-03T13:02:15.897Z</time></trkpt><trkpt lat="47.9178619" lon="7.2032552"><ele>310.0</ele><time>2026-04-03T13:02:16.897Z</time></trkpt><trkpt lat="47.9179617" lon="7.203073"><ele>309.66666666666663</ele><time>2026-04-03T13:02:17.897Z</time></trkpt><trkpt lat="47.9180619" lon="7.2028999"><ele>309.3333333333333</ele><time>2026-04-03T13:02:18.897Z</time></trkpt><trkpt lat="47.9181673" lon="7.2027094"><ele>309.0</ele><time>2026-04-03T13:02:19.898Z</time></trkpt><trkpt lat="47.9182682" lon="7.2025378"><ele>309.0</ele><time>2026-04-03T13:02:20.898Z</time></trkpt><trkpt lat="47.9183655" lon="7.202357"><ele>309.0</ele><time>2026-04-03T13:02:21.898Z</time></trkpt><trkpt lat="47.9184605" lon="7.2021938"><ele>309.0</ele><time>2026-04-03T13:02:22.897Z</time></trkpt><trkpt lat="47.9185545" lon="7.2020247"><ele>309.0</ele><time>2026-04-03T13:02:23.898Z</time></trkpt><trkpt lat="47.9186488" lon="7.2018601"><ele>309.75</ele><time>2026-04-03T13:02:24.898Z</time></trkpt><trkpt lat="47.918746" lon="7.2016889"><ele>310.5</ele><time>2026-04-03T13:02:25.898Z</time></trkpt><trkpt lat="47.9188352" lon="7.2015251"><ele>311.25</ele><time>2026-04-03T13:02:26.897Z</time></trkpt><trkpt lat="47.9189303" lon="7.2013599"><ele>312.0</ele><time>2026-04-03T13:02:27.897Z</time></trkpt><trkpt lat="47.9190214" lon="7.2011987"><ele>312.5</ele><time>2026-04-03T13:02:28.897Z</time></trkpt><trkpt lat="47.9191144" lon="7.2010368"><ele>313.0</ele><time>2026-04-03T13:02:29.897Z</time></trkpt><trkpt lat="47.919205" lon="7.2008716"><ele>313.5</ele><time>2026-04-03T13:02:30.898Z</time></trkpt><trkpt lat="47.919301" lon="7.2007099"><ele>314.0</ele><time>2026-04-03T13:02:31.897Z</time></trkpt><trkpt lat="47.9194091" lon="7.2005457"><ele>314.33333333333337</ele><time>2026-04-03T13:02:32.898Z</time></trkpt><trkpt lat="47.9195236" lon="7.2003758"><ele>314.6666666666667</ele><time>2026-04-03T13:02:33.897Z</time></trkpt><trkpt lat="47.9196423" lon="7.2002087"><ele>315.0</ele><time>2026-04-03T13:02:34.899Z</time></trkpt><trkpt lat="47.9197721" lon="7.2000507"><ele>315.0</ele><time>2026-04-03T13:02:35.897Z</time></trkpt><trkpt lat="47.9199028" lon="7.1998945"><ele>315.0</ele><time>2026-04-03T13:02:36.897Z</time></trkpt><trkpt lat="47.920043" lon="7.1997524"><ele>315.0</ele><time>2026-04-03T13:02:37.897Z</time></trkpt><trkpt lat="47.920196" lon="7.1996107"><ele>315.3333333333333</ele><time>2026-04-03T13:02:38.897Z</time></trkpt><trkpt lat="47.9203553" lon="7.1994834"><ele>315.66666666666663</ele><time>2026-04-03T13:02:39.897Z</time></trkpt><trkpt lat="47.9205178" lon="7.1993627"><ele>316.0</ele><time>2026-04-03T13:02:40.897Z</time></trkpt><trkpt lat="47.9206886" lon="7.1992568"><ele>316.0</ele><time>2026-04-03T13:02:41.897Z</time></trkpt><trkpt lat="47.9208752" lon="7.199156"><ele>316.0</ele><time>2026-04-03T13:02:42.898Z</time></trkpt><trkpt lat="47.9210529" lon="7.1990726"><ele>316.0</ele><time>2026-04-03T13:02:43.897Z</time></trkpt><trkpt lat="47.9212164" lon="7.1989991"><ele>317.3333333333333</ele><time>2026-04-03T13:02:44.897Z</time></trkpt><trkpt lat="47.9213865" lon="7.1989211"><ele>318.6666666666667</ele><time>2026-04-03T13:02:45.898Z</time></trkpt><trkpt lat="47.9215716" lon="7.1988299"><ele>320.0</ele><time>2026-04-03T13:02:46.898Z</time></trkpt><trkpt lat="47.9217372" lon="7.1987399"><ele>320.0</ele><time>2026-04-03T13:02:47.897Z</time></trkpt><trkpt lat="47.9219001" lon="7.1986498"><ele>320.0</ele><time>2026-04-03T13:02:48.897Z</time></trkpt><trkpt lat="47.9220552" lon="7.1985627"><ele>320.0</ele><time>2026-04-03T13:02:49.897Z</time></trkpt><trkpt lat="47.9222072" lon="7.1984759"><ele>320.0</ele><time>2026-04-03T13:02:50.897Z</time></trkpt><trkpt lat="47.9223441" lon="7.1983992"><ele>320.0</ele><time>2026-04-03T13:02:51.898Z</time></trkpt><trkpt lat="47.9224828" lon="7.198324"><ele>320.0</ele><time>2026-04-03T13:02:52.898Z</time></trkpt><trkpt lat="47.9226126" lon="7.1982429"><ele>320.0</ele><time>2026-04-03T13:02:53.898Z</time></trkpt><trkpt lat="47.9227355" lon="7.198151"><ele>321.75</ele><time>2026-04-03T13:02:54.898Z</time></trkpt><trkpt lat="47.922861" lon="7.1980489"><ele>323.5</ele><time>2026-04-03T13:02:55.897Z</time></trkpt><trkpt lat="47.9229894" lon="7.197935"><ele>325.25</ele><time>2026-04-03T13:02:56.898Z</time></trkpt><trkpt lat="47.9231045" lon="7.1978346"><ele>327.0</ele><time>2026-04-03T13:02:57.897Z</time></trkpt><trkpt lat="47.9232086" lon="7.1977423"><ele>327.0</ele><time>2026-04-03T13:02:58.897Z</time></trkpt><trkpt lat="47.9233044" lon="7.1976512"><ele>327.0</ele><time>2026-04-03T13:02:59.897Z</time></trkpt><trkpt lat="47.92339" lon="7.1975814"><ele>327.0</ele><time>2026-04-03T13:03:00.897Z</time></trkpt><trkpt lat="47.9234681" lon="7.1975288"><ele>327.0</ele><time>2026-04-03T13:03:01.897Z</time></trkpt><trkpt lat="47.9235455" lon="7.1975091"><ele>327.0</ele><time>2026-04-03T13:03:02.897Z</time></trkpt><trkpt lat="47.9236206" lon="7.1974694"><ele>327.40000000000003</ele><time>2026-04-03T13:03:03.898Z</time></trkpt><trkpt lat="47.9236822" lon="7.197378"><ele>327.8</ele><time>2026-04-03T13:03:04.896Z</time></trkpt><trkpt lat="47.9237469" lon="7.197254"><ele>328.2</ele><time>2026-04-03T13:03:05.897Z</time></trkpt><trkpt lat="47.9238321" lon="7.1971391"><ele>328.6</ele><time>2026-04-03T13:03:06.897Z</time></trkpt><trkpt lat="47.9239153" lon="7.197042"><ele>329.0</ele><time>2026-04-03T13:03:07.898Z</time></trkpt><trkpt lat="47.9240058" lon="7.1969349"><ele>329.0</ele><time>2026-04-03T13:03:08.898Z</time></trkpt><trkpt lat="47.9241141" lon="7.1968182"><ele>329.0</ele><time>2026-04-03T13:03:09.897Z</time></trkpt><trkpt lat="47.9242425" lon="7.1966826"><ele>329.0</ele><time>2026-04-03T13:03:10.898Z</time></trkpt><trkpt lat="47.9243837" lon="7.1965339"><ele>331.33333333333337</ele><time>2026-04-03T13:03:11.897Z</time></trkpt><trkpt lat="47.924541" lon="7.1963554"><ele>333.6666666666667</ele><time>2026-04-03T13:03:12.898Z</time></trkpt><trkpt lat="47.9247066" lon="7.1961577"><ele>336.0</ele><time>2026-04-03T13:03:13.897Z</time></trkpt><trkpt lat="47.9248788" lon="7.1959312"><ele>336.0</ele><time>2026-04-03T13:03:14.897Z</time></trkpt><trkpt lat="47.9250507" lon="7.1957095"><ele>336.0</ele><time>2026-04-03T13:03:15.897Z</time></trkpt><trkpt lat="47.9252091" lon="7.1955027"><ele>336.0</ele><time>2026-04-03T13:03:16.897Z</time></trkpt><trkpt lat="47.9253707" lon="7.1953022"><ele>337.3333333333333</ele><time>2026-04-03T13:03:17.898Z</time></trkpt><trkpt lat="47.9255308" lon="7.1951172"><ele>338.66666666666663</ele><time>2026-04-03T13:03:18.897Z</time></trkpt><trkpt lat="47.9256971" lon="7.1949432"><ele>340.0</ele><time>2026-04-03T13:03:19.898Z</time></trkpt><trkpt lat="47.925877" lon="7.1947797"><ele>339.0</ele><time>2026-04-03T13:03:20.896Z</time></trkpt><trkpt lat="47.9260784" lon="7.1946166"><ele>338.0</ele><time>2026-04-03T13:03:21.897Z</time></trkpt><trkpt lat="47.9262791" lon="7.1944227"><ele>338.0</ele><time>2026-04-03T13:03:22.898Z</time></trkpt><trkpt lat="47.9264669" lon="7.1942064"><ele>338.0</ele><time>2026-04-03T13:03:23.898Z</time></trkpt><trkpt lat="47.9266316" lon="7.1939817"><ele>339.33333333333337</ele><time>2026-04-03T13:03:24.897Z</time></trkpt><trkpt lat="47.9267801" lon="7.1937513"><ele>340.6666666666667</ele><time>2026-04-03T13:03:25.898Z</time></trkpt><trkpt lat="47.9269136" lon="7.193504"><ele>342.0</ele><time>2026-04-03T13:03:26.896Z</time></trkpt><trkpt lat="47.9270419" lon="7.1932455"><ele>339.0</ele><time>2026-04-03T13:03:27.898Z</time></trkpt><trkpt lat="47.9271755" lon="7.1929901"><ele>336.0</ele><time>2026-04-03T13:03:28.897Z</time></trkpt><trkpt lat="47.9273167" lon="7.1927654"><ele>333.0</ele><time>2026-04-03T13:03:29.899Z</time></trkpt><trkpt lat="47.9274598" lon="7.1925558"><ele>334.0</ele><time>2026-04-03T13:03:30.897Z</time></trkpt><trkpt lat="47.9276046" lon="7.1923581"><ele>335.0</ele><time>2026-04-03T13:03:31.898Z</time></trkpt><trkpt lat="47.9277494" lon="7.1921683"><ele>336.0</ele><time>2026-04-03T13:03:32.898Z</time></trkpt><trkpt lat="47.9278916" lon="7.1919836"><ele>336.0</ele><time>2026-04-03T13:03:33.898Z</time></trkpt><trkpt lat="47.9280303" lon="7.1918079"><ele>336.0</ele><time>2026-04-03T13:03:34.897Z</time></trkpt><trkpt lat="47.9281618" lon="7.1916462"><ele>336.0</ele><time>2026-04-03T13:03:35.897Z</time></trkpt><trkpt lat="47.928281" lon="7.1914947"><ele>337.0</ele><time>2026-04-03T13:03:36.897Z</time></trkpt><trkpt lat="47.9284032" lon="7.1913464"><ele>338.0</ele><time>2026-04-03T13:03:37.899Z</time></trkpt><trkpt lat="47.9285225" lon="7.1912047"><ele>339.0</ele><time>2026-04-03T13:03:38.896Z</time></trkpt><trkpt lat="47.9286363" lon="7.1910707"><ele>339.0</ele><time>2026-04-03T13:03:39.898Z</time></trkpt><trkpt lat="47.9287513" lon="7.1909423"><ele>339.0</ele><time>2026-04-03T13:03:40.897Z</time></trkpt><trkpt lat="47.928862" lon="7.1907953"><ele>339.0</ele><time>2026-04-03T13:03:41.896Z</time></trkpt><trkpt lat="47.9289785" lon="7.1906493"><ele>339.0</ele><time>2026-04-03T13:03:42.897Z</time></trkpt><trkpt lat="47.9290872" lon="7.190513"><ele>339.0</ele><time>2026-04-03T13:03:43.896Z</time></trkpt><trkpt lat="47.9291898" lon="7.1903844"><ele>339.0</ele><time>2026-04-03T13:03:44.898Z</time></trkpt><trkpt lat="47.9292898" lon="7.1902592"><ele>339.0</ele><time>2026-04-03T13:03:45.896Z</time></trkpt><trkpt lat="47.9293908" lon="7.1901257"><ele>339.0</ele><time>2026-04-03T13:03:46.898Z</time></trkpt><trkpt lat="47.9294895" lon="7.1899964"><ele>339.0</ele><time>2026-04-03T13:03:47.897Z</time></trkpt><trkpt lat="47.9295825" lon="7.189877"><ele>339.0</ele><time>2026-04-03T13:03:48.896Z</time></trkpt><trkpt lat="47.9296771" lon="7.1897517"><ele>339.0</ele><time>2026-04-03T13:03:49.897Z</time></trkpt><trkpt lat="47.9297719" lon="7.1896319"><ele>339.0</ele><time>2026-04-03T13:03:50.898Z</time></trkpt><trkpt lat="47.9298663" lon="7.1895189"><ele>339.25</ele><time>2026-04-03T13:03:51.898Z</time></trkpt><trkpt lat="47.9299577" lon="7.1894064"><ele>339.5</ele><time>2026-04-03T13:03:52.898Z</time></trkpt><trkpt lat="47.9300486" lon="7.1892865"><ele>339.75</ele><time>2026-04-03T13:03:53.898Z</time></trkpt><trkpt lat="47.9301481" lon="7.1891587"><ele>340.0</ele><time>2026-04-03T13:03:54.898Z</time></trkpt><trkpt lat="47.9302487" lon="7.1890287"><ele>340.25</ele><time>2026-04-03T13:03:55.898Z</time></trkpt><trkpt lat="47.9303493" lon="7.1888902"><ele>340.5</ele><time>2026-04-03T13:03:56.898Z</time></trkpt><trkpt lat="47.9304469" lon="7.1887418"><ele>340.75</ele><time>2026-04-03T13:03:57.898Z</time></trkpt><trkpt lat="47.9305398" lon="7.1885854"><ele>341.0</ele><time>2026-04-03T13:03:58.898Z</time></trkpt><trkpt lat="47.9306394" lon="7.1884189"><ele>341.0</ele><time>2026-04-03T13:03:59.897Z</time></trkpt><trkpt lat="47.9307369" lon="7.1882468"><ele>341.0</ele><time>2026-04-03T13:04:00.899Z</time></trkpt><trkpt lat="47.9308363" lon="7.1880764"><ele>341.0</ele><time>2026-04-03T13:04:01.898Z</time></trkpt><trkpt lat="47.9309353" lon="7.1879051"><ele>341.6666666666667</ele><time>2026-04-03T13:04:02.898Z</time></trkpt><trkpt lat="47.9310397" lon="7.1877276"><ele>342.3333333333333</ele><time>2026-04-03T13:04:03.897Z</time></trkpt><trkpt lat="47.931141" lon="7.1875455"><ele>343.0</ele><time>2026-04-03T13:04:04.897Z</time></trkpt><trkpt lat="47.9312539" lon="7.1873562"><ele>343.66666666666663</ele><time>2026-04-03T13:04:05.898Z</time></trkpt><trkpt lat="47.931357" lon="7.1871701"><ele>344.3333333333333</ele><time>2026-04-03T13:04:06.898Z</time></trkpt><trkpt lat="47.9314713" lon="7.1869763"><ele>345.0</ele><time>2026-04-03T13:04:07.897Z</time></trkpt><trkpt lat="47.9315833" lon="7.1867855"><ele>345.0</ele><time>2026-04-03T13:04:08.898Z</time></trkpt><trkpt lat="47.9316976" lon="7.1865874"><ele>345.0</ele><time>2026-04-03T13:04:09.898Z</time></trkpt><trkpt lat="47.9318049" lon="7.1863896"><ele>345.0</ele><time>2026-04-03T13:04:10.898Z</time></trkpt><trkpt lat="47.931917" lon="7.186185"><ele>345.3333333333333</ele><time>2026-04-03T13:04:11.897Z</time></trkpt><trkpt lat="47.9320282" lon="7.1859937"><ele>345.66666666666663</ele><time>2026-04-03T13:04:12.897Z</time></trkpt><trkpt lat="47.9321419" lon="7.1857955"><ele>346.0</ele><time>2026-04-03T13:04:13.897Z</time></trkpt><trkpt lat="47.9322566" lon="7.1855979"><ele>346.3333333333333</ele><time>2026-04-03T13:04:14.898Z</time></trkpt><trkpt lat="47.9323695" lon="7.1854024"><ele>346.6666666666667</ele><time>2026-04-03T13:04:15.897Z</time></trkpt><trkpt lat="47.9324807" lon="7.1852069"><ele>347.0</ele><time>2026-04-03T13:04:16.897Z</time></trkpt><trkpt lat="47.93259" lon="7.1850114"><ele>348.0</ele><time>2026-04-03T13:04:17.897Z</time></trkpt><trkpt lat="47.9326991" lon="7.1848101"><ele>349.0</ele><time>2026-04-03T13:04:18.898Z</time></trkpt><trkpt lat="47.9328085" lon="7.1846121"><ele>350.0</ele><time>2026-04-03T13:04:19.898Z</time></trkpt><trkpt lat="47.9329156" lon="7.1844236"><ele>350.0</ele><time>2026-04-03T13:04:20.898Z</time></trkpt><trkpt lat="47.9330209" lon="7.1842334"><ele>350.0</ele><time>2026-04-03T13:04:21.897Z</time></trkpt><trkpt lat="47.9331245" lon="7.1840416"><ele>350.0</ele><time>2026-04-03T13:04:22.897Z</time></trkpt><trkpt lat="47.9332263" lon="7.1838558"><ele>350.6666666666667</ele><time>2026-04-03T13:04:23.898Z</time></trkpt><trkpt lat="47.9333318" lon="7.183665"><ele>351.3333333333333</ele><time>2026-04-03T13:04:24.898Z</time></trkpt><trkpt lat="47.9334398" lon="7.1834786"><ele>352.0</ele><time>2026-04-03T13:04:25.898Z</time></trkpt><trkpt lat="47.933539" lon="7.1833049"><ele>352.0</ele><time>2026-04-03T13:04:26.897Z</time></trkpt><trkpt lat="47.9336361" lon="7.1831419"><ele>352.0</ele><time>2026-04-03T13:04:27.898Z</time></trkpt><trkpt lat="47.9337246" lon="7.1829912"><ele>352.0</ele><time>2026-04-03T13:04:28.897Z</time></trkpt><trkpt lat="47.9338099" lon="7.1828565"><ele>352.0</ele><time>2026-04-03T13:04:29.896Z</time></trkpt><trkpt lat="47.9338923" lon="7.1827186"><ele>352.0</ele><time>2026-04-03T13:04:30.896Z</time></trkpt><trkpt lat="47.9339724" lon="7.1825931"><ele>352.0</ele><time>2026-04-03T13:04:31.898Z</time></trkpt><trkpt lat="47.9340491" lon="7.1824612"><ele>352.0</ele><time>2026-04-03T13:04:32.898Z</time></trkpt><trkpt lat="47.9341366" lon="7.1823213"><ele>352.0</ele><time>2026-04-03T13:04:33.897Z</time></trkpt><trkpt lat="47.9342273" lon="7.1821846"><ele>352.75</ele><time>2026-04-03T13:04:34.897Z</time></trkpt><trkpt lat="47.9343197" lon="7.182051"><ele>353.5</ele><time>2026-04-03T13:04:35.899Z</time></trkpt><trkpt lat="47.9344114" lon="7.1819302"><ele>354.25</ele><time>2026-04-03T13:04:36.897Z</time></trkpt><trkpt lat="47.9345052" lon="7.1818041"><ele>355.0</ele><time>2026-04-03T13:04:37.897Z</time></trkpt><trkpt lat="47.9346016" lon="7.1816727"><ele>355.0</ele><time>2026-04-03T13:04:38.897Z</time></trkpt><trkpt lat="47.9347004" lon="7.1815385"><ele>355.0</ele><time>2026-04-03T13:04:39.897Z</time></trkpt><trkpt lat="47.9348003" lon="7.1813991"><ele>355.0</ele><time>2026-04-03T13:04:40.898Z</time></trkpt><trkpt lat="47.9348981" lon="7.1812577"><ele>355.0</ele><time>2026-04-03T13:04:41.898Z</time></trkpt><trkpt lat="47.9349974" lon="7.1811076"><ele>355.25</ele><time>2026-04-03T13:04:42.898Z</time></trkpt><trkpt lat="47.9350859" lon="7.1809486"><ele>355.5</ele><time>2026-04-03T13:04:43.897Z</time></trkpt><trkpt lat="47.935169" lon="7.180784"><ele>355.75</ele><time>2026-04-03T13:04:44.897Z</time></trkpt><trkpt lat="47.9352422" lon="7.1806136"><ele>356.0</ele><time>2026-04-03T13:04:45.897Z</time></trkpt><trkpt lat="47.9353069" lon="7.1804393"><ele>356.5</ele><time>2026-04-03T13:04:46.897Z</time></trkpt><trkpt lat="47.9353678" lon="7.1802572"><ele>357.0</ele><time>2026-04-03T13:04:47.898Z</time></trkpt><trkpt lat="47.935427" lon="7.1800677"><ele>357.5</ele><time>2026-04-03T13:04:48.898Z</time></trkpt><trkpt lat="47.9354824" lon="7.1798706"><ele>358.0</ele><time>2026-04-03T13:04:49.898Z</time></trkpt><trkpt lat="47.9355298" lon="7.1796687"><ele>358.0</ele><time>2026-04-03T13:04:50.896Z</time></trkpt><trkpt lat="47.9355677" lon="7.1794594"><ele>358.0</ele><time>2026-04-03T13:04:51.897Z</time></trkpt><trkpt lat="47.9356055" lon="7.1792427"><ele>358.0</ele><time>2026-04-03T13:04:52.897Z</time></trkpt><trkpt lat="47.9356434" lon="7.1790281"><ele>358.0</ele><time>2026-04-03T13:04:53.896Z</time></trkpt><trkpt lat="47.9356796" lon="7.1788127"><ele>358.0</ele><time>2026-04-03T13:04:54.898Z</time></trkpt><trkpt lat="47.9357191" lon="7.1786018"><ele>358.0</ele><time>2026-04-03T13:04:55.896Z</time></trkpt><trkpt lat="47.9357558" lon="7.1783927"><ele>358.0</ele><time>2026-04-03T13:04:56.897Z</time></trkpt><trkpt lat="47.9357908" lon="7.1781727"><ele>358.0</ele><time>2026-04-03T13:04:57.896Z</time></trkpt><trkpt lat="47.9358243" lon="7.1779483"><ele>358.3333333333333</ele><time>2026-04-03T13:04:58.897Z</time></trkpt><trkpt lat="47.935859" lon="7.1777209"><ele>358.6666666666667</ele><time>2026-04-03T13:04:59.897Z</time></trkpt><trkpt lat="47.9358953" lon="7.1774932"><ele>359.0</ele><time>2026-04-03T13:05:00.897Z</time></trkpt><trkpt lat="47.9359287" lon="7.1772527"><ele>359.33333333333337</ele><time>2026-04-03T13:05:01.897Z</time></trkpt><trkpt lat="47.9359653" lon="7.1770097"><ele>359.6666666666667</ele><time>2026-04-03T13:05:02.897Z</time></trkpt><trkpt lat="47.9360035" lon="7.176763"><ele>360.0</ele><time>2026-04-03T13:05:03.896Z</time></trkpt><trkpt lat="47.9360415" lon="7.1765207"><ele>361.0</ele><time>2026-04-03T13:05:04.898Z</time></trkpt><trkpt lat="47.9360853" lon="7.1762734"><ele>362.0</ele><time>2026-04-03T13:05:05.898Z</time></trkpt><trkpt lat="47.9361307" lon="7.1760094"><ele>363.0</ele><time>2026-04-03T13:05:06.898Z</time></trkpt><trkpt lat="47.9361759" lon="7.1757299"><ele>364.0</ele><time>2026-04-03T13:05:07.897Z</time></trkpt><trkpt lat="47.9362265" lon="7.1754453"><ele>365.0</ele><time>2026-04-03T13:05:08.897Z</time></trkpt><trkpt lat="47.9362771" lon="7.1751575"><ele>366.0</ele><time>2026-04-03T13:05:09.897Z</time></trkpt><trkpt lat="47.9363377" lon="7.1748676"><ele>366.0</ele><time>2026-04-03T13:05:10.897Z</time></trkpt><trkpt lat="47.9363994" lon="7.1745806"><ele>366.0</ele><time>2026-04-03T13:05:11.897Z</time></trkpt><trkpt lat="47.9364733" lon="7.1742922"><ele>366.0</ele><time>2026-04-03T13:05:12.896Z</time></trkpt><trkpt lat="47.9365509" lon="7.1740039"><ele>366.0</ele><time>2026-04-03T13:05:13.897Z</time></trkpt><trkpt lat="47.936636" lon="7.1737215"><ele>366.0</ele><time>2026-04-03T13:05:14.897Z</time></trkpt><trkpt lat="47.9367284" lon="7.1734401"><ele>366.0</ele><time>2026-04-03T13:05:15.897Z</time></trkpt><trkpt lat="47.9368241" lon="7.1731607"><ele>366.0</ele><time>2026-04-03T13:05:16.898Z</time></trkpt><trkpt lat="47.9369183" lon="7.1728824"><ele>366.0</ele><time>2026-04-03T13:05:17.899Z</time></trkpt><trkpt lat="47.9370072" lon="7.1726109"><ele>366.0</ele><time>2026-04-03T13:05:18.899Z</time></trkpt><trkpt lat="47.937085" lon="7.1723372"><ele>366.6666666666667</ele><time>2026-04-03T13:05:19.898Z</time></trkpt><trkpt lat="47.9371624" lon="7.1720585"><ele>367.33333333333337</ele><time>2026-04-03T13:05:20.897Z</time></trkpt><trkpt lat="47.9372319" lon="7.1717718"><ele>368.0</ele><time>2026-04-03T13:05:21.897Z</time></trkpt><trkpt lat="47.9372947" lon="7.1714847"><ele>369.6666666666667</ele><time>2026-04-03T13:05:22.897Z</time></trkpt><trkpt lat="47.9373602" lon="7.1711853"><ele>371.3333333333333</ele><time>2026-04-03T13:05:23.897Z</time></trkpt><trkpt lat="47.937425" lon="7.170885"><ele>373.0</ele><time>2026-04-03T13:05:24.896Z</time></trkpt><trkpt lat="47.9374845" lon="7.1705969"><ele>373.3333333333333</ele><time>2026-04-03T13:05:25.898Z</time></trkpt><trkpt lat="47.9375426" lon="7.170326"><ele>373.6666666666667</ele><time>2026-04-03T13:05:26.897Z</time></trkpt><trkpt lat="47.9376078" lon="7.1700555"><ele>374.0</ele><time>2026-04-03T13:05:27.897Z</time></trkpt><trkpt lat="47.9376781" lon="7.1697789"><ele>374.0</ele><time>2026-04-03T13:05:28.897Z</time></trkpt><trkpt lat="47.9377516" lon="7.1694975"><ele>374.0</ele><time>2026-04-03T13:05:29.898Z</time></trkpt><trkpt lat="47.9378333" lon="7.1692108"><ele>374.0</ele><time>2026-04-03T13:05:30.898Z</time></trkpt><trkpt lat="47.9379207" lon="7.1689137"><ele>374.6666666666667</ele><time>2026-04-03T13:05:31.898Z</time></trkpt><trkpt lat="47.9380162" lon="7.1686141"><ele>375.3333333333333</ele><time>2026-04-03T13:05:32.898Z</time></trkpt><trkpt lat="47.9381174" lon="7.1683242"><ele>376.0</ele><time>2026-04-03T13:05:33.897Z</time></trkpt><trkpt lat="47.9382181" lon="7.1680302"><ele>376.3333333333333</ele><time>2026-04-03T13:05:34.898Z</time></trkpt><trkpt lat="47.9383096" lon="7.16777"><ele>376.6666666666667</ele><time>2026-04-03T13:05:35.897Z</time></trkpt><trkpt lat="47.9383957" lon="7.1675181"><ele>377.0</ele><time>2026-04-03T13:05:36.897Z</time></trkpt><trkpt lat="47.9384763" lon="7.1672826"><ele>377.6666666666667</ele><time>2026-04-03T13:05:37.897Z</time></trkpt><trkpt lat="47.9385584" lon="7.1670465"><ele>378.3333333333333</ele><time>2026-04-03T13:05:38.898Z</time></trkpt><trkpt lat="47.9386398" lon="7.1668149"><ele>379.0</ele><time>2026-04-03T13:05:39.896Z</time></trkpt><trkpt lat="47.9387267" lon="7.1665591"><ele>379.66666666666663</ele><time>2026-04-03T13:05:40.899Z</time></trkpt><trkpt lat="47.9388169" lon="7.1662953"><ele>380.3333333333333</ele><time>2026-04-03T13:05:41.898Z</time></trkpt><trkpt lat="47.9388987" lon="7.1660177"><ele>381.0</ele><time>2026-04-03T13:05:42.897Z</time></trkpt><trkpt lat="47.9389745" lon="7.1657232"><ele>382.0</ele><time>2026-04-03T13:05:43.897Z</time></trkpt><trkpt lat="47.9390446" lon="7.1654277"><ele>383.0</ele><time>2026-04-03T13:05:44.897Z</time></trkpt><trkpt lat="47.9391041" lon="7.1651419"><ele>384.0</ele><time>2026-04-03T13:05:45.897Z</time></trkpt><trkpt lat="47.939138" lon="7.1648761"><ele>384.0</ele><time>2026-04-03T13:05:46.897Z</time></trkpt><trkpt lat="47.9391692" lon="7.1646267"><ele>384.0</ele><time>2026-04-03T13:05:47.897Z</time></trkpt><trkpt lat="47.9392002" lon="7.1643781"><ele>384.0</ele><time>2026-04-03T13:05:48.898Z</time></trkpt><trkpt lat="47.9392313" lon="7.164112"><ele>384.66666666666663</ele><time>2026-04-03T13:05:49.896Z</time></trkpt><trkpt lat="47.9392609" lon="7.1638414"><ele>385.3333333333333</ele><time>2026-04-03T13:05:50.897Z</time></trkpt><trkpt lat="47.9393002" lon="7.1635746"><ele>386.0</ele><time>2026-04-03T13:05:51.897Z</time></trkpt><trkpt lat="47.9393341" lon="7.1633004"><ele>386.0</ele><time>2026-04-03T13:05:52.897Z</time></trkpt><trkpt lat="47.9393608" lon="7.1630343"><ele>386.0</ele><time>2026-04-03T13:05:53.898Z</time></trkpt><trkpt lat="47.9393867" lon="7.1627775"><ele>386.0</ele><time>2026-04-03T13:05:54.898Z</time></trkpt><trkpt lat="47.9394086" lon="7.1625216"><ele>385.66666666666663</ele><time>2026-04-03T13:05:55.898Z</time></trkpt><trkpt lat="47.9394304" lon="7.1622776"><ele>385.33333333333337</ele><time>2026-04-03T13:05:56.896Z</time></trkpt><trkpt lat="47.9394474" lon="7.1620225"><ele>385.0</ele><time>2026-04-03T13:05:57.897Z</time></trkpt><trkpt lat="47.9394696" lon="7.1617666"><ele>385.33333333333337</ele><time>2026-04-03T13:05:58.898Z</time></trkpt><trkpt lat="47.9394936" lon="7.1614944"><ele>385.66666666666663</ele><time>2026-04-03T13:05:59.897Z</time></trkpt><trkpt lat="47.9395178" lon="7.1612086"><ele>386.0</ele><time>2026-04-03T13:06:00.897Z</time></trkpt><trkpt lat="47.9395481" lon="7.1608945"><ele>387.0</ele><time>2026-04-03T13:06:01.898Z</time></trkpt><trkpt lat="47.939575" lon="7.1605896"><ele>388.0</ele><time>2026-04-03T13:06:02.897Z</time></trkpt><trkpt lat="47.9396034" lon="7.1603018"><ele>389.0</ele><time>2026-04-03T13:06:03.898Z</time></trkpt><trkpt lat="47.9396296" lon="7.1600508"><ele>390.0</ele><time>2026-04-03T13:06:04.898Z</time></trkpt><trkpt lat="47.9396576" lon="7.1598056"><ele>391.0</ele><time>2026-04-03T13:06:05.898Z</time></trkpt><trkpt lat="47.9396913" lon="7.1595838"><ele>392.0</ele><time>2026-04-03T13:06:06.899Z</time></trkpt><trkpt lat="47.9397315" lon="7.1593843"><ele>392.0</ele><time>2026-04-03T13:06:07.897Z</time></trkpt><trkpt lat="47.9397777" lon="7.1591901"><ele>392.0</ele><time>2026-04-03T13:06:08.897Z</time></trkpt><trkpt lat="47.9398294" lon="7.1590092"><ele>392.0</ele><time>2026-04-03T13:06:09.897Z</time></trkpt><trkpt lat="47.9398857" lon="7.1588286"><ele>392.0</ele><time>2026-04-03T13:06:10.897Z</time></trkpt><trkpt lat="47.9399434" lon="7.1586782"><ele>392.0</ele><time>2026-04-03T13:06:11.897Z</time></trkpt><trkpt lat="47.9400018" lon="7.158535"><ele>392.0</ele><time>2026-04-03T13:06:12.897Z</time></trkpt><trkpt lat="47.940071" lon="7.1583998"><ele>392.0</ele><time>2026-04-03T13:06:13.898Z</time></trkpt><trkpt lat="47.9401488" lon="7.1582592"><ele>392.0</ele><time>2026-04-03T13:06:14.898Z</time></trkpt><trkpt lat="47.9402381" lon="7.1581037"><ele>392.75</ele><time>2026-04-03T13:06:15.897Z</time></trkpt><trkpt lat="47.9403261" lon="7.1579498"><ele>393.5</ele><time>2026-04-03T13:06:16.898Z</time></trkpt><trkpt lat="47.9404023" lon="7.1578002"><ele>394.25</ele><time>2026-04-03T13:06:17.898Z</time></trkpt><trkpt lat="47.940483" lon="7.1576497"><ele>395.0</ele><time>2026-04-03T13:06:18.898Z</time></trkpt><trkpt lat="47.9405494" lon="7.1574925"><ele>395.5</ele><time>2026-04-03T13:06:19.899Z</time></trkpt><trkpt lat="47.9406137" lon="7.1573272"><ele>396.0</ele><time>2026-04-03T13:06:20.897Z</time></trkpt><trkpt lat="47.940672" lon="7.1571577"><ele>396.5</ele><time>2026-04-03T13:06:21.897Z</time></trkpt><trkpt lat="47.9407283" lon="7.1569741"><ele>397.0</ele><time>2026-04-03T13:06:22.897Z</time></trkpt><trkpt lat="47.9407766" lon="7.1567789"><ele>397.0</ele><time>2026-04-03T13:06:23.897Z</time></trkpt><trkpt lat="47.9408327" lon="7.1565808"><ele>397.0</ele><time>2026-04-03T13:06:24.898Z</time></trkpt><trkpt lat="47.9408895" lon="7.1563886"><ele>397.0</ele><time>2026-04-03T13:06:25.897Z</time></trkpt><trkpt lat="47.9409554" lon="7.1562052"><ele>397.0</ele><time>2026-04-03T13:06:26.897Z</time></trkpt><trkpt lat="47.9410255" lon="7.1560192"><ele>397.0</ele><time>2026-04-03T13:06:27.897Z</time></trkpt><trkpt lat="47.9410885" lon="7.1558266"><ele>397.0</ele><time>2026-04-03T13:06:28.897Z</time></trkpt><trkpt lat="47.9411545" lon="7.1556294"><ele>397.0</ele><time>2026-04-03T13:06:29.897Z</time></trkpt><trkpt lat="47.9412267" lon="7.1554297"><ele>397.0</ele><time>2026-04-03T13:06:30.897Z</time></trkpt><trkpt lat="47.9412964" lon="7.1552246"><ele>397.0</ele><time>2026-04-03T13:06:31.896Z</time></trkpt><trkpt lat="47.9413671" lon="7.1550145"><ele>397.0</ele><time>2026-04-03T13:06:32.897Z</time></trkpt><trkpt lat="47.9414481" lon="7.1548046"><ele>397.0</ele><time>2026-04-03T13:06:33.898Z</time></trkpt><trkpt lat="47.9415245" lon="7.1545741"><ele>398.33333333333337</ele><time>2026-04-03T13:06:34.896Z</time></trkpt><trkpt lat="47.9415919" lon="7.1543268"><ele>399.66666666666663</ele><time>2026-04-03T13:06:35.897Z</time></trkpt><trkpt lat="47.9416582" lon="7.1540731"><ele>401.0</ele><time>2026-04-03T13:06:36.898Z</time></trkpt><trkpt lat="47.9417183" lon="7.1538196"><ele>403.0</ele><time>2026-04-03T13:06:37.896Z</time></trkpt><trkpt lat="47.9417751" lon="7.1535557"><ele>405.0</ele><time>2026-04-03T13:06:38.898Z</time></trkpt><trkpt lat="47.941828" lon="7.1532919"><ele>407.0</ele><time>2026-04-03T13:06:39.898Z</time></trkpt><trkpt lat="47.9418756" lon="7.1530217"><ele>407.0</ele><time>2026-04-03T13:06:40.897Z</time></trkpt><trkpt lat="47.9419276" lon="7.1527469"><ele>407.0</ele><time>2026-04-03T13:06:41.897Z</time></trkpt><trkpt lat="47.9419835" lon="7.1524798"><ele>407.0</ele><time>2026-04-03T13:06:42.898Z</time></trkpt><trkpt lat="47.9420357" lon="7.1522258"><ele>406.66666666666663</ele><time>2026-04-03T13:06:43.897Z</time></trkpt><trkpt lat="47.9420868" lon="7.1519671"><ele>406.33333333333337</ele><time>2026-04-03T13:06:44.899Z</time></trkpt><trkpt lat="47.9421373" lon="7.1517151"><ele>406.0</ele><time>2026-04-03T13:06:45.897Z</time></trkpt><trkpt lat="47.9422016" lon="7.1514695"><ele>407.0</ele><time>2026-04-03T13:06:46.897Z</time></trkpt><trkpt lat="47.9422662" lon="7.1512262"><ele>408.0</ele><time>2026-04-03T13:06:47.896Z</time></trkpt><trkpt lat="47.9423477" lon="7.1509888"><ele>409.0</ele><time>2026-04-03T13:06:48.899Z</time></trkpt><trkpt lat="47.9424341" lon="7.1507636"><ele>409.33333333333337</ele><time>2026-04-03T13:06:49.897Z</time></trkpt><trkpt lat="47.9425342" lon="7.1505417"><ele>409.66666666666663</ele><time>2026-04-03T13:06:50.898Z</time></trkpt><trkpt lat="47.9426429" lon="7.1503287"><ele>410.0</ele><time>2026-04-03T13:06:51.896Z</time></trkpt><trkpt lat="47.9427508" lon="7.1501221"><ele>415.0</ele><time>2026-04-03T13:06:52.897Z</time></trkpt><trkpt lat="47.9428584" lon="7.1499251"><ele>420.0</ele><time>2026-04-03T13:06:53.898Z</time></trkpt><trkpt lat="47.9429734" lon="7.149734"><ele>425.0</ele><time>2026-04-03T13:06:54.896Z</time></trkpt><trkpt lat="47.9430747" lon="7.1495251"><ele>425.0</ele><time>2026-04-03T13:06:55.897Z</time></trkpt><trkpt lat="47.9431578" lon="7.1492968"><ele>425.0</ele><time>2026-04-03T13:06:56.897Z</time></trkpt><trkpt lat="47.9432309" lon="7.1490577"><ele>425.0</ele><time>2026-04-03T13:06:57.897Z</time></trkpt><trkpt lat="47.9433041" lon="7.1488153"><ele>422.3333333333333</ele><time>2026-04-03T13:06:58.897Z</time></trkpt><trkpt lat="47.943376" lon="7.1485659"><ele>419.66666666666663</ele><time>2026-04-03T13:06:59.897Z</time></trkpt><trkpt lat="47.9434431" lon="7.1483176"><ele>417.0</ele><time>2026-04-03T13:07:00.899Z</time></trkpt><trkpt lat="47.9435233" lon="7.1480556"><ele>421.66666666666663</ele><time>2026-04-03T13:07:01.897Z</time></trkpt><trkpt lat="47.9436291" lon="7.1477996"><ele>426.3333333333333</ele><time>2026-04-03T13:07:02.899Z</time></trkpt><trkpt lat="47.9437469" lon="7.1475249"><ele>431.0</ele><time>2026-04-03T13:07:03.897Z</time></trkpt><trkpt lat="47.9438582" lon="7.147227"><ele>431.0</ele><time>2026-04-03T13:07:04.896Z</time></trkpt><trkpt lat="47.9439557" lon="7.1469088"><ele>431.0</ele><time>2026-04-03T13:07:05.897Z</time></trkpt><trkpt lat="47.9440498" lon="7.1465726"><ele>430.5</ele><time>2026-04-03T13:07:06.898Z</time></trkpt><trkpt lat="47.9441456" lon="7.1462256"><ele>430.0</ele><time>2026-04-03T13:07:07.898Z</time></trkpt><trkpt lat="47.9442307" lon="7.1458866"><ele>439.33333333333337</ele><time>2026-04-03T13:07:08.896Z</time></trkpt><trkpt lat="47.9443083" lon="7.1455719"><ele>448.66666666666663</ele><time>2026-04-03T13:07:09.898Z</time></trkpt><trkpt lat="47.9443826" lon="7.1452665"><ele>458.0</ele><time>2026-04-03T13:07:10.898Z</time></trkpt><trkpt lat="47.9444658" lon="7.1449797"><ele>453.3333333333333</ele><time>2026-04-03T13:07:11.898Z</time></trkpt><trkpt lat="47.9445669" lon="7.144715"><ele>448.66666666666663</ele><time>2026-04-03T13:07:12.898Z</time></trkpt><trkpt lat="47.9446664" lon="7.1444432"><ele>444.0</ele><time>2026-04-03T13:07:13.898Z</time></trkpt><trkpt lat="47.9447493" lon="7.1441537"><ele>440.33333333333337</ele><time>2026-04-03T13:07:14.896Z</time></trkpt><trkpt lat="47.9448087" lon="7.1438473"><ele>436.6666666666667</ele><time>2026-04-03T13:07:15.898Z</time></trkpt><trkpt lat="47.9448475" lon="7.1435328"><ele>433.0</ele><time>2026-04-03T13:07:16.898Z</time></trkpt><trkpt lat="47.9448777" lon="7.1432192"><ele>433.0</ele><time>2026-04-03T13:07:17.897Z</time></trkpt><trkpt lat="47.9449034" lon="7.1429069"><ele>433.0</ele><time>2026-04-03T13:07:18.899Z</time></trkpt><trkpt lat="47.9449337" lon="7.1426043"><ele>433.0</ele><time>2026-04-03T13:07:19.898Z</time></trkpt><trkpt lat="47.9449543" lon="7.1423172"><ele>433.0</ele><time>2026-04-03T13:07:20.896Z</time></trkpt><trkpt lat="47.9449733" lon="7.1420484"><ele>433.0</ele><time>2026-04-03T13:07:21.899Z</time></trkpt><trkpt lat="47.9449968" lon="7.1417852"><ele>433.0</ele><time>2026-04-03T13:07:22.898Z</time></trkpt><trkpt lat="47.9450197" lon="7.1415277"><ele>433.0</ele><time>2026-04-03T13:07:23.897Z</time></trkpt><trkpt lat="47.9450395" lon="7.1412759"><ele>433.0</ele><time>2026-04-03T13:07:24.898Z</time></trkpt><trkpt lat="47.9450622" lon="7.1410175"><ele>433.0</ele><time>2026-04-03T13:07:25.898Z</time></trkpt><trkpt lat="47.9450867" lon="7.1407694"><ele>447.0</ele><time>2026-04-03T13:07:26.898Z</time></trkpt><trkpt lat="47.945111" lon="7.1405164"><ele>461.0</ele><time>2026-04-03T13:07:27.898Z</time></trkpt><trkpt lat="47.9451432" lon="7.1402508"><ele>475.0</ele><time>2026-04-03T13:07:28.896Z</time></trkpt><trkpt lat="47.9451723" lon="7.1399802"><ele>477.0</ele><time>2026-04-03T13:07:29.897Z</time></trkpt><trkpt lat="47.9451956" lon="7.1397133"><ele>479.0</ele><time>2026-04-03T13:07:30.898Z</time></trkpt><trkpt lat="47.9452174" lon="7.1394309"><ele>481.0</ele><time>2026-04-03T13:07:31.897Z</time></trkpt><trkpt lat="47.9452401" lon="7.1391534"><ele>479.6666666666667</ele><time>2026-04-03T13:07:32.897Z</time></trkpt><trkpt lat="47.9452615" lon="7.1388672"><ele>478.33333333333337</ele><time>2026-04-03T13:07:33.897Z</time></trkpt><trkpt lat="47.9452814" lon="7.1385851"><ele>477.0</ele><time>2026-04-03T13:07:34.898Z</time></trkpt><trkpt lat="47.9453001" lon="7.1383061"><ele>474.0</ele><time>2026-04-03T13:07:35.897Z</time></trkpt><trkpt lat="47.9453181" lon="7.1380435"><ele>471.0</ele><time>2026-04-03T13:07:36.896Z</time></trkpt><trkpt lat="47.9453382" lon="7.1378038"><ele>468.0</ele><time>2026-04-03T13:07:37.897Z</time></trkpt><trkpt lat="47.9453593" lon="7.1375782"><ele>467.0</ele><time>2026-04-03T13:07:38.898Z</time></trkpt><trkpt lat="47.9453724" lon="7.1373702"><ele>466.0</ele><time>2026-04-03T13:07:39.898Z</time></trkpt><trkpt lat="47.945385" lon="7.1371826"><ele>465.0</ele><time>2026-04-03T13:07:40.899Z</time></trkpt><trkpt lat="47.945399" lon="7.1370122"><ele>464.0</ele><time>2026-04-03T13:07:41.898Z</time></trkpt><trkpt lat="47.9454033" lon="7.1368481"><ele>464.0</ele><time>2026-04-03T13:07:42.897Z</time></trkpt><trkpt lat="47.9453768" lon="7.1366897"><ele>464.0</ele><time>2026-04-03T13:07:43.898Z</time></trkpt><trkpt lat="47.9453457" lon="7.1365267"><ele>464.0</ele><time>2026-04-03T13:07:44.898Z</time></trkpt><trkpt lat="47.9453197" lon="7.1363583"><ele>464.0</ele><time>2026-04-03T13:07:45.897Z</time></trkpt><trkpt lat="47.945282" lon="7.1361855"><ele>463.75</ele><time>2026-04-03T13:07:46.897Z</time></trkpt><trkpt lat="47.9452413" lon="7.1360082"><ele>463.5</ele><time>2026-04-03T13:07:47.898Z</time></trkpt><trkpt lat="47.9451972" lon="7.1358243"><ele>463.25</ele><time>2026-04-03T13:07:48.897Z</time></trkpt><trkpt lat="47.9451628" lon="7.1356387"><ele>463.0</ele><time>2026-04-03T13:07:49.896Z</time></trkpt><trkpt lat="47.9451246" lon="7.1354504"><ele>463.0</ele><time>2026-04-03T13:07:50.898Z</time></trkpt><trkpt lat="47.9450778" lon="7.1352624"><ele>463.0</ele><time>2026-04-03T13:07:51.897Z</time></trkpt><trkpt lat="47.9450513" lon="7.1350675"><ele>463.0</ele><time>2026-04-03T13:07:52.897Z</time></trkpt><trkpt lat="47.9450228" lon="7.1348701"><ele>463.0</ele><time>2026-04-03T13:07:53.897Z</time></trkpt><trkpt lat="47.945006" lon="7.1346815"><ele>458.75</ele><time>2026-04-03T13:07:54.897Z</time></trkpt><trkpt lat="47.9450024" lon="7.1345039"><ele>454.5</ele><time>2026-04-03T13:07:55.898Z</time></trkpt><trkpt lat="47.945001" lon="7.1343307"><ele>450.25</ele><time>2026-04-03T13:07:56.898Z</time></trkpt><trkpt lat="47.9449866" lon="7.1341506"><ele>446.0</ele><time>2026-04-03T13:07:57.898Z</time></trkpt><trkpt lat="47.9449663" lon="7.1339727"><ele>446.0</ele><time>2026-04-03T13:07:58.898Z</time></trkpt><trkpt lat="47.944947" lon="7.133798"><ele>446.0</ele><time>2026-04-03T13:07:59.897Z</time></trkpt><trkpt lat="47.944933" lon="7.1336189"><ele>446.0</ele><time>2026-04-03T13:08:00.898Z</time></trkpt><trkpt lat="47.9449158" lon="7.1334481"><ele>446.0</ele><time>2026-04-03T13:08:01.898Z</time></trkpt><trkpt lat="47.9449004" lon="7.133275"><ele>446.5</ele><time>2026-04-03T13:08:02.898Z</time></trkpt><trkpt lat="47.9448878" lon="7.1331069"><ele>447.0</ele><time>2026-04-03T13:08:03.898Z</time></trkpt><trkpt lat="47.9448732" lon="7.1329365"><ele>447.5</ele><time>2026-04-03T13:08:04.898Z</time></trkpt><trkpt lat="47.9448676" lon="7.132772"><ele>448.0</ele><time>2026-04-03T13:08:05.896Z</time></trkpt><trkpt lat="47.9448632" lon="7.1326002"><ele>448.0</ele><time>2026-04-03T13:08:06.897Z</time></trkpt><trkpt lat="47.9448674" lon="7.1324286"><ele>447.99999999999994</ele><time>2026-04-03T13:08:07.897Z</time></trkpt><trkpt lat="47.9448765" lon="7.1322702"><ele>447.99999999999994</ele><time>2026-04-03T13:08:08.897Z</time></trkpt><trkpt lat="47.944893" lon="7.132125"><ele>448.0</ele><time>2026-04-03T13:08:09.898Z</time></trkpt><trkpt lat="47.9449139" lon="7.1319813"><ele>448.0</ele><time>2026-04-03T13:08:10.897Z</time></trkpt><trkpt lat="47.9449389" lon="7.1318448"><ele>448.0</ele><time>2026-04-03T13:08:11.896Z</time></trkpt><trkpt lat="47.9449704" lon="7.1317064"><ele>447.99999999999994</ele><time>2026-04-03T13:08:12.898Z</time></trkpt><trkpt lat="47.9450052" lon="7.1315759"><ele>447.99999999999994</ele><time>2026-04-03T13:08:13.896Z</time></trkpt><trkpt lat="47.9450355" lon="7.1314493"><ele>448.0</ele><time>2026-04-03T13:08:14.898Z</time></trkpt><trkpt lat="47.945072" lon="7.1313244"><ele>448.0</ele><time>2026-04-03T13:08:15.897Z</time></trkpt><trkpt lat="47.9451204" lon="7.1311968"><ele>448.79999999999995</ele><time>2026-04-03T13:08:16.898Z</time></trkpt><trkpt lat="47.9451806" lon="7.1310826"><ele>449.59999999999997</ele><time>2026-04-03T13:08:17.897Z</time></trkpt><trkpt lat="47.9452528" lon="7.1309703"><ele>450.40000000000003</ele><time>2026-04-03T13:08:18.898Z</time></trkpt><trkpt lat="47.9453388" lon="7.1308757"><ele>451.20000000000005</ele><time>2026-04-03T13:08:19.897Z</time></trkpt><trkpt lat="47.9454305" lon="7.1307961"><ele>452.0</ele><time>2026-04-03T13:08:20.898Z</time></trkpt><trkpt lat="47.9455131" lon="7.1307222"><ele>451.99999999999994</ele><time>2026-04-03T13:08:21.899Z</time></trkpt><trkpt lat="47.9455899" lon="7.1306574"><ele>452.0</ele><time>2026-04-03T13:08:22.898Z</time></trkpt><trkpt lat="47.9456526" lon="7.1305939"><ele>452.0</ele><time>2026-04-03T13:08:23.898Z</time></trkpt><trkpt lat="47.9457051" lon="7.1305143"><ele>452.0</ele><time>2026-04-03T13:08:24.897Z</time></trkpt><trkpt lat="47.9457505" lon="7.130407"><ele>451.99999999999994</ele><time>2026-04-03T13:08:25.898Z</time></trkpt><trkpt lat="47.9457563" lon="7.1302915"><ele>452.0</ele><time>2026-04-03T13:08:26.897Z</time></trkpt><trkpt lat="47.945753" lon="7.1301773"><ele>452.0</ele><time>2026-04-03T13:08:27.897Z</time></trkpt><trkpt lat="47.9457273" lon="7.1300621"><ele>452.00000000000006</ele><time>2026-04-03T13:08:28.898Z</time></trkpt><trkpt lat="47.9456863" lon="7.1299407"><ele>452.00000000000006</ele><time>2026-04-03T13:08:29.897Z</time></trkpt><trkpt lat="47.9456448" lon="7.1298173"><ele>452.0</ele><time>2026-04-03T13:08:30.896Z</time></trkpt><trkpt lat="47.9456017" lon="7.1296752"><ele>452.0</ele><time>2026-04-03T13:08:31.898Z</time></trkpt><trkpt lat="47.9455582" lon="7.1295339"><ele>453.0</ele><time>2026-04-03T13:08:32.896Z</time></trkpt><trkpt lat="47.9455091" lon="7.1293903"><ele>454.00000000000006</ele><time>2026-04-03T13:08:33.896Z</time></trkpt><trkpt lat="47.9454643" lon="7.129239"><ele>455.00000000000006</ele><time>2026-04-03T13:08:34.899Z</time></trkpt><trkpt lat="47.9454207" lon="7.129088"><ele>456.0</ele><time>2026-04-03T13:08:35.897Z</time></trkpt><trkpt lat="47.9453731" lon="7.1289319"><ele>457.0</ele><time>2026-04-03T13:08:36.898Z</time></trkpt><trkpt lat="47.9453264" lon="7.128776"><ele>460.6</ele><time>2026-04-03T13:08:37.897Z</time></trkpt><trkpt lat="47.9452799" lon="7.12863"><ele>464.20000000000005</ele><time>2026-04-03T13:08:38.898Z</time></trkpt><trkpt lat="47.945235" lon="7.1284756"><ele>467.8</ele><time>2026-04-03T13:08:39.897Z</time></trkpt><trkpt lat="47.9451911" lon="7.1283248"><ele>471.4</ele><time>2026-04-03T13:08:40.898Z</time></trkpt><trkpt lat="47.9451516" lon="7.1281737"><ele>475.0</ele><time>2026-04-03T13:08:41.897Z</time></trkpt><trkpt lat="47.9451107" lon="7.1280232"><ele>471.5</ele><time>2026-04-03T13:08:42.897Z</time></trkpt><trkpt lat="47.9450715" lon="7.1278743"><ele>468.0</ele><time>2026-04-03T13:08:43.897Z</time></trkpt><trkpt lat="47.9450247" lon="7.1277151"><ele>464.5</ele><time>2026-04-03T13:08:44.897Z</time></trkpt><trkpt lat="47.9449808" lon="7.1275594"><ele>461.0</ele><time>2026-04-03T13:08:45.898Z</time></trkpt><trkpt lat="47.9449313" lon="7.1274017"><ele>461.0</ele><time>2026-04-03T13:08:46.897Z</time></trkpt><trkpt lat="47.9448814" lon="7.1272386"><ele>461.0</ele><time>2026-04-03T13:08:47.898Z</time></trkpt><trkpt lat="47.9448273" lon="7.1270819"><ele>461.0</ele><time>2026-04-03T13:08:48.897Z</time></trkpt><trkpt lat="47.9447699" lon="7.1269221"><ele>461.0</ele><time>2026-04-03T13:08:49.897Z</time></trkpt><trkpt lat="47.9447156" lon="7.1267683"><ele>461.0</ele><time>2026-04-03T13:08:50.898Z</time></trkpt><trkpt lat="47.9446552" lon="7.1266121"><ele>461.0</ele><time>2026-04-03T13:08:51.899Z</time></trkpt><trkpt lat="47.9445834" lon="7.1264601"><ele>461.0</ele><time>2026-04-03T13:08:52.898Z</time></trkpt><trkpt lat="47.9445056" lon="7.1263251"><ele>461.0</ele><time>2026-04-03T13:08:53.897Z</time></trkpt><trkpt lat="47.9444207" lon="7.1262019"><ele>460.6</ele><time>2026-04-03T13:08:54.898Z</time></trkpt><trkpt lat="47.9443371" lon="7.1260915"><ele>460.20000000000005</ele><time>2026-04-03T13:08:55.897Z</time></trkpt><trkpt lat="47.944261" lon="7.1259822"><ele>459.79999999999995</ele><time>2026-04-03T13:08:56.898Z</time></trkpt><trkpt lat="47.9441828" lon="7.1258742"><ele>459.4</ele><time>2026-04-03T13:08:57.897Z</time></trkpt><trkpt lat="47.9441111" lon="7.1257685"><ele>459.0</ele><time>2026-04-03T13:08:58.898Z</time></trkpt><trkpt lat="47.9440414" lon="7.1256635"><ele>459.0</ele><time>2026-04-03T13:08:59.898Z</time></trkpt><trkpt lat="47.9439746" lon="7.1255547"><ele>459.0</ele><time>2026-04-03T13:09:00.897Z</time></trkpt><trkpt lat="47.9439146" lon="7.1254414"><ele>459.0</ele><time>2026-04-03T13:09:01.897Z</time></trkpt><trkpt lat="47.9438534" lon="7.1253091"><ele>459.0</ele><time>2026-04-03T13:09:02.897Z</time></trkpt><trkpt lat="47.9437919" lon="7.125162"><ele>459.0</ele><time>2026-04-03T13:09:03.897Z</time></trkpt><trkpt lat="47.9437449" lon="7.1250099"><ele>459.5</ele><time>2026-04-03T13:09:04.897Z</time></trkpt><trkpt lat="47.9437019" lon="7.1248486"><ele>460.0</ele><time>2026-04-03T13:09:05.898Z</time></trkpt><trkpt lat="47.9436573" lon="7.1246778"><ele>460.5</ele><time>2026-04-03T13:09:06.898Z</time></trkpt><trkpt lat="47.9436225" lon="7.1244943"><ele>461.0</ele><time>2026-04-03T13:09:07.897Z</time></trkpt><trkpt lat="47.9436035" lon="7.1243021"><ele>461.0</ele><time>2026-04-03T13:09:08.897Z</time></trkpt><trkpt lat="47.9435879" lon="7.124111"><ele>461.0</ele><time>2026-04-03T13:09:09.897Z</time></trkpt><trkpt lat="47.9435619" lon="7.1239108"><ele>461.0</ele><time>2026-04-03T13:09:10.897Z</time></trkpt><trkpt lat="47.9435295" lon="7.1237056"><ele>461.0</ele><time>2026-04-03T13:09:11.896Z</time></trkpt><trkpt lat="47.9434965" lon="7.1234923"><ele>461.5</ele><time>2026-04-03T13:09:12.899Z</time></trkpt><trkpt lat="47.9434626" lon="7.1232871"><ele>462.0</ele><time>2026-04-03T13:09:13.897Z</time></trkpt><trkpt lat="47.94343" lon="7.1230969"><ele>462.5</ele><time>2026-04-03T13:09:14.896Z</time></trkpt><trkpt lat="47.9433996" lon="7.1229173"><ele>463.0</ele><time>2026-04-03T13:09:15.897Z</time></trkpt><trkpt lat="47.9433723" lon="7.122755"><ele>463.0</ele><time>2026-04-03T13:09:16.898Z</time></trkpt><trkpt lat="47.9433448" lon="7.1225845"><ele>463.0</ele><time>2026-04-03T13:09:17.897Z</time></trkpt><trkpt lat="47.9433171" lon="7.1224079"><ele>463.0</ele><time>2026-04-03T13:09:18.898Z</time></trkpt><trkpt lat="47.943293" lon="7.1222331"><ele>463.0</ele><time>2026-04-03T13:09:19.896Z</time></trkpt><trkpt lat="47.9432698" lon="7.1220582"><ele>463.5</ele><time>2026-04-03T13:09:20.897Z</time></trkpt><trkpt lat="47.9432458" lon="7.121872"><ele>464.0</ele><time>2026-04-03T13:09:21.898Z</time></trkpt><trkpt lat="47.943225" lon="7.1216837"><ele>464.5</ele><time>2026-04-03T13:09:22.898Z</time></trkpt><trkpt lat="47.943183" lon="7.1214979"><ele>465.0</ele><time>2026-04-03T13:09:23.896Z</time></trkpt><trkpt lat="47.9431476" lon="7.1213063"><ele>466.5</ele><time>2026-04-03T13:09:24.897Z</time></trkpt><trkpt lat="47.9430921" lon="7.1211201"><ele>468.0</ele><time>2026-04-03T13:09:25.898Z</time></trkpt><trkpt lat="47.9430471" lon="7.1209414"><ele>469.5</ele><time>2026-04-03T13:09:26.897Z</time></trkpt><trkpt lat="47.9429813" lon="7.1207864"><ele>471.0</ele><time>2026-04-03T13:09:27.898Z</time></trkpt><trkpt lat="47.9429001" lon="7.1206378"><ele>473.25</ele><time>2026-04-03T13:09:28.898Z</time></trkpt><trkpt lat="47.9428314" lon="7.1204898"><ele>475.5</ele><time>2026-04-03T13:09:29.898Z</time></trkpt><trkpt lat="47.9427686" lon="7.120343"><ele>477.75</ele><time>2026-04-03T13:09:30.898Z</time></trkpt><trkpt lat="47.9427323" lon="7.120175"><ele>480.0</ele><time>2026-04-03T13:09:31.897Z</time></trkpt><trkpt lat="47.9427062" lon="7.120005"><ele>482.5</ele><time>2026-04-03T13:09:32.897Z</time></trkpt><trkpt lat="47.9426849" lon="7.1198087"><ele>485.0</ele><time>2026-04-03T13:09:33.898Z</time></trkpt><trkpt lat="47.9426652" lon="7.1196123"><ele>487.5</ele><time>2026-04-03T13:09:34.898Z</time></trkpt><trkpt lat="47.9426402" lon="7.1194177"><ele>490.0</ele><time>2026-04-03T13:09:35.898Z</time></trkpt><trkpt lat="47.9426207" lon="7.1192212"><ele>493.0</ele><time>2026-04-03T13:09:36.897Z</time></trkpt><trkpt lat="47.9426105" lon="7.1190305"><ele>496.0</ele><time>2026-04-03T13:09:37.897Z</time></trkpt><trkpt lat="47.9426061" lon="7.1188495"><ele>499.0</ele><time>2026-04-03T13:09:38.898Z</time></trkpt><trkpt lat="47.9425956" lon="7.1186711"><ele>502.0</ele><time>2026-04-03T13:09:39.898Z</time></trkpt><trkpt lat="47.9425794" lon="7.1184948"><ele>502.0</ele><time>2026-04-03T13:09:40.897Z</time></trkpt><trkpt lat="47.9425624" lon="7.1183151"><ele>502.0</ele><time>2026-04-03T13:09:41.897Z</time></trkpt><trkpt lat="47.9425375" lon="7.1181376"><ele>502.0</ele><time>2026-04-03T13:09:42.898Z</time></trkpt><trkpt lat="47.9425004" lon="7.1179586"><ele>502.0</ele><time>2026-04-03T13:09:43.897Z</time></trkpt><trkpt lat="47.9424482" lon="7.1177832"><ele>499.75</ele><time>2026-04-03T13:09:44.897Z</time></trkpt><trkpt lat="47.9423928" lon="7.1176004"><ele>497.5</ele><time>2026-04-03T13:09:45.898Z</time></trkpt><trkpt lat="47.9423415" lon="7.1174139"><ele>495.25</ele><time>2026-04-03T13:09:46.897Z</time></trkpt><trkpt lat="47.9422864" lon="7.1172254"><ele>493.0</ele><time>2026-04-03T13:09:47.898Z</time></trkpt><trkpt lat="47.942235" lon="7.1170381"><ele>493.0</ele><time>2026-04-03T13:09:48.898Z</time></trkpt><trkpt lat="47.9421791" lon="7.1168352"><ele>493.0</ele><time>2026-04-03T13:09:49.897Z</time></trkpt><trkpt lat="47.9421158" lon="7.1166441"><ele>493.0</ele><time>2026-04-03T13:09:50.897Z</time></trkpt><trkpt lat="47.9420574" lon="7.1164534"><ele>493.0</ele><time>2026-04-03T13:09:51.896Z</time></trkpt><trkpt lat="47.9419981" lon="7.1162563"><ele>498.75</ele><time>2026-04-03T13:09:52.897Z</time></trkpt><trkpt lat="47.9419387" lon="7.1160625"><ele>504.5</ele><time>2026-04-03T13:09:53.897Z</time></trkpt><trkpt lat="47.941883" lon="7.1158667"><ele>510.25</ele><time>2026-04-03T13:09:54.896Z</time></trkpt><trkpt lat="47.941829" lon="7.1156766"><ele>516.0</ele><time>2026-04-03T13:09:55.897Z</time></trkpt><trkpt lat="47.9417852" lon="7.1155091"><ele>519.75</ele><time>2026-04-03T13:09:56.898Z</time></trkpt><trkpt lat="47.9417374" lon="7.1153479"><ele>523.5</ele><time>2026-04-03T13:09:57.898Z</time></trkpt><trkpt lat="47.9417015" lon="7.1151639"><ele>527.25</ele><time>2026-04-03T13:09:58.897Z</time></trkpt><trkpt lat="47.9416813" lon="7.1149773"><ele>531.0</ele><time>2026-04-03T13:09:59.896Z</time></trkpt><trkpt lat="47.9416767" lon="7.1147678"><ele>531.5</ele><time>2026-04-03T13:10:00.898Z</time></trkpt><trkpt lat="47.9416835" lon="7.1145609"><ele>532.0</ele><time>2026-04-03T13:10:01.897Z</time></trkpt><trkpt lat="47.9416987" lon="7.1143567"><ele>532.5</ele><time>2026-04-03T13:10:02.897Z</time></trkpt><trkpt lat="47.9417212" lon="7.1141511"><ele>533.0</ele><time>2026-04-03T13:10:03.899Z</time></trkpt><trkpt lat="47.9417401" lon="7.1139375"><ele>536.0</ele><time>2026-04-03T13:10:04.897Z</time></trkpt><trkpt lat="47.9417349" lon="7.1137124"><ele>539.0</ele><time>2026-04-03T13:10:05.897Z</time></trkpt><trkpt lat="47.9417399" lon="7.1134772"><ele>542.0</ele><time>2026-04-03T13:10:06.897Z</time></trkpt><trkpt lat="47.9417413" lon="7.1132222"><ele>542.3333333333333</ele><time>2026-04-03T13:10:07.897Z</time></trkpt><trkpt lat="47.9417412" lon="7.1129545"><ele>542.6666666666666</ele><time>2026-04-03T13:10:08.897Z</time></trkpt><trkpt lat="47.9417437" lon="7.1126748"><ele>543.0</ele><time>2026-04-03T13:10:09.896Z</time></trkpt><trkpt lat="47.9417475" lon="7.112384"><ele>543.0</ele><time>2026-04-03T13:10:10.898Z</time></trkpt><trkpt lat="47.9417447" lon="7.112087"><ele>543.0</ele><time>2026-04-03T13:10:11.897Z</time></trkpt><trkpt lat="47.9417132" lon="7.1117849"><ele>543.0</ele><time>2026-04-03T13:10:12.896Z</time></trkpt><trkpt lat="47.9416714" lon="7.1114881"><ele>531.6666666666666</ele><time>2026-04-03T13:10:13.898Z</time></trkpt><trkpt lat="47.9416338" lon="7.111208"><ele>520.3333333333333</ele><time>2026-04-03T13:10:14.897Z</time></trkpt><trkpt lat="47.9415961" lon="7.1109414"><ele>509.0</ele><time>2026-04-03T13:10:15.896Z</time></trkpt><trkpt lat="47.9415535" lon="7.1106859"><ele>509.0</ele><time>2026-04-03T13:10:16.896Z</time></trkpt><trkpt lat="47.9415089" lon="7.1104209"><ele>509.0</ele><time>2026-04-03T13:10:17.897Z</time></trkpt><trkpt lat="47.941492" lon="7.1101453"><ele>509.0</ele><time>2026-04-03T13:10:18.897Z</time></trkpt><trkpt lat="47.9415044" lon="7.1098574"><ele>509.66666666666663</ele><time>2026-04-03T13:10:19.896Z</time></trkpt><trkpt lat="47.9415278" lon="7.1095672"><ele>510.33333333333337</ele><time>2026-04-03T13:10:20.897Z</time></trkpt><trkpt lat="47.9415504" lon="7.1092779"><ele>511.0</ele><time>2026-04-03T13:10:21.898Z</time></trkpt><trkpt lat="47.9415656" lon="7.1089873"><ele>512.0</ele><time>2026-04-03T13:10:22.896Z</time></trkpt><trkpt lat="47.9415698" lon="7.1087027"><ele>513.0</ele><time>2026-04-03T13:10:23.897Z</time></trkpt><trkpt lat="47.9415555" lon="7.1084134"><ele>514.0</ele><time>2026-04-03T13:10:24.897Z</time></trkpt><trkpt lat="47.9415264" lon="7.1081279"><ele>515.3333333333334</ele><time>2026-04-03T13:10:25.897Z</time></trkpt><trkpt lat="47.94148" lon="7.1078258"><ele>516.6666666666666</ele><time>2026-04-03T13:10:26.898Z</time></trkpt><trkpt lat="47.941419" lon="7.107525"><ele>518.0</ele><time>2026-04-03T13:10:27.897Z</time></trkpt><trkpt lat="47.9413325" lon="7.1072285"><ele>521.6666666666666</ele><time>2026-04-03T13:10:28.898Z</time></trkpt><trkpt lat="47.9412395" lon="7.1069344"><ele>525.3333333333334</ele><time>2026-04-03T13:10:29.897Z</time></trkpt><trkpt lat="47.9411195" lon="7.1066566"><ele>529.0</ele><time>2026-04-03T13:10:30.897Z</time></trkpt><trkpt lat="47.940989" lon="7.1063805"><ele>524.0</ele><time>2026-04-03T13:10:31.898Z</time></trkpt><trkpt lat="47.9408593" lon="7.106101"><ele>519.0</ele><time>2026-04-03T13:10:32.897Z</time></trkpt><trkpt lat="47.9407215" lon="7.1058265"><ele>519.3333333333334</ele><time>2026-04-03T13:10:33.898Z</time></trkpt><trkpt lat="47.940593" lon="7.1055562"><ele>519.6666666666667</ele><time>2026-04-03T13:10:34.897Z</time></trkpt><trkpt lat="47.9404659" lon="7.1052873"><ele>520.0</ele><time>2026-04-03T13:10:35.896Z</time></trkpt><trkpt lat="47.9403436" lon="7.1050233"><ele>522.0</ele><time>2026-04-03T13:10:36.898Z</time></trkpt><trkpt lat="47.9402233" lon="7.1047561"><ele>524.0</ele><time>2026-04-03T13:10:37.899Z</time></trkpt><trkpt lat="47.9401032" lon="7.1044868"><ele>526.0</ele><time>2026-04-03T13:10:38.896Z</time></trkpt><trkpt lat="47.9399958" lon="7.104202"><ele>525.0</ele><time>2026-04-03T13:10:39.898Z</time></trkpt><trkpt lat="47.9398976" lon="7.1039078"><ele>524.0</ele><time>2026-04-03T13:10:40.898Z</time></trkpt><trkpt lat="47.9398086" lon="7.1036017"><ele>523.0</ele><time>2026-04-03T13:10:41.898Z</time></trkpt><trkpt lat="47.9397446" lon="7.103288"><ele>524.6666666666667</ele><time>2026-04-03T13:10:42.897Z</time></trkpt><trkpt lat="47.939697" lon="7.1029649"><ele>526.3333333333334</ele><time>2026-04-03T13:10:43.897Z</time></trkpt><trkpt lat="47.9396552" lon="7.1026483"><ele>528.0</ele><time>2026-04-03T13:10:44.897Z</time></trkpt><trkpt lat="47.9396221" lon="7.1023372"><ele>531.0</ele><time>2026-04-03T13:10:45.898Z</time></trkpt><trkpt lat="47.9395882" lon="7.102028"><ele>534.0</ele><time>2026-04-03T13:10:46.896Z</time></trkpt><trkpt lat="47.9395408" lon="7.1017208"><ele>537.0</ele><time>2026-04-03T13:10:47.899Z</time></trkpt><trkpt lat="47.9394882" lon="7.1014398"><ele>539.3333333333334</ele><time>2026-04-03T13:10:48.897Z</time></trkpt><trkpt lat="47.9394089" lon="7.1011771"><ele>541.6666666666667</ele><time>2026-04-03T13:10:49.897Z</time></trkpt><trkpt lat="47.9393013" lon="7.1009234"><ele>544.0</ele><time>2026-04-03T13:10:50.896Z</time></trkpt><trkpt lat="47.9391683" lon="7.1006786"><ele>544.0</ele><time>2026-04-03T13:10:51.897Z</time></trkpt><trkpt lat="47.9390344" lon="7.1004352"><ele>544.0</ele><time>2026-04-03T13:10:52.896Z</time></trkpt><trkpt lat="47.9389232" lon="7.1001885"><ele>544.0</ele><time>2026-04-03T13:10:53.898Z</time></trkpt><trkpt lat="47.9388427" lon="7.0999302"><ele>546.6666666666667</ele><time>2026-04-03T13:10:54.898Z</time></trkpt><trkpt lat="47.9387682" lon="7.0996853"><ele>549.3333333333334</ele><time>2026-04-03T13:10:55.897Z</time></trkpt><trkpt lat="47.9386912" lon="7.099472"><ele>552.0</ele><time>2026-04-03T13:10:56.896Z</time></trkpt><trkpt lat="47.9386008" lon="7.0992844"><ele>552.0</ele><time>2026-04-03T13:10:57.897Z</time></trkpt><trkpt lat="47.9384953" lon="7.0991196"><ele>552.0</ele><time>2026-04-03T13:10:58.898Z</time></trkpt><trkpt lat="47.9383515" lon="7.0989768"><ele>552.0</ele><time>2026-04-03T13:10:59.898Z</time></trkpt><trkpt lat="47.9382009" lon="7.0988431"><ele>551.3333333333334</ele><time>2026-04-03T13:11:00.897Z</time></trkpt><trkpt lat="47.9380485" lon="7.0987282"><ele>550.6666666666667</ele><time>2026-04-03T13:11:01.897Z</time></trkpt><trkpt lat="47.9379043" lon="7.0986109"><ele>550.0</ele><time>2026-04-03T13:11:02.898Z</time></trkpt><trkpt lat="47.9377693" lon="7.0984954"><ele>550.0</ele><time>2026-04-03T13:11:03.898Z</time></trkpt><trkpt lat="47.9376571" lon="7.0983558"><ele>550.0</ele><time>2026-04-03T13:11:04.897Z</time></trkpt><trkpt lat="47.9375804" lon="7.0981655"><ele>550.0</ele><time>2026-04-03T13:11:05.896Z</time></trkpt><trkpt lat="47.937547" lon="7.0979432"><ele>550.0</ele><time>2026-04-03T13:11:06.897Z</time></trkpt><trkpt lat="47.9375566" lon="7.0977097"><ele>551.25</ele><time>2026-04-03T13:11:07.898Z</time></trkpt><trkpt lat="47.9375722" lon="7.0974885"><ele>552.5</ele><time>2026-04-03T13:11:08.898Z</time></trkpt><trkpt lat="47.9375474" lon="7.0972768"><ele>553.75</ele><time>2026-04-03T13:11:09.898Z</time></trkpt><trkpt lat="47.9374772" lon="7.0970853"><ele>555.0</ele><time>2026-04-03T13:11:10.897Z</time></trkpt><trkpt lat="47.9373724" lon="7.0969132"><ele>555.0</ele><time>2026-04-03T13:11:11.897Z</time></trkpt><trkpt lat="47.9372576" lon="7.096731"><ele>555.0</ele><time>2026-04-03T13:11:12.897Z</time></trkpt><trkpt lat="47.9371449" lon="7.0965384"><ele>555.0</ele><time>2026-04-03T13:11:13.898Z</time></trkpt><trkpt lat="47.9370513" lon="7.0963417"><ele>557.6666666666666</ele><time>2026-04-03T13:11:14.897Z</time></trkpt><trkpt lat="47.9369812" lon="7.0961337"><ele>560.3333333333333</ele><time>2026-04-03T13:11:15.898Z</time></trkpt><trkpt lat="47.9369269" lon="7.0959122"><ele>563.0</ele><time>2026-04-03T13:11:16.898Z</time></trkpt><trkpt lat="47.9368974" lon="7.0956673"><ele>567.3333333333333</ele><time>2026-04-03T13:11:17.897Z</time></trkpt><trkpt lat="47.9368766" lon="7.0954144"><ele>571.6666666666666</ele><time>2026-04-03T13:11:18.897Z</time></trkpt><trkpt lat="47.9368419" lon="7.0951475"><ele>576.0</ele><time>2026-04-03T13:11:19.898Z</time></trkpt><trkpt lat="47.9368113" lon="7.0948746"><ele>579.3333333333334</ele><time>2026-04-03T13:11:20.897Z</time></trkpt><trkpt lat="47.9367806" lon="7.0946185"><ele>582.6666666666667</ele><time>2026-04-03T13:11:21.897Z</time></trkpt><trkpt lat="47.9367466" lon="7.0943578"><ele>586.0</ele><time>2026-04-03T13:11:22.897Z</time></trkpt><trkpt lat="47.936718" lon="7.0941122"><ele>577.6666666666667</ele><time>2026-04-03T13:11:23.896Z</time></trkpt><trkpt lat="47.9366912" lon="7.0938665"><ele>569.3333333333334</ele><time>2026-04-03T13:11:24.898Z</time></trkpt><trkpt lat="47.9366654" lon="7.0936219"><ele>561.0</ele><time>2026-04-03T13:11:25.899Z</time></trkpt><trkpt lat="47.9366369" lon="7.0933729"><ele>564.0</ele><time>2026-04-03T13:11:26.897Z</time></trkpt><trkpt lat="47.9366047" lon="7.0931264"><ele>567.0</ele><time>2026-04-03T13:11:27.897Z</time></trkpt><trkpt lat="47.9365671" lon="7.0928676"><ele>570.0</ele><time>2026-04-03T13:11:28.897Z</time></trkpt><trkpt lat="47.9365219" lon="7.0925997"><ele>575.0</ele><time>2026-04-03T13:11:29.898Z</time></trkpt><trkpt lat="47.9364602" lon="7.092352"><ele>580.0</ele><time>2026-04-03T13:11:30.897Z</time></trkpt><trkpt lat="47.9363941" lon="7.0921326"><ele>585.0</ele><time>2026-04-03T13:11:31.896Z</time></trkpt><trkpt lat="47.936325" lon="7.0919341"><ele>585.0</ele><time>2026-04-03T13:11:32.899Z</time></trkpt><trkpt lat="47.9362488" lon="7.0917291"><ele>585.0</ele><time>2026-04-03T13:11:33.898Z</time></trkpt><trkpt lat="47.9361447" lon="7.0915326"><ele>585.0</ele><time>2026-04-03T13:11:34.897Z</time></trkpt><trkpt lat="47.9360148" lon="7.0913549"><ele>586.0</ele><time>2026-04-03T13:11:35.896Z</time></trkpt><trkpt lat="47.935875" lon="7.0911866"><ele>587.0</ele><time>2026-04-03T13:11:36.897Z</time></trkpt><trkpt lat="47.9357245" lon="7.0910229"><ele>588.0</ele><time>2026-04-03T13:11:37.897Z</time></trkpt><trkpt lat="47.9355808" lon="7.0908567"><ele>596.3333333333334</ele><time>2026-04-03T13:11:38.897Z</time></trkpt><trkpt lat="47.9354413" lon="7.0907151"><ele>604.6666666666667</ele><time>2026-04-03T13:11:39.898Z</time></trkpt><trkpt lat="47.9353074" lon="7.0905611"><ele>613.0</ele><time>2026-04-03T13:11:40.898Z</time></trkpt><trkpt lat="47.9351823" lon="7.090399"><ele>613.0</ele><time>2026-04-03T13:11:41.897Z</time></trkpt><trkpt lat="47.9350756" lon="7.0902075"><ele>613.0</ele><time>2026-04-03T13:11:42.896Z</time></trkpt><trkpt lat="47.9349807" lon="7.0899814"><ele>613.0</ele><time>2026-04-03T13:11:43.897Z</time></trkpt><trkpt lat="47.934903" lon="7.0897329"><ele>603.3333333333334</ele><time>2026-04-03T13:11:44.898Z</time></trkpt><trkpt lat="47.9348324" lon="7.0894659"><ele>593.6666666666666</ele><time>2026-04-03T13:11:45.898Z</time></trkpt><trkpt lat="47.9347763" lon="7.0891959"><ele>584.0</ele><time>2026-04-03T13:11:46.897Z</time></trkpt><trkpt lat="47.9347239" lon="7.0889377"><ele>584.0</ele><time>2026-04-03T13:11:47.896Z</time></trkpt><trkpt lat="47.9346766" lon="7.0886899"><ele>584.0</ele><time>2026-04-03T13:11:48.897Z</time></trkpt><trkpt lat="47.934635" lon="7.088464"><ele>584.0</ele><time>2026-04-03T13:11:49.899Z</time></trkpt><trkpt lat="47.9346066" lon="7.0882352"><ele>585.3333333333333</ele><time>2026-04-03T13:11:50.897Z</time></trkpt><trkpt lat="47.9346287" lon="7.0879971"><ele>586.6666666666666</ele><time>2026-04-03T13:11:51.898Z</time></trkpt><trkpt lat="47.9346708" lon="7.0877364"><ele>588.0</ele><time>2026-04-03T13:11:52.897Z</time></trkpt><trkpt lat="47.9347314" lon="7.0874698"><ele>592.0</ele><time>2026-04-03T13:11:53.898Z</time></trkpt><trkpt lat="47.9347701" lon="7.0871919"><ele>596.0</ele><time>2026-04-03T13:11:54.897Z</time></trkpt><trkpt lat="47.9347915" lon="7.0868977"><ele>600.0</ele><time>2026-04-03T13:11:55.897Z</time></trkpt><trkpt lat="47.9347783" lon="7.0865955"><ele>603.3333333333334</ele><time>2026-04-03T13:11:56.896Z</time></trkpt><trkpt lat="47.9347582" lon="7.0862805"><ele>606.6666666666667</ele><time>2026-04-03T13:11:57.897Z</time></trkpt><trkpt lat="47.9347319" lon="7.0859539"><ele>610.0</ele><time>2026-04-03T13:11:58.897Z</time></trkpt><trkpt lat="47.934714" lon="7.0856431"><ele>613.3333333333334</ele><time>2026-04-03T13:11:59.899Z</time></trkpt><trkpt lat="47.9347116" lon="7.0853326"><ele>616.6666666666666</ele><time>2026-04-03T13:12:00.897Z</time></trkpt><trkpt lat="47.9347259" lon="7.0850275"><ele>620.0</ele><time>2026-04-03T13:12:01.897Z</time></trkpt><trkpt lat="47.9347541" lon="7.0847199"><ele>620.0</ele><time>2026-04-03T13:12:02.897Z</time></trkpt><trkpt lat="47.934785" lon="7.0844098"><ele>620.0</ele><time>2026-04-03T13:12:03.897Z</time></trkpt><trkpt lat="47.9348211" lon="7.0841003"><ele>620.0</ele><time>2026-04-03T13:12:04.898Z</time></trkpt><trkpt lat="47.9348591" lon="7.0837888"><ele>620.0</ele><time>2026-04-03T13:12:05.897Z</time></trkpt><trkpt lat="47.9348895" lon="7.0834591"><ele>620.0</ele><time>2026-04-03T13:12:06.898Z</time></trkpt><trkpt lat="47.9349111" lon="7.0831279"><ele>620.0</ele><time>2026-04-03T13:12:07.896Z</time></trkpt><trkpt lat="47.9349195" lon="7.0827899"><ele>620.0</ele><time>2026-04-03T13:12:08.897Z</time></trkpt><trkpt lat="47.934892" lon="7.0824496"><ele>620.0</ele><time>2026-04-03T13:12:09.897Z</time></trkpt><trkpt lat="47.9348536" lon="7.0821088"><ele>620.5</ele><time>2026-04-03T13:12:10.897Z</time></trkpt><trkpt lat="47.9348031" lon="7.0817714"><ele>621.0</ele><time>2026-04-03T13:12:11.897Z</time></trkpt><trkpt lat="47.9347277" lon="7.0814424"><ele>628.0</ele><time>2026-04-03T13:12:12.897Z</time></trkpt><trkpt lat="47.9346418" lon="7.0811222"><ele>635.0</ele><time>2026-04-03T13:12:13.896Z</time></trkpt><trkpt lat="47.9345674" lon="7.0808111"><ele>636.0</ele><time>2026-04-03T13:12:14.896Z</time></trkpt><trkpt lat="47.9345107" lon="7.0804952"><ele>637.0</ele><time>2026-04-03T13:12:15.896Z</time></trkpt><trkpt lat="47.9344727" lon="7.0801818"><ele>638.0</ele><time>2026-04-03T13:12:16.896Z</time></trkpt><trkpt lat="47.9344512" lon="7.0798644"><ele>639.5</ele><time>2026-04-03T13:12:17.897Z</time></trkpt><trkpt lat="47.9344306" lon="7.0795409"><ele>641.0</ele><time>2026-04-03T13:12:18.897Z</time></trkpt><trkpt lat="47.9344083" lon="7.0791945"><ele>643.0</ele><time>2026-04-03T13:12:19.896Z</time></trkpt><trkpt lat="47.9343902" lon="7.0788345"><ele>645.0</ele><time>2026-04-03T13:12:20.898Z</time></trkpt><trkpt lat="47.9343742" lon="7.0784696"><ele>648.0</ele><time>2026-04-03T13:12:21.897Z</time></trkpt><trkpt lat="47.9343507" lon="7.0781289"><ele>651.0</ele><time>2026-04-03T13:12:22.898Z</time></trkpt><trkpt lat="47.9343284" lon="7.0777999"><ele>651.0</ele><time>2026-04-03T13:12:23.897Z</time></trkpt><trkpt lat="47.93431" lon="7.0774824"><ele>651.0</ele><time>2026-04-03T13:12:24.896Z</time></trkpt><trkpt lat="47.9342913" lon="7.0771707"><ele>651.0</ele><time>2026-04-03T13:12:25.898Z</time></trkpt><trkpt lat="47.9342745" lon="7.0768609"><ele>655.0</ele><time>2026-04-03T13:12:26.898Z</time></trkpt><trkpt lat="47.9342646" lon="7.076558"><ele>659.0</ele><time>2026-04-03T13:12:27.898Z</time></trkpt><trkpt lat="47.9342481" lon="7.0762456"><ele>663.0</ele><time>2026-04-03T13:12:28.897Z</time></trkpt><trkpt lat="47.9342412" lon="7.075931"><ele>665.0</ele><time>2026-04-03T13:12:29.898Z</time></trkpt><trkpt lat="47.9342427" lon="7.0756073"><ele>667.0</ele><time>2026-04-03T13:12:30.897Z</time></trkpt><trkpt lat="47.9342469" lon="7.0752793"><ele>669.0</ele><time>2026-04-03T13:12:31.897Z</time></trkpt><trkpt lat="47.9342608" lon="7.0749398"><ele>669.5</ele><time>2026-04-03T13:12:32.897Z</time></trkpt><trkpt lat="47.9342693" lon="7.0745947"><ele>670.0</ele><time>2026-04-03T13:12:33.896Z</time></trkpt><trkpt lat="47.9342677" lon="7.0742433"><ele>670.5</ele><time>2026-04-03T13:12:34.897Z</time></trkpt><trkpt lat="47.9342475" lon="7.0738763"><ele>671.0</ele><time>2026-04-03T13:12:35.898Z</time></trkpt><trkpt lat="47.9342219" lon="7.073505"><ele>660.0</ele><time>2026-04-03T13:12:36.898Z</time></trkpt><trkpt lat="47.9341941" lon="7.07317"><ele>649.0</ele><time>2026-04-03T13:12:37.898Z</time></trkpt><trkpt lat="47.9341617" lon="7.072849"><ele>638.0</ele><time>2026-04-03T13:12:38.897Z</time></trkpt><trkpt lat="47.9341382" lon="7.0725349"><ele>640.3333333333333</ele><time>2026-04-03T13:12:39.897Z</time></trkpt><trkpt lat="47.9341204" lon="7.0722203"><ele>642.6666666666666</ele><time>2026-04-03T13:12:40.897Z</time></trkpt><trkpt lat="47.9341146" lon="7.0719078"><ele>645.0</ele><time>2026-04-03T13:12:41.897Z</time></trkpt><trkpt lat="47.9341208" lon="7.0715952"><ele>646.3333333333334</ele><time>2026-04-03T13:12:42.896Z</time></trkpt><trkpt lat="47.9341349" lon="7.0712847"><ele>647.6666666666667</ele><time>2026-04-03T13:12:43.897Z</time></trkpt><trkpt lat="47.9341533" lon="7.0709701"><ele>649.0</ele><time>2026-04-03T13:12:44.897Z</time></trkpt><trkpt lat="47.9341489" lon="7.070639"><ele>654.5</ele><time>2026-04-03T13:12:45.898Z</time></trkpt><trkpt lat="47.9341233" lon="7.0703003"><ele>660.0</ele><time>2026-04-03T13:12:46.896Z</time></trkpt><trkpt lat="47.9340871" lon="7.0699573"><ele>663.0</ele><time>2026-04-03T13:12:47.898Z</time></trkpt><trkpt lat="47.9340443" lon="7.069607"><ele>666.0</ele><time>2026-04-03T13:12:48.897Z</time></trkpt><trkpt lat="47.9339955" lon="7.0692609"><ele>668.0</ele><time>2026-04-03T13:12:49.897Z</time></trkpt><trkpt lat="47.9339458" lon="7.0689138"><ele>670.0</ele><time>2026-04-03T13:12:50.896Z</time></trkpt><trkpt lat="47.9338994" lon="7.0685759"><ele>675.5</ele><time>2026-04-03T13:12:51.897Z</time></trkpt><trkpt lat="47.9338477" lon="7.06824"><ele>681.0</ele><time>2026-04-03T13:12:52.897Z</time></trkpt><trkpt lat="47.933802" lon="7.067909"><ele>681.0</ele><time>2026-04-03T13:12:53.897Z</time></trkpt><trkpt lat="47.9337579" lon="7.067572"><ele>681.0</ele><time>2026-04-03T13:12:54.898Z</time></trkpt><trkpt lat="47.9337167" lon="7.0672326"><ele>688.0</ele><time>2026-04-03T13:12:55.898Z</time></trkpt><trkpt lat="47.9336678" lon="7.0668935"><ele>695.0</ele><time>2026-04-03T13:12:56.897Z</time></trkpt><trkpt lat="47.9336219" lon="7.0665543"><ele>699.5</ele><time>2026-04-03T13:12:57.897Z</time></trkpt><trkpt lat="47.9335734" lon="7.0662185"><ele>704.0</ele><time>2026-04-03T13:12:58.897Z</time></trkpt><trkpt lat="47.9335106" lon="7.0658943"><ele>709.0</ele><time>2026-04-03T13:12:59.897Z</time></trkpt><trkpt lat="47.9334335" lon="7.0655782"><ele>714.0</ele><time>2026-04-03T13:13:00.897Z</time></trkpt><trkpt lat="47.9333448" lon="7.0652736"><ele>719.0</ele><time>2026-04-03T13:13:01.898Z</time></trkpt><trkpt lat="47.9332565" lon="7.064985"><ele>714.3333333333333</ele><time>2026-04-03T13:13:02.897Z</time></trkpt><trkpt lat="47.9331454" lon="7.0647479"><ele>709.6666666666666</ele><time>2026-04-03T13:13:03.897Z</time></trkpt><trkpt lat="47.9330389" lon="7.0645022"><ele>705.0</ele><time>2026-04-03T13:13:04.897Z</time></trkpt><trkpt lat="47.9329286" lon="7.0642517"><ele>706.3333333333334</ele><time>2026-04-03T13:13:05.897Z</time></trkpt><trkpt lat="47.932851" lon="7.0639817"><ele>707.6666666666667</ele><time>2026-04-03T13:13:06.897Z</time></trkpt><trkpt lat="47.9327857" lon="7.0637054"><ele>709.0</ele><time>2026-04-03T13:13:07.897Z</time></trkpt><trkpt lat="47.9327213" lon="7.0634363"><ele>713.0</ele><time>2026-04-03T13:13:08.897Z</time></trkpt><trkpt lat="47.9326672" lon="7.0631648"><ele>717.0</ele><time>2026-04-03T13:13:09.899Z</time></trkpt><trkpt lat="47.9326189" lon="7.0629106"><ele>721.0</ele><time>2026-04-03T13:13:10.897Z</time></trkpt><trkpt lat="47.9325787" lon="7.0626781"><ele>717.5</ele><time>2026-04-03T13:13:11.899Z</time></trkpt><trkpt lat="47.9325365" lon="7.0624773"><ele>714.0</ele><time>2026-04-03T13:13:12.897Z</time></trkpt><trkpt lat="47.9325016" lon="7.0622964"><ele>710.5</ele><time>2026-04-03T13:13:13.898Z</time></trkpt><trkpt lat="47.9324772" lon="7.0621331"><ele>707.0</ele><time>2026-04-03T13:13:14.897Z</time></trkpt><trkpt lat="47.932489" lon="7.0619731"><ele>707.0</ele><time>2026-04-03T13:13:15.897Z</time></trkpt><trkpt lat="47.9325252" lon="7.061819"><ele>707.0</ele><time>2026-04-03T13:13:16.897Z</time></trkpt><trkpt lat="47.9326044" lon="7.0617188"><ele>707.0</ele><time>2026-04-03T13:13:17.897Z</time></trkpt><trkpt lat="47.9327154" lon="7.0616823"><ele>707.0</ele><time>2026-04-03T13:13:18.897Z</time></trkpt><trkpt lat="47.9328323" lon="7.0617059"><ele>707.0</ele><time>2026-04-03T13:13:19.897Z</time></trkpt><trkpt lat="47.9329343" lon="7.0618004"><ele>710.5</ele><time>2026-04-03T13:13:20.897Z</time></trkpt><trkpt lat="47.9329808" lon="7.0619692"><ele>714.0</ele><time>2026-04-03T13:13:21.898Z</time></trkpt><trkpt lat="47.9330038" lon="7.062176"><ele>717.5</ele><time>2026-04-03T13:13:22.898Z</time></trkpt><trkpt lat="47.9330299" lon="7.0624015"><ele>721.0</ele><time>2026-04-03T13:13:23.898Z</time></trkpt><trkpt lat="47.9330757" lon="7.0626354"><ele>721.0</ele><time>2026-04-03T13:13:24.897Z</time></trkpt><trkpt lat="47.933131" lon="7.0628587"><ele>721.0</ele><time>2026-04-03T13:13:25.896Z</time></trkpt><trkpt lat="47.9332209" lon="7.0630492"><ele>721.0</ele><time>2026-04-03T13:13:26.897Z</time></trkpt><trkpt lat="47.9333328" lon="7.0632258"><ele>730.6666666666667</ele><time>2026-04-03T13:13:27.897Z</time></trkpt><trkpt lat="47.9334851" lon="7.0633713"><ele>740.3333333333334</ele><time>2026-04-03T13:13:28.897Z</time></trkpt><trkpt lat="47.933618" lon="7.0635171"><ele>750.0</ele><time>2026-04-03T13:13:29.897Z</time></trkpt><trkpt lat="47.9337158" lon="7.0637027"><ele>750.0</ele><time>2026-04-03T13:13:30.897Z</time></trkpt><trkpt lat="47.9337952" lon="7.0639044"><ele>750.0</ele><time>2026-04-03T13:13:31.896Z</time></trkpt><trkpt lat="47.9338799" lon="7.0641273"><ele>750.0</ele><time>2026-04-03T13:13:32.897Z</time></trkpt><trkpt lat="47.9339614" lon="7.0643642"><ele>745.3333333333334</ele><time>2026-04-03T13:13:33.898Z</time></trkpt><trkpt lat="47.9340455" lon="7.0646065"><ele>740.6666666666667</ele><time>2026-04-03T13:13:34.897Z</time></trkpt><trkpt lat="47.9341516" lon="7.064849"><ele>736.0</ele><time>2026-04-03T13:13:35.898Z</time></trkpt><trkpt lat="47.9342663" lon="7.0650804"><ele>742.3333333333334</ele><time>2026-04-03T13:13:36.897Z</time></trkpt><trkpt lat="47.9343826" lon="7.0653139"><ele>748.6666666666666</ele><time>2026-04-03T13:13:37.897Z</time></trkpt><trkpt lat="47.9345004" lon="7.0655507"><ele>755.0</ele><time>2026-04-03T13:13:38.898Z</time></trkpt><trkpt lat="47.9346153" lon="7.0657853"><ele>755.0</ele><time>2026-04-03T13:13:39.899Z</time></trkpt><trkpt lat="47.934718" lon="7.0660232"><ele>755.0</ele><time>2026-04-03T13:13:40.898Z</time></trkpt><trkpt lat="47.9348166" lon="7.0662627"><ele>755.0</ele><time>2026-04-03T13:13:41.897Z</time></trkpt><trkpt lat="47.9349238" lon="7.0664763"><ele>748.3333333333333</ele><time>2026-04-03T13:13:42.898Z</time></trkpt><trkpt lat="47.9350221" lon="7.0666838"><ele>741.6666666666666</ele><time>2026-04-03T13:13:43.898Z</time></trkpt><trkpt lat="47.9351033" lon="7.0669086"><ele>735.0</ele><time>2026-04-03T13:13:44.896Z</time></trkpt><trkpt lat="47.935176" lon="7.0671434"><ele>748.6666666666667</ele><time>2026-04-03T13:13:45.899Z</time></trkpt><trkpt lat="47.9352502" lon="7.0673823"><ele>762.3333333333334</ele><time>2026-04-03T13:13:46.896Z</time></trkpt><trkpt lat="47.9353229" lon="7.0676037"><ele>776.0</ele><time>2026-04-03T13:13:47.897Z</time></trkpt><trkpt lat="47.9353892" lon="7.0678075"><ele>776.0</ele><time>2026-04-03T13:13:48.897Z</time></trkpt><trkpt lat="47.9354456" lon="7.0679891"><ele>776.0</ele><time>2026-04-03T13:13:49.898Z</time></trkpt><trkpt lat="47.9355111" lon="7.0681431"><ele>776.0</ele><time>2026-04-03T13:13:50.898Z</time></trkpt><trkpt lat="47.9355981" lon="7.0682476"><ele>776.0</ele><time>2026-04-03T13:13:51.898Z</time></trkpt><trkpt lat="47.935685" lon="7.0683301"><ele>769.0</ele><time>2026-04-03T13:13:52.896Z</time></trkpt><trkpt lat="47.9358494" lon="7.0682828"><ele>762.0</ele><time>2026-04-03T13:13:53.898Z</time></trkpt><trkpt lat="47.9360026" lon="7.0682708"><ele>755.0</ele><time>2026-04-03T13:13:54.897Z</time></trkpt><trkpt lat="47.9361741" lon="7.0682605"><ele>771.0</ele><time>2026-04-03T13:13:55.898Z</time></trkpt><trkpt lat="47.9363609" lon="7.0682275"><ele>787.0</ele><time>2026-04-03T13:13:56.897Z</time></trkpt><trkpt lat="47.9365595" lon="7.0681998"><ele>803.0</ele><time>2026-04-03T13:13:57.898Z</time></trkpt><trkpt lat="47.9367594" lon="7.0681739"><ele>803.0</ele><time>2026-04-03T13:13:58.896Z</time></trkpt><trkpt lat="47.9369712" lon="7.0681458"><ele>803.0</ele><time>2026-04-03T13:13:59.897Z</time></trkpt><trkpt lat="47.9371927" lon="7.0681149"><ele>803.0</ele><time>2026-04-03T13:14:00.897Z</time></trkpt><trkpt lat="47.9373935" lon="7.0680814"><ele>801.6666666666667</ele><time>2026-04-03T13:14:01.897Z</time></trkpt><trkpt lat="47.9375817" lon="7.068045"><ele>800.3333333333333</ele><time>2026-04-03T13:14:02.897Z</time></trkpt><trkpt lat="47.9377637" lon="7.0680073"><ele>799.0</ele><time>2026-04-03T13:14:03.898Z</time></trkpt><trkpt lat="47.9379339" lon="7.0679583"><ele>799.0</ele><time>2026-04-03T13:14:04.898Z</time></trkpt><trkpt lat="47.9380722" lon="7.0679073"><ele>799.0</ele><time>2026-04-03T13:14:05.898Z</time></trkpt><trkpt lat="47.9381988" lon="7.0678721"><ele>799.0</ele><time>2026-04-03T13:14:06.897Z</time></trkpt><trkpt lat="47.9383111" lon="7.0678778"><ele>799.0</ele><time>2026-04-03T13:14:07.896Z</time></trkpt><trkpt lat="47.9384099" lon="7.0679696"><ele>797.0</ele><time>2026-04-03T13:14:08.896Z</time></trkpt><trkpt lat="47.9384643" lon="7.0681009"><ele>795.0</ele><time>2026-04-03T13:14:09.897Z</time></trkpt><trkpt lat="47.9384807" lon="7.0682722"><ele>793.0</ele><time>2026-04-03T13:14:10.898Z</time></trkpt><trkpt lat="47.9384463" lon="7.0684791"><ele>791.0</ele><time>2026-04-03T13:14:11.898Z</time></trkpt><trkpt lat="47.9384048" lon="7.0687062"><ele>788.3333333333334</ele><time>2026-04-03T13:14:12.898Z</time></trkpt><trkpt lat="47.9383557" lon="7.0689515"><ele>785.6666666666667</ele><time>2026-04-03T13:14:13.897Z</time></trkpt><trkpt lat="47.9383033" lon="7.0691996"><ele>783.0</ele><time>2026-04-03T13:14:14.898Z</time></trkpt><trkpt lat="47.9382519" lon="7.0694485"><ele>783.0</ele><time>2026-04-03T13:14:15.898Z</time></trkpt><trkpt lat="47.9381758" lon="7.0697063"><ele>783.0</ele><time>2026-04-03T13:14:16.897Z</time></trkpt><trkpt lat="47.9380913" lon="7.0699529"><ele>783.0</ele><time>2026-04-03T13:14:17.898Z</time></trkpt><trkpt lat="47.9379942" lon="7.0701959"><ele>788.3333333333333</ele><time>2026-04-03T13:14:18.897Z</time></trkpt><trkpt lat="47.9379011" lon="7.0704401"><ele>793.6666666666666</ele><time>2026-04-03T13:14:19.897Z</time></trkpt><trkpt lat="47.9378098" lon="7.0706889"><ele>799.0</ele><time>2026-04-03T13:14:20.899Z</time></trkpt><trkpt lat="47.937719" lon="7.0709366"><ele>793.6666666666666</ele><time>2026-04-03T13:14:21.897Z</time></trkpt><trkpt lat="47.9376398" lon="7.0711549"><ele>788.3333333333333</ele><time>2026-04-03T13:14:22.898Z</time></trkpt><trkpt lat="47.9375511" lon="7.0713585"><ele>783.0</ele><time>2026-04-03T13:14:23.898Z</time></trkpt><trkpt lat="47.9374501" lon="7.0715522"><ele>789.6666666666667</ele><time>2026-04-03T13:14:24.897Z</time></trkpt><trkpt lat="47.937344" lon="7.0717471"><ele>796.3333333333334</ele><time>2026-04-03T13:14:25.897Z</time></trkpt><trkpt lat="47.9372434" lon="7.0719461"><ele>803.0</ele><time>2026-04-03T13:14:26.896Z</time></trkpt><trkpt lat="47.9371516" lon="7.0721598"><ele>803.0</ele><time>2026-04-03T13:14:27.897Z</time></trkpt><trkpt lat="47.9370711" lon="7.072388"><ele>803.0</ele><time>2026-04-03T13:14:28.897Z</time></trkpt><trkpt lat="47.9370005" lon="7.0726163"><ele>803.0</ele><time>2026-04-03T13:14:29.898Z</time></trkpt><trkpt lat="47.9369541" lon="7.0728305"><ele>808.0</ele><time>2026-04-03T13:14:30.897Z</time></trkpt><trkpt lat="47.9369138" lon="7.0730312"><ele>813.0</ele><time>2026-04-03T13:14:31.898Z</time></trkpt><trkpt lat="47.9369211" lon="7.0732176"><ele>818.0</ele><time>2026-04-03T13:14:32.896Z</time></trkpt><trkpt lat="47.9369368" lon="7.0734094"><ele>823.0</ele><time>2026-04-03T13:14:33.898Z</time></trkpt><trkpt lat="47.9369723" lon="7.0736092"><ele>825.0</ele><time>2026-04-03T13:14:34.898Z</time></trkpt><trkpt lat="47.936993" lon="7.073786"><ele>827.0</ele><time>2026-04-03T13:14:35.896Z</time></trkpt><trkpt lat="47.9370092" lon="7.0739367"><ele>829.0</ele><time>2026-04-03T13:14:36.897Z</time></trkpt><trkpt lat="47.9370238" lon="7.0740863"><ele>831.0</ele><time>2026-04-03T13:14:37.898Z</time></trkpt><trkpt lat="47.9370633" lon="7.0741905"><ele>833.0</ele><time>2026-04-03T13:14:38.898Z</time></trkpt><trkpt lat="47.9371195" lon="7.0742548"><ele>833.0000000000001</ele><time>2026-04-03T13:14:39.897Z</time></trkpt><trkpt lat="47.9371955" lon="7.0742557"><ele>833.0</ele><time>2026-04-03T13:14:40.898Z</time></trkpt><trkpt lat="47.9372619" lon="7.074203"><ele>833.0</ele><time>2026-04-03T13:14:41.897Z</time></trkpt><trkpt lat="47.9372838" lon="7.0740795"><ele>833.0</ele><time>2026-04-03T13:14:42.898Z</time></trkpt><trkpt lat="47.9372755" lon="7.0739489"><ele>833.0000000000001</ele><time>2026-04-03T13:14:43.897Z</time></trkpt><trkpt lat="47.9372353" lon="7.0738006"><ele>833.0</ele><time>2026-04-03T13:14:44.896Z</time></trkpt><trkpt lat="47.9371973" lon="7.0736129"><ele>833.0</ele><time>2026-04-03T13:14:45.896Z</time></trkpt><trkpt lat="47.9371847" lon="7.073423"><ele>833.0</ele><time>2026-04-03T13:14:46.897Z</time></trkpt><trkpt lat="47.9371902" lon="7.0732449"><ele>833.0</ele><time>2026-04-03T13:14:47.898Z</time></trkpt><trkpt lat="47.9372783" lon="7.0730972"><ele>833.0</ele><time>2026-04-03T13:14:48.897Z</time></trkpt><trkpt lat="47.9373811" lon="7.072946"><ele>829.6666666666667</ele><time>2026-04-03T13:14:49.897Z</time></trkpt><trkpt lat="47.9375013" lon="7.0728137"><ele>826.3333333333333</ele><time>2026-04-03T13:14:50.897Z</time></trkpt><trkpt lat="47.9376375" lon="7.072645"><ele>823.0</ele><time>2026-04-03T13:14:51.897Z</time></trkpt><trkpt lat="47.9377881" lon="7.0724812"><ele>827.0</ele><time>2026-04-03T13:14:52.898Z</time></trkpt><trkpt lat="47.9379448" lon="7.0723158"><ele>831.0</ele><time>2026-04-03T13:14:53.898Z</time></trkpt><trkpt lat="47.9380938" lon="7.0721416"><ele>835.0</ele><time>2026-04-03T13:14:54.897Z</time></trkpt><trkpt lat="47.938246" lon="7.0719544"><ele>838.6666666666666</ele><time>2026-04-03T13:14:55.898Z</time></trkpt><trkpt lat="47.9384019" lon="7.0717678"><ele>842.3333333333333</ele><time>2026-04-03T13:14:56.898Z</time></trkpt><trkpt lat="47.938561" lon="7.0715885"><ele>846.0</ele><time>2026-04-03T13:14:57.896Z</time></trkpt><trkpt lat="47.9387106" lon="7.0714103"><ele>846.0</ele><time>2026-04-03T13:14:58.898Z</time></trkpt><trkpt lat="47.9388823" lon="7.0712164"><ele>846.0</ele><time>2026-04-03T13:14:59.897Z</time></trkpt><trkpt lat="47.9390499" lon="7.0710218"><ele>846.0</ele><time>2026-04-03T13:15:00.897Z</time></trkpt><trkpt lat="47.9392105" lon="7.0708425"><ele>848.6666666666667</ele><time>2026-04-03T13:15:01.897Z</time></trkpt><trkpt lat="47.9393775" lon="7.0706801"><ele>851.3333333333334</ele><time>2026-04-03T13:15:02.898Z</time></trkpt><trkpt lat="47.939558" lon="7.0705043"><ele>854.0</ele><time>2026-04-03T13:15:03.898Z</time></trkpt><trkpt lat="47.9397514" lon="7.0703233"><ele>854.0</ele><time>2026-04-03T13:15:04.897Z</time></trkpt><trkpt lat="47.9399262" lon="7.0701467"><ele>854.0</ele><time>2026-04-03T13:15:05.897Z</time></trkpt><trkpt lat="47.9401022" lon="7.0699915"><ele>854.0</ele><time>2026-04-03T13:15:06.897Z</time></trkpt><trkpt lat="47.9402623" lon="7.0698389"><ele>856.0</ele><time>2026-04-03T13:15:07.896Z</time></trkpt><trkpt lat="47.9404208" lon="7.0696941"><ele>858.0</ele><time>2026-04-03T13:15:08.897Z</time></trkpt><trkpt lat="47.940577" lon="7.0695413"><ele>860.0</ele><time>2026-04-03T13:15:09.898Z</time></trkpt><trkpt lat="47.9407338" lon="7.0693749"><ele>862.6666666666667</ele><time>2026-04-03T13:15:10.898Z</time></trkpt><trkpt lat="47.9409061" lon="7.0692117"><ele>865.3333333333333</ele><time>2026-04-03T13:15:11.897Z</time></trkpt><trkpt lat="47.9410772" lon="7.0690379"><ele>868.0</ele><time>2026-04-03T13:15:12.896Z</time></trkpt><trkpt lat="47.9412506" lon="7.0688682"><ele>868.0</ele><time>2026-04-03T13:15:13.898Z</time></trkpt><trkpt lat="47.941433" lon="7.068734"><ele>868.0</ele><time>2026-04-03T13:15:14.898Z</time></trkpt><trkpt lat="47.941615" lon="7.0685878"><ele>868.0</ele><time>2026-04-03T13:15:15.898Z</time></trkpt><trkpt lat="47.9417822" lon="7.0684413"><ele>873.0</ele><time>2026-04-03T13:15:16.897Z</time></trkpt><trkpt lat="47.9419206" lon="7.0682802"><ele>878.0</ele><time>2026-04-03T13:15:17.897Z</time></trkpt><trkpt lat="47.9420674" lon="7.068118"><ele>883.0</ele><time>2026-04-03T13:15:18.897Z</time></trkpt><trkpt lat="47.9422079" lon="7.0679521"><ele>883.0</ele><time>2026-04-03T13:15:19.898Z</time></trkpt><trkpt lat="47.9423314" lon="7.0677759"><ele>883.0</ele><time>2026-04-03T13:15:20.897Z</time></trkpt><trkpt lat="47.9424347" lon="7.0676125"><ele>883.0</ele><time>2026-04-03T13:15:21.898Z</time></trkpt><trkpt lat="47.9425235" lon="7.0674638"><ele>887.0</ele><time>2026-04-03T13:15:22.897Z</time></trkpt><trkpt lat="47.9426003" lon="7.0673256"><ele>891.0</ele><time>2026-04-03T13:15:23.897Z</time></trkpt><trkpt lat="47.9426605" lon="7.0671746"><ele>895.0</ele><time>2026-04-03T13:15:24.898Z</time></trkpt><trkpt lat="47.9426856" lon="7.0670201"><ele>899.0</ele><time>2026-04-03T13:15:25.897Z</time></trkpt><trkpt lat="47.9426834" lon="7.0668709"><ele>903.0</ele><time>2026-04-03T13:15:26.899Z</time></trkpt><trkpt lat="47.9426475" lon="7.0667111"><ele>902.75</ele><time>2026-04-03T13:15:27.898Z</time></trkpt><trkpt lat="47.9425793" lon="7.0665394"><ele>902.5</ele><time>2026-04-03T13:15:28.897Z</time></trkpt><trkpt lat="47.9424963" lon="7.0663605"><ele>902.25</ele><time>2026-04-03T13:15:29.898Z</time></trkpt><trkpt lat="47.9424085" lon="7.0661671"><ele>902.0</ele><time>2026-04-03T13:15:30.898Z</time></trkpt><trkpt lat="47.9423318" lon="7.0659579"><ele>908.0</ele><time>2026-04-03T13:15:31.898Z</time></trkpt><trkpt lat="47.9422737" lon="7.0657178"><ele>914.0</ele><time>2026-04-03T13:15:32.899Z</time></trkpt><trkpt lat="47.9422209" lon="7.0654649"><ele>920.0</ele><time>2026-04-03T13:15:33.898Z</time></trkpt><trkpt lat="47.9421693" lon="7.065194"><ele>926.6666666666667</ele><time>2026-04-03T13:15:34.897Z</time></trkpt><trkpt lat="47.9421" lon="7.0649433"><ele>933.3333333333333</ele><time>2026-04-03T13:15:35.898Z</time></trkpt><trkpt lat="47.9420012" lon="7.0647171"><ele>940.0</ele><time>2026-04-03T13:15:36.899Z</time></trkpt><trkpt lat="47.9418853" lon="7.064504"><ele>940.0</ele><time>2026-04-03T13:15:37.898Z</time></trkpt><trkpt lat="47.9417628" lon="7.0642978"><ele>940.0</ele><time>2026-04-03T13:15:38.897Z</time></trkpt><trkpt lat="47.9416299" lon="7.0641137"><ele>940.0</ele><time>2026-04-03T13:15:39.899Z</time></trkpt><trkpt lat="47.9414841" lon="7.0639841"><ele>940.3333333333333</ele><time>2026-04-03T13:15:40.897Z</time></trkpt><trkpt lat="47.9413175" lon="7.0638975"><ele>940.6666666666667</ele><time>2026-04-03T13:15:41.897Z</time></trkpt><trkpt lat="47.9411417" lon="7.0638438"><ele>941.0</ele><time>2026-04-03T13:15:42.898Z</time></trkpt><trkpt lat="47.9409593" lon="7.0638056"><ele>941.0</ele><time>2026-04-03T13:15:43.898Z</time></trkpt><trkpt lat="47.9407792" lon="7.0637877"><ele>941.0</ele><time>2026-04-03T13:15:44.897Z</time></trkpt><trkpt lat="47.9406088" lon="7.0638109"><ele>941.0</ele><time>2026-04-03T13:15:45.899Z</time></trkpt><trkpt lat="47.940448" lon="7.0638843"><ele>941.0</ele><time>2026-04-03T13:15:46.897Z</time></trkpt><trkpt lat="47.9402908" lon="7.0639667"><ele>941.0</ele><time>2026-04-03T13:15:47.897Z</time></trkpt><trkpt lat="47.940159" lon="7.064009"><ele>941.0</ele><time>2026-04-03T13:15:48.897Z</time></trkpt><trkpt lat="47.9400245" lon="7.0640229"><ele>941.0</ele><time>2026-04-03T13:15:49.897Z</time></trkpt><trkpt lat="47.9399061" lon="7.0639644"><ele>939.25</ele><time>2026-04-03T13:15:50.897Z</time></trkpt><trkpt lat="47.9398056" lon="7.0638461"><ele>937.5</ele><time>2026-04-03T13:15:51.898Z</time></trkpt><trkpt lat="47.9397248" lon="7.0636946"><ele>935.75</ele><time>2026-04-03T13:15:52.897Z</time></trkpt><trkpt lat="47.9396424" lon="7.0635447"><ele>934.0</ele><time>2026-04-03T13:15:53.898Z</time></trkpt><trkpt lat="47.9395379" lon="7.0634175"><ele>934.0</ele><time>2026-04-03T13:15:54.897Z</time></trkpt><trkpt lat="47.9394383" lon="7.0633176"><ele>934.0</ele><time>2026-04-03T13:15:55.897Z</time></trkpt><trkpt lat="47.9393415" lon="7.0632367"><ele>934.0</ele><time>2026-04-03T13:15:56.897Z</time></trkpt><trkpt lat="47.9392361" lon="7.0631664"><ele>934.0</ele><time>2026-04-03T13:15:57.898Z</time></trkpt><trkpt lat="47.9391188" lon="7.0631341"><ele>932.0</ele><time>2026-04-03T13:15:58.897Z</time></trkpt><trkpt lat="47.9389844" lon="7.0631348"><ele>930.0</ele><time>2026-04-03T13:15:59.898Z</time></trkpt><trkpt lat="47.9388397" lon="7.0631797"><ele>928.0</ele><time>2026-04-03T13:16:00.896Z</time></trkpt><trkpt lat="47.9386855" lon="7.0632685"><ele>926.0</ele><time>2026-04-03T13:16:01.898Z</time></trkpt><trkpt lat="47.938541" lon="7.0633946"><ele>926.0</ele><time>2026-04-03T13:16:02.898Z</time></trkpt><trkpt lat="47.9384105" lon="7.0635264"><ele>926.0</ele><time>2026-04-03T13:16:03.898Z</time></trkpt><trkpt lat="47.9382873" lon="7.0636437"><ele>926.0</ele><time>2026-04-03T13:16:04.898Z</time></trkpt><trkpt lat="47.938169" lon="7.0637454"><ele>926.0</ele><time>2026-04-03T13:16:05.897Z</time></trkpt><trkpt lat="47.9380276" lon="7.0638233"><ele>933.0</ele><time>2026-04-03T13:16:06.897Z</time></trkpt><trkpt lat="47.9378818" lon="7.0638892"><ele>940.0</ele><time>2026-04-03T13:16:07.897Z</time></trkpt><trkpt lat="47.9377207" lon="7.0638513"><ele>947.0</ele><time>2026-04-03T13:16:08.897Z</time></trkpt><trkpt lat="47.9375696" lon="7.0638228"><ele>947.5</ele><time>2026-04-03T13:16:09.896Z</time></trkpt><trkpt lat="47.9374341" lon="7.0637682"><ele>948.0</ele><time>2026-04-03T13:16:10.898Z</time></trkpt><trkpt lat="47.9373264" lon="7.0636896"><ele>948.5</ele><time>2026-04-03T13:16:11.897Z</time></trkpt><trkpt lat="47.9372549" lon="7.0635354"><ele>949.0</ele><time>2026-04-03T13:16:12.897Z</time></trkpt><trkpt lat="47.9372019" lon="7.063362"><ele>949.25</ele><time>2026-04-03T13:16:13.898Z</time></trkpt><trkpt lat="47.9371939" lon="7.0631731"><ele>949.5</ele><time>2026-04-03T13:16:14.898Z</time></trkpt><trkpt lat="47.9372222" lon="7.0629869"><ele>949.75</ele><time>2026-04-03T13:16:15.898Z</time></trkpt><trkpt lat="47.9372845" lon="7.0628058"><ele>950.0</ele><time>2026-04-03T13:16:16.898Z</time></trkpt><trkpt lat="47.937357" lon="7.062619"><ele>948.6666666666667</ele><time>2026-04-03T13:16:17.898Z</time></trkpt><trkpt lat="47.9374264" lon="7.0624229"><ele>947.3333333333333</ele><time>2026-04-03T13:16:18.897Z</time></trkpt><trkpt lat="47.9375005" lon="7.0622246"><ele>946.0</ele><time>2026-04-03T13:16:19.898Z</time></trkpt><trkpt lat="47.9375763" lon="7.0620171"><ele>957.6666666666666</ele><time>2026-04-03T13:16:20.898Z</time></trkpt><trkpt lat="47.9376487" lon="7.0618042"><ele>969.3333333333333</ele><time>2026-04-03T13:16:21.898Z</time></trkpt><trkpt lat="47.9377141" lon="7.0615913"><ele>981.0</ele><time>2026-04-03T13:16:22.898Z</time></trkpt><trkpt lat="47.9377606" lon="7.0613716"><ele>984.6666666666667</ele><time>2026-04-03T13:16:23.897Z</time></trkpt><trkpt lat="47.9377759" lon="7.0611417"><ele>988.3333333333334</ele><time>2026-04-03T13:16:24.897Z</time></trkpt><trkpt lat="47.937755" lon="7.060901"><ele>992.0</ele><time>2026-04-03T13:16:25.897Z</time></trkpt><trkpt lat="47.9377013" lon="7.0606661"><ele>984.0</ele><time>2026-04-03T13:16:26.897Z</time></trkpt><trkpt lat="47.9376243" lon="7.0604606"><ele>976.0</ele><time>2026-04-03T13:16:27.897Z</time></trkpt><trkpt lat="47.9375093" lon="7.060286"><ele>968.0</ele><time>2026-04-03T13:16:28.897Z</time></trkpt><trkpt lat="47.9373725" lon="7.0601294"><ele>977.6666666666667</ele><time>2026-04-03T13:16:29.897Z</time></trkpt><trkpt lat="47.9372416" lon="7.059945"><ele>987.3333333333333</ele><time>2026-04-03T13:16:30.897Z</time></trkpt><trkpt lat="47.9371331" lon="7.0597273"><ele>997.0</ele><time>2026-04-03T13:16:31.898Z</time></trkpt><trkpt lat="47.9370401" lon="7.0594883"><ele>997.0</ele><time>2026-04-03T13:16:32.899Z</time></trkpt><trkpt lat="47.9369636" lon="7.0592517"><ele>997.0</ele><time>2026-04-03T13:16:33.897Z</time></trkpt><trkpt lat="47.936898" lon="7.0590125"><ele>997.0</ele><time>2026-04-03T13:16:34.898Z</time></trkpt><trkpt lat="47.936853" lon="7.0587652"><ele>994.6666666666666</ele><time>2026-04-03T13:16:35.897Z</time></trkpt><trkpt lat="47.9368328" lon="7.0584999"><ele>992.3333333333333</ele><time>2026-04-03T13:16:36.898Z</time></trkpt><trkpt lat="47.93685" lon="7.0582297"><ele>990.0</ele><time>2026-04-03T13:16:37.897Z</time></trkpt><trkpt lat="47.9368962" lon="7.0579623"><ele>990.0</ele><time>2026-04-03T13:16:38.897Z</time></trkpt><trkpt lat="47.9369731" lon="7.0577112"><ele>990.0</ele><time>2026-04-03T13:16:39.898Z</time></trkpt><trkpt lat="47.9370854" lon="7.0574853"><ele>990.0</ele><time>2026-04-03T13:16:40.897Z</time></trkpt><trkpt lat="47.9372189" lon="7.0572941"><ele>984.0</ele><time>2026-04-03T13:16:41.897Z</time></trkpt><trkpt lat="47.9373802" lon="7.057117"><ele>978.0</ele><time>2026-04-03T13:16:42.897Z</time></trkpt><trkpt lat="47.9375437" lon="7.0569544"><ele>972.0</ele><time>2026-04-03T13:16:43.897Z</time></trkpt><trkpt lat="47.9376967" lon="7.0568021"><ele>981.75</ele><time>2026-04-03T13:16:44.897Z</time></trkpt><trkpt lat="47.9378004" lon="7.0566534"><ele>991.5</ele><time>2026-04-03T13:16:45.898Z</time></trkpt><trkpt lat="47.937893" lon="7.056478"><ele>1001.25</ele><time>2026-04-03T13:16:46.897Z</time></trkpt><trkpt lat="47.9379512" lon="7.0562681"><ele>1011.0</ele><time>2026-04-03T13:16:47.899Z</time></trkpt><trkpt lat="47.9379987" lon="7.0560437"><ele>1011.0</ele><time>2026-04-03T13:16:48.898Z</time></trkpt><trkpt lat="47.9379551" lon="7.0558045"><ele>1011.0</ele><time>2026-04-03T13:16:49.897Z</time></trkpt><trkpt lat="47.9378961" lon="7.0555817"><ele>1011.0</ele><time>2026-04-03T13:16:50.898Z</time></trkpt><trkpt lat="47.9378156" lon="7.0553812"><ele>1011.0</ele><time>2026-04-03T13:16:51.897Z</time></trkpt><trkpt lat="47.9377593" lon="7.0551832"><ele>1011.0</ele><time>2026-04-03T13:16:52.898Z</time></trkpt><trkpt lat="47.9377342" lon="7.0549812"><ele>1011.0</ele><time>2026-04-03T13:16:53.897Z</time></trkpt><trkpt lat="47.9377383" lon="7.0547554"><ele>1011.0</ele><time>2026-04-03T13:16:54.896Z</time></trkpt><trkpt lat="47.9377546" lon="7.0544988"><ele>1011.0</ele><time>2026-04-03T13:16:55.899Z</time></trkpt><trkpt lat="47.9377706" lon="7.0542488"><ele>1011.0</ele><time>2026-04-03T13:16:56.897Z</time></trkpt><trkpt lat="47.9377844" lon="7.0539982"><ele>1011.0</ele><time>2026-04-03T13:16:57.898Z</time></trkpt><trkpt lat="47.9378047" lon="7.0537577"><ele>1008.3333333333333</ele><time>2026-04-03T13:16:58.899Z</time></trkpt><trkpt lat="47.9378267" lon="7.0535013"><ele>1005.6666666666666</ele><time>2026-04-03T13:16:59.897Z</time></trkpt><trkpt lat="47.9378551" lon="7.0532304"><ele>1003.0</ele><time>2026-04-03T13:17:00.896Z</time></trkpt><trkpt lat="47.9378919" lon="7.052968"><ele>1000.0</ele><time>2026-04-03T13:17:01.897Z</time></trkpt><trkpt lat="47.9379349" lon="7.0527132"><ele>997.0</ele><time>2026-04-03T13:17:02.897Z</time></trkpt><trkpt lat="47.9379874" lon="7.0524777"><ele>994.0</ele><time>2026-04-03T13:17:03.898Z</time></trkpt><trkpt lat="47.9380499" lon="7.052244"><ele>990.0</ele><time>2026-04-03T13:17:04.897Z</time></trkpt><trkpt lat="47.9381067" lon="7.0520128"><ele>986.0</ele><time>2026-04-03T13:17:05.897Z</time></trkpt><trkpt lat="47.9381656" lon="7.0517785"><ele>982.0</ele><time>2026-04-03T13:17:06.897Z</time></trkpt><trkpt lat="47.9382236" lon="7.0515454"><ele>979.6666666666666</ele><time>2026-04-03T13:17:07.897Z</time></trkpt><trkpt lat="47.938275" lon="7.0513086"><ele>977.3333333333333</ele><time>2026-04-03T13:17:08.897Z</time></trkpt><trkpt lat="47.938307" lon="7.0510706"><ele>975.0</ele><time>2026-04-03T13:17:09.897Z</time></trkpt><trkpt lat="47.9383174" lon="7.0508301"><ele>976.6666666666667</ele><time>2026-04-03T13:17:10.898Z</time></trkpt><trkpt lat="47.9383066" lon="7.0505831"><ele>978.3333333333334</ele><time>2026-04-03T13:17:11.898Z</time></trkpt><trkpt lat="47.9382528" lon="7.0503349"><ele>980.0</ele><time>2026-04-03T13:17:12.897Z</time></trkpt><trkpt lat="47.9381741" lon="7.050095"><ele>981.3333333333334</ele><time>2026-04-03T13:17:13.897Z</time></trkpt><trkpt lat="47.9380899" lon="7.049853"><ele>982.6666666666667</ele><time>2026-04-03T13:17:14.897Z</time></trkpt><trkpt lat="47.9380245" lon="7.0495924"><ele>984.0</ele><time>2026-04-03T13:17:15.897Z</time></trkpt><trkpt lat="47.9379734" lon="7.0493326"><ele>985.6666666666667</ele><time>2026-04-03T13:17:16.897Z</time></trkpt><trkpt lat="47.9379228" lon="7.0490672"><ele>987.3333333333334</ele><time>2026-04-03T13:17:17.897Z</time></trkpt><trkpt lat="47.9378778" lon="7.0488075"><ele>989.0</ele><time>2026-04-03T13:17:18.896Z</time></trkpt><trkpt lat="47.9378284" lon="7.0485489"><ele>990.6666666666667</ele><time>2026-04-03T13:17:19.898Z</time></trkpt><trkpt lat="47.937772" lon="7.0482828"><ele>992.3333333333333</ele><time>2026-04-03T13:17:20.897Z</time></trkpt><trkpt lat="47.9377084" lon="7.0480247"><ele>994.0</ele><time>2026-04-03T13:17:21.897Z</time></trkpt><trkpt lat="47.9376264" lon="7.0477637"><ele>987.3333333333333</ele><time>2026-04-03T13:17:22.898Z</time></trkpt><trkpt lat="47.9375213" lon="7.0475164"><ele>980.6666666666667</ele><time>2026-04-03T13:17:23.898Z</time></trkpt><trkpt lat="47.9373783" lon="7.0472786"><ele>974.0</ele><time>2026-04-03T13:17:24.897Z</time></trkpt><trkpt lat="47.9372217" lon="7.0470726"><ele>974.0</ele><time>2026-04-03T13:17:25.898Z</time></trkpt><trkpt lat="47.9370693" lon="7.0468797"><ele>974.0</ele><time>2026-04-03T13:17:26.898Z</time></trkpt><trkpt lat="47.9369273" lon="7.0466957"><ele>974.0</ele><time>2026-04-03T13:17:27.897Z</time></trkpt><trkpt lat="47.9367802" lon="7.0465062"><ele>970.0</ele><time>2026-04-03T13:17:28.897Z</time></trkpt><trkpt lat="47.936638" lon="7.0463307"><ele>966.0</ele><time>2026-04-03T13:17:29.897Z</time></trkpt><trkpt lat="47.9365029" lon="7.0461569"><ele>962.0</ele><time>2026-04-03T13:17:30.897Z</time></trkpt><trkpt lat="47.9363744" lon="7.0459842"><ele>962.0</ele><time>2026-04-03T13:17:31.898Z</time></trkpt><trkpt lat="47.9362616" lon="7.0458265"><ele>962.0</ele><time>2026-04-03T13:17:32.898Z</time></trkpt><trkpt lat="47.9361632" lon="7.0456771"><ele>962.0</ele><time>2026-04-03T13:17:33.897Z</time></trkpt><trkpt lat="47.9360915" lon="7.0455243"><ele>962.0</ele><time>2026-04-03T13:17:34.898Z</time></trkpt><trkpt lat="47.9360537" lon="7.0453564"><ele>962.5</ele><time>2026-04-03T13:17:35.897Z</time></trkpt><trkpt lat="47.9360526" lon="7.0451844"><ele>963.0</ele><time>2026-04-03T13:17:36.898Z</time></trkpt><trkpt lat="47.9360944" lon="7.0449865"><ele>963.5</ele><time>2026-04-03T13:17:37.897Z</time></trkpt><trkpt lat="47.9361591" lon="7.0447578"><ele>964.0</ele><time>2026-04-03T13:17:38.897Z</time></trkpt><trkpt lat="47.9362165" lon="7.0445084"><ele>964.0</ele><time>2026-04-03T13:17:39.897Z</time></trkpt><trkpt lat="47.9362643" lon="7.0442586"><ele>964.0</ele><time>2026-04-03T13:17:40.898Z</time></trkpt><trkpt lat="47.9363051" lon="7.0440233"><ele>964.0</ele><time>2026-04-03T13:17:41.898Z</time></trkpt><trkpt lat="47.9363613" lon="7.0437961"><ele>962.0</ele><time>2026-04-03T13:17:42.899Z</time></trkpt><trkpt lat="47.936438" lon="7.0435844"><ele>960.0</ele><time>2026-04-03T13:17:43.897Z</time></trkpt><trkpt lat="47.9365252" lon="7.0433825"><ele>958.0</ele><time>2026-04-03T13:17:44.899Z</time></trkpt><trkpt lat="47.9366149" lon="7.0431969"><ele>957.3333333333333</ele><time>2026-04-03T13:17:45.898Z</time></trkpt><trkpt lat="47.936705" lon="7.0430136"><ele>956.6666666666667</ele><time>2026-04-03T13:17:46.897Z</time></trkpt><trkpt lat="47.9367952" lon="7.0428198"><ele>956.0</ele><time>2026-04-03T13:17:47.898Z</time></trkpt><trkpt lat="47.9368881" lon="7.0426261"><ele>958.3333333333334</ele><time>2026-04-03T13:17:48.898Z</time></trkpt><trkpt lat="47.9369887" lon="7.0424382"><ele>960.6666666666667</ele><time>2026-04-03T13:17:49.898Z</time></trkpt><trkpt lat="47.9370898" lon="7.0422509"><ele>963.0</ele><time>2026-04-03T13:17:50.898Z</time></trkpt><trkpt lat="47.9371899" lon="7.042082"><ele>963.0</ele><time>2026-04-03T13:17:51.898Z</time></trkpt><trkpt lat="47.9373008" lon="7.0419295"><ele>963.0</ele><time>2026-04-03T13:17:52.899Z</time></trkpt><trkpt lat="47.937401" lon="7.0417789"><ele>963.0</ele><time>2026-04-03T13:17:53.897Z</time></trkpt><trkpt lat="47.937484" lon="7.0416373"><ele>963.0</ele><time>2026-04-03T13:17:54.898Z</time></trkpt><trkpt lat="47.9375407" lon="7.0414806"><ele>963.25</ele><time>2026-04-03T13:17:55.897Z</time></trkpt><trkpt lat="47.9375684" lon="7.041295"><ele>963.5</ele><time>2026-04-03T13:17:56.898Z</time></trkpt><trkpt lat="47.9375748" lon="7.0411229"><ele>963.75</ele><time>2026-04-03T13:17:57.897Z</time></trkpt><trkpt lat="47.9375527" lon="7.0409623"><ele>964.0</ele><time>2026-04-03T13:17:58.898Z</time></trkpt><trkpt lat="47.93752" lon="7.0408141"><ele>968.5</ele><time>2026-04-03T13:17:59.897Z</time></trkpt><trkpt lat="47.9374051" lon="7.0407224"><ele>973.0</ele><time>2026-04-03T13:18:00.898Z</time></trkpt><trkpt lat="47.9372856" lon="7.0406651"><ele>977.5</ele><time>2026-04-03T13:18:01.898Z</time></trkpt><trkpt lat="47.9371404" lon="7.0406496"><ele>982.0</ele><time>2026-04-03T13:18:02.897Z</time></trkpt><trkpt lat="47.9370021" lon="7.0406421"><ele>982.0</ele><time>2026-04-03T13:18:03.897Z</time></trkpt><trkpt lat="47.9368636" lon="7.0406177"><ele>982.0</ele><time>2026-04-03T13:18:04.897Z</time></trkpt><trkpt lat="47.9367257" lon="7.0405867"><ele>982.0</ele><time>2026-04-03T13:18:05.897Z</time></trkpt><trkpt lat="47.9365988" lon="7.0404496"><ele>982.0</ele><time>2026-04-03T13:18:06.898Z</time></trkpt><trkpt lat="47.9364629" lon="7.0402962"><ele>978.6666666666666</ele><time>2026-04-03T13:18:07.898Z</time></trkpt><trkpt lat="47.9363242" lon="7.0401128"><ele>975.3333333333333</ele><time>2026-04-03T13:18:08.897Z</time></trkpt><trkpt lat="47.9361826" lon="7.0399226"><ele>972.0</ele><time>2026-04-03T13:18:09.898Z</time></trkpt><trkpt lat="47.9360433" lon="7.0396907"><ele>974.6666666666667</ele><time>2026-04-03T13:18:10.898Z</time></trkpt><trkpt lat="47.9359049" lon="7.0394699"><ele>977.3333333333334</ele><time>2026-04-03T13:18:11.898Z</time></trkpt><trkpt lat="47.9357486" lon="7.0392635"><ele>980.0</ele><time>2026-04-03T13:18:12.898Z</time></trkpt><trkpt lat="47.9355947" lon="7.0390793"><ele>988.0</ele><time>2026-04-03T13:18:13.898Z</time></trkpt><trkpt lat="47.9354555" lon="7.0389177"><ele>996.0</ele><time>2026-04-03T13:18:14.898Z</time></trkpt><trkpt lat="47.935324" lon="7.0387574"><ele>1004.0</ele><time>2026-04-03T13:18:15.898Z</time></trkpt><trkpt lat="47.9352031" lon="7.0386118"><ele>1004.0</ele><time>2026-04-03T13:18:16.898Z</time></trkpt><trkpt lat="47.935094" lon="7.0384751"><ele>1004.0</ele><time>2026-04-03T13:18:17.897Z</time></trkpt><trkpt lat="47.9349741" lon="7.0383657"><ele>1004.0</ele><time>2026-04-03T13:18:18.899Z</time></trkpt><trkpt lat="47.9348458" lon="7.0383016"><ele>1004.0</ele><time>2026-04-03T13:18:19.899Z</time></trkpt><trkpt lat="47.934712" lon="7.0382764"><ele>1001.0</ele><time>2026-04-03T13:18:20.899Z</time></trkpt><trkpt lat="47.9345858" lon="7.0382568"><ele>998.0</ele><time>2026-04-03T13:18:21.899Z</time></trkpt><trkpt lat="47.9344697" lon="7.0381765"><ele>995.0</ele><time>2026-04-03T13:18:22.898Z</time></trkpt><trkpt lat="47.9343809" lon="7.0380292"><ele>992.0</ele><time>2026-04-03T13:18:23.898Z</time></trkpt><trkpt lat="47.9342959" lon="7.037853"><ele>992.3333333333334</ele><time>2026-04-03T13:18:24.897Z</time></trkpt><trkpt lat="47.934206" lon="7.0376583"><ele>992.6666666666667</ele><time>2026-04-03T13:18:25.897Z</time></trkpt><trkpt lat="47.9341132" lon="7.0374351"><ele>993.0</ele><time>2026-04-03T13:18:26.898Z</time></trkpt><trkpt lat="47.9340192" lon="7.0372109"><ele>993.0</ele><time>2026-04-03T13:18:27.899Z</time></trkpt><trkpt lat="47.9339334" lon="7.0370078"><ele>993.0</ele><time>2026-04-03T13:18:28.897Z</time></trkpt><trkpt lat="47.9338494" lon="7.0368251"><ele>993.0</ele><time>2026-04-03T13:18:29.898Z</time></trkpt><trkpt lat="47.9337439" lon="7.0366629"><ele>998.3333333333333</ele><time>2026-04-03T13:18:30.898Z</time></trkpt><trkpt lat="47.9336222" lon="7.0365135"><ele>1003.6666666666666</ele><time>2026-04-03T13:18:31.897Z</time></trkpt><trkpt lat="47.9335079" lon="7.0363396"><ele>1009.0</ele><time>2026-04-03T13:18:32.897Z</time></trkpt><trkpt lat="47.9333989" lon="7.03614"><ele>1007.0</ele><time>2026-04-03T13:18:33.898Z</time></trkpt><trkpt lat="47.9332698" lon="7.0359494"><ele>1005.0</ele><time>2026-04-03T13:18:34.898Z</time></trkpt><trkpt lat="47.933116" lon="7.0357698"><ele>1003.0</ele><time>2026-04-03T13:18:35.898Z</time></trkpt><trkpt lat="47.9329504" lon="7.0356086"><ele>1008.3333333333333</ele><time>2026-04-03T13:18:36.898Z</time></trkpt><trkpt lat="47.932801" lon="7.0354391"><ele>1013.6666666666667</ele><time>2026-04-03T13:18:37.898Z</time></trkpt><trkpt lat="47.9326715" lon="7.0352793"><ele>1019.0</ele><time>2026-04-03T13:18:38.899Z</time></trkpt><trkpt lat="47.9325571" lon="7.0351197"><ele>1019.3333333333334</ele><time>2026-04-03T13:18:39.897Z</time></trkpt><trkpt lat="47.9324491" lon="7.0349582"><ele>1019.6666666666667</ele><time>2026-04-03T13:18:40.9Z</time></trkpt><trkpt lat="47.9323566" lon="7.0347718"><ele>1020.0</ele><time>2026-04-03T13:18:41.898Z</time></trkpt><trkpt lat="47.932281" lon="7.0345635"><ele>1020.0</ele><time>2026-04-03T13:18:42.897Z</time></trkpt><trkpt lat="47.9322366" lon="7.0343601"><ele>1020.0</ele><time>2026-04-03T13:18:43.898Z</time></trkpt><trkpt lat="47.9321891" lon="7.0341825"><ele>1020.0</ele><time>2026-04-03T13:18:44.898Z</time></trkpt><trkpt lat="47.9321491" lon="7.0340518"><ele>1020.0</ele><time>2026-04-03T13:18:45.897Z</time></trkpt><trkpt lat="47.932095" lon="7.0339579"><ele>1020.0</ele><time>2026-04-03T13:18:46.898Z</time></trkpt><trkpt lat="47.9320319" lon="7.0339274"><ele>1020.0</ele><time>2026-04-03T13:18:47.899Z</time></trkpt><trkpt lat="47.9319637" lon="7.0339475"><ele>1020.0</ele><time>2026-04-03T13:18:48.898Z</time></trkpt><trkpt lat="47.9319021" lon="7.0339982"><ele>1020.0</ele><time>2026-04-03T13:18:49.898Z</time></trkpt><trkpt lat="47.9318748" lon="7.0341427"><ele>1020.0</ele><time>2026-04-03T13:18:50.898Z</time></trkpt><trkpt lat="47.9318409" lon="7.0343129"><ele>1020.0</ele><time>2026-04-03T13:18:51.898Z</time></trkpt><trkpt lat="47.9318193" lon="7.0345057"><ele>1020.0</ele><time>2026-04-03T13:18:52.899Z</time></trkpt><trkpt lat="47.9318127" lon="7.0347042"><ele>1020.0</ele><time>2026-04-03T13:18:53.898Z</time></trkpt><trkpt lat="47.9318306" lon="7.0349001"><ele>1020.0</ele><time>2026-04-03T13:18:54.898Z</time></trkpt><trkpt lat="47.9318472" lon="7.035099"><ele>1020.0</ele><time>2026-04-03T13:18:55.897Z</time></trkpt><trkpt lat="47.9318473" lon="7.0352956"><ele>1021.6666666666667</ele><time>2026-04-03T13:18:56.898Z</time></trkpt><trkpt lat="47.9317734" lon="7.0354899"><ele>1023.3333333333334</ele><time>2026-04-03T13:18:57.897Z</time></trkpt><trkpt lat="47.9316749" lon="7.0356486"><ele>1025.0</ele><time>2026-04-03T13:18:58.898Z</time></trkpt><trkpt lat="47.9315304" lon="7.0358377"><ele>1026.3333333333335</ele><time>2026-04-03T13:18:59.898Z</time></trkpt><trkpt lat="47.9314093" lon="7.0360382"><ele>1027.6666666666667</ele><time>2026-04-03T13:19:00.898Z</time></trkpt><trkpt lat="47.9312972" lon="7.0362215"><ele>1029.0</ele><time>2026-04-03T13:19:01.899Z</time></trkpt><trkpt lat="47.9311897" lon="7.0363613"><ele>1029.0</ele><time>2026-04-03T13:19:02.898Z</time></trkpt><trkpt lat="47.9310833" lon="7.0364356"><ele>1029.0</ele><time>2026-04-03T13:19:03.897Z</time></trkpt><trkpt lat="47.9309596" lon="7.0364579"><ele>1029.0</ele><time>2026-04-03T13:19:04.897Z</time></trkpt><trkpt lat="47.9308322" lon="7.0364301"><ele>1029.0</ele><time>2026-04-03T13:19:05.899Z</time></trkpt><trkpt lat="47.930706" lon="7.0363768"><ele>1031.2</ele><time>2026-04-03T13:19:06.897Z</time></trkpt><trkpt lat="47.9306057" lon="7.0363076"><ele>1033.4</ele><time>2026-04-03T13:19:07.899Z</time></trkpt><trkpt lat="47.9305249" lon="7.0362244"><ele>1035.6</ele><time>2026-04-03T13:19:08.899Z</time></trkpt><trkpt lat="47.9304602" lon="7.0361442"><ele>1037.8</ele><time>2026-04-03T13:19:09.898Z</time></trkpt><trkpt lat="47.9303893" lon="7.0360839"><ele>1040.0</ele><time>2026-04-03T13:19:10.898Z</time></trkpt><trkpt lat="47.9303108" lon="7.0360568"><ele>1040.0</ele><time>2026-04-03T13:19:11.898Z</time></trkpt><trkpt lat="47.9302463" lon="7.0360811"><ele>1040.0</ele><time>2026-04-03T13:19:12.898Z</time></trkpt><trkpt lat="47.9302005" lon="7.0361648"><ele>1040.0</ele><time>2026-04-03T13:19:13.898Z</time></trkpt><trkpt lat="47.9301877" lon="7.0362824"><ele>1040.0</ele><time>2026-04-03T13:19:14.898Z</time></trkpt><trkpt lat="47.9302156" lon="7.0364079"><ele>1040.0</ele><time>2026-04-03T13:19:15.897Z</time></trkpt><trkpt lat="47.9302638" lon="7.0365409"><ele>1040.0</ele><time>2026-04-03T13:19:16.897Z</time></trkpt><trkpt lat="47.9303365" lon="7.0367"><ele>1038.75</ele><time>2026-04-03T13:19:17.897Z</time></trkpt><trkpt lat="47.9304164" lon="7.0368653"><ele>1037.5</ele><time>2026-04-03T13:19:18.898Z</time></trkpt><trkpt lat="47.930489" lon="7.0370389"><ele>1036.25</ele><time>2026-04-03T13:19:19.898Z</time></trkpt><trkpt lat="47.9305622" lon="7.0372247"><ele>1035.0</ele><time>2026-04-03T13:19:20.898Z</time></trkpt><trkpt lat="47.9306136" lon="7.0374249"><ele>1035.75</ele><time>2026-04-03T13:19:21.898Z</time></trkpt><trkpt lat="47.9306629" lon="7.0376337"><ele>1036.5</ele><time>2026-04-03T13:19:22.898Z</time></trkpt><trkpt lat="47.9307059" lon="7.0378329"><ele>1037.25</ele><time>2026-04-03T13:19:23.899Z</time></trkpt><trkpt lat="47.9307349" lon="7.0380473"><ele>1038.0</ele><time>2026-04-03T13:19:24.897Z</time></trkpt><trkpt lat="47.9307389" lon="7.0382863"><ele>1041.0</ele><time>2026-04-03T13:19:25.897Z</time></trkpt><trkpt lat="47.9307182" lon="7.038552"><ele>1044.0</ele><time>2026-04-03T13:19:26.897Z</time></trkpt><trkpt lat="47.9306986" lon="7.0388076"><ele>1047.0</ele><time>2026-04-03T13:19:27.897Z</time></trkpt><trkpt lat="47.9306703" lon="7.0390376"><ele>1047.25</ele><time>2026-04-03T13:19:28.898Z</time></trkpt><trkpt lat="47.9306433" lon="7.0392398"><ele>1047.5</ele><time>2026-04-03T13:19:29.898Z</time></trkpt><trkpt lat="47.9306112" lon="7.0394298"><ele>1047.75</ele><time>2026-04-03T13:19:30.897Z</time></trkpt><trkpt lat="47.9305649" lon="7.0396056"><ele>1048.0</ele><time>2026-04-03T13:19:31.898Z</time></trkpt><trkpt lat="47.9305138" lon="7.039766"><ele>1048.0</ele><time>2026-04-03T13:19:32.897Z</time></trkpt><trkpt lat="47.9304801" lon="7.0399348"><ele>1048.0</ele><time>2026-04-03T13:19:33.898Z</time></trkpt><trkpt lat="47.9304761" lon="7.0401183"><ele>1048.0</ele><time>2026-04-03T13:19:34.899Z</time></trkpt><trkpt lat="47.9305057" lon="7.0403359"><ele>1048.0</ele><time>2026-04-03T13:19:35.897Z</time></trkpt><trkpt lat="47.930533" lon="7.0405752"><ele>1049.6666666666665</ele><time>2026-04-03T13:19:36.897Z</time></trkpt><trkpt lat="47.9305468" lon="7.0408308"><ele>1051.3333333333333</ele><time>2026-04-03T13:19:37.897Z</time></trkpt><trkpt lat="47.9305623" lon="7.0410913"><ele>1053.0</ele><time>2026-04-03T13:19:38.897Z</time></trkpt><trkpt lat="47.9305619" lon="7.041355"><ele>1053.0</ele><time>2026-04-03T13:19:39.897Z</time></trkpt><trkpt lat="47.9305388" lon="7.041629"><ele>1053.0</ele><time>2026-04-03T13:19:40.897Z</time></trkpt><trkpt lat="47.9305209" lon="7.0419075"><ele>1053.0</ele><time>2026-04-03T13:19:41.898Z</time></trkpt><trkpt lat="47.9305339" lon="7.0421919"><ele>1056.3333333333333</ele><time>2026-04-03T13:19:42.897Z</time></trkpt><trkpt lat="47.9305465" lon="7.0424996"><ele>1059.6666666666665</ele><time>2026-04-03T13:19:43.897Z</time></trkpt><trkpt lat="47.9305623" lon="7.0428323"><ele>1063.0</ele><time>2026-04-03T13:19:44.899Z</time></trkpt><trkpt lat="47.930573" lon="7.043153"><ele>1065.0</ele><time>2026-04-03T13:19:45.897Z</time></trkpt><trkpt lat="47.9305787" lon="7.0434513"><ele>1067.0</ele><time>2026-04-03T13:19:46.898Z</time></trkpt><trkpt lat="47.9305804" lon="7.043745"><ele>1069.0</ele><time>2026-04-03T13:19:47.898Z</time></trkpt><trkpt lat="47.930569" lon="7.0440273"><ele>1071.0</ele><time>2026-04-03T13:19:48.897Z</time></trkpt><trkpt lat="47.9305731" lon="7.0443094"><ele>1073.0</ele><time>2026-04-03T13:19:49.898Z</time></trkpt><trkpt lat="47.9305676" lon="7.0445858"><ele>1075.0</ele><time>2026-04-03T13:19:50.897Z</time></trkpt><trkpt lat="47.9305636" lon="7.0448316"><ele>1075.5</ele><time>2026-04-03T13:19:51.897Z</time></trkpt><trkpt lat="47.9305604" lon="7.0450666"><ele>1076.0</ele><time>2026-04-03T13:19:52.898Z</time></trkpt><trkpt lat="47.9305645" lon="7.0452966"><ele>1076.5</ele><time>2026-04-03T13:19:53.898Z</time></trkpt><trkpt lat="47.930565" lon="7.0454986"><ele>1077.0</ele><time>2026-04-03T13:19:54.897Z</time></trkpt><trkpt lat="47.9305507" lon="7.0457018"><ele>1078.0</ele><time>2026-04-03T13:19:55.897Z</time></trkpt><trkpt lat="47.9305212" lon="7.0459025"><ele>1079.0</ele><time>2026-04-03T13:19:56.897Z</time></trkpt><trkpt lat="47.9304543" lon="7.0461275"><ele>1080.0</ele><time>2026-04-03T13:19:57.897Z</time></trkpt><trkpt lat="47.9303698" lon="7.0463681"><ele>1080.0</ele><time>2026-04-03T13:19:58.898Z</time></trkpt><trkpt lat="47.9302873" lon="7.0465899"><ele>1080.0</ele><time>2026-04-03T13:19:59.897Z</time></trkpt><trkpt lat="47.9301948" lon="7.0468116"><ele>1080.0</ele><time>2026-04-03T13:20:00.897Z</time></trkpt><trkpt lat="47.9301016" lon="7.0470388"><ele>1086.6666666666667</ele><time>2026-04-03T13:20:01.898Z</time></trkpt><trkpt lat="47.9299844" lon="7.0472623"><ele>1093.3333333333335</ele><time>2026-04-03T13:20:02.898Z</time></trkpt><trkpt lat="47.9298725" lon="7.0474619"><ele>1100.0</ele><time>2026-04-03T13:20:03.899Z</time></trkpt><trkpt lat="47.9297714" lon="7.0476455"><ele>1100.0</ele><time>2026-04-03T13:20:04.897Z</time></trkpt><trkpt lat="47.929671" lon="7.0478168"><ele>1100.0</ele><time>2026-04-03T13:20:05.898Z</time></trkpt><trkpt lat="47.9295774" lon="7.0479817"><ele>1100.0</ele><time>2026-04-03T13:20:06.898Z</time></trkpt><trkpt lat="47.929486" lon="7.0481382"><ele>1100.0</ele><time>2026-04-03T13:20:07.897Z</time></trkpt><trkpt lat="47.9293998" lon="7.0482665"><ele>1099.8</ele><time>2026-04-03T13:20:08.897Z</time></trkpt><trkpt lat="47.9293187" lon="7.0483817"><ele>1099.6</ele><time>2026-04-03T13:20:09.897Z</time></trkpt><trkpt lat="47.9292234" lon="7.0484272"><ele>1099.4</ele><time>2026-04-03T13:20:10.898Z</time></trkpt><trkpt lat="47.929131" lon="7.0484539"><ele>1099.2</ele><time>2026-04-03T13:20:11.897Z</time></trkpt><trkpt lat="47.9290386" lon="7.0483581"><ele>1099.0</ele><time>2026-04-03T13:20:12.899Z</time></trkpt><trkpt lat="47.9289717" lon="7.0482329"><ele>1105.5</ele><time>2026-04-03T13:20:13.899Z</time></trkpt><trkpt lat="47.928933" lon="7.0480756"><ele>1112.0</ele><time>2026-04-03T13:20:14.897Z</time></trkpt><trkpt lat="47.9289438" lon="7.0479082"><ele>1118.5</ele><time>2026-04-03T13:20:15.897Z</time></trkpt><trkpt lat="47.9289885" lon="7.0477492"><ele>1125.0</ele><time>2026-04-03T13:20:16.898Z</time></trkpt><trkpt lat="47.9290448" lon="7.0475756"><ele>1128.0</ele><time>2026-04-03T13:20:17.899Z</time></trkpt><trkpt lat="47.9290921" lon="7.047386"><ele>1131.0</ele><time>2026-04-03T13:20:18.897Z</time></trkpt><trkpt lat="47.9291149" lon="7.0471547"><ele>1134.0</ele><time>2026-04-03T13:20:19.898Z</time></trkpt><trkpt lat="47.9291357" lon="7.0468929"><ele>1136.6666666666667</ele><time>2026-04-03T13:20:20.898Z</time></trkpt><trkpt lat="47.9291656" lon="7.0466162"><ele>1139.3333333333335</ele><time>2026-04-03T13:20:21.898Z</time></trkpt><trkpt lat="47.9291848" lon="7.0463453"><ele>1142.0</ele><time>2026-04-03T13:20:22.897Z</time></trkpt><trkpt lat="47.9291952" lon="7.0460958"><ele>1142.0</ele><time>2026-04-03T13:20:23.897Z</time></trkpt><trkpt lat="47.9291976" lon="7.0458439"><ele>1142.0</ele><time>2026-04-03T13:20:24.898Z</time></trkpt><trkpt lat="47.929173" lon="7.0455715"><ele>1142.0</ele><time>2026-04-03T13:20:25.898Z</time></trkpt><trkpt lat="47.9291366" lon="7.0452912"><ele>1141.3333333333335</ele><time>2026-04-03T13:20:26.899Z</time></trkpt><trkpt lat="47.9290766" lon="7.0450105"><ele>1140.6666666666667</ele><time>2026-04-03T13:20:27.898Z</time></trkpt><trkpt lat="47.9289859" lon="7.0447243"><ele>1140.0</ele><time>2026-04-03T13:20:28.897Z</time></trkpt><trkpt lat="47.9288853" lon="7.0444241"><ele>1138.5</ele><time>2026-04-03T13:20:29.897Z</time></trkpt><trkpt lat="47.9287846" lon="7.0441139"><ele>1137.0</ele><time>2026-04-03T13:20:30.898Z</time></trkpt><trkpt lat="47.928683" lon="7.0438046"><ele>1137.0</ele><time>2026-04-03T13:20:31.898Z</time></trkpt><trkpt lat="47.9285881" lon="7.0435167"><ele>1137.0</ele><time>2026-04-03T13:20:32.898Z</time></trkpt><trkpt lat="47.9284825" lon="7.0432331"><ele>1137.0</ele><time>2026-04-03T13:20:33.897Z</time></trkpt><trkpt lat="47.9283625" lon="7.0429491"><ele>1143.0</ele><time>2026-04-03T13:20:34.899Z</time></trkpt><trkpt lat="47.9282267" lon="7.0426656"><ele>1149.0</ele><time>2026-04-03T13:20:35.897Z</time></trkpt><trkpt lat="47.9280792" lon="7.04238"><ele>1149.0</ele><time>2026-04-03T13:20:36.898Z</time></trkpt><trkpt lat="47.9279461" lon="7.0421173"><ele>1149.0</ele><time>2026-04-03T13:20:37.899Z</time></trkpt><trkpt lat="47.9278189" lon="7.0418695"><ele>1149.0</ele><time>2026-04-03T13:20:38.897Z</time></trkpt><trkpt lat="47.9277066" lon="7.0416369"><ele>1148.0</ele><time>2026-04-03T13:20:39.898Z</time></trkpt><trkpt lat="47.927593" lon="7.0414063"><ele>1147.0</ele><time>2026-04-03T13:20:40.898Z</time></trkpt><trkpt lat="47.9274856" lon="7.0411915"><ele>1146.0</ele><time>2026-04-03T13:20:41.898Z</time></trkpt><trkpt lat="47.9273618" lon="7.0409849"><ele>1148.6666666666667</ele><time>2026-04-03T13:20:42.898Z</time></trkpt><trkpt lat="47.9272233" lon="7.0407845"><ele>1151.3333333333335</ele><time>2026-04-03T13:20:43.898Z</time></trkpt><trkpt lat="47.9270736" lon="7.0405878"><ele>1154.0</ele><time>2026-04-03T13:20:44.897Z</time></trkpt><trkpt lat="47.9269336" lon="7.0403967"><ele>1154.0</ele><time>2026-04-03T13:20:45.899Z</time></trkpt><trkpt lat="47.9268008" lon="7.0401972"><ele>1154.0</ele><time>2026-04-03T13:20:46.897Z</time></trkpt><trkpt lat="47.9266857" lon="7.0399678"><ele>1154.0</ele><time>2026-04-03T13:20:47.899Z</time></trkpt><trkpt lat="47.9265819" lon="7.0397082"><ele>1157.0</ele><time>2026-04-03T13:20:48.899Z</time></trkpt><trkpt lat="47.9264699" lon="7.039429"><ele>1160.0</ele><time>2026-04-03T13:20:49.897Z</time></trkpt><trkpt lat="47.9263445" lon="7.039144"><ele>1163.0</ele><time>2026-04-03T13:20:50.897Z</time></trkpt><trkpt lat="47.9262207" lon="7.038838"><ele>1163.0</ele><time>2026-04-03T13:20:51.899Z</time></trkpt><trkpt lat="47.9260964" lon="7.0385535"><ele>1163.0</ele><time>2026-04-03T13:20:52.897Z</time></trkpt><trkpt lat="47.925971" lon="7.0382942"><ele>1163.0</ele><time>2026-04-03T13:20:53.897Z</time></trkpt><trkpt lat="47.9258479" lon="7.0380475"><ele>1163.3333333333335</ele><time>2026-04-03T13:20:54.898Z</time></trkpt><trkpt lat="47.9257169" lon="7.037793"><ele>1163.6666666666667</ele><time>2026-04-03T13:20:55.899Z</time></trkpt><trkpt lat="47.9255737" lon="7.0375287"><ele>1164.0</ele><time>2026-04-03T13:20:56.898Z</time></trkpt><trkpt lat="47.9254345" lon="7.0372746"><ele>1164.0</ele><time>2026-04-03T13:20:57.898Z</time></trkpt><trkpt lat="47.9252869" lon="7.0370228"><ele>1164.0</ele><time>2026-04-03T13:20:58.898Z</time></trkpt><trkpt lat="47.9251284" lon="7.0367722"><ele>1169.5</ele><time>2026-04-03T13:20:59.898Z</time></trkpt><trkpt lat="47.924953" lon="7.0365414"><ele>1175.0</ele><time>2026-04-03T13:21:00.897Z</time></trkpt><trkpt lat="47.9247757" lon="7.0363203"><ele>1175.0</ele><time>2026-04-03T13:21:01.897Z</time></trkpt><trkpt lat="47.9246118" lon="7.0361188"><ele>1175.0</ele><time>2026-04-03T13:21:02.897Z</time></trkpt><trkpt lat="47.9244541" lon="7.035935"><ele>1175.0</ele><time>2026-04-03T13:21:03.899Z</time></trkpt><trkpt lat="47.9243122" lon="7.0357651"><ele>1175.3333333333335</ele><time>2026-04-03T13:21:04.897Z</time></trkpt><trkpt lat="47.9241773" lon="7.0356204"><ele>1175.6666666666667</ele><time>2026-04-03T13:21:05.897Z</time></trkpt><trkpt lat="47.9240555" lon="7.0355004"><ele>1176.0</ele><time>2026-04-03T13:21:06.9Z</time></trkpt><trkpt lat="47.9239378" lon="7.0353902"><ele>1176.0</ele><time>2026-04-03T13:21:07.898Z</time></trkpt><trkpt lat="47.9238367" lon="7.0352925"><ele>1176.0</ele><time>2026-04-03T13:21:08.897Z</time></trkpt><trkpt lat="47.9237477" lon="7.0351933"><ele>1176.0</ele><time>2026-04-03T13:21:09.898Z</time></trkpt><trkpt lat="47.9236767" lon="7.0350766"><ele>1176.0</ele><time>2026-04-03T13:21:10.898Z</time></trkpt><trkpt lat="47.9236152" lon="7.0349363"><ele>1176.0</ele><time>2026-04-03T13:21:11.898Z</time></trkpt><trkpt lat="47.9235793" lon="7.0347943"><ele>1176.0</ele><time>2026-04-03T13:21:12.899Z</time></trkpt><trkpt lat="47.9235548" lon="7.0346663"><ele>1176.0</ele><time>2026-04-03T13:21:13.897Z</time></trkpt><trkpt lat="47.9235327" lon="7.0345541"><ele>1176.0</ele><time>2026-04-03T13:21:14.899Z</time></trkpt><trkpt lat="47.9235047" lon="7.0344259"><ele>1176.0</ele><time>2026-04-03T13:21:15.9Z</time></trkpt><trkpt lat="47.9234667" lon="7.0342618"><ele>1176.0</ele><time>2026-04-03T13:21:16.899Z</time></trkpt><trkpt lat="47.923433" lon="7.0341053"><ele>1176.0</ele><time>2026-04-03T13:21:17.899Z</time></trkpt><trkpt lat="47.9234111" lon="7.0339683"><ele>1176.0</ele><time>2026-04-03T13:21:18.899Z</time></trkpt><trkpt lat="47.9234036" lon="7.0338468"><ele>1176.0</ele><time>2026-04-03T13:21:19.898Z</time></trkpt><trkpt lat="47.9233892" lon="7.0337538"><ele>1176.0</ele><time>2026-04-03T13:21:20.897Z</time></trkpt><trkpt lat="47.92337" lon="7.0336117"><ele>1176.0</ele><time>2026-04-03T13:21:22.9Z</time></trkpt><trkpt lat="47.9233513" lon="7.0334938"><ele>1176.0</ele><time>2026-04-03T13:21:25.9Z</time></trkpt><trkpt lat="47.9233431" lon="7.0333785"><ele>1176.8</ele><time>2026-04-03T13:23:08.897Z</time></trkpt><trkpt lat="47.9232994" lon="7.0332981"><ele>1177.6</ele><time>2026-04-03T13:23:26.897Z</time></trkpt><trkpt lat="47.9232472" lon="7.0331118"><ele>1178.4</ele><time>2026-04-03T13:23:28.897Z</time></trkpt><trkpt lat="47.9232177" lon="7.0329854"><ele>1179.2</ele><time>2026-04-03T13:23:29.899Z</time></trkpt><trkpt lat="47.9231964" lon="7.0328816"><ele>1180.0</ele><time>2026-04-03T13:23:30.899Z</time></trkpt><trkpt lat="47.9231685" lon="7.0327319"><ele>1180.0</ele><time>2026-04-03T13:23:32.899Z</time></trkpt><trkpt lat="47.9231515" lon="7.0326055"><ele>1180.0</ele><time>2026-04-03T13:23:34.898Z</time></trkpt><trkpt lat="47.9231287" lon="7.0324858"><ele>1180.0</ele><time>2026-04-03T13:23:36.899Z</time></trkpt><trkpt lat="47.923071" lon="7.0324464"><ele>1180.0</ele><time>2026-04-03T13:23:38.898Z</time></trkpt><trkpt lat="47.9230124" lon="7.0325188"><ele>1180.0</ele><time>2026-04-03T13:23:40.898Z</time></trkpt><trkpt lat="47.9229812" lon="7.0326781"><ele>1180.0</ele><time>2026-04-03T13:23:42.897Z</time></trkpt><trkpt lat="47.9229588" lon="7.0327911"><ele>1180.0</ele><time>2026-04-03T13:23:43.9Z</time></trkpt><trkpt lat="47.9229266" lon="7.0329359"><ele>1180.0</ele><time>2026-04-03T13:23:44.897Z</time></trkpt><trkpt lat="47.9228901" lon="7.0330919"><ele>1180.0</ele><time>2026-04-03T13:23:45.897Z</time></trkpt><trkpt lat="47.9228562" lon="7.0332399"><ele>1180.0</ele><time>2026-04-03T13:23:46.9Z</time></trkpt><trkpt lat="47.9228245" lon="7.0333854"><ele>1180.0</ele><time>2026-04-03T13:23:47.898Z</time></trkpt><trkpt lat="47.9227914" lon="7.033536"><ele>1180.0</ele><time>2026-04-03T13:23:48.898Z</time></trkpt><trkpt lat="47.9227569" lon="7.0336947"><ele>1180.0</ele><time>2026-04-03T13:23:49.899Z</time></trkpt><trkpt lat="47.9227271" lon="7.0338591"><ele>1180.0</ele><time>2026-04-03T13:23:50.898Z</time></trkpt><trkpt lat="47.9227024" lon="7.0340324"><ele>1180.0</ele><time>2026-04-03T13:23:51.897Z</time></trkpt><trkpt lat="47.922699" lon="7.0342263"><ele>1179.0</ele><time>2026-04-03T13:23:52.897Z</time></trkpt><trkpt lat="47.9227057" lon="7.0344283"><ele>1178.0</ele><time>2026-04-03T13:23:53.9Z</time></trkpt><trkpt lat="47.9227204" lon="7.0346261"><ele>1177.0</ele><time>2026-04-03T13:23:54.899Z</time></trkpt><trkpt lat="47.9227342" lon="7.0348244"><ele>1176.0</ele><time>2026-04-03T13:23:55.898Z</time></trkpt><trkpt lat="47.9227532" lon="7.0350158"><ele>1175.0</ele><time>2026-04-03T13:23:56.898Z</time></trkpt><trkpt lat="47.9227686" lon="7.0351984"><ele>1174.0</ele><time>2026-04-03T13:23:57.897Z</time></trkpt><trkpt lat="47.9227891" lon="7.0353752"><ele>1173.0</ele><time>2026-04-03T13:23:58.898Z</time></trkpt><trkpt lat="47.9228045" lon="7.0355542"><ele>1172.0</ele><time>2026-04-03T13:23:59.898Z</time></trkpt><trkpt lat="47.9228178" lon="7.0357401"><ele>1172.75</ele><time>2026-04-03T13:24:00.899Z</time></trkpt><trkpt lat="47.9228325" lon="7.0359245"><ele>1173.5</ele><time>2026-04-03T13:24:01.898Z</time></trkpt><trkpt lat="47.9228344" lon="7.0361065"><ele>1174.25</ele><time>2026-04-03T13:24:02.898Z</time></trkpt><trkpt lat="47.922826" lon="7.0362899"><ele>1175.0</ele><time>2026-04-03T13:24:03.899Z</time></trkpt><trkpt lat="47.922806" lon="7.0364674"><ele>1177.6666666666667</ele><time>2026-04-03T13:24:04.897Z</time></trkpt><trkpt lat="47.9227313" lon="7.0366466"><ele>1180.3333333333333</ele><time>2026-04-03T13:24:05.897Z</time></trkpt><trkpt lat="47.922636" lon="7.0368342"><ele>1183.0</ele><time>2026-04-03T13:24:06.899Z</time></trkpt><trkpt lat="47.9225211" lon="7.0370354"><ele>1180.3333333333333</ele><time>2026-04-03T13:24:07.899Z</time></trkpt><trkpt lat="47.9224037" lon="7.0372351"><ele>1177.6666666666667</ele><time>2026-04-03T13:24:08.898Z</time></trkpt><trkpt lat="47.9222788" lon="7.0374458"><ele>1175.0</ele><time>2026-04-03T13:24:09.899Z</time></trkpt><trkpt lat="47.9221496" lon="7.0376452"><ele>1175.0</ele><time>2026-04-03T13:24:10.898Z</time></trkpt><trkpt lat="47.9220219" lon="7.0378275"><ele>1175.0</ele><time>2026-04-03T13:24:11.897Z</time></trkpt><trkpt lat="47.92189" lon="7.0380091"><ele>1175.0</ele><time>2026-04-03T13:24:12.897Z</time></trkpt><trkpt lat="47.9217591" lon="7.0381918"><ele>1173.0</ele><time>2026-04-03T13:24:13.898Z</time></trkpt><trkpt lat="47.9216308" lon="7.038376"><ele>1171.0</ele><time>2026-04-03T13:24:14.898Z</time></trkpt><trkpt lat="47.9215048" lon="7.0385637"><ele>1169.0</ele><time>2026-04-03T13:24:15.898Z</time></trkpt><trkpt lat="47.9213943" lon="7.0387547"><ele>1169.0</ele><time>2026-04-03T13:24:16.898Z</time></trkpt><trkpt lat="47.9212959" lon="7.0389379"><ele>1169.0</ele><time>2026-04-03T13:24:17.897Z</time></trkpt><trkpt lat="47.9212144" lon="7.0391203"><ele>1169.0</ele><time>2026-04-03T13:24:18.897Z</time></trkpt><trkpt lat="47.9211213" lon="7.0392872"><ele>1168.25</ele><time>2026-04-03T13:24:19.898Z</time></trkpt><trkpt lat="47.920999" lon="7.0394021"><ele>1167.5</ele><time>2026-04-03T13:24:20.898Z</time></trkpt><trkpt lat="47.9208777" lon="7.0395039"><ele>1166.75</ele><time>2026-04-03T13:24:21.899Z</time></trkpt><trkpt lat="47.9207254" lon="7.0395765"><ele>1166.0</ele><time>2026-04-03T13:24:22.898Z</time></trkpt><trkpt lat="47.9205592" lon="7.0396492"><ele>1166.0</ele><time>2026-04-03T13:24:23.898Z</time></trkpt><trkpt lat="47.9203825" lon="7.0397369"><ele>1166.0</ele><time>2026-04-03T13:24:24.898Z</time></trkpt><trkpt lat="47.9201959" lon="7.03984"><ele>1166.0</ele><time>2026-04-03T13:24:25.899Z</time></trkpt><trkpt lat="47.9200033" lon="7.0399593"><ele>1170.3333333333335</ele><time>2026-04-03T13:24:26.898Z</time></trkpt><trkpt lat="47.9198159" lon="7.0400879"><ele>1174.6666666666667</ele><time>2026-04-03T13:24:27.898Z</time></trkpt><trkpt lat="47.9196399" lon="7.0402204"><ele>1179.0</ele><time>2026-04-03T13:24:28.897Z</time></trkpt><trkpt lat="47.9194605" lon="7.0403572"><ele>1179.0</ele><time>2026-04-03T13:24:29.899Z</time></trkpt><trkpt lat="47.919275" lon="7.0404945"><ele>1179.0</ele><time>2026-04-03T13:24:30.898Z</time></trkpt><trkpt lat="47.9190774" lon="7.0406353"><ele>1179.0</ele><time>2026-04-03T13:24:31.898Z</time></trkpt><trkpt lat="47.9188943" lon="7.0407545"><ele>1176.6666666666667</ele><time>2026-04-03T13:24:32.897Z</time></trkpt><trkpt lat="47.9187173" lon="7.0408365"><ele>1174.3333333333335</ele><time>2026-04-03T13:24:33.898Z</time></trkpt><trkpt lat="47.9185421" lon="7.0408894"><ele>1172.0</ele><time>2026-04-03T13:24:34.899Z</time></trkpt><trkpt lat="47.9183789" lon="7.0409153"><ele>1172.0</ele><time>2026-04-03T13:24:35.898Z</time></trkpt><trkpt lat="47.9182242" lon="7.0409578"><ele>1172.0</ele><time>2026-04-03T13:24:36.899Z</time></trkpt><trkpt lat="47.9180793" lon="7.0410237"><ele>1172.0</ele><time>2026-04-03T13:24:37.897Z</time></trkpt><trkpt lat="47.9179422" lon="7.0411305"><ele>1172.0</ele><time>2026-04-03T13:24:38.899Z</time></trkpt><trkpt lat="47.9178113" lon="7.0412923"><ele>1172.0</ele><time>2026-04-03T13:24:39.898Z</time></trkpt><trkpt lat="47.9176704" lon="7.0414751"><ele>1172.0</ele><time>2026-04-03T13:24:40.898Z</time></trkpt><trkpt lat="47.9175229" lon="7.0416772"><ele>1173.0</ele><time>2026-04-03T13:24:41.899Z</time></trkpt><trkpt lat="47.917375" lon="7.0418715"><ele>1174.0</ele><time>2026-04-03T13:24:42.898Z</time></trkpt><trkpt lat="47.9172254" lon="7.0420602"><ele>1175.0</ele><time>2026-04-03T13:24:43.897Z</time></trkpt><trkpt lat="47.9170649" lon="7.0422519"><ele>1175.0</ele><time>2026-04-03T13:24:44.897Z</time></trkpt><trkpt lat="47.9169128" lon="7.0424382"><ele>1175.0</ele><time>2026-04-03T13:24:45.898Z</time></trkpt><trkpt lat="47.9167578" lon="7.0426193"><ele>1175.0</ele><time>2026-04-03T13:24:46.899Z</time></trkpt><trkpt lat="47.9166028" lon="7.0427865"><ele>1173.0</ele><time>2026-04-03T13:24:47.898Z</time></trkpt><trkpt lat="47.9164391" lon="7.0429419"><ele>1171.0</ele><time>2026-04-03T13:24:48.898Z</time></trkpt><trkpt lat="47.9162715" lon="7.043093"><ele>1169.0</ele><time>2026-04-03T13:24:49.897Z</time></trkpt><trkpt lat="47.9160997" lon="7.0432405"><ele>1170.6666666666667</ele><time>2026-04-03T13:24:50.898Z</time></trkpt><trkpt lat="47.9159344" lon="7.0433556"><ele>1172.3333333333333</ele><time>2026-04-03T13:24:51.898Z</time></trkpt><trkpt lat="47.9157678" lon="7.0434653"><ele>1174.0</ele><time>2026-04-03T13:24:52.899Z</time></trkpt><trkpt lat="47.915586" lon="7.0435408"><ele>1174.0</ele><time>2026-04-03T13:24:53.898Z</time></trkpt><trkpt lat="47.915392" lon="7.0435961"><ele>1174.0</ele><time>2026-04-03T13:24:54.899Z</time></trkpt><trkpt lat="47.9151962" lon="7.0436431"><ele>1174.0</ele><time>2026-04-03T13:24:55.898Z</time></trkpt><trkpt lat="47.9150092" lon="7.0436881"><ele>1171.0</ele><time>2026-04-03T13:24:56.899Z</time></trkpt><trkpt lat="47.9148264" lon="7.0437241"><ele>1168.0</ele><time>2026-04-03T13:24:57.899Z</time></trkpt><trkpt lat="47.9146575" lon="7.0437579"><ele>1165.0</ele><time>2026-04-03T13:24:58.898Z</time></trkpt><trkpt lat="47.9144933" lon="7.0437955"><ele>1165.0</ele><time>2026-04-03T13:24:59.897Z</time></trkpt><trkpt lat="47.914328" lon="7.0438516"><ele>1165.0</ele><time>2026-04-03T13:25:00.898Z</time></trkpt><trkpt lat="47.9141705" lon="7.0439522"><ele>1165.0</ele><time>2026-04-03T13:25:01.899Z</time></trkpt><trkpt lat="47.9140315" lon="7.0440491"><ele>1170.0</ele><time>2026-04-03T13:25:02.899Z</time></trkpt><trkpt lat="47.9139047" lon="7.044182"><ele>1175.0</ele><time>2026-04-03T13:25:03.897Z</time></trkpt><trkpt lat="47.9137897" lon="7.0443518"><ele>1180.0</ele><time>2026-04-03T13:25:04.897Z</time></trkpt><trkpt lat="47.9136807" lon="7.0445726"><ele>1180.0</ele><time>2026-04-03T13:25:05.899Z</time></trkpt><trkpt lat="47.9135836" lon="7.0448217"><ele>1180.0</ele><time>2026-04-03T13:25:06.899Z</time></trkpt><trkpt lat="47.9134918" lon="7.0450461"><ele>1180.0</ele><time>2026-04-03T13:25:07.898Z</time></trkpt><trkpt lat="47.9133939" lon="7.045265"><ele>1180.3333333333333</ele><time>2026-04-03T13:25:08.899Z</time></trkpt><trkpt lat="47.9132988" lon="7.0454771"><ele>1180.6666666666667</ele><time>2026-04-03T13:25:09.9Z</time></trkpt><trkpt lat="47.9132033" lon="7.0456664"><ele>1181.0</ele><time>2026-04-03T13:25:10.897Z</time></trkpt><trkpt lat="47.9131004" lon="7.0458414"><ele>1181.0</ele><time>2026-04-03T13:25:11.899Z</time></trkpt><trkpt lat="47.9129959" lon="7.0460188"><ele>1181.0</ele><time>2026-04-03T13:25:12.899Z</time></trkpt><trkpt lat="47.9128937" lon="7.0462034"><ele>1181.0</ele><time>2026-04-03T13:25:13.898Z</time></trkpt><trkpt lat="47.9127893" lon="7.0463844"><ele>1181.0</ele><time>2026-04-03T13:25:14.899Z</time></trkpt><trkpt lat="47.912686" lon="7.0465544"><ele>1181.0</ele><time>2026-04-03T13:25:15.899Z</time></trkpt><trkpt lat="47.9125942" lon="7.0467321"><ele>1181.0</ele><time>2026-04-03T13:25:16.898Z</time></trkpt><trkpt lat="47.9125195" lon="7.0469376"><ele>1178.0</ele><time>2026-04-03T13:25:17.9Z</time></trkpt><trkpt lat="47.9124729" lon="7.0471647"><ele>1175.0</ele><time>2026-04-03T13:25:18.899Z</time></trkpt><trkpt lat="47.9124545" lon="7.0473878"><ele>1172.0</ele><time>2026-04-03T13:25:19.897Z</time></trkpt><trkpt lat="47.9124599" lon="7.0476102"><ele>1172.0</ele><time>2026-04-03T13:25:20.898Z</time></trkpt><trkpt lat="47.9124484" lon="7.0478167"><ele>1172.0</ele><time>2026-04-03T13:25:21.898Z</time></trkpt><trkpt lat="47.9124182" lon="7.0480218"><ele>1172.0</ele><time>2026-04-03T13:25:22.898Z</time></trkpt><trkpt lat="47.9123579" lon="7.0482036"><ele>1172.0</ele><time>2026-04-03T13:25:23.898Z</time></trkpt><trkpt lat="47.9122707" lon="7.0483603"><ele>1172.5</ele><time>2026-04-03T13:25:24.899Z</time></trkpt><trkpt lat="47.9121768" lon="7.0485085"><ele>1173.0</ele><time>2026-04-03T13:25:25.899Z</time></trkpt><trkpt lat="47.9120807" lon="7.0486545"><ele>1173.5</ele><time>2026-04-03T13:25:26.899Z</time></trkpt><trkpt lat="47.9119785" lon="7.0488039"><ele>1174.0</ele><time>2026-04-03T13:25:27.898Z</time></trkpt><trkpt lat="47.9118731" lon="7.0489523"><ele>1174.0</ele><time>2026-04-03T13:25:28.898Z</time></trkpt><trkpt lat="47.9117668" lon="7.0491051"><ele>1174.0</ele><time>2026-04-03T13:25:29.898Z</time></trkpt><trkpt lat="47.9116593" lon="7.0492469"><ele>1174.0</ele><time>2026-04-03T13:25:30.898Z</time></trkpt><trkpt lat="47.9115548" lon="7.0493704"><ele>1174.0</ele><time>2026-04-03T13:25:31.898Z</time></trkpt><trkpt lat="47.9114412" lon="7.0494667"><ele>1172.25</ele><time>2026-04-03T13:25:32.898Z</time></trkpt><trkpt lat="47.9113094" lon="7.0495426"><ele>1170.5</ele><time>2026-04-03T13:25:33.9Z</time></trkpt><trkpt lat="47.9111669" lon="7.049588"><ele>1168.75</ele><time>2026-04-03T13:25:34.898Z</time></trkpt><trkpt lat="47.9110209" lon="7.0495809"><ele>1167.0</ele><time>2026-04-03T13:25:35.899Z</time></trkpt><trkpt lat="47.910871" lon="7.0495502"><ele>1165.6666666666667</ele><time>2026-04-03T13:25:36.899Z</time></trkpt><trkpt lat="47.9107221" lon="7.0495169"><ele>1164.3333333333335</ele><time>2026-04-03T13:25:37.899Z</time></trkpt><trkpt lat="47.9105593" lon="7.0495056"><ele>1163.0</ele><time>2026-04-03T13:25:38.899Z</time></trkpt><trkpt lat="47.9104089" lon="7.0495098"><ele>1163.0</ele><time>2026-04-03T13:25:39.899Z</time></trkpt><trkpt lat="47.9102816" lon="7.0495351"><ele>1163.0</ele><time>2026-04-03T13:25:40.899Z</time></trkpt><trkpt lat="47.9101714" lon="7.0495876"><ele>1163.0</ele><time>2026-04-03T13:25:41.898Z</time></trkpt><trkpt lat="47.9100789" lon="7.0496672"><ele>1163.0</ele><time>2026-04-03T13:25:42.899Z</time></trkpt><trkpt lat="47.9099925" lon="7.0497842"><ele>1163.75</ele><time>2026-04-03T13:25:43.899Z</time></trkpt><trkpt lat="47.9099291" lon="7.049927"><ele>1164.5</ele><time>2026-04-03T13:25:44.898Z</time></trkpt><trkpt lat="47.9098799" lon="7.0500892"><ele>1165.25</ele><time>2026-04-03T13:25:45.898Z</time></trkpt><trkpt lat="47.9098757" lon="7.0502845"><ele>1166.0</ele><time>2026-04-03T13:25:46.897Z</time></trkpt><trkpt lat="47.9098855" lon="7.0505063"><ele>1169.25</ele><time>2026-04-03T13:25:47.897Z</time></trkpt><trkpt lat="47.9099104" lon="7.0507214"><ele>1172.5</ele><time>2026-04-03T13:25:48.898Z</time></trkpt><trkpt lat="47.9099431" lon="7.0509293"><ele>1175.75</ele><time>2026-04-03T13:25:49.899Z</time></trkpt><trkpt lat="47.9100104" lon="7.0511191"><ele>1179.0</ele><time>2026-04-03T13:25:50.898Z</time></trkpt><trkpt lat="47.910085" lon="7.0512901"><ele>1179.0</ele><time>2026-04-03T13:25:51.898Z</time></trkpt><trkpt lat="47.9101602" lon="7.0514565"><ele>1179.0</ele><time>2026-04-03T13:25:52.898Z</time></trkpt><trkpt lat="47.9102439" lon="7.0516212"><ele>1179.0</ele><time>2026-04-03T13:25:53.898Z</time></trkpt><trkpt lat="47.9103114" lon="7.0517702"><ele>1179.0</ele><time>2026-04-03T13:25:54.898Z</time></trkpt><trkpt lat="47.9103732" lon="7.0519151"><ele>1179.0</ele><time>2026-04-03T13:25:55.899Z</time></trkpt><trkpt lat="47.910406" lon="7.0520828"><ele>1179.0</ele><time>2026-04-03T13:25:56.899Z</time></trkpt><trkpt lat="47.9104164" lon="7.0522601"><ele>1179.0</ele><time>2026-04-03T13:25:57.898Z</time></trkpt><trkpt lat="47.9103964" lon="7.0524539"><ele>1179.0</ele><time>2026-04-03T13:25:58.899Z</time></trkpt><trkpt lat="47.9103486" lon="7.05264"><ele>1179.75</ele><time>2026-04-03T13:25:59.898Z</time></trkpt><trkpt lat="47.9102859" lon="7.0528279"><ele>1180.5</ele><time>2026-04-03T13:26:00.899Z</time></trkpt><trkpt lat="47.9102307" lon="7.0530231"><ele>1181.25</ele><time>2026-04-03T13:26:01.898Z</time></trkpt><trkpt lat="47.9101821" lon="7.0532229"><ele>1182.0</ele><time>2026-04-03T13:26:02.898Z</time></trkpt><trkpt lat="47.9101325" lon="7.0534465"><ele>1182.5</ele><time>2026-04-03T13:26:03.898Z</time></trkpt><trkpt lat="47.9100994" lon="7.0536469"><ele>1183.0</ele><time>2026-04-03T13:26:04.898Z</time></trkpt><trkpt lat="47.9100683" lon="7.0538515"><ele>1183.5</ele><time>2026-04-03T13:26:05.899Z</time></trkpt><trkpt lat="47.9100449" lon="7.0540576"><ele>1184.0</ele><time>2026-04-03T13:26:06.897Z</time></trkpt><trkpt lat="47.9100246" lon="7.0542543"><ele>1184.0</ele><time>2026-04-03T13:26:07.898Z</time></trkpt><trkpt lat="47.9100048" lon="7.0544599"><ele>1184.0</ele><time>2026-04-03T13:26:08.898Z</time></trkpt><trkpt lat="47.9099954" lon="7.0546391"><ele>1184.0</ele><time>2026-04-03T13:26:09.899Z</time></trkpt><trkpt lat="47.9099873" lon="7.0548169"><ele>1184.0</ele><time>2026-04-03T13:26:10.898Z</time></trkpt><trkpt lat="47.9099957" lon="7.0550084"><ele>1185.0</ele><time>2026-04-03T13:26:11.898Z</time></trkpt><trkpt lat="47.9100306" lon="7.0552109"><ele>1186.0</ele><time>2026-04-03T13:26:12.898Z</time></trkpt><trkpt lat="47.9100697" lon="7.0554145"><ele>1187.0</ele><time>2026-04-03T13:26:13.899Z</time></trkpt><trkpt lat="47.9101134" lon="7.0556132"><ele>1188.0</ele><time>2026-04-03T13:26:14.897Z</time></trkpt><trkpt lat="47.9101652" lon="7.0558069"><ele>1193.0</ele><time>2026-04-03T13:26:15.9Z</time></trkpt><trkpt lat="47.910244" lon="7.0559828"><ele>1198.0</ele><time>2026-04-03T13:26:16.899Z</time></trkpt><trkpt lat="47.9103146" lon="7.0561549"><ele>1203.0</ele><time>2026-04-03T13:26:17.898Z</time></trkpt><trkpt lat="47.9103839" lon="7.0563352"><ele>1208.0</ele><time>2026-04-03T13:26:18.899Z</time></trkpt><trkpt lat="47.9104439" lon="7.0565187"><ele>1209.0</ele><time>2026-04-03T13:26:19.899Z</time></trkpt><trkpt lat="47.9104966" lon="7.0567225"><ele>1210.0</ele><time>2026-04-03T13:26:20.898Z</time></trkpt><trkpt lat="47.9105268" lon="7.0569458"><ele>1211.0</ele><time>2026-04-03T13:26:21.897Z</time></trkpt><trkpt lat="47.9105441" lon="7.0571622"><ele>1212.0</ele><time>2026-04-03T13:26:22.898Z</time></trkpt><trkpt lat="47.910564" lon="7.0573801"><ele>1210.25</ele><time>2026-04-03T13:26:23.898Z</time></trkpt><trkpt lat="47.9105615" lon="7.0575912"><ele>1208.5</ele><time>2026-04-03T13:26:24.898Z</time></trkpt><trkpt lat="47.9105605" lon="7.0577916"><ele>1206.75</ele><time>2026-04-03T13:26:25.898Z</time></trkpt><trkpt lat="47.9105743" lon="7.0579913"><ele>1205.0</ele><time>2026-04-03T13:26:26.897Z</time></trkpt><trkpt lat="47.9106081" lon="7.0581849"><ele>1203.25</ele><time>2026-04-03T13:26:27.899Z</time></trkpt><trkpt lat="47.9106302" lon="7.0583784"><ele>1201.5</ele><time>2026-04-03T13:26:28.899Z</time></trkpt><trkpt lat="47.9106511" lon="7.0585756"><ele>1199.75</ele><time>2026-04-03T13:26:29.899Z</time></trkpt><trkpt lat="47.9106854" lon="7.0587717"><ele>1198.0</ele><time>2026-04-03T13:26:30.898Z</time></trkpt><trkpt lat="47.9107363" lon="7.058967"><ele>1197.25</ele><time>2026-04-03T13:26:31.898Z</time></trkpt><trkpt lat="47.9107952" lon="7.0591683"><ele>1196.5</ele><time>2026-04-03T13:26:32.898Z</time></trkpt><trkpt lat="47.9108611" lon="7.0593705"><ele>1195.75</ele><time>2026-04-03T13:26:33.898Z</time></trkpt><trkpt lat="47.9109302" lon="7.0595669"><ele>1195.0</ele><time>2026-04-03T13:26:34.898Z</time></trkpt><trkpt lat="47.9110014" lon="7.0597417"><ele>1195.0</ele><time>2026-04-03T13:26:35.898Z</time></trkpt><trkpt lat="47.9110826" lon="7.0599067"><ele>1195.0</ele><time>2026-04-03T13:26:36.897Z</time></trkpt><trkpt lat="47.9111651" lon="7.0600638"><ele>1195.0</ele><time>2026-04-03T13:26:37.9Z</time></trkpt><trkpt lat="47.9112396" lon="7.0602232"><ele>1195.0</ele><time>2026-04-03T13:26:38.897Z</time></trkpt><trkpt lat="47.9112886" lon="7.0604096"><ele>1195.75</ele><time>2026-04-03T13:26:39.898Z</time></trkpt><trkpt lat="47.9113022" lon="7.0606071"><ele>1196.5</ele><time>2026-04-03T13:26:40.898Z</time></trkpt><trkpt lat="47.9112999" lon="7.0608147"><ele>1197.25</ele><time>2026-04-03T13:26:41.898Z</time></trkpt><trkpt lat="47.9112896" lon="7.0610123"><ele>1198.0</ele><time>2026-04-03T13:26:42.898Z</time></trkpt><trkpt lat="47.9112579" lon="7.0612266"><ele>1200.3333333333333</ele><time>2026-04-03T13:26:43.898Z</time></trkpt><trkpt lat="47.9112247" lon="7.0614428"><ele>1202.6666666666667</ele><time>2026-04-03T13:26:44.898Z</time></trkpt><trkpt lat="47.9111809" lon="7.0616613"><ele>1205.0</ele><time>2026-04-03T13:26:45.899Z</time></trkpt><trkpt lat="47.9111324" lon="7.0618781"><ele>1207.3333333333335</ele><time>2026-04-03T13:26:46.899Z</time></trkpt><trkpt lat="47.911083" lon="7.0621065"><ele>1209.6666666666667</ele><time>2026-04-03T13:26:47.898Z</time></trkpt><trkpt lat="47.9110413" lon="7.062348"><ele>1212.0</ele><time>2026-04-03T13:26:48.898Z</time></trkpt><trkpt lat="47.9110123" lon="7.0625942"><ele>1212.3333333333333</ele><time>2026-04-03T13:26:49.9Z</time></trkpt><trkpt lat="47.9109844" lon="7.0628223"><ele>1212.6666666666665</ele><time>2026-04-03T13:26:50.899Z</time></trkpt><trkpt lat="47.9109572" lon="7.0630443"><ele>1213.0</ele><time>2026-04-03T13:26:51.898Z</time></trkpt><trkpt lat="47.9109179" lon="7.0632581"><ele>1204.6666666666665</ele><time>2026-04-03T13:26:52.898Z</time></trkpt><trkpt lat="47.9108721" lon="7.0634794"><ele>1196.3333333333333</ele><time>2026-04-03T13:26:53.9Z</time></trkpt><trkpt lat="47.9107971" lon="7.0637109"><ele>1188.0</ele><time>2026-04-03T13:26:54.899Z</time></trkpt><trkpt lat="47.9107092" lon="7.0639513"><ele>1192.0</ele><time>2026-04-03T13:26:55.898Z</time></trkpt><trkpt lat="47.9106136" lon="7.0641686"><ele>1196.0</ele><time>2026-04-03T13:26:56.899Z</time></trkpt><trkpt lat="47.910516" lon="7.0643804"><ele>1200.0</ele><time>2026-04-03T13:26:57.9Z</time></trkpt><trkpt lat="47.9104358" lon="7.064562"><ele>1200.0</ele><time>2026-04-03T13:26:58.899Z</time></trkpt><trkpt lat="47.9103512" lon="7.0647467"><ele>1200.0</ele><time>2026-04-03T13:26:59.898Z</time></trkpt><trkpt lat="47.9102712" lon="7.0649372"><ele>1200.0</ele><time>2026-04-03T13:27:00.899Z</time></trkpt><trkpt lat="47.9101834" lon="7.0651304"><ele>1202.6666666666667</ele><time>2026-04-03T13:27:01.898Z</time></trkpt><trkpt lat="47.9100768" lon="7.065326"><ele>1205.3333333333335</ele><time>2026-04-03T13:27:02.898Z</time></trkpt><trkpt lat="47.9099641" lon="7.0655065"><ele>1208.0</ele><time>2026-04-03T13:27:03.899Z</time></trkpt><trkpt lat="47.9098539" lon="7.0656652"><ele>1204.75</ele><time>2026-04-03T13:27:04.899Z</time></trkpt><trkpt lat="47.9097432" lon="7.0658183"><ele>1201.5</ele><time>2026-04-03T13:27:05.9Z</time></trkpt><trkpt lat="47.909643" lon="7.0659813"><ele>1198.25</ele><time>2026-04-03T13:27:06.897Z</time></trkpt><trkpt lat="47.9095523" lon="7.0661563"><ele>1195.0</ele><time>2026-04-03T13:27:07.897Z</time></trkpt><trkpt lat="47.9094946" lon="7.066333"><ele>1195.0</ele><time>2026-04-03T13:27:08.899Z</time></trkpt><trkpt lat="47.9094225" lon="7.0665005"><ele>1195.0</ele><time>2026-04-03T13:27:09.899Z</time></trkpt><trkpt lat="47.9093431" lon="7.0666653"><ele>1195.0</ele><time>2026-04-03T13:27:10.898Z</time></trkpt><trkpt lat="47.9092498" lon="7.0668052"><ele>1195.0</ele><time>2026-04-03T13:27:11.898Z</time></trkpt><trkpt lat="47.9091406" lon="7.0669233"><ele>1193.5</ele><time>2026-04-03T13:27:12.899Z</time></trkpt><trkpt lat="47.9090164" lon="7.067024"><ele>1192.0</ele><time>2026-04-03T13:27:13.899Z</time></trkpt><trkpt lat="47.9088905" lon="7.0671242"><ele>1190.5</ele><time>2026-04-03T13:27:14.898Z</time></trkpt><trkpt lat="47.9087709" lon="7.0672458"><ele>1189.0</ele><time>2026-04-03T13:27:15.898Z</time></trkpt><trkpt lat="47.9086529" lon="7.067402"><ele>1189.3333333333333</ele><time>2026-04-03T13:27:16.899Z</time></trkpt><trkpt lat="47.9085376" lon="7.0675678"><ele>1189.6666666666667</ele><time>2026-04-03T13:27:17.897Z</time></trkpt><trkpt lat="47.9084268" lon="7.0677254"><ele>1190.0</ele><time>2026-04-03T13:27:18.898Z</time></trkpt><trkpt lat="47.9083241" lon="7.0678661"><ele>1189.75</ele><time>2026-04-03T13:27:19.899Z</time></trkpt><trkpt lat="47.9082215" lon="7.0679959"><ele>1189.5</ele><time>2026-04-03T13:27:20.898Z</time></trkpt><trkpt lat="47.9081216" lon="7.0681363"><ele>1189.25</ele><time>2026-04-03T13:27:21.898Z</time></trkpt><trkpt lat="47.9080297" lon="7.0682804"><ele>1189.0</ele><time>2026-04-03T13:27:22.9Z</time></trkpt><trkpt lat="47.9079428" lon="7.0684538"><ele>1189.0</ele><time>2026-04-03T13:27:23.898Z</time></trkpt><trkpt lat="47.9078671" lon="7.0687058"><ele>1189.0</ele><time>2026-04-03T13:27:24.899Z</time></trkpt><trkpt lat="47.9077911" lon="7.0689801"><ele>1189.0</ele><time>2026-04-03T13:27:25.899Z</time></trkpt><trkpt lat="47.9077188" lon="7.0692983"><ele>1189.0</ele><time>2026-04-03T13:27:26.898Z</time></trkpt><trkpt lat="47.9076499" lon="7.0696282"><ele>1189.0</ele><time>2026-04-03T13:27:27.899Z</time></trkpt><trkpt lat="47.9075801" lon="7.0699794"><ele>1193.0</ele><time>2026-04-03T13:27:28.898Z</time></trkpt><trkpt lat="47.9075159" lon="7.0703098"><ele>1197.0</ele><time>2026-04-03T13:27:29.898Z</time></trkpt><trkpt lat="47.9074417" lon="7.0706245"><ele>1196.6666666666667</ele><time>2026-04-03T13:27:30.9Z</time></trkpt><trkpt lat="47.9073696" lon="7.070927"><ele>1196.3333333333335</ele><time>2026-04-03T13:27:31.897Z</time></trkpt><trkpt lat="47.9073163" lon="7.0712202"><ele>1196.0</ele><time>2026-04-03T13:27:32.899Z</time></trkpt><trkpt lat="47.9072918" lon="7.0715152"><ele>1196.3333333333335</ele><time>2026-04-03T13:27:33.898Z</time></trkpt><trkpt lat="47.9072797" lon="7.0718207"><ele>1196.6666666666667</ele><time>2026-04-03T13:27:34.899Z</time></trkpt><trkpt lat="47.9072674" lon="7.0721228"><ele>1197.0</ele><time>2026-04-03T13:27:35.898Z</time></trkpt><trkpt lat="47.9072472" lon="7.0724116"><ele>1196.3333333333333</ele><time>2026-04-03T13:27:36.898Z</time></trkpt><trkpt lat="47.9072155" lon="7.0726802"><ele>1195.6666666666665</ele><time>2026-04-03T13:27:37.899Z</time></trkpt><trkpt lat="47.9071808" lon="7.0729458"><ele>1195.0</ele><time>2026-04-03T13:27:38.899Z</time></trkpt><trkpt lat="47.9071519" lon="7.0732029"><ele>1195.0</ele><time>2026-04-03T13:27:39.898Z</time></trkpt><trkpt lat="47.9071417" lon="7.0734669"><ele>1195.0</ele><time>2026-04-03T13:27:40.9Z</time></trkpt><trkpt lat="47.9071471" lon="7.0737386"><ele>1195.0</ele><time>2026-04-03T13:27:41.899Z</time></trkpt><trkpt lat="47.9071564" lon="7.0739916"><ele>1197.3333333333333</ele><time>2026-04-03T13:27:42.9Z</time></trkpt><trkpt lat="47.9071676" lon="7.0742268"><ele>1199.6666666666667</ele><time>2026-04-03T13:27:43.899Z</time></trkpt><trkpt lat="47.9071774" lon="7.0744522"><ele>1202.0</ele><time>2026-04-03T13:27:44.898Z</time></trkpt><trkpt lat="47.9072113" lon="7.0746618"><ele>1202.0</ele><time>2026-04-03T13:27:45.899Z</time></trkpt><trkpt lat="47.9072521" lon="7.074874"><ele>1202.0</ele><time>2026-04-03T13:27:46.898Z</time></trkpt><trkpt lat="47.9073011" lon="7.075092"><ele>1202.0</ele><time>2026-04-03T13:27:47.898Z</time></trkpt><trkpt lat="47.9073754" lon="7.0753184"><ele>1203.6666666666667</ele><time>2026-04-03T13:27:48.898Z</time></trkpt><trkpt lat="47.9074513" lon="7.0755553"><ele>1205.3333333333333</ele><time>2026-04-03T13:27:49.898Z</time></trkpt><trkpt lat="47.907524" lon="7.0758005"><ele>1207.0</ele><time>2026-04-03T13:27:50.898Z</time></trkpt><trkpt lat="47.9075893" lon="7.0760334"><ele>1202.3333333333333</ele><time>2026-04-03T13:27:51.898Z</time></trkpt><trkpt lat="47.9076429" lon="7.0762738"><ele>1197.6666666666667</ele><time>2026-04-03T13:27:52.898Z</time></trkpt><trkpt lat="47.9076925" lon="7.0765295"><ele>1193.0</ele><time>2026-04-03T13:27:53.899Z</time></trkpt><trkpt lat="47.9077346" lon="7.0767714"><ele>1193.0</ele><time>2026-04-03T13:27:54.899Z</time></trkpt><trkpt lat="47.9077627" lon="7.076984"><ele>1193.0</ele><time>2026-04-03T13:27:55.898Z</time></trkpt><trkpt lat="47.9077723" lon="7.0772144"><ele>1193.0</ele><time>2026-04-03T13:27:56.899Z</time></trkpt><trkpt lat="47.9077695" lon="7.0774521"><ele>1195.0</ele><time>2026-04-03T13:27:57.899Z</time></trkpt><trkpt lat="47.9077674" lon="7.0777047"><ele>1197.0</ele><time>2026-04-03T13:27:58.898Z</time></trkpt><trkpt lat="47.9077614" lon="7.0779555"><ele>1199.0</ele><time>2026-04-03T13:27:59.898Z</time></trkpt><trkpt lat="47.9077632" lon="7.0781947"><ele>1201.3333333333335</ele><time>2026-04-03T13:28:00.899Z</time></trkpt><trkpt lat="47.9077747" lon="7.0784287"><ele>1203.6666666666667</ele><time>2026-04-03T13:28:01.898Z</time></trkpt><trkpt lat="47.9078043" lon="7.0786608"><ele>1206.0</ele><time>2026-04-03T13:28:02.9Z</time></trkpt><trkpt lat="47.9078457" lon="7.0788847"><ele>1206.0</ele><time>2026-04-03T13:28:03.898Z</time></trkpt><trkpt lat="47.9078735" lon="7.0790889"><ele>1206.0</ele><time>2026-04-03T13:28:04.898Z</time></trkpt><trkpt lat="47.907884" lon="7.0792772"><ele>1206.0</ele><time>2026-04-03T13:28:05.899Z</time></trkpt><trkpt lat="47.9078787" lon="7.0794675"><ele>1206.0</ele><time>2026-04-03T13:28:06.898Z</time></trkpt><trkpt lat="47.9078313" lon="7.0796638"><ele>1206.0</ele><time>2026-04-03T13:28:07.899Z</time></trkpt><trkpt lat="47.9077898" lon="7.0798718"><ele>1206.0</ele><time>2026-04-03T13:28:08.899Z</time></trkpt><trkpt lat="47.9077477" lon="7.0800924"><ele>1206.0</ele><time>2026-04-03T13:28:09.899Z</time></trkpt><trkpt lat="47.9077181" lon="7.0803265"><ele>1206.0</ele><time>2026-04-03T13:28:10.898Z</time></trkpt><trkpt lat="47.9076926" lon="7.0805599"><ele>1206.0</ele><time>2026-04-03T13:28:11.898Z</time></trkpt><trkpt lat="47.9076776" lon="7.0807936"><ele>1206.0</ele><time>2026-04-03T13:28:12.899Z</time></trkpt><trkpt lat="47.907679" lon="7.0810284"><ele>1206.3333333333333</ele><time>2026-04-03T13:28:13.898Z</time></trkpt><trkpt lat="47.9076862" lon="7.0812702"><ele>1206.6666666666665</ele><time>2026-04-03T13:28:14.898Z</time></trkpt><trkpt lat="47.9076886" lon="7.0815147"><ele>1207.0</ele><time>2026-04-03T13:28:15.899Z</time></trkpt><trkpt lat="47.9076847" lon="7.0817549"><ele>1207.3333333333333</ele><time>2026-04-03T13:28:16.898Z</time></trkpt><trkpt lat="47.9076967" lon="7.0820083"><ele>1207.6666666666667</ele><time>2026-04-03T13:28:17.898Z</time></trkpt><trkpt lat="47.9077108" lon="7.0822611"><ele>1208.0</ele><time>2026-04-03T13:28:18.898Z</time></trkpt><trkpt lat="47.9077337" lon="7.0825057"><ele>1209.0</ele><time>2026-04-03T13:28:19.898Z</time></trkpt><trkpt lat="47.9077591" lon="7.0827512"><ele>1210.0</ele><time>2026-04-03T13:28:20.899Z</time></trkpt><trkpt lat="47.9077913" lon="7.0830041"><ele>1211.0</ele><time>2026-04-03T13:28:21.899Z</time></trkpt><trkpt lat="47.9078315" lon="7.0832637"><ele>1212.3333333333335</ele><time>2026-04-03T13:28:22.9Z</time></trkpt><trkpt lat="47.9078712" lon="7.0834905"><ele>1213.6666666666667</ele><time>2026-04-03T13:28:23.898Z</time></trkpt><trkpt lat="47.9079116" lon="7.083726"><ele>1215.0</ele><time>2026-04-03T13:28:24.898Z</time></trkpt><trkpt lat="47.9079542" lon="7.0839458"><ele>1215.75</ele><time>2026-04-03T13:28:25.899Z</time></trkpt><trkpt lat="47.9080118" lon="7.0841422"><ele>1216.5</ele><time>2026-04-03T13:28:26.9Z</time></trkpt><trkpt lat="47.9080666" lon="7.0843312"><ele>1217.25</ele><time>2026-04-03T13:28:27.899Z</time></trkpt><trkpt lat="47.9081278" lon="7.0845153"><ele>1218.0</ele><time>2026-04-03T13:28:28.898Z</time></trkpt><trkpt lat="47.9081663" lon="7.08469"><ele>1218.0</ele><time>2026-04-03T13:28:29.899Z</time></trkpt><trkpt lat="47.9081775" lon="7.084874"><ele>1218.0</ele><time>2026-04-03T13:28:30.898Z</time></trkpt><trkpt lat="47.9081665" lon="7.08508"><ele>1218.0</ele><time>2026-04-03T13:28:31.899Z</time></trkpt><trkpt lat="47.908141" lon="7.0853035"><ele>1218.0</ele><time>2026-04-03T13:28:32.899Z</time></trkpt><trkpt lat="47.9081128" lon="7.0855267"><ele>1219.0</ele><time>2026-04-03T13:28:33.899Z</time></trkpt><trkpt lat="47.9080795" lon="7.0857326"><ele>1220.0</ele><time>2026-04-03T13:28:34.898Z</time></trkpt><trkpt lat="47.9080395" lon="7.0859136"><ele>1221.0</ele><time>2026-04-03T13:28:35.899Z</time></trkpt><trkpt lat="47.9079851" lon="7.086078"><ele>1222.0</ele><time>2026-04-03T13:28:36.898Z</time></trkpt><trkpt lat="47.9079242" lon="7.0862109"><ele>1222.0</ele><time>2026-04-03T13:28:37.899Z</time></trkpt><trkpt lat="47.9078432" lon="7.0863096"><ele>1222.0</ele><time>2026-04-03T13:28:38.899Z</time></trkpt><trkpt lat="47.9077523" lon="7.0863781"><ele>1222.0</ele><time>2026-04-03T13:28:39.899Z</time></trkpt><trkpt lat="47.9076361" lon="7.0863757"><ele>1222.0</ele><time>2026-04-03T13:28:40.899Z</time></trkpt><trkpt lat="47.9075113" lon="7.0863705"><ele>1222.0</ele><time>2026-04-03T13:28:41.898Z</time></trkpt><trkpt lat="47.9073759" lon="7.0863604"><ele>1228.75</ele><time>2026-04-03T13:28:42.898Z</time></trkpt><trkpt lat="47.9072323" lon="7.0863647"><ele>1235.5</ele><time>2026-04-03T13:28:43.899Z</time></trkpt><trkpt lat="47.9070899" lon="7.0864015"><ele>1242.25</ele><time>2026-04-03T13:28:44.899Z</time></trkpt><trkpt lat="47.9069455" lon="7.086467"><ele>1249.0</ele><time>2026-04-03T13:28:45.898Z</time></trkpt><trkpt lat="47.9068006" lon="7.0865521"><ele>1245.5</ele><time>2026-04-03T13:28:46.9Z</time></trkpt><trkpt lat="47.9066609" lon="7.0866506"><ele>1242.0</ele><time>2026-04-03T13:28:47.898Z</time></trkpt><trkpt lat="47.9065409" lon="7.0867548"><ele>1238.5</ele><time>2026-04-03T13:28:48.899Z</time></trkpt><trkpt lat="47.9064238" lon="7.0868685"><ele>1235.0</ele><time>2026-04-03T13:28:49.898Z</time></trkpt><trkpt lat="47.9063178" lon="7.0869733"><ele>1235.0</ele><time>2026-04-03T13:28:50.898Z</time></trkpt><trkpt lat="47.9062415" lon="7.0870902"><ele>1235.0</ele><time>2026-04-03T13:28:51.899Z</time></trkpt><trkpt lat="47.906174" lon="7.0872332"><ele>1235.0</ele><time>2026-04-03T13:28:52.898Z</time></trkpt><trkpt lat="47.9061235" lon="7.0874172"><ele>1235.0</ele><time>2026-04-03T13:28:53.899Z</time></trkpt><trkpt lat="47.9060876" lon="7.0876347"><ele>1230.0</ele><time>2026-04-03T13:28:54.898Z</time></trkpt><trkpt lat="47.9060517" lon="7.0878763"><ele>1225.0</ele><time>2026-04-03T13:28:55.898Z</time></trkpt><trkpt lat="47.9060116" lon="7.088099"><ele>1220.0</ele><time>2026-04-03T13:28:56.898Z</time></trkpt><trkpt lat="47.9059815" lon="7.0883202"><ele>1214.3333333333335</ele><time>2026-04-03T13:28:57.898Z</time></trkpt><trkpt lat="47.9059517" lon="7.0885569"><ele>1208.6666666666667</ele><time>2026-04-03T13:28:58.898Z</time></trkpt><trkpt lat="47.9059268" lon="7.0887907"><ele>1203.0</ele><time>2026-04-03T13:28:59.898Z</time></trkpt><trkpt lat="47.9058977" lon="7.0890168"><ele>1209.25</ele><time>2026-04-03T13:29:00.898Z</time></trkpt><trkpt lat="47.9058712" lon="7.0892334"><ele>1215.5</ele><time>2026-04-03T13:29:01.899Z</time></trkpt><trkpt lat="47.9058419" lon="7.0894233"><ele>1221.75</ele><time>2026-04-03T13:29:02.898Z</time></trkpt><trkpt lat="47.9058049" lon="7.0895876"><ele>1228.0</ele><time>2026-04-03T13:29:03.9Z</time></trkpt><trkpt lat="47.9057442" lon="7.0897416"><ele>1228.0</ele><time>2026-04-03T13:29:04.898Z</time></trkpt><trkpt lat="47.9056496" lon="7.0898779"><ele>1228.0</ele><time>2026-04-03T13:29:05.898Z</time></trkpt><trkpt lat="47.9055237" lon="7.0899978"><ele>1228.0</ele><time>2026-04-03T13:29:06.9Z</time></trkpt><trkpt lat="47.9053704" lon="7.090119"><ele>1227.3333333333333</ele><time>2026-04-03T13:29:07.898Z</time></trkpt><trkpt lat="47.9052126" lon="7.0902666"><ele>1226.6666666666667</ele><time>2026-04-03T13:29:08.898Z</time></trkpt><trkpt lat="47.9050834" lon="7.0904255"><ele>1226.0</ele><time>2026-04-03T13:29:09.898Z</time></trkpt><trkpt lat="47.9049653" lon="7.0905785"><ele>1226.0</ele><time>2026-04-03T13:29:10.898Z</time></trkpt><trkpt lat="47.9048614" lon="7.0907223"><ele>1226.0</ele><time>2026-04-03T13:29:11.898Z</time></trkpt><trkpt lat="47.9047728" lon="7.0908471"><ele>1226.0</ele><time>2026-04-03T13:29:12.899Z</time></trkpt><trkpt lat="47.9047017" lon="7.090958"><ele>1226.0</ele><time>2026-04-03T13:29:13.898Z</time></trkpt><trkpt lat="47.9046438" lon="7.091088"><ele>1226.8</ele><time>2026-04-03T13:29:14.9Z</time></trkpt><trkpt lat="47.9046077" lon="7.0912235"><ele>1227.6</ele><time>2026-04-03T13:29:15.898Z</time></trkpt><trkpt lat="47.9045958" lon="7.0913721"><ele>1228.4</ele><time>2026-04-03T13:29:16.899Z</time></trkpt><trkpt lat="47.9045966" lon="7.091523"><ele>1229.2</ele><time>2026-04-03T13:29:17.898Z</time></trkpt><trkpt lat="47.9046125" lon="7.0916901"><ele>1230.0</ele><time>2026-04-03T13:29:18.898Z</time></trkpt><trkpt lat="47.9046392" lon="7.0918746"><ele>1231.6666666666667</ele><time>2026-04-03T13:29:19.9Z</time></trkpt><trkpt lat="47.9046747" lon="7.0920764"><ele>1233.3333333333335</ele><time>2026-04-03T13:29:20.899Z</time></trkpt><trkpt lat="47.9047252" lon="7.092303"><ele>1235.0</ele><time>2026-04-03T13:29:21.9Z</time></trkpt><trkpt lat="47.9047912" lon="7.0925404"><ele>1237.0</ele><time>2026-04-03T13:29:22.898Z</time></trkpt><trkpt lat="47.9048726" lon="7.0928001"><ele>1239.0</ele><time>2026-04-03T13:29:23.899Z</time></trkpt><trkpt lat="47.9049704" lon="7.0930679"><ele>1241.0</ele><time>2026-04-03T13:29:24.898Z</time></trkpt><trkpt lat="47.9050729" lon="7.0933355"><ele>1239.6666666666667</ele><time>2026-04-03T13:29:25.899Z</time></trkpt><trkpt lat="47.9051626" lon="7.093584"><ele>1238.3333333333333</ele><time>2026-04-03T13:29:26.898Z</time></trkpt><trkpt lat="47.9052459" lon="7.093822"><ele>1237.0</ele><time>2026-04-03T13:29:27.9Z</time></trkpt><trkpt lat="47.9053308" lon="7.0940647"><ele>1241.6666666666665</ele><time>2026-04-03T13:29:28.898Z</time></trkpt><trkpt lat="47.9054056" lon="7.0943174"><ele>1246.3333333333333</ele><time>2026-04-03T13:29:29.899Z</time></trkpt><trkpt lat="47.9054742" lon="7.0945654"><ele>1251.0</ele><time>2026-04-03T13:29:30.898Z</time></trkpt><trkpt lat="47.9055376" lon="7.0947934"><ele>1254.3333333333333</ele><time>2026-04-03T13:29:31.898Z</time></trkpt><trkpt lat="47.9055969" lon="7.0950209"><ele>1257.6666666666665</ele><time>2026-04-03T13:29:32.9Z</time></trkpt><trkpt lat="47.9056503" lon="7.0952539"><ele>1261.0</ele><time>2026-04-03T13:29:33.9Z</time></trkpt><trkpt lat="47.905685" lon="7.0954859"><ele>1261.0</ele><time>2026-04-03T13:29:34.898Z</time></trkpt><trkpt lat="47.9057097" lon="7.0957366"><ele>1261.0</ele><time>2026-04-03T13:29:35.9Z</time></trkpt><trkpt lat="47.9057257" lon="7.0959973"><ele>1261.0</ele><time>2026-04-03T13:29:36.899Z</time></trkpt><trkpt lat="47.9057375" lon="7.0962822"><ele>1263.0</ele><time>2026-04-03T13:29:37.899Z</time></trkpt><trkpt lat="47.9057431" lon="7.0965561"><ele>1265.0</ele><time>2026-04-03T13:29:38.899Z</time></trkpt><trkpt lat="47.9057324" lon="7.0968218"><ele>1267.0</ele><time>2026-04-03T13:29:39.899Z</time></trkpt><trkpt lat="47.9057099" lon="7.0970969"><ele>1268.3333333333333</ele><time>2026-04-03T13:29:40.9Z</time></trkpt><trkpt lat="47.9057234" lon="7.0973594"><ele>1269.6666666666667</ele><time>2026-04-03T13:29:41.898Z</time></trkpt><trkpt lat="47.9057441" lon="7.0976374"><ele>1271.0</ele><time>2026-04-03T13:29:42.899Z</time></trkpt><trkpt lat="47.9057622" lon="7.0979216"><ele>1273.3333333333335</ele><time>2026-04-03T13:29:43.899Z</time></trkpt><trkpt lat="47.9057837" lon="7.0982093"><ele>1275.6666666666667</ele><time>2026-04-03T13:29:44.898Z</time></trkpt><trkpt lat="47.9057895" lon="7.0984775"><ele>1278.0</ele><time>2026-04-03T13:29:45.898Z</time></trkpt><trkpt lat="47.9057994" lon="7.0987625"><ele>1280.0</ele><time>2026-04-03T13:29:46.9Z</time></trkpt><trkpt lat="47.9058018" lon="7.0990529"><ele>1282.0</ele><time>2026-04-03T13:29:47.899Z</time></trkpt><trkpt lat="47.9058028" lon="7.0993531"><ele>1284.0</ele><time>2026-04-03T13:29:48.899Z</time></trkpt><trkpt lat="47.9058077" lon="7.0996375"><ele>1285.6666666666667</ele><time>2026-04-03T13:29:49.899Z</time></trkpt><trkpt lat="47.9058139" lon="7.0999105"><ele>1287.3333333333335</ele><time>2026-04-03T13:29:50.898Z</time></trkpt><trkpt lat="47.9058228" lon="7.1001813"><ele>1289.0</ele><time>2026-04-03T13:29:51.899Z</time></trkpt><trkpt lat="47.905827" lon="7.1004403"><ele>1290.25</ele><time>2026-04-03T13:29:52.898Z</time></trkpt><trkpt lat="47.9058301" lon="7.1006756"><ele>1291.5</ele><time>2026-04-03T13:29:53.899Z</time></trkpt><trkpt lat="47.9058377" lon="7.1008883"><ele>1292.75</ele><time>2026-04-03T13:29:54.898Z</time></trkpt><trkpt lat="47.9058421" lon="7.1010793"><ele>1294.0</ele><time>2026-04-03T13:29:55.898Z</time></trkpt><trkpt lat="47.9058425" lon="7.1012606"><ele>1295.25</ele><time>2026-04-03T13:29:56.898Z</time></trkpt><trkpt lat="47.905843" lon="7.1014413"><ele>1296.5</ele><time>2026-04-03T13:29:57.9Z</time></trkpt><trkpt lat="47.9058496" lon="7.1016222"><ele>1297.75</ele><time>2026-04-03T13:29:58.898Z</time></trkpt><trkpt lat="47.9058727" lon="7.101823"><ele>1299.0</ele><time>2026-04-03T13:29:59.899Z</time></trkpt><trkpt lat="47.9059116" lon="7.1020501"><ele>1297.3333333333333</ele><time>2026-04-03T13:30:00.899Z</time></trkpt><trkpt lat="47.905963" lon="7.1022961"><ele>1295.6666666666665</ele><time>2026-04-03T13:30:01.899Z</time></trkpt><trkpt lat="47.9060237" lon="7.1025115"><ele>1294.0</ele><time>2026-04-03T13:30:02.898Z</time></trkpt><trkpt lat="47.9060773" lon="7.1027248"><ele>1294.0</ele><time>2026-04-03T13:30:03.898Z</time></trkpt><trkpt lat="47.9061317" lon="7.1029323"><ele>1294.0</ele><time>2026-04-03T13:30:04.899Z</time></trkpt><trkpt lat="47.9061925" lon="7.1031273"><ele>1294.0</ele><time>2026-04-03T13:30:05.899Z</time></trkpt><trkpt lat="47.9062513" lon="7.1033049"><ele>1294.0</ele><time>2026-04-03T13:30:06.898Z</time></trkpt><trkpt lat="47.906311" lon="7.1034579"><ele>1297.75</ele><time>2026-04-03T13:30:07.899Z</time></trkpt><trkpt lat="47.9063973" lon="7.1035851"><ele>1301.5</ele><time>2026-04-03T13:30:08.9Z</time></trkpt><trkpt lat="47.9064988" lon="7.1036865"><ele>1305.25</ele><time>2026-04-03T13:30:09.9Z</time></trkpt><trkpt lat="47.9066028" lon="7.103763"><ele>1309.0</ele><time>2026-04-03T13:30:10.899Z</time></trkpt><trkpt lat="47.906688" lon="7.1038303"><ele>1309.142857142857</ele><time>2026-04-03T13:30:11.898Z</time></trkpt><trkpt lat="47.9067542" lon="7.1039064"><ele>1309.2857142857142</ele><time>2026-04-03T13:30:12.9Z</time></trkpt><trkpt lat="47.9067899" lon="7.1040005"><ele>1309.4285714285716</ele><time>2026-04-03T13:30:13.898Z</time></trkpt><trkpt lat="47.9067952" lon="7.1041083"><ele>1309.5714285714284</ele><time>2026-04-03T13:30:14.898Z</time></trkpt><trkpt lat="47.9067578" lon="7.1041851"><ele>1309.7142857142858</ele><time>2026-04-03T13:30:15.899Z</time></trkpt><trkpt lat="47.9066936" lon="7.10422"><ele>1309.857142857143</ele><time>2026-04-03T13:30:16.899Z</time></trkpt><trkpt lat="47.9066103" lon="7.1042151"><ele>1310.0</ele><time>2026-04-03T13:30:17.899Z</time></trkpt><trkpt lat="47.9065123" lon="7.1041762"><ele>1309.75</ele><time>2026-04-03T13:30:18.899Z</time></trkpt><trkpt lat="47.9064079" lon="7.1041308"><ele>1309.5</ele><time>2026-04-03T13:30:19.899Z</time></trkpt><trkpt lat="47.9062842" lon="7.1040491"><ele>1309.25</ele><time>2026-04-03T13:30:20.898Z</time></trkpt><trkpt lat="47.9061491" lon="7.1039539"><ele>1309.0</ele><time>2026-04-03T13:30:21.9Z</time></trkpt><trkpt lat="47.906001" lon="7.1038485"><ele>1313.0</ele><time>2026-04-03T13:30:22.899Z</time></trkpt><trkpt lat="47.9058399" lon="7.10372"><ele>1317.0</ele><time>2026-04-03T13:30:23.899Z</time></trkpt><trkpt lat="47.9057002" lon="7.1036073"><ele>1321.0</ele><time>2026-04-03T13:30:24.898Z</time></trkpt><trkpt lat="47.9055746" lon="7.1034941"><ele>1321.0</ele><time>2026-04-03T13:30:25.898Z</time></trkpt><trkpt lat="47.9054672" lon="7.1033711"><ele>1321.0</ele><time>2026-04-03T13:30:26.898Z</time></trkpt><trkpt lat="47.9053747" lon="7.1032415"><ele>1321.0</ele><time>2026-04-03T13:30:27.9Z</time></trkpt><trkpt lat="47.9053036" lon="7.1031313"><ele>1321.0</ele><time>2026-04-03T13:30:28.899Z</time></trkpt><trkpt lat="47.9052194" lon="7.103042"><ele>1319.4</ele><time>2026-04-03T13:30:29.898Z</time></trkpt><trkpt lat="47.9051378" lon="7.1030075"><ele>1317.8</ele><time>2026-04-03T13:30:30.898Z</time></trkpt><trkpt lat="47.905059" lon="7.1030192"><ele>1316.2</ele><time>2026-04-03T13:30:31.9Z</time></trkpt><trkpt lat="47.9049444" lon="7.1031097"><ele>1314.6000000000001</ele><time>2026-04-03T13:30:33.899Z</time></trkpt><trkpt lat="47.9048812" lon="7.1031877"><ele>1313.0</ele><time>2026-04-03T13:30:34.898Z</time></trkpt><trkpt lat="47.9048124" lon="7.1032606"><ele>1316.3333333333335</ele><time>2026-04-03T13:30:35.899Z</time></trkpt><trkpt lat="47.9047498" lon="7.103302"><ele>1319.6666666666667</ele><time>2026-04-03T13:30:36.9Z</time></trkpt><trkpt lat="47.9046818" lon="7.1033354"><ele>1323.0</ele><time>2026-04-03T13:30:37.899Z</time></trkpt><trkpt lat="47.9045982" lon="7.103329"><ele>1326.3333333333333</ele><time>2026-04-03T13:30:38.899Z</time></trkpt><trkpt lat="47.9044932" lon="7.1033086"><ele>1329.6666666666665</ele><time>2026-04-03T13:30:39.898Z</time></trkpt><trkpt lat="47.9043971" lon="7.1032936"><ele>1333.0</ele><time>2026-04-03T13:30:40.899Z</time></trkpt><trkpt lat="47.9043097" lon="7.1032876"><ele>1333.6000000000001</ele><time>2026-04-03T13:30:41.898Z</time></trkpt><trkpt lat="47.9042335" lon="7.1032802"><ele>1334.2</ele><time>2026-04-03T13:30:42.9Z</time></trkpt><trkpt lat="47.9041705" lon="7.1032736"><ele>1334.8</ele><time>2026-04-03T13:30:43.899Z</time></trkpt><trkpt lat="47.9040456" lon="7.1032651"><ele>1335.4</ele><time>2026-04-03T13:30:45.899Z</time></trkpt><trkpt lat="47.9039333" lon="7.1032275"><ele>1336.0</ele><time>2026-04-03T13:30:47.899Z</time></trkpt><trkpt lat="47.9038465" lon="7.1031851"><ele>1336.0</ele><time>2026-04-03T13:30:49.898Z</time></trkpt><trkpt lat="47.903782" lon="7.1031664"><ele>1336.0</ele><time>2026-04-03T13:30:51.899Z</time></trkpt><trkpt lat="47.9037143" lon="7.1032117"><ele>1336.0</ele><time>2026-04-03T13:31:09.898Z</time></trkpt><trkpt lat="47.9036397" lon="7.1032467"><ele>1336.0</ele><time>2026-04-03T13:33:40.9Z</time></trkpt><trkpt lat="47.9034924" lon="7.1032608"><ele>1336.0</ele><time>2026-04-03T13:33:42.9Z</time></trkpt><trkpt lat="47.9034035" lon="7.1032628"><ele>1336.25</ele><time>2026-04-03T13:33:43.899Z</time></trkpt><trkpt lat="47.9032898" lon="7.1032637"><ele>1336.5</ele><time>2026-04-03T13:33:44.899Z</time></trkpt><trkpt lat="47.9031589" lon="7.1032705"><ele>1336.75</ele><time>2026-04-03T13:33:45.9Z</time></trkpt><trkpt lat="47.9030391" lon="7.103283"><ele>1337.0</ele><time>2026-04-03T13:33:46.9Z</time></trkpt><trkpt lat="47.9029215" lon="7.1033005"><ele>1337.0</ele><time>2026-04-03T13:33:47.899Z</time></trkpt><trkpt lat="47.9028074" lon="7.1033192"><ele>1337.0</ele><time>2026-04-03T13:33:48.899Z</time></trkpt><trkpt lat="47.9026981" lon="7.1033316"><ele>1337.0</ele><time>2026-04-03T13:33:49.899Z</time></trkpt><trkpt lat="47.9025793" lon="7.1033305"><ele>1337.0</ele><time>2026-04-03T13:33:50.9Z</time></trkpt><trkpt lat="47.9024324" lon="7.103322"><ele>1334.6666666666667</ele><time>2026-04-03T13:33:51.9Z</time></trkpt><trkpt lat="47.9022618" lon="7.1033052"><ele>1332.3333333333333</ele><time>2026-04-03T13:33:52.9Z</time></trkpt><trkpt lat="47.9020749" lon="7.1032892"><ele>1330.0</ele><time>2026-04-03T13:33:53.9Z</time></trkpt><trkpt lat="47.90189" lon="7.1032839"><ele>1327.3333333333333</ele><time>2026-04-03T13:33:54.901Z</time></trkpt><trkpt lat="47.9017055" lon="7.1032847"><ele>1324.6666666666667</ele><time>2026-04-03T13:33:55.899Z</time></trkpt><trkpt lat="47.9015221" lon="7.1032871"><ele>1322.0</ele><time>2026-04-03T13:33:56.899Z</time></trkpt><trkpt lat="47.9013446" lon="7.1032802"><ele>1322.0</ele><time>2026-04-03T13:33:57.901Z</time></trkpt><trkpt lat="47.9011889" lon="7.1032535"><ele>1322.0</ele><time>2026-04-03T13:33:58.899Z</time></trkpt><trkpt lat="47.901051" lon="7.1032073"><ele>1322.0</ele><time>2026-04-03T13:33:59.899Z</time></trkpt><trkpt lat="47.9009274" lon="7.10316"><ele>1322.0</ele><time>2026-04-03T13:34:00.899Z</time></trkpt><trkpt lat="47.9008154" lon="7.1031248"><ele>1323.3333333333335</ele><time>2026-04-03T13:34:01.899Z</time></trkpt><trkpt lat="47.9007204" lon="7.1030967"><ele>1324.6666666666667</ele><time>2026-04-03T13:34:02.901Z</time></trkpt><trkpt lat="47.9006358" lon="7.1030814"><ele>1326.0</ele><time>2026-04-03T13:34:03.9Z</time></trkpt><trkpt lat="47.9005623" lon="7.1030749"><ele>1327.3333333333333</ele><time>2026-04-03T13:34:04.899Z</time></trkpt><trkpt lat="47.9004838" lon="7.1030714"><ele>1328.6666666666665</ele><time>2026-04-03T13:34:05.9Z</time></trkpt><trkpt lat="47.9003973" lon="7.1030736"><ele>1330.0</ele><time>2026-04-03T13:34:06.899Z</time></trkpt><trkpt lat="47.9003024" lon="7.1030824"><ele>1330.0</ele><time>2026-04-03T13:34:07.899Z</time></trkpt><trkpt lat="47.9001895" lon="7.1030966"><ele>1330.0</ele><time>2026-04-03T13:34:08.899Z</time></trkpt><trkpt lat="47.9000643" lon="7.1031192"><ele>1330.0</ele><time>2026-04-03T13:34:09.899Z</time></trkpt><trkpt lat="47.8999406" lon="7.1031428"><ele>1330.0</ele><time>2026-04-03T13:34:10.9Z</time></trkpt><trkpt lat="47.8998235" lon="7.1031682"><ele>1329.25</ele><time>2026-04-03T13:34:11.9Z</time></trkpt><trkpt lat="47.8997066" lon="7.1031917"><ele>1328.5</ele><time>2026-04-03T13:34:12.9Z</time></trkpt><trkpt lat="47.89957" lon="7.1032139"><ele>1327.75</ele><time>2026-04-03T13:34:13.901Z</time></trkpt><trkpt lat="47.8994108" lon="7.1032371"><ele>1327.0</ele><time>2026-04-03T13:34:14.899Z</time></trkpt><trkpt lat="47.8992557" lon="7.1032595"><ele>1318.6666666666665</ele><time>2026-04-03T13:34:15.901Z</time></trkpt><trkpt lat="47.8991074" lon="7.1032865"><ele>1310.3333333333333</ele><time>2026-04-03T13:34:16.899Z</time></trkpt><trkpt lat="47.8989592" lon="7.10331"><ele>1302.0</ele><time>2026-04-03T13:34:17.899Z</time></trkpt><trkpt lat="47.8988052" lon="7.1033318"><ele>1302.0</ele><time>2026-04-03T13:34:18.899Z</time></trkpt><trkpt lat="47.8986462" lon="7.1033478"><ele>1302.0</ele><time>2026-04-03T13:34:19.899Z</time></trkpt><trkpt lat="47.8984889" lon="7.1033496"><ele>1302.0</ele><time>2026-04-03T13:34:20.899Z</time></trkpt><trkpt lat="47.8983373" lon="7.1033268"><ele>1299.6666666666667</ele><time>2026-04-03T13:34:21.899Z</time></trkpt><trkpt lat="47.8981857" lon="7.1033062"><ele>1297.3333333333335</ele><time>2026-04-03T13:34:22.899Z</time></trkpt><trkpt lat="47.8980325" lon="7.1032871"><ele>1295.0</ele><time>2026-04-03T13:34:23.899Z</time></trkpt><trkpt lat="47.8978706" lon="7.1032657"><ele>1295.0</ele><time>2026-04-03T13:34:24.899Z</time></trkpt><trkpt lat="47.897712" lon="7.1032484"><ele>1295.0</ele><time>2026-04-03T13:34:25.9Z</time></trkpt><trkpt lat="47.8975624" lon="7.1032356"><ele>1295.0</ele><time>2026-04-03T13:34:26.899Z</time></trkpt><trkpt lat="47.897429" lon="7.1032303"><ele>1295.0</ele><time>2026-04-03T13:34:27.901Z</time></trkpt><trkpt lat="47.8973094" lon="7.103229"><ele>1293.5</ele><time>2026-04-03T13:34:28.9Z</time></trkpt><trkpt lat="47.8971969" lon="7.1032423"><ele>1292.0</ele><time>2026-04-03T13:34:29.899Z</time></trkpt><trkpt lat="47.8970895" lon="7.103275"><ele>1290.5</ele><time>2026-04-03T13:34:30.899Z</time></trkpt><trkpt lat="47.8969806" lon="7.1033417"><ele>1289.0</ele><time>2026-04-03T13:34:31.899Z</time></trkpt><trkpt lat="47.8968729" lon="7.103455"><ele>1286.3333333333335</ele><time>2026-04-03T13:34:32.899Z</time></trkpt><trkpt lat="47.8967632" lon="7.1036131"><ele>1283.6666666666667</ele><time>2026-04-03T13:34:33.9Z</time></trkpt><trkpt lat="47.8966424" lon="7.1038056"><ele>1281.0</ele><time>2026-04-03T13:34:34.899Z</time></trkpt><trkpt lat="47.8965089" lon="7.1039966"><ele>1279.3333333333333</ele><time>2026-04-03T13:34:35.899Z</time></trkpt><trkpt lat="47.8963833" lon="7.1041615"><ele>1277.6666666666665</ele><time>2026-04-03T13:34:36.9Z</time></trkpt><trkpt lat="47.8962617" lon="7.104323"><ele>1276.0</ele><time>2026-04-03T13:34:37.9Z</time></trkpt><trkpt lat="47.8961408" lon="7.1044808"><ele>1276.0</ele><time>2026-04-03T13:34:38.9Z</time></trkpt><trkpt lat="47.8960053" lon="7.1046486"><ele>1276.0</ele><time>2026-04-03T13:34:39.9Z</time></trkpt><trkpt lat="47.8958679" lon="7.1048193"><ele>1276.0</ele><time>2026-04-03T13:34:40.9Z</time></trkpt><trkpt lat="47.8957401" lon="7.1049835"><ele>1273.0</ele><time>2026-04-03T13:34:41.899Z</time></trkpt><trkpt lat="47.8956181" lon="7.1051468"><ele>1270.0</ele><time>2026-04-03T13:34:42.9Z</time></trkpt><trkpt lat="47.8954978" lon="7.1053195"><ele>1267.0</ele><time>2026-04-03T13:34:43.9Z</time></trkpt><trkpt lat="47.8953799" lon="7.1055047"><ele>1267.0</ele><time>2026-04-03T13:34:44.9Z</time></trkpt><trkpt lat="47.8952714" lon="7.1057174"><ele>1267.0</ele><time>2026-04-03T13:34:45.899Z</time></trkpt><trkpt lat="47.8951733" lon="7.1059292"><ele>1267.0</ele><time>2026-04-03T13:34:46.9Z</time></trkpt><trkpt lat="47.8950787" lon="7.1061326"><ele>1261.0</ele><time>2026-04-03T13:34:47.899Z</time></trkpt><trkpt lat="47.8949859" lon="7.1063276"><ele>1255.0</ele><time>2026-04-03T13:34:48.9Z</time></trkpt><trkpt lat="47.8948959" lon="7.1065158"><ele>1249.0</ele><time>2026-04-03T13:34:49.9Z</time></trkpt><trkpt lat="47.894811" lon="7.1066994"><ele>1248.25</ele><time>2026-04-03T13:34:50.899Z</time></trkpt><trkpt lat="47.8947333" lon="7.1068618"><ele>1247.5</ele><time>2026-04-03T13:34:51.899Z</time></trkpt><trkpt lat="47.8946578" lon="7.1070077"><ele>1246.75</ele><time>2026-04-03T13:34:52.899Z</time></trkpt><trkpt lat="47.8945594" lon="7.107142"><ele>1246.0</ele><time>2026-04-03T13:34:53.9Z</time></trkpt><trkpt lat="47.8944464" lon="7.1072551"><ele>1246.0</ele><time>2026-04-03T13:34:54.9Z</time></trkpt><trkpt lat="47.89433" lon="7.1073329"><ele>1246.0</ele><time>2026-04-03T13:34:55.9Z</time></trkpt><trkpt lat="47.8942141" lon="7.1073724"><ele>1246.0</ele><time>2026-04-03T13:34:56.899Z</time></trkpt><trkpt lat="47.8940961" lon="7.1073717"><ele>1246.0</ele><time>2026-04-03T13:34:57.899Z</time></trkpt><trkpt lat="47.8939861" lon="7.10731"><ele>1245.0</ele><time>2026-04-03T13:34:58.899Z</time></trkpt><trkpt lat="47.8938931" lon="7.1071979"><ele>1244.0</ele><time>2026-04-03T13:34:59.899Z</time></trkpt><trkpt lat="47.8938259" lon="7.107048"><ele>1243.0</ele><time>2026-04-03T13:35:00.899Z</time></trkpt><trkpt lat="47.8937875" lon="7.1068769"><ele>1242.0</ele><time>2026-04-03T13:35:01.899Z</time></trkpt><trkpt lat="47.8937882" lon="7.1066986"><ele>1240.5</ele><time>2026-04-03T13:35:02.899Z</time></trkpt><trkpt lat="47.8938259" lon="7.1065234"><ele>1239.0</ele><time>2026-04-03T13:35:03.9Z</time></trkpt><trkpt lat="47.8938851" lon="7.106356"><ele>1237.5</ele><time>2026-04-03T13:35:04.899Z</time></trkpt><trkpt lat="47.8939469" lon="7.1062104"><ele>1236.0</ele><time>2026-04-03T13:35:05.899Z</time></trkpt><trkpt lat="47.8940003" lon="7.106074"><ele>1236.0</ele><time>2026-04-03T13:35:06.899Z</time></trkpt><trkpt lat="47.8940362" lon="7.1059511"><ele>1236.0</ele><time>2026-04-03T13:35:07.899Z</time></trkpt><trkpt lat="47.89404" lon="7.1058255"><ele>1236.0</ele><time>2026-04-03T13:35:08.9Z</time></trkpt><trkpt lat="47.8940064" lon="7.1057132"><ele>1236.0</ele><time>2026-04-03T13:35:09.899Z</time></trkpt><trkpt lat="47.89394" lon="7.1056535"><ele>1236.0</ele><time>2026-04-03T13:35:10.9Z</time></trkpt><trkpt lat="47.8938574" lon="7.1056669"><ele>1236.0</ele><time>2026-04-03T13:35:11.899Z</time></trkpt><trkpt lat="47.8937833" lon="7.1057531"><ele>1236.0</ele><time>2026-04-03T13:35:12.9Z</time></trkpt><trkpt lat="47.8937138" lon="7.1058906"><ele>1236.0</ele><time>2026-04-03T13:35:13.9Z</time></trkpt><trkpt lat="47.8936301" lon="7.1060528"><ele>1236.0</ele><time>2026-04-03T13:35:14.899Z</time></trkpt><trkpt lat="47.8935226" lon="7.1061995"><ele>1236.0</ele><time>2026-04-03T13:35:15.9Z</time></trkpt><trkpt lat="47.8933931" lon="7.1063458"><ele>1234.5</ele><time>2026-04-03T13:35:16.899Z</time></trkpt><trkpt lat="47.8932727" lon="7.1064801"><ele>1233.0</ele><time>2026-04-03T13:35:17.9Z</time></trkpt><trkpt lat="47.8931583" lon="7.106607"><ele>1231.5</ele><time>2026-04-03T13:35:18.899Z</time></trkpt><trkpt lat="47.8930488" lon="7.1067283"><ele>1230.0</ele><time>2026-04-03T13:35:19.9Z</time></trkpt><trkpt lat="47.8929389" lon="7.1068315"><ele>1230.0</ele><time>2026-04-03T13:35:20.9Z</time></trkpt><trkpt lat="47.8928265" lon="7.1069209"><ele>1230.0</ele><time>2026-04-03T13:35:21.9Z</time></trkpt><trkpt lat="47.8927032" lon="7.1070103"><ele>1230.0</ele><time>2026-04-03T13:35:22.9Z</time></trkpt><trkpt lat="47.8925706" lon="7.1070894"><ele>1230.0</ele><time>2026-04-03T13:35:23.899Z</time></trkpt><trkpt lat="47.8924325" lon="7.1071646"><ele>1225.3333333333333</ele><time>2026-04-03T13:35:24.899Z</time></trkpt><trkpt lat="47.892292" lon="7.1072359"><ele>1220.6666666666665</ele><time>2026-04-03T13:35:25.899Z</time></trkpt><trkpt lat="47.892148" lon="7.107307"><ele>1216.0</ele><time>2026-04-03T13:35:26.899Z</time></trkpt><trkpt lat="47.8919963" lon="7.1073813"><ele>1217.6666666666665</ele><time>2026-04-03T13:35:27.899Z</time></trkpt><trkpt lat="47.8918258" lon="7.1074609"><ele>1219.3333333333333</ele><time>2026-04-03T13:35:28.899Z</time></trkpt><trkpt lat="47.8916449" lon="7.1075427"><ele>1221.0</ele><time>2026-04-03T13:35:29.9Z</time></trkpt><trkpt lat="47.8914789" lon="7.1076149"><ele>1216.6666666666667</ele><time>2026-04-03T13:35:30.9Z</time></trkpt><trkpt lat="47.8913171" lon="7.1076884"><ele>1212.3333333333335</ele><time>2026-04-03T13:35:31.9Z</time></trkpt><trkpt lat="47.8911425" lon="7.107772"><ele>1208.0</ele><time>2026-04-03T13:35:32.899Z</time></trkpt><trkpt lat="47.8909599" lon="7.1078816"><ele>1206.6666666666667</ele><time>2026-04-03T13:35:33.899Z</time></trkpt><trkpt lat="47.8907787" lon="7.1080232"><ele>1205.3333333333333</ele><time>2026-04-03T13:35:34.899Z</time></trkpt><trkpt lat="47.890609" lon="7.1081856"><ele>1204.0</ele><time>2026-04-03T13:35:35.9Z</time></trkpt><trkpt lat="47.8904518" lon="7.1083463"><ele>1204.0</ele><time>2026-04-03T13:35:36.9Z</time></trkpt><trkpt lat="47.8903025" lon="7.1085003"><ele>1204.0</ele><time>2026-04-03T13:35:37.899Z</time></trkpt><trkpt lat="47.8901638" lon="7.1086278"><ele>1204.0</ele><time>2026-04-03T13:35:38.9Z</time></trkpt><trkpt lat="47.8900431" lon="7.1087428"><ele>1201.0</ele><time>2026-04-03T13:35:39.899Z</time></trkpt><trkpt lat="47.8899333" lon="7.1088514"><ele>1198.0</ele><time>2026-04-03T13:35:40.9Z</time></trkpt><trkpt lat="47.8898331" lon="7.1089609"><ele>1195.0</ele><time>2026-04-03T13:35:41.899Z</time></trkpt><trkpt lat="47.8897494" lon="7.1090899"><ele>1192.0</ele><time>2026-04-03T13:35:42.899Z</time></trkpt><trkpt lat="47.8896817" lon="7.1092414"><ele>1192.0</ele><time>2026-04-03T13:35:43.899Z</time></trkpt><trkpt lat="47.8896307" lon="7.1094017"><ele>1192.0</ele><time>2026-04-03T13:35:44.9Z</time></trkpt><trkpt lat="47.8895901" lon="7.1095633"><ele>1192.0</ele><time>2026-04-03T13:35:45.899Z</time></trkpt><trkpt lat="47.8895659" lon="7.1097273"><ele>1192.0</ele><time>2026-04-03T13:35:46.9Z</time></trkpt><trkpt lat="47.8895633" lon="7.1098935"><ele>1191.25</ele><time>2026-04-03T13:35:47.899Z</time></trkpt><trkpt lat="47.8895917" lon="7.1100572"><ele>1190.5</ele><time>2026-04-03T13:35:48.9Z</time></trkpt><trkpt lat="47.8896528" lon="7.1102134"><ele>1189.75</ele><time>2026-04-03T13:35:49.899Z</time></trkpt><trkpt lat="47.8897297" lon="7.1103694"><ele>1189.0</ele><time>2026-04-03T13:35:50.899Z</time></trkpt><trkpt lat="47.8898132" lon="7.1105278"><ele>1189.0</ele><time>2026-04-03T13:35:51.899Z</time></trkpt><trkpt lat="47.8898979" lon="7.1106855"><ele>1189.0</ele><time>2026-04-03T13:35:52.9Z</time></trkpt><trkpt lat="47.8899828" lon="7.1108402"><ele>1189.0</ele><time>2026-04-03T13:35:53.9Z</time></trkpt><trkpt lat="47.8900706" lon="7.110989"><ele>1189.0</ele><time>2026-04-03T13:35:54.9Z</time></trkpt><trkpt lat="47.8901602" lon="7.1111323"><ele>1190.0</ele><time>2026-04-03T13:35:55.9Z</time></trkpt><trkpt lat="47.8902501" lon="7.1112756"><ele>1191.0</ele><time>2026-04-03T13:35:56.9Z</time></trkpt><trkpt lat="47.8903509" lon="7.1114294"><ele>1192.0</ele><time>2026-04-03T13:35:57.9Z</time></trkpt><trkpt lat="47.8904601" lon="7.1115763"><ele>1193.0</ele><time>2026-04-03T13:35:58.9Z</time></trkpt><trkpt lat="47.8905808" lon="7.1117226"><ele>1189.75</ele><time>2026-04-03T13:35:59.9Z</time></trkpt><trkpt lat="47.8907033" lon="7.1118528"><ele>1186.5</ele><time>2026-04-03T13:36:00.9Z</time></trkpt><trkpt lat="47.8908275" lon="7.1119695"><ele>1183.25</ele><time>2026-04-03T13:36:01.899Z</time></trkpt><trkpt lat="47.8909525" lon="7.1120738"><ele>1180.0</ele><time>2026-04-03T13:36:02.9Z</time></trkpt><trkpt lat="47.8910779" lon="7.1121627"><ele>1180.0</ele><time>2026-04-03T13:36:03.9Z</time></trkpt><trkpt lat="47.8912016" lon="7.11224"><ele>1180.0</ele><time>2026-04-03T13:36:04.899Z</time></trkpt><trkpt lat="47.8913241" lon="7.1123041"><ele>1180.0</ele><time>2026-04-03T13:36:05.899Z</time></trkpt><trkpt lat="47.8914291" lon="7.1123595"><ele>1180.0</ele><time>2026-04-03T13:36:06.899Z</time></trkpt><trkpt lat="47.8915201" lon="7.1124134"><ele>1177.5714285714287</ele><time>2026-04-03T13:36:07.899Z</time></trkpt><trkpt lat="47.8915882" lon="7.112484"><ele>1175.142857142857</ele><time>2026-04-03T13:36:08.9Z</time></trkpt><trkpt lat="47.8916237" lon="7.1125794"><ele>1172.7142857142858</ele><time>2026-04-03T13:36:09.899Z</time></trkpt><trkpt lat="47.8916188" lon="7.1126855"><ele>1170.2857142857142</ele><time>2026-04-03T13:36:10.901Z</time></trkpt><trkpt lat="47.891582" lon="7.1127619"><ele>1167.857142857143</ele><time>2026-04-03T13:36:11.9Z</time></trkpt><trkpt lat="47.8915237" lon="7.112803"><ele>1165.4285714285716</ele><time>2026-04-03T13:36:12.901Z</time></trkpt><trkpt lat="47.8914477" lon="7.112811"><ele>1163.0</ele><time>2026-04-03T13:36:13.899Z</time></trkpt><trkpt lat="47.8913568" lon="7.1128002"><ele>1163.0</ele><time>2026-04-03T13:36:14.899Z</time></trkpt><trkpt lat="47.8912481" lon="7.1127732"><ele>1163.0</ele><time>2026-04-03T13:36:15.9Z</time></trkpt><trkpt lat="47.8911233" lon="7.1127484"><ele>1163.0</ele><time>2026-04-03T13:36:16.9Z</time></trkpt><trkpt lat="47.8909741" lon="7.1127446"><ele>1163.0</ele><time>2026-04-03T13:36:17.9Z</time></trkpt><trkpt lat="47.8908065" lon="7.1127693"><ele>1160.3333333333335</ele><time>2026-04-03T13:36:18.901Z</time></trkpt><trkpt lat="47.8906402" lon="7.112817"><ele>1157.6666666666667</ele><time>2026-04-03T13:36:19.901Z</time></trkpt><trkpt lat="47.8904851" lon="7.112881"><ele>1155.0</ele><time>2026-04-03T13:36:20.9Z</time></trkpt><trkpt lat="47.8903421" lon="7.1129645"><ele>1155.0</ele><time>2026-04-03T13:36:21.9Z</time></trkpt><trkpt lat="47.890214" lon="7.1130689"><ele>1155.0</ele><time>2026-04-03T13:36:22.899Z</time></trkpt><trkpt lat="47.8901038" lon="7.1131947"><ele>1155.0</ele><time>2026-04-03T13:36:23.899Z</time></trkpt><trkpt lat="47.8900133" lon="7.1133383"><ele>1155.0</ele><time>2026-04-03T13:36:24.9Z</time></trkpt><trkpt lat="47.8899459" lon="7.113499"><ele>1151.0</ele><time>2026-04-03T13:36:25.899Z</time></trkpt><trkpt lat="47.8898974" lon="7.113673"><ele>1147.0</ele><time>2026-04-03T13:36:26.899Z</time></trkpt><trkpt lat="47.8898737" lon="7.1138728"><ele>1143.0</ele><time>2026-04-03T13:36:27.899Z</time></trkpt><trkpt lat="47.8898641" lon="7.1140651"><ele>1139.0</ele><time>2026-04-03T13:36:28.899Z</time></trkpt><trkpt lat="47.8898761" lon="7.1142494"><ele>1138.0</ele><time>2026-04-03T13:36:29.899Z</time></trkpt><trkpt lat="47.8899063" lon="7.1144173"><ele>1137.0</ele><time>2026-04-03T13:36:30.9Z</time></trkpt><trkpt lat="47.8899618" lon="7.1145588"><ele>1136.0</ele><time>2026-04-03T13:36:31.899Z</time></trkpt><trkpt lat="47.8900468" lon="7.1146668"><ele>1135.0</ele><time>2026-04-03T13:36:32.899Z</time></trkpt><trkpt lat="47.8901615" lon="7.1147402"><ele>1134.0</ele><time>2026-04-03T13:36:33.9Z</time></trkpt><trkpt lat="47.8902865" lon="7.1147895"><ele>1133.0</ele><time>2026-04-03T13:36:34.899Z</time></trkpt><trkpt lat="47.890413" lon="7.1148279"><ele>1132.0</ele><time>2026-04-03T13:36:35.9Z</time></trkpt><trkpt lat="47.8905399" lon="7.1148653"><ele>1131.0</ele><time>2026-04-03T13:36:36.899Z</time></trkpt><trkpt lat="47.8906687" lon="7.1149084"><ele>1129.25</ele><time>2026-04-03T13:36:37.899Z</time></trkpt><trkpt lat="47.8907956" lon="7.1149653"><ele>1127.5</ele><time>2026-04-03T13:36:38.899Z</time></trkpt><trkpt lat="47.8909184" lon="7.1150466"><ele>1125.75</ele><time>2026-04-03T13:36:39.899Z</time></trkpt><trkpt lat="47.8910358" lon="7.1151614"><ele>1124.0</ele><time>2026-04-03T13:36:40.899Z</time></trkpt><trkpt lat="47.8911535" lon="7.115303"><ele>1124.0</ele><time>2026-04-03T13:36:41.9Z</time></trkpt><trkpt lat="47.891279" lon="7.1154569"><ele>1124.0</ele><time>2026-04-03T13:36:42.899Z</time></trkpt><trkpt lat="47.8914086" lon="7.1156163"><ele>1124.0</ele><time>2026-04-03T13:36:43.899Z</time></trkpt><trkpt lat="47.8915364" lon="7.1157708"><ele>1120.3333333333335</ele><time>2026-04-03T13:36:44.899Z</time></trkpt><trkpt lat="47.8916598" lon="7.1159228"><ele>1116.6666666666667</ele><time>2026-04-03T13:36:45.899Z</time></trkpt><trkpt lat="47.8917812" lon="7.1160712"><ele>1113.0</ele><time>2026-04-03T13:36:46.9Z</time></trkpt><trkpt lat="47.8919097" lon="7.1162247"><ele>1113.0</ele><time>2026-04-03T13:36:47.9Z</time></trkpt><trkpt lat="47.8920344" lon="7.1163752"><ele>1113.0</ele><time>2026-04-03T13:36:48.899Z</time></trkpt><trkpt lat="47.8921566" lon="7.1165236"><ele>1113.0</ele><time>2026-04-03T13:36:49.899Z</time></trkpt><trkpt lat="47.8922819" lon="7.1166694"><ele>1110.3333333333333</ele><time>2026-04-03T13:36:50.899Z</time></trkpt><trkpt lat="47.8924146" lon="7.1168076"><ele>1107.6666666666665</ele><time>2026-04-03T13:36:51.899Z</time></trkpt><trkpt lat="47.8925602" lon="7.1169357"><ele>1105.0</ele><time>2026-04-03T13:36:52.899Z</time></trkpt><trkpt lat="47.8927088" lon="7.1170533"><ele>1105.0</ele><time>2026-04-03T13:36:53.9Z</time></trkpt><trkpt lat="47.892856" lon="7.1171543"><ele>1105.0</ele><time>2026-04-03T13:36:54.899Z</time></trkpt><trkpt lat="47.8929956" lon="7.1172399"><ele>1105.0</ele><time>2026-04-03T13:36:55.899Z</time></trkpt><trkpt lat="47.893119" lon="7.1173021"><ele>1105.0</ele><time>2026-04-03T13:36:56.899Z</time></trkpt><trkpt lat="47.893231" lon="7.1173402"><ele>1105.0</ele><time>2026-04-03T13:36:57.899Z</time></trkpt><trkpt lat="47.8933307" lon="7.1173651"><ele>1105.0</ele><time>2026-04-03T13:36:58.9Z</time></trkpt><trkpt lat="47.8934231" lon="7.1173977"><ele>1105.0</ele><time>2026-04-03T13:36:59.899Z</time></trkpt><trkpt lat="47.8935061" lon="7.117429"><ele>1105.0</ele><time>2026-04-03T13:37:00.899Z</time></trkpt><trkpt lat="47.8935777" lon="7.1174815"><ele>1105.0</ele><time>2026-04-03T13:37:01.9Z</time></trkpt><trkpt lat="47.893625" lon="7.1175642"><ele>1105.0</ele><time>2026-04-03T13:37:02.899Z</time></trkpt><trkpt lat="47.8936368" lon="7.1176681"><ele>1103.4</ele><time>2026-04-03T13:37:03.899Z</time></trkpt><trkpt lat="47.8936105" lon="7.117766"><ele>1101.8</ele><time>2026-04-03T13:37:04.901Z</time></trkpt><trkpt lat="47.8935483" lon="7.1178152"><ele>1100.2</ele><time>2026-04-03T13:37:05.9Z</time></trkpt><trkpt lat="47.893457" lon="7.1178292"><ele>1098.6</ele><time>2026-04-03T13:37:06.899Z</time></trkpt><trkpt lat="47.89334" lon="7.1178139"><ele>1097.0</ele><time>2026-04-03T13:37:07.899Z</time></trkpt><trkpt lat="47.8932066" lon="7.1178151"><ele>1096.75</ele><time>2026-04-03T13:37:08.9Z</time></trkpt><trkpt lat="47.893068" lon="7.1178413"><ele>1096.5</ele><time>2026-04-03T13:37:09.899Z</time></trkpt><trkpt lat="47.8929208" lon="7.1178907"><ele>1096.25</ele><time>2026-04-03T13:37:10.9Z</time></trkpt><trkpt lat="47.892774" lon="7.1179649"><ele>1096.0</ele><time>2026-04-03T13:37:11.899Z</time></trkpt><trkpt lat="47.8926239" lon="7.118048"><ele>1094.0</ele><time>2026-04-03T13:37:12.899Z</time></trkpt><trkpt lat="47.8924645" lon="7.1181028"><ele>1092.0</ele><time>2026-04-03T13:37:13.899Z</time></trkpt><trkpt lat="47.8923048" lon="7.1181289"><ele>1090.0</ele><time>2026-04-03T13:37:14.9Z</time></trkpt><trkpt lat="47.8921422" lon="7.1181523"><ele>1090.0</ele><time>2026-04-03T13:37:15.899Z</time></trkpt><trkpt lat="47.8919812" lon="7.1182123"><ele>1090.0</ele><time>2026-04-03T13:37:16.899Z</time></trkpt><trkpt lat="47.891834" lon="7.1183261"><ele>1090.0</ele><time>2026-04-03T13:37:17.899Z</time></trkpt><trkpt lat="47.8917099" lon="7.1184882"><ele>1086.3333333333333</ele><time>2026-04-03T13:37:18.899Z</time></trkpt><trkpt lat="47.891591" lon="7.1186708"><ele>1082.6666666666667</ele><time>2026-04-03T13:37:19.9Z</time></trkpt><trkpt lat="47.8914746" lon="7.1188566"><ele>1079.0</ele><time>2026-04-03T13:37:20.9Z</time></trkpt><trkpt lat="47.8913572" lon="7.11903"><ele>1076.3333333333335</ele><time>2026-04-03T13:37:21.899Z</time></trkpt><trkpt lat="47.8912301" lon="7.1191934"><ele>1073.6666666666667</ele><time>2026-04-03T13:37:22.9Z</time></trkpt><trkpt lat="47.8910893" lon="7.1193435"><ele>1071.0</ele><time>2026-04-03T13:37:23.9Z</time></trkpt><trkpt lat="47.8909358" lon="7.1194829"><ele>1070.6666666666667</ele><time>2026-04-03T13:37:24.901Z</time></trkpt><trkpt lat="47.8907721" lon="7.1196135"><ele>1070.3333333333335</ele><time>2026-04-03T13:37:25.899Z</time></trkpt><trkpt lat="47.8906052" lon="7.1197468"><ele>1070.0</ele><time>2026-04-03T13:37:26.899Z</time></trkpt><trkpt lat="47.8904378" lon="7.1198785"><ele>1067.3333333333335</ele><time>2026-04-03T13:37:27.899Z</time></trkpt><trkpt lat="47.8902682" lon="7.1200106"><ele>1064.6666666666667</ele><time>2026-04-03T13:37:28.899Z</time></trkpt><trkpt lat="47.8901004" lon="7.1201364"><ele>1062.0</ele><time>2026-04-03T13:37:29.9Z</time></trkpt><trkpt lat="47.8899287" lon="7.120244"><ele>1062.0</ele><time>2026-04-03T13:37:30.899Z</time></trkpt><trkpt lat="47.8897527" lon="7.1203391"><ele>1062.0</ele><time>2026-04-03T13:37:31.899Z</time></trkpt><trkpt lat="47.8895739" lon="7.1204313"><ele>1062.0</ele><time>2026-04-03T13:37:32.899Z</time></trkpt><trkpt lat="47.8894097" lon="7.1205391"><ele>1059.6666666666667</ele><time>2026-04-03T13:37:33.899Z</time></trkpt><trkpt lat="47.8892563" lon="7.1206644"><ele>1057.3333333333335</ele><time>2026-04-03T13:37:34.899Z</time></trkpt><trkpt lat="47.889104" lon="7.1208074"><ele>1055.0</ele><time>2026-04-03T13:37:35.9Z</time></trkpt><trkpt lat="47.8889524" lon="7.1209591"><ele>1055.0</ele><time>2026-04-03T13:37:36.899Z</time></trkpt><trkpt lat="47.8888038" lon="7.1211183"><ele>1055.0</ele><time>2026-04-03T13:37:37.9Z</time></trkpt><trkpt lat="47.8886659" lon="7.1212924"><ele>1055.0</ele><time>2026-04-03T13:37:38.9Z</time></trkpt><trkpt lat="47.888541" lon="7.1214842"><ele>1053.3333333333335</ele><time>2026-04-03T13:37:39.9Z</time></trkpt><trkpt lat="47.8884244" lon="7.1216783"><ele>1051.6666666666667</ele><time>2026-04-03T13:37:40.899Z</time></trkpt><trkpt lat="47.8883154" lon="7.1218759"><ele>1050.0</ele><time>2026-04-03T13:37:41.899Z</time></trkpt><trkpt lat="47.8882087" lon="7.1220835"><ele>1050.0</ele><time>2026-04-03T13:37:42.899Z</time></trkpt><trkpt lat="47.8881171" lon="7.1223116"><ele>1050.0</ele><time>2026-04-03T13:37:43.9Z</time></trkpt><trkpt lat="47.8880428" lon="7.1225552"><ele>1050.0</ele><time>2026-04-03T13:37:44.899Z</time></trkpt><trkpt lat="47.8879755" lon="7.1227932"><ele>1044.3333333333333</ele><time>2026-04-03T13:37:45.9Z</time></trkpt><trkpt lat="47.8879103" lon="7.1230242"><ele>1038.6666666666665</ele><time>2026-04-03T13:37:46.9Z</time></trkpt><trkpt lat="47.8878404" lon="7.1232327"><ele>1033.0</ele><time>2026-04-03T13:37:47.899Z</time></trkpt><trkpt lat="47.8877457" lon="7.1233955"><ele>1033.0</ele><time>2026-04-03T13:37:48.9Z</time></trkpt><trkpt lat="47.8876345" lon="7.1235253"><ele>1033.0</ele><time>2026-04-03T13:37:49.9Z</time></trkpt><trkpt lat="47.8875118" lon="7.1236035"><ele>1033.0</ele><time>2026-04-03T13:37:50.899Z</time></trkpt><trkpt lat="47.8873714" lon="7.1236211"><ele>1033.0</ele><time>2026-04-03T13:37:51.899Z</time></trkpt><trkpt lat="47.8872308" lon="7.1235752"><ele>1033.0</ele><time>2026-04-03T13:37:52.899Z</time></trkpt><trkpt lat="47.8870849" lon="7.1234807"><ele>1033.0</ele><time>2026-04-03T13:37:53.899Z</time></trkpt><trkpt lat="47.8869366" lon="7.1233392"><ele>1033.0</ele><time>2026-04-03T13:37:54.9Z</time></trkpt><trkpt lat="47.8867829" lon="7.1231533"><ele>1030.6666666666665</ele><time>2026-04-03T13:37:55.899Z</time></trkpt><trkpt lat="47.8866416" lon="7.1229569"><ele>1028.3333333333333</ele><time>2026-04-03T13:37:56.899Z</time></trkpt><trkpt lat="47.8865064" lon="7.1227694"><ele>1026.0</ele><time>2026-04-03T13:37:57.9Z</time></trkpt><trkpt lat="47.8863822" lon="7.1225791"><ele>1028.6666666666667</ele><time>2026-04-03T13:37:58.899Z</time></trkpt><trkpt lat="47.8862677" lon="7.1223607"><ele>1031.3333333333335</ele><time>2026-04-03T13:37:59.9Z</time></trkpt><trkpt lat="47.8861533" lon="7.1221119"><ele>1034.0</ele><time>2026-04-03T13:38:00.9Z</time></trkpt><trkpt lat="47.8860512" lon="7.1218819"><ele>1034.0</ele><time>2026-04-03T13:38:01.9Z</time></trkpt><trkpt lat="47.885955" lon="7.1216587"><ele>1034.0</ele><time>2026-04-03T13:38:02.9Z</time></trkpt><trkpt lat="47.8858599" lon="7.1214482"><ele>1034.0</ele><time>2026-04-03T13:38:03.899Z</time></trkpt><trkpt lat="47.8857697" lon="7.1212467"><ele>1027.75</ele><time>2026-04-03T13:38:04.899Z</time></trkpt><trkpt lat="47.8856831" lon="7.1210562"><ele>1021.5</ele><time>2026-04-03T13:38:05.899Z</time></trkpt><trkpt lat="47.8856141" lon="7.1208628"><ele>1015.25</ele><time>2026-04-03T13:38:06.899Z</time></trkpt><trkpt lat="47.8855646" lon="7.120656"><ele>1009.0</ele><time>2026-04-03T13:38:07.899Z</time></trkpt><trkpt lat="47.8855415" lon="7.1204396"><ele>1008.75</ele><time>2026-04-03T13:38:08.9Z</time></trkpt><trkpt lat="47.8855475" lon="7.1202255"><ele>1008.5</ele><time>2026-04-03T13:38:09.899Z</time></trkpt><trkpt lat="47.8855747" lon="7.1200293"><ele>1008.25</ele><time>2026-04-03T13:38:10.9Z</time></trkpt><trkpt lat="47.8856204" lon="7.119862"><ele>1008.0</ele><time>2026-04-03T13:38:11.899Z</time></trkpt><trkpt lat="47.8856699" lon="7.1197246"><ele>1008.3333333333334</ele><time>2026-04-03T13:38:12.899Z</time></trkpt><trkpt lat="47.8856878" lon="7.1196033"><ele>1008.6666666666667</ele><time>2026-04-03T13:38:13.9Z</time></trkpt><trkpt lat="47.8856646" lon="7.119489"><ele>1009.0</ele><time>2026-04-03T13:38:14.899Z</time></trkpt><trkpt lat="47.8856089" lon="7.1194296"><ele>1009.3333333333334</ele><time>2026-04-03T13:38:15.899Z</time></trkpt><trkpt lat="47.8855365" lon="7.1194333"><ele>1009.6666666666667</ele><time>2026-04-03T13:38:16.9Z</time></trkpt><trkpt lat="47.8854688" lon="7.1194929"><ele>1010.0</ele><time>2026-04-03T13:38:17.899Z</time></trkpt><trkpt lat="47.8854279" lon="7.1196338"><ele>1010.0</ele><time>2026-04-03T13:38:18.899Z</time></trkpt><trkpt lat="47.8854069" lon="7.1197907"><ele>1010.0</ele><time>2026-04-03T13:38:19.9Z</time></trkpt><trkpt lat="47.885377" lon="7.1199822"><ele>1010.0</ele><time>2026-04-03T13:38:20.901Z</time></trkpt><trkpt lat="47.8853256" lon="7.1201894"><ele>1010.0</ele><time>2026-04-03T13:38:21.899Z</time></trkpt><trkpt lat="47.8852636" lon="7.1203956"><ele>1009.6666666666667</ele><time>2026-04-03T13:38:22.9Z</time></trkpt><trkpt lat="47.8852204" lon="7.120605"><ele>1009.3333333333333</ele><time>2026-04-03T13:38:23.9Z</time></trkpt><trkpt lat="47.8852107" lon="7.1208517"><ele>1009.0</ele><time>2026-04-03T13:38:24.9Z</time></trkpt><trkpt lat="47.8852358" lon="7.1211294"><ele>1009.0</ele><time>2026-04-03T13:38:25.9Z</time></trkpt><trkpt lat="47.8852689" lon="7.1214555"><ele>1009.0</ele><time>2026-04-03T13:38:26.899Z</time></trkpt><trkpt lat="47.8853035" lon="7.1217831"><ele>1009.0</ele><time>2026-04-03T13:38:27.901Z</time></trkpt><trkpt lat="47.8853377" lon="7.1220937"><ele>1008.0</ele><time>2026-04-03T13:38:28.899Z</time></trkpt><trkpt lat="47.8853732" lon="7.1223958"><ele>1007.0</ele><time>2026-04-03T13:38:29.899Z</time></trkpt><trkpt lat="47.885414" lon="7.1226885"><ele>1006.0</ele><time>2026-04-03T13:38:30.899Z</time></trkpt><trkpt lat="47.8854568" lon="7.1229664"><ele>998.0</ele><time>2026-04-03T13:38:31.899Z</time></trkpt><trkpt lat="47.8855026" lon="7.1232357"><ele>990.0</ele><time>2026-04-03T13:38:32.899Z</time></trkpt><trkpt lat="47.8855558" lon="7.1234905"><ele>982.0</ele><time>2026-04-03T13:38:33.899Z</time></trkpt><trkpt lat="47.8856241" lon="7.1237481"><ele>982.0</ele><time>2026-04-03T13:38:34.899Z</time></trkpt><trkpt lat="47.8856878" lon="7.1240352"><ele>982.0</ele><time>2026-04-03T13:38:35.9Z</time></trkpt><trkpt lat="47.885729" lon="7.1243065"><ele>982.0</ele><time>2026-04-03T13:38:36.899Z</time></trkpt><trkpt lat="47.8857641" lon="7.1245737"><ele>978.0</ele><time>2026-04-03T13:38:37.899Z</time></trkpt><trkpt lat="47.8857914" lon="7.1248366"><ele>974.0</ele><time>2026-04-03T13:38:38.9Z</time></trkpt><trkpt lat="47.885821" lon="7.1251105"><ele>970.0</ele><time>2026-04-03T13:38:39.899Z</time></trkpt><trkpt lat="47.8858626" lon="7.1253796"><ele>969.6666666666666</ele><time>2026-04-03T13:38:40.899Z</time></trkpt><trkpt lat="47.8859198" lon="7.1256448"><ele>969.3333333333333</ele><time>2026-04-03T13:38:41.899Z</time></trkpt><trkpt lat="47.8859772" lon="7.1259023"><ele>969.0</ele><time>2026-04-03T13:38:42.9Z</time></trkpt><trkpt lat="47.8860161" lon="7.1261693"><ele>969.0</ele><time>2026-04-03T13:38:43.899Z</time></trkpt><trkpt lat="47.8860417" lon="7.1264359"><ele>969.0</ele><time>2026-04-03T13:38:44.899Z</time></trkpt><trkpt lat="47.8860583" lon="7.1266944"><ele>969.0</ele><time>2026-04-03T13:38:45.899Z</time></trkpt><trkpt lat="47.8860704" lon="7.1269375"><ele>966.75</ele><time>2026-04-03T13:38:46.9Z</time></trkpt><trkpt lat="47.8860775" lon="7.1271502"><ele>964.5</ele><time>2026-04-03T13:38:47.9Z</time></trkpt><trkpt lat="47.8860631" lon="7.1273633"><ele>962.25</ele><time>2026-04-03T13:38:48.9Z</time></trkpt><trkpt lat="47.8860103" lon="7.127566"><ele>960.0</ele><time>2026-04-03T13:38:49.901Z</time></trkpt><trkpt lat="47.8859237" lon="7.1277251"><ele>951.6666666666667</ele><time>2026-04-03T13:38:50.899Z</time></trkpt><trkpt lat="47.8858012" lon="7.1278465"><ele>943.3333333333334</ele><time>2026-04-03T13:38:51.899Z</time></trkpt><trkpt lat="47.8856482" lon="7.1279421"><ele>935.0</ele><time>2026-04-03T13:38:52.9Z</time></trkpt><trkpt lat="47.8854777" lon="7.1280098"><ele>935.0</ele><time>2026-04-03T13:38:53.9Z</time></trkpt><trkpt lat="47.885312" lon="7.1280577"><ele>935.0</ele><time>2026-04-03T13:38:54.9Z</time></trkpt><trkpt lat="47.8851518" lon="7.1281032"><ele>935.0</ele><time>2026-04-03T13:38:55.899Z</time></trkpt><trkpt lat="47.8849972" lon="7.1281625"><ele>939.3333333333334</ele><time>2026-04-03T13:38:56.899Z</time></trkpt><trkpt lat="47.8848504" lon="7.1282478"><ele>943.6666666666667</ele><time>2026-04-03T13:38:57.9Z</time></trkpt><trkpt lat="47.8847037" lon="7.128384"><ele>948.0</ele><time>2026-04-03T13:38:58.9Z</time></trkpt><trkpt lat="47.8845693" lon="7.128569"><ele>948.0</ele><time>2026-04-03T13:38:59.901Z</time></trkpt><trkpt lat="47.8844495" lon="7.1287618"><ele>948.0</ele><time>2026-04-03T13:39:00.9Z</time></trkpt><trkpt lat="47.8843436" lon="7.1289311"><ele>948.0</ele><time>2026-04-03T13:39:01.9Z</time></trkpt><trkpt lat="47.8842279" lon="7.1290701"><ele>946.0</ele><time>2026-04-03T13:39:02.899Z</time></trkpt><trkpt lat="47.8841116" lon="7.1292183"><ele>944.0</ele><time>2026-04-03T13:39:03.9Z</time></trkpt><trkpt lat="47.8839724" lon="7.1292808"><ele>942.0</ele><time>2026-04-03T13:39:04.899Z</time></trkpt><trkpt lat="47.8837685" lon="7.1291866"><ele>942.0</ele><time>2026-04-03T13:39:05.9Z</time></trkpt><trkpt lat="47.8835948" lon="7.1291267"><ele>942.0</ele><time>2026-04-03T13:39:06.899Z</time></trkpt><trkpt lat="47.8834061" lon="7.1290243"><ele>942.0</ele><time>2026-04-03T13:39:07.9Z</time></trkpt><trkpt lat="47.8832039" lon="7.1289401"><ele>932.3333333333333</ele><time>2026-04-03T13:39:08.9Z</time></trkpt><trkpt lat="47.8830087" lon="7.128892"><ele>922.6666666666666</ele><time>2026-04-03T13:39:09.899Z</time></trkpt><trkpt lat="47.8828211" lon="7.1288527"><ele>913.0</ele><time>2026-04-03T13:39:10.899Z</time></trkpt><trkpt lat="47.8826387" lon="7.128815"><ele>911.6666666666666</ele><time>2026-04-03T13:39:11.9Z</time></trkpt><trkpt lat="47.882462" lon="7.1287708"><ele>910.3333333333333</ele><time>2026-04-03T13:39:12.899Z</time></trkpt><trkpt lat="47.8822998" lon="7.1287024"><ele>909.0</ele><time>2026-04-03T13:39:13.899Z</time></trkpt><trkpt lat="47.8821207" lon="7.1286172"><ele>909.0</ele><time>2026-04-03T13:39:14.899Z</time></trkpt><trkpt lat="47.8819403" lon="7.128532"><ele>909.0</ele><time>2026-04-03T13:39:15.899Z</time></trkpt><trkpt lat="47.881767" lon="7.1284469"><ele>909.0</ele><time>2026-04-03T13:39:16.9Z</time></trkpt><trkpt lat="47.8816092" lon="7.1283743"><ele>908.5</ele><time>2026-04-03T13:39:17.899Z</time></trkpt><trkpt lat="47.8814777" lon="7.1283311"><ele>908.0</ele><time>2026-04-03T13:39:18.9Z</time></trkpt><trkpt lat="47.8813529" lon="7.1283099"><ele>907.5</ele><time>2026-04-03T13:39:19.899Z</time></trkpt><trkpt lat="47.8812508" lon="7.1283063"><ele>907.0</ele><time>2026-04-03T13:39:20.901Z</time></trkpt><trkpt lat="47.8811514" lon="7.1283238"><ele>907.0</ele><time>2026-04-03T13:39:21.899Z</time></trkpt><trkpt lat="47.8810592" lon="7.1283735"><ele>907.0</ele><time>2026-04-03T13:39:22.901Z</time></trkpt><trkpt lat="47.8809824" lon="7.1284688"><ele>907.0</ele><time>2026-04-03T13:39:23.899Z</time></trkpt><trkpt lat="47.8809127" lon="7.1285887"><ele>907.0</ele><time>2026-04-03T13:39:24.899Z</time></trkpt><trkpt lat="47.880842" lon="7.1286876"><ele>907.0</ele><time>2026-04-03T13:39:25.9Z</time></trkpt><trkpt lat="47.8807828" lon="7.1287506"><ele>905.6</ele><time>2026-04-03T13:39:26.899Z</time></trkpt><trkpt lat="47.8807127" lon="7.1288717"><ele>904.2</ele><time>2026-04-03T13:39:28.899Z</time></trkpt><trkpt lat="47.8806416" lon="7.128873"><ele>902.8</ele><time>2026-04-03T13:40:34.9Z</time></trkpt><trkpt lat="47.8805406" lon="7.1287907"><ele>901.4</ele><time>2026-04-03T13:40:36.899Z</time></trkpt><trkpt lat="47.880451" lon="7.1287596"><ele>900.0</ele><time>2026-04-03T13:40:37.899Z</time></trkpt><trkpt lat="47.8803448" lon="7.1287198"><ele>900.0</ele><time>2026-04-03T13:40:38.9Z</time></trkpt><trkpt lat="47.8802299" lon="7.1286782"><ele>900.0</ele><time>2026-04-03T13:40:39.899Z</time></trkpt><trkpt lat="47.8801044" lon="7.128632"><ele>900.0</ele><time>2026-04-03T13:40:40.899Z</time></trkpt><trkpt lat="47.8799872" lon="7.1285735"><ele>900.0</ele><time>2026-04-03T13:40:41.9Z</time></trkpt><trkpt lat="47.8798646" lon="7.1284901"><ele>899.25</ele><time>2026-04-03T13:40:42.899Z</time></trkpt><trkpt lat="47.8797365" lon="7.1283916"><ele>898.5</ele><time>2026-04-03T13:40:43.899Z</time></trkpt><trkpt lat="47.8796147" lon="7.128278"><ele>897.75</ele><time>2026-04-03T13:40:44.899Z</time></trkpt><trkpt lat="47.8794998" lon="7.1281662"><ele>897.0</ele><time>2026-04-03T13:40:45.901Z</time></trkpt><trkpt lat="47.8793913" lon="7.1280643"><ele>895.0</ele><time>2026-04-03T13:40:46.899Z</time></trkpt><trkpt lat="47.8792932" lon="7.1279701"><ele>893.0</ele><time>2026-04-03T13:40:47.9Z</time></trkpt><trkpt lat="47.8792118" lon="7.1278824"><ele>891.0</ele><time>2026-04-03T13:40:48.899Z</time></trkpt><trkpt lat="47.8791478" lon="7.1277776"><ele>889.0</ele><time>2026-04-03T13:40:49.899Z</time></trkpt><trkpt lat="47.8791123" lon="7.127646"><ele>887.0</ele><time>2026-04-03T13:40:50.9Z</time></trkpt><trkpt lat="47.879118" lon="7.1275098"><ele>886.4000000000001</ele><time>2026-04-03T13:40:51.899Z</time></trkpt><trkpt lat="47.8791652" lon="7.127396"><ele>885.8000000000001</ele><time>2026-04-03T13:40:52.899Z</time></trkpt><trkpt lat="47.8792488" lon="7.1273202"><ele>885.2</ele><time>2026-04-03T13:40:53.9Z</time></trkpt><trkpt lat="47.8793577" lon="7.127283"><ele>884.6</ele><time>2026-04-03T13:40:54.9Z</time></trkpt><trkpt lat="47.879479" lon="7.127264"><ele>884.0</ele><time>2026-04-03T13:40:55.9Z</time></trkpt><trkpt lat="47.8795909" lon="7.1272623"><ele>881.4000000000001</ele><time>2026-04-03T13:40:56.899Z</time></trkpt><trkpt lat="47.8796969" lon="7.127273"><ele>878.8000000000001</ele><time>2026-04-03T13:40:57.9Z</time></trkpt><trkpt lat="47.8797881" lon="7.127291"><ele>876.1999999999999</ele><time>2026-04-03T13:40:58.9Z</time></trkpt><trkpt lat="47.8798671" lon="7.1272946"><ele>873.5999999999999</ele><time>2026-04-03T13:40:59.9Z</time></trkpt><trkpt lat="47.879931" lon="7.1272624"><ele>871.0</ele><time>2026-04-03T13:41:00.9Z</time></trkpt><trkpt lat="47.8799846" lon="7.1271065"><ele>871.0</ele><time>2026-04-03T13:41:02.899Z</time></trkpt><trkpt lat="47.8799611" lon="7.1270125"><ele>870.9999999999999</ele><time>2026-04-03T13:41:03.899Z</time></trkpt><trkpt lat="47.8798434" lon="7.1269259"><ele>870.9999999999999</ele><time>2026-04-03T13:41:05.9Z</time></trkpt><trkpt lat="47.8797489" lon="7.1269318"><ele>871.0</ele><time>2026-04-03T13:41:06.899Z</time></trkpt><trkpt lat="47.8796447" lon="7.1269341"><ele>871.0</ele><time>2026-04-03T13:41:07.9Z</time></trkpt><trkpt lat="47.8795227" lon="7.1269008"><ele>871.0</ele><time>2026-04-03T13:41:08.9Z</time></trkpt><trkpt lat="47.8794024" lon="7.1268361"><ele>871.0</ele><time>2026-04-03T13:41:09.9Z</time></trkpt><trkpt lat="47.8792747" lon="7.1267658"><ele>871.0</ele><time>2026-04-03T13:41:10.9Z</time></trkpt><trkpt lat="47.8791349" lon="7.126702"><ele>871.0</ele><time>2026-04-03T13:41:11.9Z</time></trkpt><trkpt lat="47.8789838" lon="7.1266547"><ele>871.0</ele><time>2026-04-03T13:41:12.899Z</time></trkpt><trkpt lat="47.8788159" lon="7.126635"><ele>871.0</ele><time>2026-04-03T13:41:13.9Z</time></trkpt><trkpt lat="47.8786144" lon="7.1266736"><ele>871.0</ele><time>2026-04-03T13:41:14.899Z</time></trkpt><trkpt lat="47.8784398" lon="7.1266903"><ele>867.6666666666666</ele><time>2026-04-03T13:41:15.899Z</time></trkpt><trkpt lat="47.8782654" lon="7.1267013"><ele>864.3333333333333</ele><time>2026-04-03T13:41:16.901Z</time></trkpt><trkpt lat="47.8780978" lon="7.1266871"><ele>861.0</ele><time>2026-04-03T13:41:17.9Z</time></trkpt><trkpt lat="47.8779372" lon="7.1266784"><ele>861.0</ele><time>2026-04-03T13:41:18.899Z</time></trkpt><trkpt lat="47.8777831" lon="7.1266955"><ele>861.0</ele><time>2026-04-03T13:41:19.899Z</time></trkpt><trkpt lat="47.8776313" lon="7.1267549"><ele>861.0</ele><time>2026-04-03T13:41:20.899Z</time></trkpt><trkpt lat="47.8774825" lon="7.1268276"><ele>855.6666666666667</ele><time>2026-04-03T13:41:21.899Z</time></trkpt><trkpt lat="47.8773359" lon="7.1268516"><ele>850.3333333333334</ele><time>2026-04-03T13:41:22.901Z</time></trkpt><trkpt lat="47.8771745" lon="7.1268209"><ele>845.0</ele><time>2026-04-03T13:41:23.899Z</time></trkpt><trkpt lat="47.8770095" lon="7.1267593"><ele>845.0</ele><time>2026-04-03T13:41:24.899Z</time></trkpt><trkpt lat="47.8768561" lon="7.1267031"><ele>845.0</ele><time>2026-04-03T13:41:25.899Z</time></trkpt><trkpt lat="47.8767062" lon="7.1266558"><ele>845.0</ele><time>2026-04-03T13:41:26.9Z</time></trkpt><trkpt lat="47.8765549" lon="7.1266294"><ele>844.0</ele><time>2026-04-03T13:41:27.899Z</time></trkpt><trkpt lat="47.8763843" lon="7.1266344"><ele>843.0</ele><time>2026-04-03T13:41:28.9Z</time></trkpt><trkpt lat="47.8762233" lon="7.1266623"><ele>842.0</ele><time>2026-04-03T13:41:29.901Z</time></trkpt><trkpt lat="47.8760814" lon="7.1267122"><ele>842.0</ele><time>2026-04-03T13:41:30.9Z</time></trkpt><trkpt lat="47.8759599" lon="7.1267781"><ele>842.0</ele><time>2026-04-03T13:41:31.9Z</time></trkpt><trkpt lat="47.8758515" lon="7.1268668"><ele>842.0</ele><time>2026-04-03T13:41:32.9Z</time></trkpt><trkpt lat="47.8757515" lon="7.1269698"><ele>842.0</ele><time>2026-04-03T13:41:33.899Z</time></trkpt><trkpt lat="47.8756659" lon="7.1270827"><ele>839.2</ele><time>2026-04-03T13:41:34.9Z</time></trkpt><trkpt lat="47.8755919" lon="7.1271906"><ele>836.4000000000001</ele><time>2026-04-03T13:41:35.901Z</time></trkpt><trkpt lat="47.875525" lon="7.1272895"><ele>833.5999999999999</ele><time>2026-04-03T13:41:36.9Z</time></trkpt><trkpt lat="47.8754617" lon="7.1273755"><ele>830.8</ele><time>2026-04-03T13:41:37.899Z</time></trkpt><trkpt lat="47.8753946" lon="7.1274634"><ele>828.0</ele><time>2026-04-03T13:41:38.901Z</time></trkpt><trkpt lat="47.8753187" lon="7.1275348"><ele>828.0</ele><time>2026-04-03T13:41:39.899Z</time></trkpt><trkpt lat="47.8752389" lon="7.1275937"><ele>828.0</ele><time>2026-04-03T13:41:40.899Z</time></trkpt><trkpt lat="47.8751522" lon="7.127652"><ele>828.0</ele><time>2026-04-03T13:41:41.899Z</time></trkpt><trkpt lat="47.8750627" lon="7.1277031"><ele>828.0</ele><time>2026-04-03T13:41:42.899Z</time></trkpt><trkpt lat="47.8749655" lon="7.1277669"><ele>828.0</ele><time>2026-04-03T13:41:43.9Z</time></trkpt><trkpt lat="47.8748415" lon="7.1278449"><ele>828.0</ele><time>2026-04-03T13:41:44.9Z</time></trkpt><trkpt lat="47.8747079" lon="7.1279533"><ele>828.0</ele><time>2026-04-03T13:41:45.9Z</time></trkpt><trkpt lat="47.8745835" lon="7.1281263"><ele>828.0</ele><time>2026-04-03T13:41:46.901Z</time></trkpt><trkpt lat="47.8744819" lon="7.1283054"><ele>826.0</ele><time>2026-04-03T13:41:47.9Z</time></trkpt><trkpt lat="47.8743889" lon="7.1284455"><ele>824.0</ele><time>2026-04-03T13:41:48.9Z</time></trkpt><trkpt lat="47.8742843" lon="7.1285502"><ele>822.0</ele><time>2026-04-03T13:41:49.899Z</time></trkpt><trkpt lat="47.8741697" lon="7.1285945"><ele>820.0</ele><time>2026-04-03T13:41:50.9Z</time></trkpt><trkpt lat="47.8740342" lon="7.1285939"><ele>825.75</ele><time>2026-04-03T13:41:51.901Z</time></trkpt><trkpt lat="47.8738885" lon="7.1285625"><ele>831.5</ele><time>2026-04-03T13:41:52.9Z</time></trkpt><trkpt lat="47.8737473" lon="7.1285233"><ele>837.25</ele><time>2026-04-03T13:41:53.899Z</time></trkpt><trkpt lat="47.8736229" lon="7.1285113"><ele>843.0</ele><time>2026-04-03T13:41:54.9Z</time></trkpt><trkpt lat="47.8735176" lon="7.1285348"><ele>845.0</ele><time>2026-04-03T13:41:55.9Z</time></trkpt><trkpt lat="47.8734223" lon="7.1286061"><ele>847.0</ele><time>2026-04-03T13:41:56.9Z</time></trkpt><trkpt lat="47.8733467" lon="7.1287227"><ele>849.0</ele><time>2026-04-03T13:41:57.9Z</time></trkpt><trkpt lat="47.8732837" lon="7.1288623"><ele>851.0</ele><time>2026-04-03T13:41:58.9Z</time></trkpt><trkpt lat="47.8732292" lon="7.1289763"><ele>853.0</ele><time>2026-04-03T13:41:59.9Z</time></trkpt><trkpt lat="47.8731621" lon="7.12905"><ele>852.9999999999999</ele><time>2026-04-03T13:42:00.9Z</time></trkpt><trkpt lat="47.8730939" lon="7.1290562"><ele>853.0</ele><time>2026-04-03T13:42:01.9Z</time></trkpt><trkpt lat="47.8730404" lon="7.1289931"><ele>853.0</ele><time>2026-04-03T13:42:02.899Z</time></trkpt><trkpt lat="47.873036" lon="7.128894"><ele>853.0</ele><time>2026-04-03T13:42:03.899Z</time></trkpt><trkpt lat="47.8730604" lon="7.1287725"><ele>852.9999999999999</ele><time>2026-04-03T13:42:04.899Z</time></trkpt><trkpt lat="47.8731042" lon="7.1286215"><ele>853.0</ele><time>2026-04-03T13:42:05.9Z</time></trkpt><trkpt lat="47.8731471" lon="7.1284647"><ele>853.0</ele><time>2026-04-03T13:42:06.9Z</time></trkpt><trkpt lat="47.8731667" lon="7.1283312"><ele>853.0</ele><time>2026-04-03T13:42:07.9Z</time></trkpt><trkpt lat="47.873169" lon="7.1281871"><ele>853.0</ele><time>2026-04-03T13:42:08.9Z</time></trkpt><trkpt lat="47.8731456" lon="7.12805"><ele>853.0</ele><time>2026-04-03T13:42:09.899Z</time></trkpt><trkpt lat="47.8730852" lon="7.1278898"><ele>853.0</ele><time>2026-04-03T13:42:10.899Z</time></trkpt><trkpt lat="47.8729814" lon="7.1277411"><ele>854.3333333333333</ele><time>2026-04-03T13:42:11.9Z</time></trkpt><trkpt lat="47.8728445" lon="7.1276012"><ele>855.6666666666667</ele><time>2026-04-03T13:42:12.899Z</time></trkpt><trkpt lat="47.8726835" lon="7.1274799"><ele>857.0</ele><time>2026-04-03T13:42:13.899Z</time></trkpt><trkpt lat="47.8725271" lon="7.1273923"><ele>853.0</ele><time>2026-04-03T13:42:14.901Z</time></trkpt><trkpt lat="47.8723833" lon="7.1273041"><ele>849.0</ele><time>2026-04-03T13:42:15.9Z</time></trkpt><trkpt lat="47.8722525" lon="7.1271829"><ele>845.0</ele><time>2026-04-03T13:42:16.899Z</time></trkpt><trkpt lat="47.8721449" lon="7.1270162"><ele>845.0</ele><time>2026-04-03T13:42:17.899Z</time></trkpt><trkpt lat="47.8720535" lon="7.126811"><ele>845.0</ele><time>2026-04-03T13:42:18.9Z</time></trkpt><trkpt lat="47.8719559" lon="7.1265848"><ele>845.0</ele><time>2026-04-03T13:42:19.899Z</time></trkpt><trkpt lat="47.8718433" lon="7.1263336"><ele>845.6666666666667</ele><time>2026-04-03T13:42:20.899Z</time></trkpt><trkpt lat="47.8717331" lon="7.126094"><ele>846.3333333333333</ele><time>2026-04-03T13:42:21.901Z</time></trkpt><trkpt lat="47.8716313" lon="7.1258784"><ele>847.0</ele><time>2026-04-03T13:42:22.899Z</time></trkpt><trkpt lat="47.871529" lon="7.1256585"><ele>847.0</ele><time>2026-04-03T13:42:23.9Z</time></trkpt><trkpt lat="47.8714383" lon="7.1254485"><ele>847.0</ele><time>2026-04-03T13:42:24.899Z</time></trkpt><trkpt lat="47.8713546" lon="7.1252334"><ele>847.0</ele><time>2026-04-03T13:42:25.9Z</time></trkpt><trkpt lat="47.8712754" lon="7.1250192"><ele>843.6666666666666</ele><time>2026-04-03T13:42:26.899Z</time></trkpt><trkpt lat="47.8711949" lon="7.1248044"><ele>840.3333333333333</ele><time>2026-04-03T13:42:27.899Z</time></trkpt><trkpt lat="47.8711094" lon="7.1245772"><ele>837.0</ele><time>2026-04-03T13:42:28.9Z</time></trkpt><trkpt lat="47.871031" lon="7.1243552"><ele>837.0</ele><time>2026-04-03T13:42:29.9Z</time></trkpt><trkpt lat="47.8709694" lon="7.1241449"><ele>837.0</ele><time>2026-04-03T13:42:30.899Z</time></trkpt><trkpt lat="47.8709216" lon="7.1239328"><ele>837.0</ele><time>2026-04-03T13:42:31.9Z</time></trkpt><trkpt lat="47.8708881" lon="7.1237141"><ele>840.75</ele><time>2026-04-03T13:42:32.899Z</time></trkpt><trkpt lat="47.8708745" lon="7.1234876"><ele>844.5</ele><time>2026-04-03T13:42:33.899Z</time></trkpt><trkpt lat="47.8708756" lon="7.1232794"><ele>848.25</ele><time>2026-04-03T13:42:34.9Z</time></trkpt><trkpt lat="47.8708813" lon="7.1230894"><ele>852.0</ele><time>2026-04-03T13:42:35.9Z</time></trkpt><trkpt lat="47.870882" lon="7.1229107"><ele>852.0</ele><time>2026-04-03T13:42:36.899Z</time></trkpt><trkpt lat="47.8708576" lon="7.1227497"><ele>852.0</ele><time>2026-04-03T13:42:37.899Z</time></trkpt><trkpt lat="47.8708005" lon="7.1226086"><ele>852.0</ele><time>2026-04-03T13:42:38.9Z</time></trkpt><trkpt lat="47.8707085" lon="7.1225002"><ele>852.0</ele><time>2026-04-03T13:42:39.901Z</time></trkpt><trkpt lat="47.8705802" lon="7.1224426"><ele>852.0</ele><time>2026-04-03T13:42:40.899Z</time></trkpt><trkpt lat="47.8704172" lon="7.1224163"><ele>852.0</ele><time>2026-04-03T13:42:41.899Z</time></trkpt><trkpt lat="47.8702503" lon="7.1223656"><ele>852.0</ele><time>2026-04-03T13:42:42.899Z</time></trkpt><trkpt lat="47.8700737" lon="7.1222876"><ele>851.0</ele><time>2026-04-03T13:42:43.9Z</time></trkpt><trkpt lat="47.8698886" lon="7.1221847"><ele>850.0</ele><time>2026-04-03T13:42:44.9Z</time></trkpt><trkpt lat="47.8697234" lon="7.1220706"><ele>849.0</ele><time>2026-04-03T13:42:45.9Z</time></trkpt><trkpt lat="47.8695739" lon="7.121965"><ele>849.0</ele><time>2026-04-03T13:42:46.899Z</time></trkpt><trkpt lat="47.8694452" lon="7.1218894"><ele>849.0</ele><time>2026-04-03T13:42:47.899Z</time></trkpt><trkpt lat="47.86932" lon="7.1218387"><ele>849.0</ele><time>2026-04-03T13:42:48.9Z</time></trkpt><trkpt lat="47.8691884" lon="7.1218335"><ele>849.0</ele><time>2026-04-03T13:42:49.9Z</time></trkpt><trkpt lat="47.8690615" lon="7.1218799"><ele>849.75</ele><time>2026-04-03T13:42:50.899Z</time></trkpt><trkpt lat="47.8689608" lon="7.1219779"><ele>850.5</ele><time>2026-04-03T13:42:51.899Z</time></trkpt><trkpt lat="47.8688469" lon="7.1221339"><ele>851.25</ele><time>2026-04-03T13:42:52.899Z</time></trkpt><trkpt lat="47.8687264" lon="7.1223096"><ele>852.0</ele><time>2026-04-03T13:42:53.899Z</time></trkpt><trkpt lat="47.8686145" lon="7.1224709"><ele>852.75</ele><time>2026-04-03T13:42:54.899Z</time></trkpt><trkpt lat="47.8685056" lon="7.1225945"><ele>853.5</ele><time>2026-04-03T13:42:55.899Z</time></trkpt><trkpt lat="47.8683968" lon="7.1226716"><ele>854.25</ele><time>2026-04-03T13:42:56.899Z</time></trkpt><trkpt lat="47.8682777" lon="7.1227034"><ele>855.0</ele><time>2026-04-03T13:42:57.899Z</time></trkpt><trkpt lat="47.8681542" lon="7.1226822"><ele>855.0</ele><time>2026-04-03T13:42:58.899Z</time></trkpt><trkpt lat="47.8680305" lon="7.1226107"><ele>855.0</ele><time>2026-04-03T13:42:59.9Z</time></trkpt><trkpt lat="47.8679036" lon="7.122503"><ele>855.0</ele><time>2026-04-03T13:43:00.9Z</time></trkpt><trkpt lat="47.8677759" lon="7.1223733"><ele>855.0</ele><time>2026-04-03T13:43:01.9Z</time></trkpt><trkpt lat="47.8676514" lon="7.1222447"><ele>854.0</ele><time>2026-04-03T13:43:02.9Z</time></trkpt><trkpt lat="47.8675369" lon="7.122124"><ele>853.0</ele><time>2026-04-03T13:43:03.899Z</time></trkpt><trkpt lat="47.8674223" lon="7.1219951"><ele>852.0</ele><time>2026-04-03T13:43:04.899Z</time></trkpt><trkpt lat="47.867309" lon="7.1218725"><ele>851.0</ele><time>2026-04-03T13:43:05.899Z</time></trkpt><trkpt lat="47.8672021" lon="7.1217632"><ele>851.0</ele><time>2026-04-03T13:43:06.899Z</time></trkpt><trkpt lat="47.867109" lon="7.1216814"><ele>851.0</ele><time>2026-04-03T13:43:07.899Z</time></trkpt><trkpt lat="47.8670243" lon="7.1216382"><ele>851.0</ele><time>2026-04-03T13:43:08.899Z</time></trkpt><trkpt lat="47.8669363" lon="7.12163"><ele>851.0</ele><time>2026-04-03T13:43:09.899Z</time></trkpt><trkpt lat="47.8668521" lon="7.1216634"><ele>851.0</ele><time>2026-04-03T13:43:10.9Z</time></trkpt><trkpt lat="47.8667856" lon="7.1217357"><ele>851.8</ele><time>2026-04-03T13:43:11.899Z</time></trkpt><trkpt lat="47.8667363" lon="7.1218411"><ele>852.5999999999999</ele><time>2026-04-03T13:43:12.9Z</time></trkpt><trkpt lat="47.8667138" lon="7.1219747"><ele>853.4</ele><time>2026-04-03T13:43:13.9Z</time></trkpt><trkpt lat="47.8667161" lon="7.1221278"><ele>854.2</ele><time>2026-04-03T13:43:14.899Z</time></trkpt><trkpt lat="47.8667358" lon="7.122304"><ele>855.0</ele><time>2026-04-03T13:43:15.9Z</time></trkpt><trkpt lat="47.8667685" lon="7.1225024"><ele>856.5</ele><time>2026-04-03T13:43:16.899Z</time></trkpt><trkpt lat="47.8668117" lon="7.1226749"><ele>858.0</ele><time>2026-04-03T13:43:17.9Z</time></trkpt><trkpt lat="47.8668705" lon="7.1228194"><ele>859.5</ele><time>2026-04-03T13:43:18.901Z</time></trkpt><trkpt lat="47.8669546" lon="7.1229575"><ele>861.0</ele><time>2026-04-03T13:43:19.899Z</time></trkpt><trkpt lat="47.8670377" lon="7.123068"><ele>861.0</ele><time>2026-04-03T13:43:20.899Z</time></trkpt><trkpt lat="47.8670983" lon="7.1231829"><ele>861.0</ele><time>2026-04-03T13:43:21.899Z</time></trkpt><trkpt lat="47.8671334" lon="7.1233"><ele>861.0</ele><time>2026-04-03T13:43:22.9Z</time></trkpt><trkpt lat="47.8671428" lon="7.1234153"><ele>861.0</ele><time>2026-04-03T13:43:23.9Z</time></trkpt><trkpt lat="47.8671286" lon="7.1235364"><ele>861.0</ele><time>2026-04-03T13:43:24.899Z</time></trkpt><trkpt lat="47.8670897" lon="7.1236463"><ele>861.0</ele><time>2026-04-03T13:43:25.899Z</time></trkpt><trkpt lat="47.8670325" lon="7.1237383"><ele>861.8</ele><time>2026-04-03T13:43:26.899Z</time></trkpt><trkpt lat="47.8669633" lon="7.1238068"><ele>862.5999999999999</ele><time>2026-04-03T13:43:27.899Z</time></trkpt><trkpt lat="47.8668798" lon="7.1238627"><ele>863.4</ele><time>2026-04-03T13:43:28.9Z</time></trkpt><trkpt lat="47.8667865" lon="7.1239161"><ele>864.2</ele><time>2026-04-03T13:43:29.9Z</time></trkpt><trkpt lat="47.8666833" lon="7.1239683"><ele>865.0</ele><time>2026-04-03T13:43:30.899Z</time></trkpt><trkpt lat="47.8665762" lon="7.1240195"><ele>867.75</ele><time>2026-04-03T13:43:31.899Z</time></trkpt><trkpt lat="47.8664676" lon="7.1240637"><ele>870.5</ele><time>2026-04-03T13:43:32.899Z</time></trkpt><trkpt lat="47.8663531" lon="7.1240934"><ele>873.25</ele><time>2026-04-03T13:43:33.899Z</time></trkpt><trkpt lat="47.8662303" lon="7.1241244"><ele>876.0</ele><time>2026-04-03T13:43:34.899Z</time></trkpt><trkpt lat="47.8661001" lon="7.1241519"><ele>876.0</ele><time>2026-04-03T13:43:35.899Z</time></trkpt><trkpt lat="47.8659672" lon="7.1241716"><ele>876.0</ele><time>2026-04-03T13:43:36.9Z</time></trkpt><trkpt lat="47.8658127" lon="7.1241869"><ele>876.0</ele><time>2026-04-03T13:43:37.899Z</time></trkpt><trkpt lat="47.8656379" lon="7.1241922"><ele>877.3333333333333</ele><time>2026-04-03T13:43:38.9Z</time></trkpt><trkpt lat="47.8654609" lon="7.1241929"><ele>878.6666666666666</ele><time>2026-04-03T13:43:39.899Z</time></trkpt><trkpt lat="47.8653058" lon="7.1241825"><ele>880.0</ele><time>2026-04-03T13:43:40.899Z</time></trkpt><trkpt lat="47.8651501" lon="7.1241748"><ele>881.25</ele><time>2026-04-03T13:43:41.899Z</time></trkpt><trkpt lat="47.8650058" lon="7.1241781"><ele>882.5</ele><time>2026-04-03T13:43:42.9Z</time></trkpt><trkpt lat="47.8648608" lon="7.1241828"><ele>883.75</ele><time>2026-04-03T13:43:43.899Z</time></trkpt><trkpt lat="47.8647194" lon="7.1241817"><ele>885.0</ele><time>2026-04-03T13:43:44.899Z</time></trkpt><trkpt lat="47.8645965" lon="7.1241817"><ele>885.0</ele><time>2026-04-03T13:43:45.899Z</time></trkpt><trkpt lat="47.8644816" lon="7.1241629"><ele>885.0</ele><time>2026-04-03T13:43:46.899Z</time></trkpt><trkpt lat="47.8643888" lon="7.1240903"><ele>885.0</ele><time>2026-04-03T13:43:47.9Z</time></trkpt><trkpt lat="47.8643128" lon="7.1239866"><ele>885.0</ele><time>2026-04-03T13:43:48.9Z</time></trkpt><trkpt lat="47.8642366" lon="7.1239137"><ele>885.0</ele><time>2026-04-03T13:43:49.899Z</time></trkpt><trkpt lat="47.864152" lon="7.1238938"><ele>885.2</ele><time>2026-04-03T13:43:50.899Z</time></trkpt><trkpt lat="47.8640848" lon="7.1239201"><ele>885.4</ele><time>2026-04-03T13:43:51.899Z</time></trkpt><trkpt lat="47.8640436" lon="7.124073"><ele>885.5999999999999</ele><time>2026-04-03T13:43:53.9Z</time></trkpt><trkpt lat="47.8640775" lon="7.1241761"><ele>885.8</ele><time>2026-04-03T13:43:54.899Z</time></trkpt><trkpt lat="47.8641522" lon="7.1242693"><ele>886.0</ele><time>2026-04-03T13:43:55.899Z</time></trkpt><trkpt lat="47.8642557" lon="7.1243431"><ele>885.75</ele><time>2026-04-03T13:43:56.899Z</time></trkpt><trkpt lat="47.8643858" lon="7.1244084"><ele>885.5</ele><time>2026-04-03T13:43:57.9Z</time></trkpt><trkpt lat="47.864522" lon="7.1244832"><ele>885.25</ele><time>2026-04-03T13:43:58.899Z</time></trkpt><trkpt lat="47.8646738" lon="7.1245705"><ele>885.0</ele><time>2026-04-03T13:43:59.9Z</time></trkpt><trkpt lat="47.864826" lon="7.1246589"><ele>885.0</ele><time>2026-04-03T13:44:00.9Z</time></trkpt><trkpt lat="47.8649552" lon="7.124765"><ele>885.0</ele><time>2026-04-03T13:44:01.899Z</time></trkpt><trkpt lat="47.8650654" lon="7.1249085"><ele>885.0</ele><time>2026-04-03T13:44:02.899Z</time></trkpt><trkpt lat="47.8651748" lon="7.1250886"><ele>887.75</ele><time>2026-04-03T13:44:03.899Z</time></trkpt><trkpt lat="47.8652599" lon="7.1252423"><ele>890.5</ele><time>2026-04-03T13:44:04.899Z</time></trkpt><trkpt lat="47.8653365" lon="7.1253887"><ele>893.25</ele><time>2026-04-03T13:44:05.899Z</time></trkpt><trkpt lat="47.8653809" lon="7.1255378"><ele>896.0</ele><time>2026-04-03T13:44:06.901Z</time></trkpt><trkpt lat="47.8654045" lon="7.1257268"><ele>897.5</ele><time>2026-04-03T13:44:07.9Z</time></trkpt><trkpt lat="47.8654139" lon="7.1259594"><ele>899.0</ele><time>2026-04-03T13:44:08.899Z</time></trkpt><trkpt lat="47.865406" lon="7.1261639"><ele>900.5</ele><time>2026-04-03T13:44:09.899Z</time></trkpt><trkpt lat="47.8653786" lon="7.1263259"><ele>902.0</ele><time>2026-04-03T13:44:10.9Z</time></trkpt><trkpt lat="47.865327" lon="7.1264475"><ele>902.0</ele><time>2026-04-03T13:44:11.899Z</time></trkpt><trkpt lat="47.8652459" lon="7.1265343"><ele>902.0</ele><time>2026-04-03T13:44:12.899Z</time></trkpt><trkpt lat="47.8651364" lon="7.1265938"><ele>902.0</ele><time>2026-04-03T13:44:13.899Z</time></trkpt><trkpt lat="47.8650114" lon="7.1266477"><ele>902.0</ele><time>2026-04-03T13:44:14.9Z</time></trkpt><trkpt lat="47.8648873" lon="7.1266881"><ele>906.5</ele><time>2026-04-03T13:44:15.899Z</time></trkpt><trkpt lat="47.8647763" lon="7.1267759"><ele>911.0</ele><time>2026-04-03T13:44:16.899Z</time></trkpt><trkpt lat="47.8646839" lon="7.1269001"><ele>915.5</ele><time>2026-04-03T13:44:17.901Z</time></trkpt><trkpt lat="47.8645937" lon="7.1270636"><ele>920.0</ele><time>2026-04-03T13:44:18.899Z</time></trkpt><trkpt lat="47.8645018" lon="7.1272207"><ele>920.0</ele><time>2026-04-03T13:44:19.9Z</time></trkpt><trkpt lat="47.8644145" lon="7.1273638"><ele>920.0</ele><time>2026-04-03T13:44:20.899Z</time></trkpt><trkpt lat="47.8643288" lon="7.1274977"><ele>920.0</ele><time>2026-04-03T13:44:21.899Z</time></trkpt><trkpt lat="47.8642554" lon="7.127647"><ele>920.0</ele><time>2026-04-03T13:44:22.899Z</time></trkpt><trkpt lat="47.8642118" lon="7.1278051"><ele>921.75</ele><time>2026-04-03T13:44:23.899Z</time></trkpt><trkpt lat="47.864203" lon="7.1279681"><ele>923.5</ele><time>2026-04-03T13:44:24.899Z</time></trkpt><trkpt lat="47.8642061" lon="7.1281603"><ele>925.25</ele><time>2026-04-03T13:44:25.9Z</time></trkpt><trkpt lat="47.8641997" lon="7.1283611"><ele>927.0</ele><time>2026-04-03T13:44:26.899Z</time></trkpt><trkpt lat="47.8641792" lon="7.1285683"><ele>927.0</ele><time>2026-04-03T13:44:27.9Z</time></trkpt><trkpt lat="47.8641432" lon="7.1287762"><ele>927.0</ele><time>2026-04-03T13:44:28.9Z</time></trkpt><trkpt lat="47.8640968" lon="7.1289721"><ele>927.0</ele><time>2026-04-03T13:44:29.9Z</time></trkpt><trkpt lat="47.8640353" lon="7.129166"><ele>927.0</ele><time>2026-04-03T13:44:30.899Z</time></trkpt><trkpt lat="47.8639662" lon="7.1293514"><ele>925.25</ele><time>2026-04-03T13:44:31.899Z</time></trkpt><trkpt lat="47.8639002" lon="7.1295414"><ele>923.5</ele><time>2026-04-03T13:44:32.899Z</time></trkpt><trkpt lat="47.863833" lon="7.1297355"><ele>921.75</ele><time>2026-04-03T13:44:33.9Z</time></trkpt><trkpt lat="47.8637717" lon="7.1299343"><ele>920.0</ele><time>2026-04-03T13:44:34.9Z</time></trkpt><trkpt lat="47.8637259" lon="7.1301437"><ele>915.6666666666667</ele><time>2026-04-03T13:44:35.899Z</time></trkpt><trkpt lat="47.8637043" lon="7.130364"><ele>911.3333333333333</ele><time>2026-04-03T13:44:36.899Z</time></trkpt><trkpt lat="47.8636926" lon="7.1306012"><ele>907.0</ele><time>2026-04-03T13:44:37.899Z</time></trkpt><trkpt lat="47.8636817" lon="7.1308445"><ele>904.3333333333333</ele><time>2026-04-03T13:44:38.9Z</time></trkpt><trkpt lat="47.8636677" lon="7.131092"><ele>901.6666666666667</ele><time>2026-04-03T13:44:39.899Z</time></trkpt><trkpt lat="47.8636435" lon="7.1313239"><ele>899.0</ele><time>2026-04-03T13:44:40.901Z</time></trkpt><trkpt lat="47.8636116" lon="7.1315422"><ele>897.25</ele><time>2026-04-03T13:44:41.899Z</time></trkpt><trkpt lat="47.8635752" lon="7.1317421"><ele>895.5</ele><time>2026-04-03T13:44:42.899Z</time></trkpt><trkpt lat="47.8635213" lon="7.1319207"><ele>893.75</ele><time>2026-04-03T13:44:43.9Z</time></trkpt><trkpt lat="47.8634542" lon="7.132078"><ele>892.0</ele><time>2026-04-03T13:44:44.899Z</time></trkpt><trkpt lat="47.8633465" lon="7.132213"><ele>894.0</ele><time>2026-04-03T13:44:45.901Z</time></trkpt><trkpt lat="47.8632151" lon="7.1323243"><ele>896.0</ele><time>2026-04-03T13:44:46.901Z</time></trkpt><trkpt lat="47.8630914" lon="7.1324191"><ele>898.0</ele><time>2026-04-03T13:44:47.9Z</time></trkpt><trkpt lat="47.8629616" lon="7.1324824"><ele>900.0</ele><time>2026-04-03T13:44:48.901Z</time></trkpt><trkpt lat="47.8628183" lon="7.1324965"><ele>900.0</ele><time>2026-04-03T13:44:49.9Z</time></trkpt><trkpt lat="47.8626583" lon="7.132487"><ele>900.0</ele><time>2026-04-03T13:44:50.9Z</time></trkpt><trkpt lat="47.8624766" lon="7.1324425"><ele>900.0</ele><time>2026-04-03T13:44:51.899Z</time></trkpt><trkpt lat="47.8623095" lon="7.13242"><ele>903.3333333333333</ele><time>2026-04-03T13:44:52.901Z</time></trkpt><trkpt lat="47.8621481" lon="7.1324007"><ele>906.6666666666666</ele><time>2026-04-03T13:44:53.899Z</time></trkpt><trkpt lat="47.8619893" lon="7.1323869"><ele>910.0</ele><time>2026-04-03T13:44:54.899Z</time></trkpt><trkpt lat="47.8618316" lon="7.1323656"><ele>917.75</ele><time>2026-04-03T13:44:55.899Z</time></trkpt><trkpt lat="47.8616881" lon="7.1323514"><ele>925.5</ele><time>2026-04-03T13:44:56.9Z</time></trkpt><trkpt lat="47.8615582" lon="7.132321"><ele>933.25</ele><time>2026-04-03T13:44:57.9Z</time></trkpt><trkpt lat="47.8614306" lon="7.1322549"><ele>941.0</ele><time>2026-04-03T13:44:58.9Z</time></trkpt><trkpt lat="47.8613029" lon="7.1321676"><ele>941.0</ele><time>2026-04-03T13:44:59.899Z</time></trkpt><trkpt lat="47.8611713" lon="7.1321029"><ele>941.0</ele><time>2026-04-03T13:45:00.899Z</time></trkpt><trkpt lat="47.8610313" lon="7.1320904"><ele>941.0</ele><time>2026-04-03T13:45:01.899Z</time></trkpt><trkpt lat="47.8608921" lon="7.1321283"><ele>941.0</ele><time>2026-04-03T13:45:02.901Z</time></trkpt><trkpt lat="47.8607692" lon="7.1322011"><ele>940.75</ele><time>2026-04-03T13:45:03.9Z</time></trkpt><trkpt lat="47.8606613" lon="7.1323164"><ele>940.5</ele><time>2026-04-03T13:45:04.899Z</time></trkpt><trkpt lat="47.8605709" lon="7.1324776"><ele>940.25</ele><time>2026-04-03T13:45:05.9Z</time></trkpt><trkpt lat="47.8604996" lon="7.1326792"><ele>940.0</ele><time>2026-04-03T13:45:06.899Z</time></trkpt><trkpt lat="47.8604298" lon="7.1329025"><ele>929.0</ele><time>2026-04-03T13:45:07.901Z</time></trkpt><trkpt lat="47.8603551" lon="7.1331287"><ele>918.0</ele><time>2026-04-03T13:45:08.9Z</time></trkpt><trkpt lat="47.8602844" lon="7.1333474"><ele>907.0</ele><time>2026-04-03T13:45:09.9Z</time></trkpt><trkpt lat="47.8602194" lon="7.1335518"><ele>908.75</ele><time>2026-04-03T13:45:10.901Z</time></trkpt><trkpt lat="47.8601601" lon="7.1337414"><ele>910.5</ele><time>2026-04-03T13:45:11.899Z</time></trkpt><trkpt lat="47.860103" lon="7.1339197"><ele>912.25</ele><time>2026-04-03T13:45:12.899Z</time></trkpt><trkpt lat="47.8600483" lon="7.1340856"><ele>914.0</ele><time>2026-04-03T13:45:13.899Z</time></trkpt><trkpt lat="47.8599961" lon="7.1342482"><ele>914.0</ele><time>2026-04-03T13:45:14.901Z</time></trkpt><trkpt lat="47.8599368" lon="7.1344287"><ele>914.0</ele><time>2026-04-03T13:45:15.9Z</time></trkpt><trkpt lat="47.8598823" lon="7.1346132"><ele>914.0</ele><time>2026-04-03T13:45:16.899Z</time></trkpt><trkpt lat="47.8598394" lon="7.134801"><ele>914.0</ele><time>2026-04-03T13:45:17.899Z</time></trkpt><trkpt lat="47.859819" lon="7.135007"><ele>910.0</ele><time>2026-04-03T13:45:18.899Z</time></trkpt><trkpt lat="47.8598184" lon="7.1352589"><ele>906.0</ele><time>2026-04-03T13:45:19.9Z</time></trkpt><trkpt lat="47.8598222" lon="7.1355507"><ele>902.0</ele><time>2026-04-03T13:45:20.9Z</time></trkpt><trkpt lat="47.8598168" lon="7.1358488"><ele>900.0</ele><time>2026-04-03T13:45:21.899Z</time></trkpt><trkpt lat="47.8598167" lon="7.1361548"><ele>898.0</ele><time>2026-04-03T13:45:22.899Z</time></trkpt><trkpt lat="47.8598254" lon="7.1364318"><ele>896.0</ele><time>2026-04-03T13:45:23.9Z</time></trkpt><trkpt lat="47.8598376" lon="7.1366911"><ele>896.0</ele><time>2026-04-03T13:45:24.899Z</time></trkpt><trkpt lat="47.859855" lon="7.1369352"><ele>896.0</ele><time>2026-04-03T13:45:25.899Z</time></trkpt><trkpt lat="47.8598853" lon="7.1371618"><ele>896.0</ele><time>2026-04-03T13:45:26.899Z</time></trkpt><trkpt lat="47.8599166" lon="7.1373676"><ele>897.5</ele><time>2026-04-03T13:45:27.9Z</time></trkpt><trkpt lat="47.8599293" lon="7.1375597"><ele>899.0</ele><time>2026-04-03T13:45:28.9Z</time></trkpt><trkpt lat="47.859917" lon="7.1377381"><ele>900.5</ele><time>2026-04-03T13:45:29.899Z</time></trkpt><trkpt lat="47.8598611" lon="7.137925"><ele>902.0</ele><time>2026-04-03T13:45:30.9Z</time></trkpt><trkpt lat="47.8597629" lon="7.1381015"><ele>900.0</ele><time>2026-04-03T13:45:31.9Z</time></trkpt><trkpt lat="47.8596558" lon="7.1383015"><ele>898.0</ele><time>2026-04-03T13:45:32.9Z</time></trkpt><trkpt lat="47.859558" lon="7.1385392"><ele>896.0</ele><time>2026-04-03T13:45:33.9Z</time></trkpt><trkpt lat="47.8594699" lon="7.1387627"><ele>896.0</ele><time>2026-04-03T13:45:34.899Z</time></trkpt><trkpt lat="47.8593929" lon="7.1389654"><ele>896.0</ele><time>2026-04-03T13:45:35.9Z</time></trkpt><trkpt lat="47.8593244" lon="7.1391569"><ele>896.0</ele><time>2026-04-03T13:45:36.9Z</time></trkpt><trkpt lat="47.8592692" lon="7.1393372"><ele>896.0</ele><time>2026-04-03T13:45:37.9Z</time></trkpt><trkpt lat="47.8592357" lon="7.1395379"><ele>905.0</ele><time>2026-04-03T13:45:38.899Z</time></trkpt><trkpt lat="47.859223" lon="7.1397679"><ele>914.0</ele><time>2026-04-03T13:45:39.899Z</time></trkpt><trkpt lat="47.8592139" lon="7.1400237"><ele>923.0</ele><time>2026-04-03T13:45:40.899Z</time></trkpt><trkpt lat="47.8592117" lon="7.1402954"><ele>923.0</ele><time>2026-04-03T13:45:41.9Z</time></trkpt><trkpt lat="47.8592136" lon="7.1405738"><ele>923.0</ele><time>2026-04-03T13:45:42.899Z</time></trkpt><trkpt lat="47.8592309" lon="7.1408533"><ele>923.0</ele><time>2026-04-03T13:45:43.899Z</time></trkpt><trkpt lat="47.8592643" lon="7.1411385"><ele>905.3333333333334</ele><time>2026-04-03T13:45:44.899Z</time></trkpt><trkpt lat="47.8593006" lon="7.1414297"><ele>887.6666666666667</ele><time>2026-04-03T13:45:45.899Z</time></trkpt><trkpt lat="47.8593425" lon="7.1417269"><ele>870.0</ele><time>2026-04-03T13:45:46.899Z</time></trkpt><trkpt lat="47.8593882" lon="7.1420336"><ele>870.0</ele><time>2026-04-03T13:45:47.9Z</time></trkpt><trkpt lat="47.8594369" lon="7.1423347"><ele>870.0</ele><time>2026-04-03T13:45:48.9Z</time></trkpt><trkpt lat="47.8594922" lon="7.1426482"><ele>870.0</ele><time>2026-04-03T13:45:49.9Z</time></trkpt><trkpt lat="47.8595456" lon="7.1429382"><ele>872.3333333333333</ele><time>2026-04-03T13:45:50.899Z</time></trkpt><trkpt lat="47.8595932" lon="7.1432082"><ele>874.6666666666666</ele><time>2026-04-03T13:45:51.899Z</time></trkpt><trkpt lat="47.8596348" lon="7.1434587"><ele>877.0</ele><time>2026-04-03T13:45:52.899Z</time></trkpt><trkpt lat="47.8596695" lon="7.1436906"><ele>879.0</ele><time>2026-04-03T13:45:53.899Z</time></trkpt><trkpt lat="47.8596943" lon="7.1439126"><ele>881.0</ele><time>2026-04-03T13:45:54.9Z</time></trkpt><trkpt lat="47.8597012" lon="7.1441413"><ele>883.0</ele><time>2026-04-03T13:45:55.9Z</time></trkpt><trkpt lat="47.859688" lon="7.1443774"><ele>883.6666666666666</ele><time>2026-04-03T13:45:56.9Z</time></trkpt><trkpt lat="47.8596462" lon="7.1446104"><ele>884.3333333333333</ele><time>2026-04-03T13:45:57.9Z</time></trkpt><trkpt lat="47.8595833" lon="7.1448462"><ele>885.0</ele><time>2026-04-03T13:45:58.899Z</time></trkpt><trkpt lat="47.8594948" lon="7.1450923"><ele>885.0</ele><time>2026-04-03T13:45:59.899Z</time></trkpt><trkpt lat="47.8593982" lon="7.1453539"><ele>885.0</ele><time>2026-04-03T13:46:00.899Z</time></trkpt><trkpt lat="47.8592968" lon="7.1456116"><ele>885.0</ele><time>2026-04-03T13:46:01.9Z</time></trkpt><trkpt lat="47.8591916" lon="7.1458557"><ele>892.3333333333333</ele><time>2026-04-03T13:46:02.9Z</time></trkpt><trkpt lat="47.8590902" lon="7.1460853"><ele>899.6666666666666</ele><time>2026-04-03T13:46:03.9Z</time></trkpt><trkpt lat="47.8590276" lon="7.1463039"><ele>907.0</ele><time>2026-04-03T13:46:04.899Z</time></trkpt><trkpt lat="47.8589694" lon="7.1465544"><ele>907.0</ele><time>2026-04-03T13:46:05.9Z</time></trkpt><trkpt lat="47.8589366" lon="7.1468064"><ele>907.0</ele><time>2026-04-03T13:46:06.9Z</time></trkpt><trkpt lat="47.8589193" lon="7.1470401"><ele>907.0</ele><time>2026-04-03T13:46:07.899Z</time></trkpt><trkpt lat="47.8589099" lon="7.1472616"><ele>905.25</ele><time>2026-04-03T13:46:08.899Z</time></trkpt><trkpt lat="47.8588906" lon="7.1474656"><ele>903.5</ele><time>2026-04-03T13:46:09.9Z</time></trkpt><trkpt lat="47.8588633" lon="7.1476689"><ele>901.75</ele><time>2026-04-03T13:46:10.899Z</time></trkpt><trkpt lat="47.858831" lon="7.1478632"><ele>900.0</ele><time>2026-04-03T13:46:11.9Z</time></trkpt><trkpt lat="47.8587892" lon="7.1480487"><ele>898.75</ele><time>2026-04-03T13:46:12.899Z</time></trkpt><trkpt lat="47.8587418" lon="7.1482099"><ele>897.5</ele><time>2026-04-03T13:46:13.9Z</time></trkpt><trkpt lat="47.8586894" lon="7.1483555"><ele>896.25</ele><time>2026-04-03T13:46:14.9Z</time></trkpt><trkpt lat="47.8586115" lon="7.1484849"><ele>895.0</ele><time>2026-04-03T13:46:15.899Z</time></trkpt><trkpt lat="47.8585162" lon="7.1485871"><ele>898.25</ele><time>2026-04-03T13:46:16.899Z</time></trkpt><trkpt lat="47.8584069" lon="7.1486542"><ele>901.5</ele><time>2026-04-03T13:46:17.899Z</time></trkpt><trkpt lat="47.8582864" lon="7.1486915"><ele>904.75</ele><time>2026-04-03T13:46:18.9Z</time></trkpt><trkpt lat="47.8581661" lon="7.1487008"><ele>908.0</ele><time>2026-04-03T13:46:19.9Z</time></trkpt><trkpt lat="47.8580537" lon="7.1486728"><ele>908.0</ele><time>2026-04-03T13:46:20.9Z</time></trkpt><trkpt lat="47.8579473" lon="7.1485986"><ele>908.0</ele><time>2026-04-03T13:46:21.899Z</time></trkpt><trkpt lat="47.8578517" lon="7.1484959"><ele>908.0</ele><time>2026-04-03T13:46:22.9Z</time></trkpt><trkpt lat="47.857744" lon="7.1483889"><ele>908.0</ele><time>2026-04-03T13:46:23.899Z</time></trkpt><trkpt lat="47.857628" lon="7.1482887"><ele>908.25</ele><time>2026-04-03T13:46:24.899Z</time></trkpt><trkpt lat="47.857511" lon="7.1481887"><ele>908.5</ele><time>2026-04-03T13:46:25.9Z</time></trkpt><trkpt lat="47.8573836" lon="7.1480862"><ele>908.75</ele><time>2026-04-03T13:46:26.899Z</time></trkpt><trkpt lat="47.8572614" lon="7.1479854"><ele>909.0</ele><time>2026-04-03T13:46:27.899Z</time></trkpt><trkpt lat="47.8571432" lon="7.1478924"><ele>909.0</ele><time>2026-04-03T13:46:28.899Z</time></trkpt><trkpt lat="47.8570278" lon="7.1478037"><ele>909.0</ele><time>2026-04-03T13:46:29.899Z</time></trkpt><trkpt lat="47.8569176" lon="7.1477221"><ele>909.0</ele><time>2026-04-03T13:46:30.899Z</time></trkpt><trkpt lat="47.8568092" lon="7.1476391"><ele>909.0</ele><time>2026-04-03T13:46:31.899Z</time></trkpt><trkpt lat="47.8567061" lon="7.1475567"><ele>908.5</ele><time>2026-04-03T13:46:32.9Z</time></trkpt><trkpt lat="47.8566069" lon="7.1474744"><ele>908.0</ele><time>2026-04-03T13:46:33.899Z</time></trkpt><trkpt lat="47.8565111" lon="7.1473909"><ele>907.5</ele><time>2026-04-03T13:46:34.899Z</time></trkpt><trkpt lat="47.8564158" lon="7.1472967"><ele>907.0</ele><time>2026-04-03T13:46:35.9Z</time></trkpt><trkpt lat="47.8563216" lon="7.1471692"><ele>907.0</ele><time>2026-04-03T13:46:36.899Z</time></trkpt><trkpt lat="47.8562282" lon="7.1470049"><ele>907.0</ele><time>2026-04-03T13:46:37.901Z</time></trkpt><trkpt lat="47.8561258" lon="7.1468157"><ele>907.0</ele><time>2026-04-03T13:46:38.9Z</time></trkpt><trkpt lat="47.8560058" lon="7.146609"><ele>900.3333333333333</ele><time>2026-04-03T13:46:39.901Z</time></trkpt><trkpt lat="47.8558965" lon="7.1463988"><ele>893.6666666666667</ele><time>2026-04-03T13:46:40.899Z</time></trkpt><trkpt lat="47.855785" lon="7.1461895"><ele>887.0</ele><time>2026-04-03T13:46:41.899Z</time></trkpt><trkpt lat="47.8556685" lon="7.1459637"><ele>887.0</ele><time>2026-04-03T13:46:42.901Z</time></trkpt><trkpt lat="47.8555602" lon="7.1457424"><ele>887.0</ele><time>2026-04-03T13:46:43.899Z</time></trkpt><trkpt lat="47.855455" lon="7.14553"><ele>887.0</ele><time>2026-04-03T13:46:44.899Z</time></trkpt><trkpt lat="47.8553501" lon="7.1453149"><ele>890.6666666666667</ele><time>2026-04-03T13:46:45.901Z</time></trkpt><trkpt lat="47.855244" lon="7.1450987"><ele>894.3333333333333</ele><time>2026-04-03T13:46:46.9Z</time></trkpt><trkpt lat="47.8551358" lon="7.1448814"><ele>898.0</ele><time>2026-04-03T13:46:47.899Z</time></trkpt><trkpt lat="47.8550272" lon="7.1446591"><ele>891.6666666666666</ele><time>2026-04-03T13:46:48.899Z</time></trkpt><trkpt lat="47.854925" lon="7.1444336"><ele>885.3333333333333</ele><time>2026-04-03T13:46:49.9Z</time></trkpt><trkpt lat="47.854838" lon="7.1442091"><ele>879.0</ele><time>2026-04-03T13:46:50.9Z</time></trkpt><trkpt lat="47.8547562" lon="7.1439861"><ele>879.0</ele><time>2026-04-03T13:46:51.9Z</time></trkpt><trkpt lat="47.8546755" lon="7.1437751"><ele>879.0</ele><time>2026-04-03T13:46:52.9Z</time></trkpt><trkpt lat="47.8546004" lon="7.1435785"><ele>879.0</ele><time>2026-04-03T13:46:53.899Z</time></trkpt><trkpt lat="47.8545404" lon="7.1434117"><ele>879.0</ele><time>2026-04-03T13:46:54.899Z</time></trkpt><trkpt lat="47.85449" lon="7.1432714"><ele>877.8000000000001</ele><time>2026-04-03T13:46:55.899Z</time></trkpt><trkpt lat="47.8544329" lon="7.1431613"><ele>876.6000000000001</ele><time>2026-04-03T13:46:56.899Z</time></trkpt><trkpt lat="47.8543582" lon="7.1430827"><ele>875.4</ele><time>2026-04-03T13:46:57.899Z</time></trkpt><trkpt lat="47.854254" lon="7.1430405"><ele>874.2</ele><time>2026-04-03T13:46:58.9Z</time></trkpt><trkpt lat="47.854146" lon="7.1430563"><ele>873.0</ele><time>2026-04-03T13:46:59.9Z</time></trkpt><trkpt lat="47.8540419" lon="7.1431348"><ele>868.6666666666667</ele><time>2026-04-03T13:47:00.899Z</time></trkpt><trkpt lat="47.8539317" lon="7.1432655"><ele>864.3333333333334</ele><time>2026-04-03T13:47:01.9Z</time></trkpt><trkpt lat="47.8538219" lon="7.1434536"><ele>860.0</ele><time>2026-04-03T13:47:02.899Z</time></trkpt><trkpt lat="47.8536773" lon="7.1436585"><ele>860.0</ele><time>2026-04-03T13:47:03.899Z</time></trkpt><trkpt lat="47.8535148" lon="7.1438921"><ele>860.0</ele><time>2026-04-03T13:47:04.9Z</time></trkpt><trkpt lat="47.8533531" lon="7.1441272"><ele>858.3333333333334</ele><time>2026-04-03T13:47:05.9Z</time></trkpt><trkpt lat="47.8532048" lon="7.1443435"><ele>856.6666666666667</ele><time>2026-04-03T13:47:06.899Z</time></trkpt><trkpt lat="47.8530585" lon="7.1445468"><ele>855.0</ele><time>2026-04-03T13:47:07.899Z</time></trkpt><trkpt lat="47.8529262" lon="7.1447679"><ele>857.6666666666667</ele><time>2026-04-03T13:47:08.899Z</time></trkpt><trkpt lat="47.8528124" lon="7.14501"><ele>860.3333333333334</ele><time>2026-04-03T13:47:09.901Z</time></trkpt><trkpt lat="47.8526899" lon="7.1452409"><ele>863.0</ele><time>2026-04-03T13:47:10.9Z</time></trkpt><trkpt lat="47.8525533" lon="7.145449"><ele>863.0</ele><time>2026-04-03T13:47:11.9Z</time></trkpt><trkpt lat="47.8523923" lon="7.1456569"><ele>863.0</ele><time>2026-04-03T13:47:12.899Z</time></trkpt><trkpt lat="47.8522316" lon="7.1458513"><ele>863.0</ele><time>2026-04-03T13:47:13.9Z</time></trkpt><trkpt lat="47.852079" lon="7.146033"><ele>863.6666666666667</ele><time>2026-04-03T13:47:14.899Z</time></trkpt><trkpt lat="47.8519246" lon="7.1462044"><ele>864.3333333333333</ele><time>2026-04-03T13:47:15.899Z</time></trkpt><trkpt lat="47.8517667" lon="7.1463775"><ele>865.0</ele><time>2026-04-03T13:47:16.9Z</time></trkpt><trkpt lat="47.8516109" lon="7.1465543"><ele>857.3333333333333</ele><time>2026-04-03T13:47:17.901Z</time></trkpt><trkpt lat="47.8514588" lon="7.1467238"><ele>849.6666666666667</ele><time>2026-04-03T13:47:18.9Z</time></trkpt><trkpt lat="47.8513147" lon="7.1468862"><ele>842.0</ele><time>2026-04-03T13:47:19.9Z</time></trkpt><trkpt lat="47.8511755" lon="7.147042"><ele>842.0</ele><time>2026-04-03T13:47:20.899Z</time></trkpt><trkpt lat="47.8510399" lon="7.1471865"><ele>842.0</ele><time>2026-04-03T13:47:21.901Z</time></trkpt><trkpt lat="47.850908" lon="7.1473114"><ele>842.0</ele><time>2026-04-03T13:47:22.9Z</time></trkpt><trkpt lat="47.8507611" lon="7.1474172"><ele>839.6666666666667</ele><time>2026-04-03T13:47:23.899Z</time></trkpt><trkpt lat="47.8506117" lon="7.1475111"><ele>837.3333333333333</ele><time>2026-04-03T13:47:24.899Z</time></trkpt><trkpt lat="47.850472" lon="7.1476064"><ele>835.0</ele><time>2026-04-03T13:47:25.9Z</time></trkpt><trkpt lat="47.8503178" lon="7.1477034"><ele>835.0</ele><time>2026-04-03T13:47:26.9Z</time></trkpt><trkpt lat="47.850173" lon="7.1477939"><ele>835.0</ele><time>2026-04-03T13:47:27.899Z</time></trkpt><trkpt lat="47.8500277" lon="7.1478804"><ele>835.0</ele><time>2026-04-03T13:47:28.9Z</time></trkpt><trkpt lat="47.8498962" lon="7.1479616"><ele>836.25</ele><time>2026-04-03T13:47:29.9Z</time></trkpt><trkpt lat="47.8497817" lon="7.1480337"><ele>837.5</ele><time>2026-04-03T13:47:30.901Z</time></trkpt><trkpt lat="47.8496742" lon="7.1480678"><ele>838.75</ele><time>2026-04-03T13:47:31.899Z</time></trkpt><trkpt lat="47.8495588" lon="7.148052"><ele>840.0</ele><time>2026-04-03T13:47:32.899Z</time></trkpt><trkpt lat="47.8494649" lon="7.1479752"><ele>840.0</ele><time>2026-04-03T13:47:33.899Z</time></trkpt><trkpt lat="47.8493956" lon="7.1478439"><ele>840.0</ele><time>2026-04-03T13:47:34.901Z</time></trkpt><trkpt lat="47.8493515" lon="7.1476672"><ele>840.0</ele><time>2026-04-03T13:47:35.9Z</time></trkpt><trkpt lat="47.8493126" lon="7.1474419"><ele>840.0</ele><time>2026-04-03T13:47:36.899Z</time></trkpt><trkpt lat="47.849264" lon="7.1471989"><ele>839.6666666666667</ele><time>2026-04-03T13:47:37.9Z</time></trkpt><trkpt lat="47.8492049" lon="7.1469822"><ele>839.3333333333334</ele><time>2026-04-03T13:47:38.899Z</time></trkpt><trkpt lat="47.849122" lon="7.1467685"><ele>839.0</ele><time>2026-04-03T13:47:39.9Z</time></trkpt><trkpt lat="47.8490103" lon="7.1465749"><ele>847.3333333333334</ele><time>2026-04-03T13:47:40.9Z</time></trkpt><trkpt lat="47.8488622" lon="7.1464055"><ele>855.6666666666667</ele><time>2026-04-03T13:47:41.901Z</time></trkpt><trkpt lat="47.8487283" lon="7.1462371"><ele>864.0</ele><time>2026-04-03T13:47:42.901Z</time></trkpt><trkpt lat="47.8486068" lon="7.1460834"><ele>864.0</ele><time>2026-04-03T13:47:43.899Z</time></trkpt><trkpt lat="47.848483" lon="7.1459355"><ele>864.0</ele><time>2026-04-03T13:47:44.901Z</time></trkpt><trkpt lat="47.8483543" lon="7.1457777"><ele>864.0</ele><time>2026-04-03T13:47:45.9Z</time></trkpt><trkpt lat="47.8482223" lon="7.1456145"><ele>861.3333333333333</ele><time>2026-04-03T13:47:46.9Z</time></trkpt><trkpt lat="47.8480733" lon="7.145448"><ele>858.6666666666666</ele><time>2026-04-03T13:47:47.9Z</time></trkpt><trkpt lat="47.8479165" lon="7.1452755"><ele>856.0</ele><time>2026-04-03T13:47:48.899Z</time></trkpt><trkpt lat="47.8477646" lon="7.1450939"><ele>854.6666666666666</ele><time>2026-04-03T13:47:49.9Z</time></trkpt><trkpt lat="47.8476083" lon="7.1448935"><ele>853.3333333333333</ele><time>2026-04-03T13:47:50.9Z</time></trkpt><trkpt lat="47.8474629" lon="7.1446837"><ele>852.0</ele><time>2026-04-03T13:47:51.899Z</time></trkpt><trkpt lat="47.8473347" lon="7.1444873"><ele>852.0</ele><time>2026-04-03T13:47:52.9Z</time></trkpt><trkpt lat="47.8472147" lon="7.1443051"><ele>852.0</ele><time>2026-04-03T13:47:53.9Z</time></trkpt><trkpt lat="47.8471099" lon="7.1441324"><ele>852.0</ele><time>2026-04-03T13:47:54.899Z</time></trkpt><trkpt lat="47.8470185" lon="7.1439727"><ele>857.25</ele><time>2026-04-03T13:47:55.901Z</time></trkpt><trkpt lat="47.8469442" lon="7.1438021"><ele>862.5</ele><time>2026-04-03T13:47:56.899Z</time></trkpt><trkpt lat="47.8469026" lon="7.1436179"><ele>867.75</ele><time>2026-04-03T13:47:57.899Z</time></trkpt><trkpt lat="47.8468594" lon="7.1434447"><ele>873.0</ele><time>2026-04-03T13:47:58.899Z</time></trkpt><trkpt lat="47.846796" lon="7.1433029"><ele>871.0</ele><time>2026-04-03T13:47:59.9Z</time></trkpt><trkpt lat="47.846714" lon="7.1431847"><ele>869.0</ele><time>2026-04-03T13:48:00.9Z</time></trkpt><trkpt lat="47.8465948" lon="7.1431546"><ele>867.0</ele><time>2026-04-03T13:48:01.9Z</time></trkpt><trkpt lat="47.8464505" lon="7.143191"><ele>865.0</ele><time>2026-04-03T13:48:02.9Z</time></trkpt><trkpt lat="47.8463136" lon="7.1432621"><ele>860.0</ele><time>2026-04-03T13:48:03.901Z</time></trkpt><trkpt lat="47.8461859" lon="7.1433251"><ele>855.0</ele><time>2026-04-03T13:48:04.899Z</time></trkpt><trkpt lat="47.8460684" lon="7.143342"><ele>850.0</ele><time>2026-04-03T13:48:05.899Z</time></trkpt><trkpt lat="47.8459442" lon="7.1433317"><ele>845.0</ele><time>2026-04-03T13:48:06.9Z</time></trkpt><trkpt lat="47.8458207" lon="7.1433015"><ele>843.8</ele><time>2026-04-03T13:48:07.899Z</time></trkpt><trkpt lat="47.845712" lon="7.1432877"><ele>842.6</ele><time>2026-04-03T13:48:08.899Z</time></trkpt><trkpt lat="47.8456132" lon="7.1433159"><ele>841.4000000000001</ele><time>2026-04-03T13:48:09.899Z</time></trkpt><trkpt lat="47.8455213" lon="7.1433958"><ele>840.2</ele><time>2026-04-03T13:48:10.899Z</time></trkpt><trkpt lat="47.8454518" lon="7.1435239"><ele>839.0</ele><time>2026-04-03T13:48:11.899Z</time></trkpt><trkpt lat="47.8454018" lon="7.1437008"><ele>839.0</ele><time>2026-04-03T13:48:12.899Z</time></trkpt><trkpt lat="47.8453574" lon="7.1439176"><ele>839.0</ele><time>2026-04-03T13:48:13.9Z</time></trkpt><trkpt lat="47.8453166" lon="7.1441559"><ele>839.0</ele><time>2026-04-03T13:48:14.899Z</time></trkpt><trkpt lat="47.8452663" lon="7.1444003"><ele>841.0</ele><time>2026-04-03T13:48:15.899Z</time></trkpt><trkpt lat="47.8452043" lon="7.1446426"><ele>843.0</ele><time>2026-04-03T13:48:16.901Z</time></trkpt><trkpt lat="47.8451278" lon="7.144866"><ele>845.0</ele><time>2026-04-03T13:48:17.899Z</time></trkpt><trkpt lat="47.845051" lon="7.1450799"><ele>845.0</ele><time>2026-04-03T13:48:18.899Z</time></trkpt><trkpt lat="47.8449777" lon="7.145271"><ele>845.0</ele><time>2026-04-03T13:48:19.899Z</time></trkpt><trkpt lat="47.8449134" lon="7.1454417"><ele>845.0</ele><time>2026-04-03T13:48:20.9Z</time></trkpt><trkpt lat="47.8448394" lon="7.1455837"><ele>845.0</ele><time>2026-04-03T13:48:21.899Z</time></trkpt><trkpt lat="47.8447558" lon="7.1457235"><ele>843.3333333333334</ele><time>2026-04-03T13:48:22.9Z</time></trkpt><trkpt lat="47.8446081" lon="7.1457603"><ele>841.6666666666667</ele><time>2026-04-03T13:48:23.899Z</time></trkpt><trkpt lat="47.8444672" lon="7.1457803"><ele>840.0</ele><time>2026-04-03T13:48:24.9Z</time></trkpt><trkpt lat="47.8443026" lon="7.1457819"><ele>844.3333333333333</ele><time>2026-04-03T13:48:25.9Z</time></trkpt><trkpt lat="47.8441278" lon="7.1457853"><ele>848.6666666666666</ele><time>2026-04-03T13:48:26.899Z</time></trkpt><trkpt lat="47.8439562" lon="7.1457836"><ele>853.0</ele><time>2026-04-03T13:48:27.899Z</time></trkpt><trkpt lat="47.8438092" lon="7.1457873"><ele>853.0</ele><time>2026-04-03T13:48:28.899Z</time></trkpt><trkpt lat="47.843673" lon="7.1458164"><ele>853.0</ele><time>2026-04-03T13:48:29.9Z</time></trkpt><trkpt lat="47.8435498" lon="7.1458651"><ele>853.0</ele><time>2026-04-03T13:48:30.9Z</time></trkpt><trkpt lat="47.8434424" lon="7.1459034"><ele>853.0</ele><time>2026-04-03T13:48:31.9Z</time></trkpt><trkpt lat="47.8433373" lon="7.1459089"><ele>852.4</ele><time>2026-04-03T13:48:32.902Z</time></trkpt><trkpt lat="47.8432233" lon="7.145854"><ele>851.8</ele><time>2026-04-03T13:48:33.9Z</time></trkpt><trkpt lat="47.8431326" lon="7.1457464"><ele>851.2</ele><time>2026-04-03T13:48:34.9Z</time></trkpt><trkpt lat="47.8430863" lon="7.1456018"><ele>850.6</ele><time>2026-04-03T13:48:35.9Z</time></trkpt><trkpt lat="47.8430925" lon="7.1454557"><ele>850.0</ele><time>2026-04-03T13:48:36.901Z</time></trkpt><trkpt lat="47.8431442" lon="7.145282"><ele>850.0</ele><time>2026-04-03T13:48:37.901Z</time></trkpt><trkpt lat="47.8432122" lon="7.1450791"><ele>850.0</ele><time>2026-04-03T13:48:38.9Z</time></trkpt><trkpt lat="47.8432919" lon="7.1448441"><ele>850.0</ele><time>2026-04-03T13:48:39.901Z</time></trkpt><trkpt lat="47.8433689" lon="7.1446226"><ele>848.6666666666666</ele><time>2026-04-03T13:48:40.902Z</time></trkpt><trkpt lat="47.8434441" lon="7.1444096"><ele>847.3333333333333</ele><time>2026-04-03T13:48:41.901Z</time></trkpt><trkpt lat="47.843515" lon="7.1442029"><ele>846.0</ele><time>2026-04-03T13:48:42.9Z</time></trkpt><trkpt lat="47.8435779" lon="7.1440006"><ele>846.0</ele><time>2026-04-03T13:48:43.901Z</time></trkpt><trkpt lat="47.8436307" lon="7.1437897"><ele>846.0</ele><time>2026-04-03T13:48:44.9Z</time></trkpt><trkpt lat="47.8436784" lon="7.1435798"><ele>846.0</ele><time>2026-04-03T13:48:45.9Z</time></trkpt><trkpt lat="47.8437317" lon="7.1433804"><ele>846.0</ele><time>2026-04-03T13:48:46.901Z</time></trkpt><trkpt lat="47.8438052" lon="7.1431804"><ele>840.75</ele><time>2026-04-03T13:48:47.902Z</time></trkpt><trkpt lat="47.8438948" lon="7.1430088"><ele>835.5</ele><time>2026-04-03T13:48:48.901Z</time></trkpt><trkpt lat="47.8439945" lon="7.1428629"><ele>830.25</ele><time>2026-04-03T13:48:49.9Z</time></trkpt><trkpt lat="47.8441109" lon="7.142731"><ele>825.0</ele><time>2026-04-03T13:48:50.902Z</time></trkpt><trkpt lat="47.8442426" lon="7.1426248"><ele>827.3333333333333</ele><time>2026-04-03T13:48:51.901Z</time></trkpt><trkpt lat="47.8443891" lon="7.1425453"><ele>829.6666666666666</ele><time>2026-04-03T13:48:52.9Z</time></trkpt><trkpt lat="47.8445319" lon="7.14248"><ele>832.0</ele><time>2026-04-03T13:48:53.901Z</time></trkpt><trkpt lat="47.8446783" lon="7.1424197"><ele>834.0</ele><time>2026-04-03T13:48:54.9Z</time></trkpt><trkpt lat="47.8448195" lon="7.142366"><ele>836.0</ele><time>2026-04-03T13:48:55.9Z</time></trkpt><trkpt lat="47.8449523" lon="7.1423079"><ele>838.0</ele><time>2026-04-03T13:48:56.9Z</time></trkpt><trkpt lat="47.8450728" lon="7.1422283"><ele>840.0</ele><time>2026-04-03T13:48:57.9Z</time></trkpt><trkpt lat="47.8451852" lon="7.1421139"><ele>840.0</ele><time>2026-04-03T13:48:58.9Z</time></trkpt><trkpt lat="47.8452754" lon="7.1419637"><ele>840.0</ele><time>2026-04-03T13:48:59.9Z</time></trkpt><trkpt lat="47.8453488" lon="7.1417792"><ele>840.0</ele><time>2026-04-03T13:49:00.9Z</time></trkpt><trkpt lat="47.8454002" lon="7.1415689"><ele>840.0</ele><time>2026-04-03T13:49:01.9Z</time></trkpt><trkpt lat="47.8454314" lon="7.1413546"><ele>837.5</ele><time>2026-04-03T13:49:02.9Z</time></trkpt><trkpt lat="47.8454525" lon="7.1411467"><ele>835.0</ele><time>2026-04-03T13:49:03.901Z</time></trkpt><trkpt lat="47.8454672" lon="7.1409457"><ele>832.5</ele><time>2026-04-03T13:49:04.901Z</time></trkpt><trkpt lat="47.8454839" lon="7.1407507"><ele>830.0</ele><time>2026-04-03T13:49:05.901Z</time></trkpt><trkpt lat="47.8455036" lon="7.1405647"><ele>828.5</ele><time>2026-04-03T13:49:06.9Z</time></trkpt><trkpt lat="47.8455222" lon="7.1403885"><ele>827.0</ele><time>2026-04-03T13:49:07.9Z</time></trkpt><trkpt lat="47.8455413" lon="7.1402216"><ele>825.5</ele><time>2026-04-03T13:49:08.9Z</time></trkpt><trkpt lat="47.8455774" lon="7.1400647"><ele>824.0</ele><time>2026-04-03T13:49:09.9Z</time></trkpt><trkpt lat="47.8456255" lon="7.1399163"><ele>822.8333333333334</ele><time>2026-04-03T13:49:10.9Z</time></trkpt><trkpt lat="47.8456643" lon="7.1397857"><ele>821.6666666666667</ele><time>2026-04-03T13:49:11.9Z</time></trkpt><trkpt lat="47.845672" lon="7.1396537"><ele>820.5</ele><time>2026-04-03T13:49:12.901Z</time></trkpt><trkpt lat="47.8456423" lon="7.1395433"><ele>819.3333333333333</ele><time>2026-04-03T13:49:13.901Z</time></trkpt><trkpt lat="47.8455742" lon="7.1394838"><ele>818.1666666666666</ele><time>2026-04-03T13:49:14.9Z</time></trkpt><trkpt lat="47.8454932" lon="7.1395018"><ele>817.0</ele><time>2026-04-03T13:49:15.901Z</time></trkpt><trkpt lat="47.8454299" lon="7.1396028"><ele>817.0</ele><time>2026-04-03T13:49:16.901Z</time></trkpt><trkpt lat="47.8453981" lon="7.1397562"><ele>817.0</ele><time>2026-04-03T13:49:17.901Z</time></trkpt><trkpt lat="47.8453713" lon="7.1399376"><ele>817.0</ele><time>2026-04-03T13:49:18.9Z</time></trkpt><trkpt lat="47.8453362" lon="7.1401407"><ele>817.0</ele><time>2026-04-03T13:49:19.901Z</time></trkpt><trkpt lat="47.845289" lon="7.1403436"><ele>818.75</ele><time>2026-04-03T13:49:20.901Z</time></trkpt><trkpt lat="47.8452414" lon="7.1405295"><ele>820.5</ele><time>2026-04-03T13:49:21.9Z</time></trkpt><trkpt lat="47.8451885" lon="7.1407111"><ele>822.25</ele><time>2026-04-03T13:49:22.9Z</time></trkpt><trkpt lat="47.845123" lon="7.1408739"><ele>824.0</ele><time>2026-04-03T13:49:23.9Z</time></trkpt><trkpt lat="47.8450389" lon="7.1410083"><ele>818.0</ele><time>2026-04-03T13:49:24.9Z</time></trkpt><trkpt lat="47.8449249" lon="7.1410892"><ele>812.0</ele><time>2026-04-03T13:49:25.901Z</time></trkpt><trkpt lat="47.8448069" lon="7.1411219"><ele>806.0</ele><time>2026-04-03T13:49:26.9Z</time></trkpt><trkpt lat="47.844675" lon="7.1411234"><ele>800.0</ele><time>2026-04-03T13:49:27.9Z</time></trkpt><trkpt lat="47.844535" lon="7.1411191"><ele>800.0</ele><time>2026-04-03T13:49:28.901Z</time></trkpt><trkpt lat="47.8443962" lon="7.1411256"><ele>800.0</ele><time>2026-04-03T13:49:29.9Z</time></trkpt><trkpt lat="47.8442551" lon="7.1411416"><ele>800.0</ele><time>2026-04-03T13:49:30.9Z</time></trkpt><trkpt lat="47.8441188" lon="7.1411597"><ele>800.0</ele><time>2026-04-03T13:49:31.901Z</time></trkpt><trkpt lat="47.8439894" lon="7.1411773"><ele>796.0</ele><time>2026-04-03T13:49:32.9Z</time></trkpt><trkpt lat="47.8438525" lon="7.1411958"><ele>792.0</ele><time>2026-04-03T13:49:33.901Z</time></trkpt><trkpt lat="47.8437116" lon="7.1412133"><ele>788.0</ele><time>2026-04-03T13:49:34.9Z</time></trkpt><trkpt lat="47.843567" lon="7.1412491"><ele>784.0</ele><time>2026-04-03T13:49:35.9Z</time></trkpt><trkpt lat="47.8434262" lon="7.1413124"><ele>783.6666666666666</ele><time>2026-04-03T13:49:36.9Z</time></trkpt><trkpt lat="47.8432918" lon="7.141428"><ele>783.3333333333333</ele><time>2026-04-03T13:49:37.901Z</time></trkpt><trkpt lat="47.843166" lon="7.1415853"><ele>783.0</ele><time>2026-04-03T13:49:38.9Z</time></trkpt><trkpt lat="47.8430349" lon="7.1417473"><ele>783.0</ele><time>2026-04-03T13:49:39.9Z</time></trkpt><trkpt lat="47.8428956" lon="7.1419408"><ele>783.0</ele><time>2026-04-03T13:49:40.902Z</time></trkpt><trkpt lat="47.842732" lon="7.1421602"><ele>783.0</ele><time>2026-04-03T13:49:41.901Z</time></trkpt><trkpt lat="47.8425502" lon="7.142388"><ele>779.3333333333333</ele><time>2026-04-03T13:49:42.9Z</time></trkpt><trkpt lat="47.8423747" lon="7.1425921"><ele>775.6666666666666</ele><time>2026-04-03T13:49:43.901Z</time></trkpt><trkpt lat="47.8422045" lon="7.1427749"><ele>772.0</ele><time>2026-04-03T13:49:44.9Z</time></trkpt><trkpt lat="47.8420334" lon="7.1429345"><ele>772.0</ele><time>2026-04-03T13:49:45.901Z</time></trkpt><trkpt lat="47.8418633" lon="7.1430712"><ele>772.0</ele><time>2026-04-03T13:49:46.901Z</time></trkpt><trkpt lat="47.8416898" lon="7.1432114"><ele>772.0</ele><time>2026-04-03T13:49:47.901Z</time></trkpt><trkpt lat="47.8415166" lon="7.1433582"><ele>768.0</ele><time>2026-04-03T13:49:48.901Z</time></trkpt><trkpt lat="47.84135" lon="7.143508"><ele>764.0</ele><time>2026-04-03T13:49:49.9Z</time></trkpt><trkpt lat="47.8411951" lon="7.1436555"><ele>760.0</ele><time>2026-04-03T13:49:50.901Z</time></trkpt><trkpt lat="47.8410583" lon="7.1438078"><ele>757.5</ele><time>2026-04-03T13:49:51.9Z</time></trkpt><trkpt lat="47.8409363" lon="7.1439617"><ele>755.0</ele><time>2026-04-03T13:49:52.901Z</time></trkpt><trkpt lat="47.8408365" lon="7.1441263"><ele>752.5</ele><time>2026-04-03T13:49:53.901Z</time></trkpt><trkpt lat="47.8407553" lon="7.1442921"><ele>750.0</ele><time>2026-04-03T13:49:54.9Z</time></trkpt><trkpt lat="47.8406982" lon="7.1444586"><ele>750.0</ele><time>2026-04-03T13:49:55.9Z</time></trkpt><trkpt lat="47.8406849" lon="7.1446337"><ele>750.0</ele><time>2026-04-03T13:49:56.901Z</time></trkpt><trkpt lat="47.8407165" lon="7.1448064"><ele>750.0</ele><time>2026-04-03T13:49:57.9Z</time></trkpt><trkpt lat="47.8407972" lon="7.1449261"><ele>750.0</ele><time>2026-04-03T13:49:58.901Z</time></trkpt><trkpt lat="47.8409216" lon="7.1450075"><ele>758.5</ele><time>2026-04-03T13:49:59.901Z</time></trkpt><trkpt lat="47.8410537" lon="7.145098"><ele>767.0</ele><time>2026-04-03T13:50:00.9Z</time></trkpt><trkpt lat="47.8411539" lon="7.1452512"><ele>775.5</ele><time>2026-04-03T13:50:01.9Z</time></trkpt><trkpt lat="47.8412165" lon="7.1454469"><ele>784.0</ele><time>2026-04-03T13:50:02.901Z</time></trkpt><trkpt lat="47.8412467" lon="7.1456898"><ele>781.0</ele><time>2026-04-03T13:50:03.9Z</time></trkpt><trkpt lat="47.8412674" lon="7.1459512"><ele>778.0</ele><time>2026-04-03T13:50:04.9Z</time></trkpt><trkpt lat="47.841288" lon="7.1461847"><ele>775.0</ele><time>2026-04-03T13:50:05.901Z</time></trkpt><trkpt lat="47.8412995" lon="7.1464122"><ele>773.6666666666666</ele><time>2026-04-03T13:50:06.9Z</time></trkpt><trkpt lat="47.8412798" lon="7.1466476"><ele>772.3333333333333</ele><time>2026-04-03T13:50:07.9Z</time></trkpt><trkpt lat="47.8412204" lon="7.146901"><ele>771.0</ele><time>2026-04-03T13:50:08.9Z</time></trkpt><trkpt lat="47.8411231" lon="7.1471649"><ele>773.6666666666667</ele><time>2026-04-03T13:50:09.9Z</time></trkpt><trkpt lat="47.8410148" lon="7.1474413"><ele>776.3333333333334</ele><time>2026-04-03T13:50:10.902Z</time></trkpt><trkpt lat="47.8409108" lon="7.147707"><ele>779.0</ele><time>2026-04-03T13:50:11.901Z</time></trkpt><trkpt lat="47.8408129" lon="7.1479955"><ele>764.6666666666667</ele><time>2026-04-03T13:50:12.901Z</time></trkpt><trkpt lat="47.8407242" lon="7.1482931"><ele>750.3333333333334</ele><time>2026-04-03T13:50:13.9Z</time></trkpt><trkpt lat="47.8406418" lon="7.1485849"><ele>736.0</ele><time>2026-04-03T13:50:14.901Z</time></trkpt><trkpt lat="47.8405645" lon="7.1488681"><ele>739.3333333333334</ele><time>2026-04-03T13:50:15.901Z</time></trkpt><trkpt lat="47.8404963" lon="7.1491437"><ele>742.6666666666666</ele><time>2026-04-03T13:50:16.9Z</time></trkpt><trkpt lat="47.8404319" lon="7.1494091"><ele>746.0</ele><time>2026-04-03T13:50:17.9Z</time></trkpt><trkpt lat="47.8403717" lon="7.149663"><ele>745.0</ele><time>2026-04-03T13:50:18.9Z</time></trkpt><trkpt lat="47.8403193" lon="7.1498797"><ele>744.0</ele><time>2026-04-03T13:50:19.901Z</time></trkpt><trkpt lat="47.8402695" lon="7.1500707"><ele>743.0</ele><time>2026-04-03T13:50:20.9Z</time></trkpt><trkpt lat="47.8402262" lon="7.1502365"><ele>742.0</ele><time>2026-04-03T13:50:21.901Z</time></trkpt><trkpt lat="47.8402118" lon="7.1503916"><ele>742.0</ele><time>2026-04-03T13:50:22.901Z</time></trkpt><trkpt lat="47.8402358" lon="7.1505597"><ele>742.0</ele><time>2026-04-03T13:50:23.9Z</time></trkpt><trkpt lat="47.8403026" lon="7.1507174"><ele>742.0</ele><time>2026-04-03T13:50:24.9Z</time></trkpt><trkpt lat="47.8403955" lon="7.1508273"><ele>742.0</ele><time>2026-04-03T13:50:25.9Z</time></trkpt><trkpt lat="47.8405218" lon="7.1508916"><ele>744.5</ele><time>2026-04-03T13:50:26.9Z</time></trkpt><trkpt lat="47.8406615" lon="7.1509301"><ele>747.0</ele><time>2026-04-03T13:50:27.901Z</time></trkpt><trkpt lat="47.8407885" lon="7.1509911"><ele>749.5</ele><time>2026-04-03T13:50:28.901Z</time></trkpt><trkpt lat="47.8409067" lon="7.1510644"><ele>752.0</ele><time>2026-04-03T13:50:29.9Z</time></trkpt><trkpt lat="47.8410025" lon="7.1512823"><ele>752.0</ele><time>2026-04-03T13:50:30.9Z</time></trkpt><trkpt lat="47.8410302" lon="7.1515395"><ele>752.0</ele><time>2026-04-03T13:50:31.901Z</time></trkpt><trkpt lat="47.8410679" lon="7.1517724"><ele>752.0</ele><time>2026-04-03T13:50:32.9Z</time></trkpt><trkpt lat="47.8410865" lon="7.1520025"><ele>746.0</ele><time>2026-04-03T13:50:33.901Z</time></trkpt><trkpt lat="47.8411008" lon="7.1522272"><ele>740.0</ele><time>2026-04-03T13:50:34.9Z</time></trkpt><trkpt lat="47.8411175" lon="7.152469"><ele>734.0</ele><time>2026-04-03T13:50:35.901Z</time></trkpt><trkpt lat="47.8411309" lon="7.1526973"><ele>730.75</ele><time>2026-04-03T13:50:36.9Z</time></trkpt><trkpt lat="47.8411508" lon="7.1529184"><ele>727.5</ele><time>2026-04-03T13:50:37.901Z</time></trkpt><trkpt lat="47.8411746" lon="7.1531228"><ele>724.25</ele><time>2026-04-03T13:50:38.9Z</time></trkpt><trkpt lat="47.8412211" lon="7.1533021"><ele>721.0</ele><time>2026-04-03T13:50:39.901Z</time></trkpt><trkpt lat="47.8412761" lon="7.1534463"><ele>718.8333333333334</ele><time>2026-04-03T13:50:40.901Z</time></trkpt><trkpt lat="47.8413193" lon="7.1535666"><ele>716.6666666666667</ele><time>2026-04-03T13:50:41.901Z</time></trkpt><trkpt lat="47.841336" lon="7.1536823"><ele>714.5</ele><time>2026-04-03T13:50:42.9Z</time></trkpt><trkpt lat="47.841314" lon="7.1537862"><ele>712.3333333333334</ele><time>2026-04-03T13:50:43.901Z</time></trkpt><trkpt lat="47.8412592" lon="7.1538404"><ele>710.1666666666666</ele><time>2026-04-03T13:50:44.901Z</time></trkpt><trkpt lat="47.841196" lon="7.1538215"><ele>708.0</ele><time>2026-04-03T13:50:45.9Z</time></trkpt><trkpt lat="47.8411446" lon="7.1537337"><ele>708.0</ele><time>2026-04-03T13:50:46.9Z</time></trkpt><trkpt lat="47.841117" lon="7.1535836"><ele>708.0</ele><time>2026-04-03T13:50:47.9Z</time></trkpt><trkpt lat="47.8410844" lon="7.1533823"><ele>708.0</ele><time>2026-04-03T13:50:48.9Z</time></trkpt><trkpt lat="47.8410317" lon="7.1531728"><ele>708.0</ele><time>2026-04-03T13:50:49.9Z</time></trkpt><trkpt lat="47.8409755" lon="7.1529811"><ele>707.5</ele><time>2026-04-03T13:50:50.9Z</time></trkpt><trkpt lat="47.8409288" lon="7.1527992"><ele>707.0</ele><time>2026-04-03T13:50:51.9Z</time></trkpt><trkpt lat="47.8408846" lon="7.1526279"><ele>706.5</ele><time>2026-04-03T13:50:52.901Z</time></trkpt><trkpt lat="47.8408714" lon="7.1524624"><ele>706.0</ele><time>2026-04-03T13:50:53.901Z</time></trkpt><trkpt lat="47.8408668" lon="7.1523137"><ele>706.0</ele><time>2026-04-03T13:50:54.9Z</time></trkpt><trkpt lat="47.840838" lon="7.1521845"><ele>706.0</ele><time>2026-04-03T13:50:55.902Z</time></trkpt><trkpt lat="47.8407778" lon="7.1520981"><ele>706.0</ele><time>2026-04-03T13:50:56.9Z</time></trkpt><trkpt lat="47.8407018" lon="7.1520679"><ele>706.0</ele><time>2026-04-03T13:50:57.901Z</time></trkpt><trkpt lat="47.8406379" lon="7.1521092"><ele>706.0</ele><time>2026-04-03T13:50:58.901Z</time></trkpt><trkpt lat="47.8406002" lon="7.1522177"><ele>706.0</ele><time>2026-04-03T13:50:59.901Z</time></trkpt><trkpt lat="47.8406067" lon="7.1523545"><ele>701.75</ele><time>2026-04-03T13:51:00.9Z</time></trkpt><trkpt lat="47.8406469" lon="7.1525235"><ele>697.5</ele><time>2026-04-03T13:51:01.9Z</time></trkpt><trkpt lat="47.8406937" lon="7.1527232"><ele>693.25</ele><time>2026-04-03T13:51:02.9Z</time></trkpt><trkpt lat="47.8407313" lon="7.1529552"><ele>689.0</ele><time>2026-04-03T13:51:03.9Z</time></trkpt><trkpt lat="47.8407415" lon="7.1531739"><ele>686.75</ele><time>2026-04-03T13:51:04.9Z</time></trkpt><trkpt lat="47.8407483" lon="7.1533854"><ele>684.5</ele><time>2026-04-03T13:51:05.9Z</time></trkpt><trkpt lat="47.8407598" lon="7.1536033"><ele>682.25</ele><time>2026-04-03T13:51:06.901Z</time></trkpt><trkpt lat="47.8407866" lon="7.1538079"><ele>680.0</ele><time>2026-04-03T13:51:07.9Z</time></trkpt><trkpt lat="47.8408402" lon="7.1540097"><ele>682.0</ele><time>2026-04-03T13:51:08.901Z</time></trkpt><trkpt lat="47.8409187" lon="7.1541992"><ele>684.0</ele><time>2026-04-03T13:51:09.9Z</time></trkpt><trkpt lat="47.8410093" lon="7.1543587"><ele>686.0</ele><time>2026-04-03T13:51:10.9Z</time></trkpt><trkpt lat="47.8411074" lon="7.1544863"><ele>688.0</ele><time>2026-04-03T13:51:11.9Z</time></trkpt><trkpt lat="47.841212" lon="7.1545776"><ele>688.0</ele><time>2026-04-03T13:51:12.9Z</time></trkpt><trkpt lat="47.8413048" lon="7.1546489"><ele>688.0</ele><time>2026-04-03T13:51:13.902Z</time></trkpt><trkpt lat="47.8413618" lon="7.15474"><ele>688.0</ele><time>2026-04-03T13:51:14.9Z</time></trkpt><trkpt lat="47.8413728" lon="7.1548377"><ele>688.0</ele><time>2026-04-03T13:51:15.9Z</time></trkpt><trkpt lat="47.8412868" lon="7.1549407"><ele>688.0</ele><time>2026-04-03T13:51:17.9Z</time></trkpt><trkpt lat="47.8412143" lon="7.1549072"><ele>688.0</ele><time>2026-04-03T13:51:18.9Z</time></trkpt><trkpt lat="47.8411296" lon="7.1548081"><ele>688.0</ele><time>2026-04-03T13:51:19.9Z</time></trkpt><trkpt lat="47.8410343" lon="7.1546866"><ele>688.0</ele><time>2026-04-03T13:51:20.901Z</time></trkpt><trkpt lat="47.8409371" lon="7.1545578"><ele>688.0</ele><time>2026-04-03T13:51:21.901Z</time></trkpt><trkpt lat="47.840839" lon="7.1544254"><ele>688.0</ele><time>2026-04-03T13:51:22.9Z</time></trkpt><trkpt lat="47.8407368" lon="7.1542909"><ele>686.0</ele><time>2026-04-03T13:51:23.901Z</time></trkpt><trkpt lat="47.8406322" lon="7.1541677"><ele>684.0</ele><time>2026-04-03T13:51:24.9Z</time></trkpt><trkpt lat="47.8405293" lon="7.1540508"><ele>682.0</ele><time>2026-04-03T13:51:25.901Z</time></trkpt><trkpt lat="47.8404299" lon="7.1539337"><ele>680.0</ele><time>2026-04-03T13:51:26.9Z</time></trkpt><trkpt lat="47.8403381" lon="7.153807"><ele>680.0</ele><time>2026-04-03T13:51:27.9Z</time></trkpt><trkpt lat="47.8402742" lon="7.1536586"><ele>680.0</ele><time>2026-04-03T13:51:28.901Z</time></trkpt><trkpt lat="47.8402314" lon="7.1535138"><ele>680.0</ele><time>2026-04-03T13:51:29.901Z</time></trkpt><trkpt lat="47.8401932" lon="7.153366"><ele>680.0</ele><time>2026-04-03T13:51:30.901Z</time></trkpt><trkpt lat="47.840157" lon="7.153224"><ele>680.0</ele><time>2026-04-03T13:51:31.901Z</time></trkpt><trkpt lat="47.8401125" lon="7.1530969"><ele>677.6</ele><time>2026-04-03T13:51:32.9Z</time></trkpt><trkpt lat="47.8400457" lon="7.1529943"><ele>675.2</ele><time>2026-04-03T13:51:33.9Z</time></trkpt><trkpt lat="47.8399571" lon="7.1529338"><ele>672.8</ele><time>2026-04-03T13:51:34.9Z</time></trkpt><trkpt lat="47.8398601" lon="7.1529246"><ele>670.4</ele><time>2026-04-03T13:51:35.901Z</time></trkpt><trkpt lat="47.8397597" lon="7.1529558"><ele>668.0</ele><time>2026-04-03T13:51:36.9Z</time></trkpt><trkpt lat="47.8396578" lon="7.1530141"><ele>668.0</ele><time>2026-04-03T13:51:37.901Z</time></trkpt><trkpt lat="47.8395611" lon="7.1530863"><ele>668.0</ele><time>2026-04-03T13:51:38.9Z</time></trkpt><trkpt lat="47.8394648" lon="7.1531518"><ele>668.0</ele><time>2026-04-03T13:51:39.9Z</time></trkpt><trkpt lat="47.8393594" lon="7.153201"><ele>668.0</ele><time>2026-04-03T13:51:40.9Z</time></trkpt><trkpt lat="47.8392433" lon="7.1532127"><ele>668.0</ele><time>2026-04-03T13:51:41.9Z</time></trkpt><trkpt lat="47.8391302" lon="7.1531787"><ele>664.75</ele><time>2026-04-03T13:51:42.9Z</time></trkpt><trkpt lat="47.8390208" lon="7.1531121"><ele>661.5</ele><time>2026-04-03T13:51:43.9Z</time></trkpt><trkpt lat="47.838911" lon="7.1530352"><ele>658.25</ele><time>2026-04-03T13:51:44.9Z</time></trkpt><trkpt lat="47.8387992" lon="7.1529576"><ele>655.0</ele><time>2026-04-03T13:51:45.9Z</time></trkpt><trkpt lat="47.8386898" lon="7.1528671"><ele>655.0</ele><time>2026-04-03T13:51:46.901Z</time></trkpt><trkpt lat="47.8385877" lon="7.1527757"><ele>655.0</ele><time>2026-04-03T13:51:47.9Z</time></trkpt><trkpt lat="47.838485" lon="7.1526655"><ele>655.0</ele><time>2026-04-03T13:51:48.9Z</time></trkpt><trkpt lat="47.8383821" lon="7.1525428"><ele>655.0</ele><time>2026-04-03T13:51:49.901Z</time></trkpt><trkpt lat="47.8382828" lon="7.152408"><ele>651.25</ele><time>2026-04-03T13:51:50.9Z</time></trkpt><trkpt lat="47.8381915" lon="7.1522604"><ele>647.5</ele><time>2026-04-03T13:51:51.9Z</time></trkpt><trkpt lat="47.838113" lon="7.1521103"><ele>643.75</ele><time>2026-04-03T13:51:52.9Z</time></trkpt><trkpt lat="47.8380507" lon="7.1519537"><ele>640.0</ele><time>2026-04-03T13:51:53.9Z</time></trkpt><trkpt lat="47.8380147" lon="7.151795"><ele>640.0</ele><time>2026-04-03T13:51:54.901Z</time></trkpt><trkpt lat="47.8380137" lon="7.1516467"><ele>640.0</ele><time>2026-04-03T13:51:55.9Z</time></trkpt><trkpt lat="47.8380314" lon="7.1515174"><ele>640.0</ele><time>2026-04-03T13:51:56.9Z</time></trkpt><trkpt lat="47.8380575" lon="7.1513769"><ele>640.0</ele><time>2026-04-03T13:51:57.901Z</time></trkpt><trkpt lat="47.8380793" lon="7.1512364"><ele>640.0</ele><time>2026-04-03T13:51:58.9Z</time></trkpt><trkpt lat="47.83808" lon="7.1511118"><ele>639.3333333333334</ele><time>2026-04-03T13:51:59.902Z</time></trkpt><trkpt lat="47.8380494" lon="7.1510087"><ele>638.6666666666667</ele><time>2026-04-03T13:52:00.9Z</time></trkpt><trkpt lat="47.8379929" lon="7.1509464"><ele>638.0</ele><time>2026-04-03T13:52:01.901Z</time></trkpt><trkpt lat="47.8379228" lon="7.1509406"><ele>637.3333333333334</ele><time>2026-04-03T13:52:02.9Z</time></trkpt><trkpt lat="47.8378571" lon="7.1509956"><ele>636.6666666666666</ele><time>2026-04-03T13:52:03.9Z</time></trkpt><trkpt lat="47.8378173" lon="7.1511051"><ele>636.0</ele><time>2026-04-03T13:52:04.9Z</time></trkpt><trkpt lat="47.8378147" lon="7.1512361"><ele>636.0</ele><time>2026-04-03T13:52:05.9Z</time></trkpt><trkpt lat="47.8378162" lon="7.1513886"><ele>636.0</ele><time>2026-04-03T13:52:06.901Z</time></trkpt><trkpt lat="47.8378155" lon="7.1515554"><ele>636.0</ele><time>2026-04-03T13:52:07.9Z</time></trkpt><trkpt lat="47.8378091" lon="7.1517322"><ele>636.0</ele><time>2026-04-03T13:52:08.901Z</time></trkpt><trkpt lat="47.8378009" lon="7.1519142"><ele>635.5</ele><time>2026-04-03T13:52:09.9Z</time></trkpt><trkpt lat="47.8377945" lon="7.1521008"><ele>635.0</ele><time>2026-04-03T13:52:10.9Z</time></trkpt><trkpt lat="47.8377983" lon="7.1522866"><ele>634.5</ele><time>2026-04-03T13:52:11.9Z</time></trkpt><trkpt lat="47.837805" lon="7.1524665"><ele>634.0</ele><time>2026-04-03T13:52:12.9Z</time></trkpt><trkpt lat="47.8378241" lon="7.1526397"><ele>634.0</ele><time>2026-04-03T13:52:13.9Z</time></trkpt><trkpt lat="47.8378516" lon="7.1528112"><ele>634.0</ele><time>2026-04-03T13:52:14.901Z</time></trkpt><trkpt lat="47.8378908" lon="7.1530041"><ele>634.0</ele><time>2026-04-03T13:52:15.9Z</time></trkpt><trkpt lat="47.8379442" lon="7.1532189"><ele>634.0</ele><time>2026-04-03T13:52:16.9Z</time></trkpt><trkpt lat="47.8380015" lon="7.1534233"><ele>631.5</ele><time>2026-04-03T13:52:17.902Z</time></trkpt><trkpt lat="47.8380607" lon="7.1536184"><ele>629.0</ele><time>2026-04-03T13:52:18.9Z</time></trkpt><trkpt lat="47.8381213" lon="7.153808"><ele>626.5</ele><time>2026-04-03T13:52:19.901Z</time></trkpt><trkpt lat="47.8381855" lon="7.1539858"><ele>624.0</ele><time>2026-04-03T13:52:20.901Z</time></trkpt><trkpt lat="47.8382545" lon="7.1541517"><ele>620.5</ele><time>2026-04-03T13:52:21.901Z</time></trkpt><trkpt lat="47.8383286" lon="7.1543216"><ele>617.0</ele><time>2026-04-03T13:52:22.9Z</time></trkpt><trkpt lat="47.8383893" lon="7.154501"><ele>613.5</ele><time>2026-04-03T13:52:23.9Z</time></trkpt><trkpt lat="47.8384083" lon="7.1546985"><ele>610.0</ele><time>2026-04-03T13:52:24.9Z</time></trkpt><trkpt lat="47.8384088" lon="7.1549009"><ele>608.0</ele><time>2026-04-03T13:52:25.9Z</time></trkpt><trkpt lat="47.8384016" lon="7.155112"><ele>606.0</ele><time>2026-04-03T13:52:26.901Z</time></trkpt><trkpt lat="47.8383874" lon="7.1553201"><ele>604.0</ele><time>2026-04-03T13:52:27.9Z</time></trkpt><trkpt lat="47.8383698" lon="7.1555214"><ele>602.0</ele><time>2026-04-03T13:52:28.9Z</time></trkpt><trkpt lat="47.8383604" lon="7.1557159"><ele>600.25</ele><time>2026-04-03T13:52:29.9Z</time></trkpt><trkpt lat="47.83836" lon="7.1559056"><ele>598.5</ele><time>2026-04-03T13:52:30.9Z</time></trkpt><trkpt lat="47.8383711" lon="7.1560884"><ele>596.75</ele><time>2026-04-03T13:52:31.901Z</time></trkpt><trkpt lat="47.838398" lon="7.1562599"><ele>595.0</ele><time>2026-04-03T13:52:32.901Z</time></trkpt><trkpt lat="47.8384374" lon="7.1564176"><ele>597.2</ele><time>2026-04-03T13:52:33.9Z</time></trkpt><trkpt lat="47.8384936" lon="7.1565569"><ele>599.4</ele><time>2026-04-03T13:52:34.901Z</time></trkpt><trkpt lat="47.8385703" lon="7.156682"><ele>601.6</ele><time>2026-04-03T13:52:35.901Z</time></trkpt><trkpt lat="47.8386445" lon="7.1567872"><ele>603.8</ele><time>2026-04-03T13:52:36.9Z</time></trkpt><trkpt lat="47.8387158" lon="7.1568806"><ele>606.0</ele><time>2026-04-03T13:52:37.9Z</time></trkpt><trkpt lat="47.8387694" lon="7.1569674"><ele>606.0</ele><time>2026-04-03T13:52:38.9Z</time></trkpt><trkpt lat="47.8388003" lon="7.1570645"><ele>606.0</ele><time>2026-04-03T13:52:39.9Z</time></trkpt><trkpt lat="47.8387956" lon="7.1571615"><ele>606.0</ele><time>2026-04-03T13:52:40.9Z</time></trkpt><trkpt lat="47.8387062" lon="7.1572387"><ele>606.0</ele><time>2026-04-03T13:52:42.9Z</time></trkpt><trkpt lat="47.8386397" lon="7.1572049"><ele>606.0</ele><time>2026-04-03T13:52:43.9Z</time></trkpt><trkpt lat="47.8385705" lon="7.1571197"><ele>606.0</ele><time>2026-04-03T13:52:44.9Z</time></trkpt><trkpt lat="47.8385057" lon="7.1570136"><ele>603.8</ele><time>2026-04-03T13:52:45.9Z</time></trkpt><trkpt lat="47.8384348" lon="7.1569007"><ele>601.6</ele><time>2026-04-03T13:52:46.9Z</time></trkpt><trkpt lat="47.8383583" lon="7.1567949"><ele>599.4</ele><time>2026-04-03T13:52:47.9Z</time></trkpt><trkpt lat="47.8382715" lon="7.1566913"><ele>597.2</ele><time>2026-04-03T13:52:48.901Z</time></trkpt><trkpt lat="47.8381764" lon="7.1565888"><ele>595.0</ele><time>2026-04-03T13:52:49.902Z</time></trkpt><trkpt lat="47.838083" lon="7.1565071"><ele>595.0</ele><time>2026-04-03T13:52:50.9Z</time></trkpt><trkpt lat="47.8379827" lon="7.1564474"><ele>595.0</ele><time>2026-04-03T13:52:51.9Z</time></trkpt><trkpt lat="47.837875" lon="7.1564214"><ele>595.0</ele><time>2026-04-03T13:52:52.901Z</time></trkpt><trkpt lat="47.8377619" lon="7.1564192"><ele>595.0</ele><time>2026-04-03T13:52:53.901Z</time></trkpt><trkpt lat="47.8376433" lon="7.1564496"><ele>593.8</ele><time>2026-04-03T13:52:54.9Z</time></trkpt><trkpt lat="47.8375393" lon="7.1565266"><ele>592.6</ele><time>2026-04-03T13:52:55.9Z</time></trkpt><trkpt lat="47.8374529" lon="7.1566262"><ele>591.4</ele><time>2026-04-03T13:52:56.9Z</time></trkpt><trkpt lat="47.8373851" lon="7.1567388"><ele>590.2</ele><time>2026-04-03T13:52:57.9Z</time></trkpt><trkpt lat="47.8373211" lon="7.1568557"><ele>589.0</ele><time>2026-04-03T13:52:58.9Z</time></trkpt><trkpt lat="47.8372551" lon="7.1569561"><ele>586.25</ele><time>2026-04-03T13:52:59.9Z</time></trkpt><trkpt lat="47.8371543" lon="7.157036"><ele>583.5</ele><time>2026-04-03T13:53:00.9Z</time></trkpt><trkpt lat="47.8370447" lon="7.1570564"><ele>580.75</ele><time>2026-04-03T13:53:01.9Z</time></trkpt><trkpt lat="47.8369356" lon="7.1570265"><ele>578.0</ele><time>2026-04-03T13:53:02.9Z</time></trkpt><trkpt lat="47.8368296" lon="7.156931"><ele>578.3333333333333</ele><time>2026-04-03T13:53:03.9Z</time></trkpt><trkpt lat="47.836737" lon="7.1567829"><ele>578.6666666666666</ele><time>2026-04-03T13:53:04.901Z</time></trkpt><trkpt lat="47.8366461" lon="7.1565854"><ele>579.0</ele><time>2026-04-03T13:53:05.901Z</time></trkpt><trkpt lat="47.8365398" lon="7.1563531"><ele>579.0</ele><time>2026-04-03T13:53:06.9Z</time></trkpt><trkpt lat="47.8364215" lon="7.1561125"><ele>579.0</ele><time>2026-04-03T13:53:07.9Z</time></trkpt><trkpt lat="47.83628" lon="7.1558817"><ele>579.0</ele><time>2026-04-03T13:53:08.901Z</time></trkpt><trkpt lat="47.83614" lon="7.1556735"><ele>580.3333333333334</ele><time>2026-04-03T13:53:09.9Z</time></trkpt><trkpt lat="47.8359897" lon="7.155461"><ele>581.6666666666667</ele><time>2026-04-03T13:53:10.901Z</time></trkpt><trkpt lat="47.8358334" lon="7.1552593"><ele>583.0</ele><time>2026-04-03T13:53:11.901Z</time></trkpt><trkpt lat="47.8356798" lon="7.155076"><ele>577.3333333333334</ele><time>2026-04-03T13:53:12.9Z</time></trkpt><trkpt lat="47.8355259" lon="7.1548828"><ele>571.6666666666666</ele><time>2026-04-03T13:53:13.901Z</time></trkpt><trkpt lat="47.8353848" lon="7.1546912"><ele>566.0</ele><time>2026-04-03T13:53:14.901Z</time></trkpt><trkpt lat="47.835263" lon="7.1544768"><ele>566.0</ele><time>2026-04-03T13:53:15.901Z</time></trkpt><trkpt lat="47.8351593" lon="7.1542503"><ele>566.0</ele><time>2026-04-03T13:53:16.901Z</time></trkpt><trkpt lat="47.8350823" lon="7.1540495"><ele>566.0</ele><time>2026-04-03T13:53:17.901Z</time></trkpt><trkpt lat="47.8350358" lon="7.1538522"><ele>562.4</ele><time>2026-04-03T13:53:18.901Z</time></trkpt><trkpt lat="47.8350044" lon="7.1536724"><ele>558.8</ele><time>2026-04-03T13:53:19.901Z</time></trkpt><trkpt lat="47.8349711" lon="7.1535211"><ele>555.1999999999999</ele><time>2026-04-03T13:53:20.9Z</time></trkpt><trkpt lat="47.8349174" lon="7.1534067"><ele>551.6</ele><time>2026-04-03T13:53:21.9Z</time></trkpt><trkpt lat="47.8348463" lon="7.1533509"><ele>548.0</ele><time>2026-04-03T13:53:22.9Z</time></trkpt><trkpt lat="47.8347603" lon="7.1533698"><ele>548.0</ele><time>2026-04-03T13:53:23.9Z</time></trkpt><trkpt lat="47.8346886" lon="7.1534612"><ele>548.0</ele><time>2026-04-03T13:53:24.9Z</time></trkpt><trkpt lat="47.8346397" lon="7.1536175"><ele>548.0</ele><time>2026-04-03T13:53:25.9Z</time></trkpt><trkpt lat="47.8345744" lon="7.1538294"><ele>548.0</ele><time>2026-04-03T13:53:26.9Z</time></trkpt><trkpt lat="47.8344756" lon="7.1540758"><ele>549.0</ele><time>2026-04-03T13:53:27.9Z</time></trkpt><trkpt lat="47.8343573" lon="7.1543548"><ele>550.0</ele><time>2026-04-03T13:53:28.901Z</time></trkpt><trkpt lat="47.8342268" lon="7.1546707"><ele>545.5</ele><time>2026-04-03T13:53:29.901Z</time></trkpt><trkpt lat="47.8340972" lon="7.1549854"><ele>541.0</ele><time>2026-04-03T13:53:30.9Z</time></trkpt><trkpt lat="47.8339731" lon="7.155283"><ele>541.0</ele><time>2026-04-03T13:53:31.9Z</time></trkpt><trkpt lat="47.8338372" lon="7.155606"><ele>541.0</ele><time>2026-04-03T13:53:32.901Z</time></trkpt><trkpt lat="47.8337084" lon="7.1559075"><ele>540.5</ele><time>2026-04-03T13:53:33.901Z</time></trkpt><trkpt lat="47.8335698" lon="7.1562256"><ele>540.0</ele><time>2026-04-03T13:53:34.9Z</time></trkpt><trkpt lat="47.833433" lon="7.1565433"><ele>533.5</ele><time>2026-04-03T13:53:35.901Z</time></trkpt><trkpt lat="47.8333013" lon="7.1568553"><ele>527.0</ele><time>2026-04-03T13:53:36.901Z</time></trkpt><trkpt lat="47.8331763" lon="7.1571502"><ele>527.0</ele><time>2026-04-03T13:53:37.901Z</time></trkpt><trkpt lat="47.8330494" lon="7.1574353"><ele>527.0</ele><time>2026-04-03T13:53:38.901Z</time></trkpt><trkpt lat="47.8329001" lon="7.1577147"><ele>527.0</ele><time>2026-04-03T13:53:39.9Z</time></trkpt><trkpt lat="47.8327284" lon="7.1579955"><ele>527.0</ele><time>2026-04-03T13:53:40.901Z</time></trkpt><trkpt lat="47.8325501" lon="7.158276"><ele>523.0</ele><time>2026-04-03T13:53:41.9Z</time></trkpt><trkpt lat="47.8323816" lon="7.1585342"><ele>519.0</ele><time>2026-04-03T13:53:42.9Z</time></trkpt><trkpt lat="47.832217" lon="7.158784"><ele>519.0</ele><time>2026-04-03T13:53:43.9Z</time></trkpt><trkpt lat="47.8320589" lon="7.1590214"><ele>519.0</ele><time>2026-04-03T13:53:44.9Z</time></trkpt><trkpt lat="47.8319071" lon="7.1592492"><ele>519.0</ele><time>2026-04-03T13:53:45.9Z</time></trkpt><trkpt lat="47.8317589" lon="7.1594705"><ele>517.3333333333334</ele><time>2026-04-03T13:53:46.9Z</time></trkpt><trkpt lat="47.8316182" lon="7.1596795"><ele>515.6666666666667</ele><time>2026-04-03T13:53:47.9Z</time></trkpt><trkpt lat="47.831482" lon="7.1598803"><ele>514.0</ele><time>2026-04-03T13:53:48.9Z</time></trkpt><trkpt lat="47.8313506" lon="7.1600743"><ele>514.0</ele><time>2026-04-03T13:53:49.901Z</time></trkpt><trkpt lat="47.8312238" lon="7.1602609"><ele>514.0</ele><time>2026-04-03T13:53:50.901Z</time></trkpt><trkpt lat="47.8310954" lon="7.1604533"><ele>514.0</ele><time>2026-04-03T13:53:51.901Z</time></trkpt><trkpt lat="47.8309587" lon="7.1606566"><ele>510.6666666666667</ele><time>2026-04-03T13:53:52.9Z</time></trkpt><trkpt lat="47.8308147" lon="7.1608751"><ele>507.33333333333337</ele><time>2026-04-03T13:53:53.9Z</time></trkpt><trkpt lat="47.8306777" lon="7.1610874"><ele>504.0</ele><time>2026-04-03T13:53:54.901Z</time></trkpt><trkpt lat="47.830539" lon="7.1612925"><ele>504.0</ele><time>2026-04-03T13:53:55.9Z</time></trkpt><trkpt lat="47.8303974" lon="7.1615046"><ele>504.0</ele><time>2026-04-03T13:53:56.9Z</time></trkpt><trkpt lat="47.8302573" lon="7.1617193"><ele>504.0</ele><time>2026-04-03T13:53:57.9Z</time></trkpt><trkpt lat="47.8301197" lon="7.1619299"><ele>500.0</ele><time>2026-04-03T13:53:58.9Z</time></trkpt><trkpt lat="47.8299891" lon="7.1621369"><ele>496.0</ele><time>2026-04-03T13:53:59.9Z</time></trkpt><trkpt lat="47.8298678" lon="7.1623432"><ele>492.0</ele><time>2026-04-03T13:54:00.901Z</time></trkpt><trkpt lat="47.8297587" lon="7.1625438"><ele>491.25</ele><time>2026-04-03T13:54:01.9Z</time></trkpt><trkpt lat="47.8296604" lon="7.1627381"><ele>490.5</ele><time>2026-04-03T13:54:02.901Z</time></trkpt><trkpt lat="47.8295767" lon="7.1628919"><ele>489.75</ele><time>2026-04-03T13:54:03.9Z</time></trkpt><trkpt lat="47.829497" lon="7.1630178"><ele>489.0</ele><time>2026-04-03T13:54:04.9Z</time></trkpt><trkpt lat="47.8294004" lon="7.1630867"><ele>486.0</ele><time>2026-04-03T13:54:05.901Z</time></trkpt><trkpt lat="47.8292909" lon="7.1630847"><ele>483.0</ele><time>2026-04-03T13:54:06.901Z</time></trkpt><trkpt lat="47.8291875" lon="7.1630118"><ele>480.0</ele><time>2026-04-03T13:54:07.9Z</time></trkpt><trkpt lat="47.8291035" lon="7.162859"><ele>477.0</ele><time>2026-04-03T13:54:08.9Z</time></trkpt><trkpt lat="47.8290553" lon="7.1626422"><ele>477.0</ele><time>2026-04-03T13:54:09.901Z</time></trkpt><trkpt lat="47.8290235" lon="7.1623697"><ele>477.0</ele><time>2026-04-03T13:54:10.9Z</time></trkpt><trkpt lat="47.8289457" lon="7.1621095"><ele>477.0</ele><time>2026-04-03T13:54:11.9Z</time></trkpt><trkpt lat="47.8288458" lon="7.1618561"><ele>477.0</ele><time>2026-04-03T13:54:12.9Z</time></trkpt><trkpt lat="47.8287649" lon="7.1616165"><ele>477.0</ele><time>2026-04-03T13:54:13.901Z</time></trkpt><trkpt lat="47.8287105" lon="7.1613702"><ele>477.0</ele><time>2026-04-03T13:54:14.9Z</time></trkpt><trkpt lat="47.8286906" lon="7.161125"><ele>475.66666666666663</ele><time>2026-04-03T13:54:15.901Z</time></trkpt><trkpt lat="47.8287043" lon="7.1608655"><ele>474.3333333333333</ele><time>2026-04-03T13:54:16.9Z</time></trkpt><trkpt lat="47.8287444" lon="7.160596"><ele>473.0</ele><time>2026-04-03T13:54:17.9Z</time></trkpt><trkpt lat="47.8287907" lon="7.1603483"><ele>471.66666666666663</ele><time>2026-04-03T13:54:18.901Z</time></trkpt><trkpt lat="47.8288248" lon="7.1600705"><ele>470.33333333333337</ele><time>2026-04-03T13:54:19.9Z</time></trkpt><trkpt lat="47.8288312" lon="7.1597835"><ele>469.0</ele><time>2026-04-03T13:54:20.901Z</time></trkpt><trkpt lat="47.8288328" lon="7.1595162"><ele>467.33333333333337</ele><time>2026-04-03T13:54:21.901Z</time></trkpt><trkpt lat="47.8288326" lon="7.1592567"><ele>465.66666666666663</ele><time>2026-04-03T13:54:22.9Z</time></trkpt><trkpt lat="47.8288336" lon="7.1590287"><ele>464.0</ele><time>2026-04-03T13:54:23.9Z</time></trkpt><trkpt lat="47.8288321" lon="7.1588296"><ele>464.0</ele><time>2026-04-03T13:54:24.9Z</time></trkpt><trkpt lat="47.8288175" lon="7.158666"><ele>464.0</ele><time>2026-04-03T13:54:25.901Z</time></trkpt><trkpt lat="47.8287615" lon="7.1585396"><ele>464.0</ele><time>2026-04-03T13:54:26.9Z</time></trkpt><trkpt lat="47.8286702" lon="7.1584661"><ele>464.0</ele><time>2026-04-03T13:54:27.9Z</time></trkpt><trkpt lat="47.8285798" lon="7.1583909"><ele>464.0</ele><time>2026-04-03T13:54:28.9Z</time></trkpt><trkpt lat="47.8284775" lon="7.1583866"><ele>462.0</ele><time>2026-04-03T13:54:29.9Z</time></trkpt><trkpt lat="47.8283354" lon="7.1584138"><ele>460.0</ele><time>2026-04-03T13:54:30.9Z</time></trkpt><trkpt lat="47.8281661" lon="7.1584984"><ele>458.0</ele><time>2026-04-03T13:54:31.9Z</time></trkpt><trkpt lat="47.8279363" lon="7.1586403"><ele>458.0</ele><time>2026-04-03T13:54:32.902Z</time></trkpt><trkpt lat="47.8276025" lon="7.1589309"><ele>458.0</ele><time>2026-04-03T13:54:33.9Z</time></trkpt><trkpt lat="47.8273368" lon="7.1591583"><ele>450.5</ele><time>2026-04-03T13:54:34.9Z</time></trkpt><trkpt lat="47.8270779" lon="7.1594084"><ele>443.0</ele><time>2026-04-03T13:54:35.9Z</time></trkpt><trkpt lat="47.8268504" lon="7.1596165"><ele>443.5</ele><time>2026-04-03T13:54:36.9Z</time></trkpt><trkpt lat="47.8266242" lon="7.1597948"><ele>444.0</ele><time>2026-04-03T13:54:37.9Z</time></trkpt><trkpt lat="47.82643" lon="7.1599237"><ele>440.0</ele><time>2026-04-03T13:54:38.901Z</time></trkpt><trkpt lat="47.8262668" lon="7.1600386"><ele>436.0</ele><time>2026-04-03T13:54:39.901Z</time></trkpt><trkpt lat="47.8261288" lon="7.1601381"><ele>432.0</ele><time>2026-04-03T13:54:40.901Z</time></trkpt><trkpt lat="47.8259938" lon="7.1602289"><ele>430.75</ele><time>2026-04-03T13:54:41.901Z</time></trkpt><trkpt lat="47.8258715" lon="7.1602977"><ele>429.5</ele><time>2026-04-03T13:54:42.901Z</time></trkpt><trkpt lat="47.8257618" lon="7.1603385"><ele>428.25</ele><time>2026-04-03T13:54:43.9Z</time></trkpt><trkpt lat="47.8256536" lon="7.1603058"><ele>427.0</ele><time>2026-04-03T13:54:44.901Z</time></trkpt><trkpt lat="47.8255685" lon="7.1602211"><ele>427.0</ele><time>2026-04-03T13:54:45.901Z</time></trkpt><trkpt lat="47.8255435" lon="7.1600842"><ele>427.0</ele><time>2026-04-03T13:54:46.901Z</time></trkpt><trkpt lat="47.8255419" lon="7.1599054"><ele>427.0</ele><time>2026-04-03T13:54:47.901Z</time></trkpt><trkpt lat="47.8255596" lon="7.1596788"><ele>427.0</ele><time>2026-04-03T13:54:48.901Z</time></trkpt><trkpt lat="47.8255825" lon="7.1594077"><ele>426.0</ele><time>2026-04-03T13:54:49.9Z</time></trkpt><trkpt lat="47.8256097" lon="7.1591155"><ele>425.0</ele><time>2026-04-03T13:54:50.901Z</time></trkpt><trkpt lat="47.8256338" lon="7.1588575"><ele>424.0</ele><time>2026-04-03T13:54:51.901Z</time></trkpt><trkpt lat="47.8256586" lon="7.1586052"><ele>423.6666666666667</ele><time>2026-04-03T13:54:52.9Z</time></trkpt><trkpt lat="47.8256724" lon="7.158367"><ele>423.33333333333337</ele><time>2026-04-03T13:54:53.9Z</time></trkpt><trkpt lat="47.8256672" lon="7.1581151"><ele>423.0</ele><time>2026-04-03T13:54:54.9Z</time></trkpt><trkpt lat="47.8256535" lon="7.1578295"><ele>421.33333333333337</ele><time>2026-04-03T13:54:55.9Z</time></trkpt><trkpt lat="47.8256408" lon="7.1575528"><ele>419.6666666666667</ele><time>2026-04-03T13:54:56.901Z</time></trkpt><trkpt lat="47.8256313" lon="7.1572922"><ele>418.0</ele><time>2026-04-03T13:54:57.901Z</time></trkpt><trkpt lat="47.825618" lon="7.157037"><ele>417.0</ele><time>2026-04-03T13:54:58.901Z</time></trkpt><trkpt lat="47.8256101" lon="7.1567995"><ele>416.0</ele><time>2026-04-03T13:54:59.9Z</time></trkpt><trkpt lat="47.8256089" lon="7.1565738"><ele>415.0</ele><time>2026-04-03T13:55:00.901Z</time></trkpt><trkpt lat="47.8256063" lon="7.1563802"><ele>414.0</ele><time>2026-04-03T13:55:01.9Z</time></trkpt><trkpt lat="47.8256002" lon="7.1562096"><ele>413.8333333333333</ele><time>2026-04-03T13:55:02.9Z</time></trkpt><trkpt lat="47.8255777" lon="7.1560735"><ele>413.66666666666663</ele><time>2026-04-03T13:55:03.9Z</time></trkpt><trkpt lat="47.825523" lon="7.1559769"><ele>413.5</ele><time>2026-04-03T13:55:04.9Z</time></trkpt><trkpt lat="47.8254471" lon="7.1559549"><ele>413.3333333333333</ele><time>2026-04-03T13:55:05.9Z</time></trkpt><trkpt lat="47.825375" lon="7.1560095"><ele>413.16666666666663</ele><time>2026-04-03T13:55:06.9Z</time></trkpt><trkpt lat="47.8253276" lon="7.15614"><ele>413.0</ele><time>2026-04-03T13:55:07.901Z</time></trkpt><trkpt lat="47.8253102" lon="7.1563311"><ele>413.3333333333333</ele><time>2026-04-03T13:55:08.901Z</time></trkpt><trkpt lat="47.8252894" lon="7.1565714"><ele>413.66666666666663</ele><time>2026-04-03T13:55:09.9Z</time></trkpt><trkpt lat="47.8252374" lon="7.1568559"><ele>414.0</ele><time>2026-04-03T13:55:10.9Z</time></trkpt><trkpt lat="47.8251653" lon="7.157156"><ele>404.5</ele><time>2026-04-03T13:55:11.902Z</time></trkpt><trkpt lat="47.8250695" lon="7.1574941"><ele>395.0</ele><time>2026-04-03T13:55:12.901Z</time></trkpt><trkpt lat="47.8249565" lon="7.1578538"><ele>395.0</ele><time>2026-04-03T13:55:13.9Z</time></trkpt><trkpt lat="47.824835" lon="7.158187"><ele>395.0</ele><time>2026-04-03T13:55:14.9Z</time></trkpt><trkpt lat="47.824718" lon="7.158506"><ele>394.5</ele><time>2026-04-03T13:55:15.901Z</time></trkpt><trkpt lat="47.8246117" lon="7.1588175"><ele>394.0</ele><time>2026-04-03T13:55:16.901Z</time></trkpt><trkpt lat="47.8245167" lon="7.159118"><ele>394.0</ele><time>2026-04-03T13:55:17.902Z</time></trkpt><trkpt lat="47.8244278" lon="7.1594046"><ele>394.0</ele><time>2026-04-03T13:55:18.9Z</time></trkpt><trkpt lat="47.8243499" lon="7.1596874"><ele>394.0</ele><time>2026-04-03T13:55:19.901Z</time></trkpt><trkpt lat="47.8242786" lon="7.1599769"><ele>388.6666666666667</ele><time>2026-04-03T13:55:20.9Z</time></trkpt><trkpt lat="47.8242157" lon="7.1602728"><ele>383.33333333333337</ele><time>2026-04-03T13:55:21.901Z</time></trkpt><trkpt lat="47.824151" lon="7.1605994"><ele>378.0</ele><time>2026-04-03T13:55:22.9Z</time></trkpt><trkpt lat="47.8240817" lon="7.1609505"><ele>377.5</ele><time>2026-04-03T13:55:23.901Z</time></trkpt><trkpt lat="47.8240074" lon="7.161333"><ele>377.0</ele><time>2026-04-03T13:55:24.902Z</time></trkpt><trkpt lat="47.8239365" lon="7.1617006"><ele>376.5</ele><time>2026-04-03T13:55:25.9Z</time></trkpt><trkpt lat="47.8238669" lon="7.1620512"><ele>376.0</ele><time>2026-04-03T13:55:26.9Z</time></trkpt><trkpt lat="47.823803" lon="7.1623888"><ele>374.66666666666663</ele><time>2026-04-03T13:55:27.901Z</time></trkpt><trkpt lat="47.8237456" lon="7.1627118"><ele>373.3333333333333</ele><time>2026-04-03T13:55:28.9Z</time></trkpt><trkpt lat="47.8236906" lon="7.1630201"><ele>372.0</ele><time>2026-04-03T13:55:29.9Z</time></trkpt><trkpt lat="47.8236304" lon="7.1633186"><ele>370.6666666666667</ele><time>2026-04-03T13:55:30.901Z</time></trkpt><trkpt lat="47.8235647" lon="7.1636474"><ele>369.33333333333337</ele><time>2026-04-03T13:55:31.901Z</time></trkpt><trkpt lat="47.8235052" lon="7.1639533"><ele>368.0</ele><time>2026-04-03T13:55:32.9Z</time></trkpt><trkpt lat="47.823447" lon="7.1642464"><ele>364.6666666666667</ele><time>2026-04-03T13:55:33.9Z</time></trkpt><trkpt lat="47.8233897" lon="7.1645279"><ele>361.3333333333333</ele><time>2026-04-03T13:55:34.9Z</time></trkpt><trkpt lat="47.8233347" lon="7.1647945"><ele>358.0</ele><time>2026-04-03T13:55:35.901Z</time></trkpt><trkpt lat="47.8232861" lon="7.165053"><ele>357.66666666666663</ele><time>2026-04-03T13:55:36.901Z</time></trkpt><trkpt lat="47.8232339" lon="7.1653048"><ele>357.3333333333333</ele><time>2026-04-03T13:55:37.901Z</time></trkpt><trkpt lat="47.8231841" lon="7.1655663"><ele>357.0</ele><time>2026-04-03T13:55:38.9Z</time></trkpt><trkpt lat="47.8231299" lon="7.1658343"><ele>356.0</ele><time>2026-04-03T13:55:39.9Z</time></trkpt><trkpt lat="47.8230781" lon="7.1660975"><ele>355.0</ele><time>2026-04-03T13:55:40.901Z</time></trkpt><trkpt lat="47.8230297" lon="7.1663518"><ele>354.0</ele><time>2026-04-03T13:55:41.9Z</time></trkpt><trkpt lat="47.8229839" lon="7.1665962"><ele>354.0</ele><time>2026-04-03T13:55:42.9Z</time></trkpt><trkpt lat="47.8229484" lon="7.1668375"><ele>354.0</ele><time>2026-04-03T13:55:43.9Z</time></trkpt><trkpt lat="47.8229206" lon="7.1670653"><ele>354.0</ele><time>2026-04-03T13:55:44.901Z</time></trkpt><trkpt lat="47.8228936" lon="7.1672878"><ele>354.0</ele><time>2026-04-03T13:55:45.9Z</time></trkpt><trkpt lat="47.8228681" lon="7.1675013"><ele>354.0</ele><time>2026-04-03T13:55:46.9Z</time></trkpt><trkpt lat="47.8228501" lon="7.1677075"><ele>354.0</ele><time>2026-04-03T13:55:47.901Z</time></trkpt><trkpt lat="47.8228288" lon="7.1679019"><ele>354.0</ele><time>2026-04-03T13:55:48.9Z</time></trkpt><trkpt lat="47.8228066" lon="7.1680869"><ele>354.0</ele><time>2026-04-03T13:55:49.902Z</time></trkpt><trkpt lat="47.8227837" lon="7.1682735"><ele>354.0</ele><time>2026-04-03T13:55:50.901Z</time></trkpt><trkpt lat="47.8227616" lon="7.1684443"><ele>354.0</ele><time>2026-04-03T13:55:51.9Z</time></trkpt><trkpt lat="47.8227426" lon="7.1686116"><ele>354.0</ele><time>2026-04-03T13:55:52.9Z</time></trkpt><trkpt lat="47.822725" lon="7.1687719"><ele>354.0</ele><time>2026-04-03T13:55:53.901Z</time></trkpt><trkpt lat="47.8227114" lon="7.1689266"><ele>354.0</ele><time>2026-04-03T13:55:54.9Z</time></trkpt><trkpt lat="47.822698" lon="7.1690885"><ele>354.0</ele><time>2026-04-03T13:55:55.901Z</time></trkpt><trkpt lat="47.8226839" lon="7.169233"><ele>354.0</ele><time>2026-04-03T13:55:56.902Z</time></trkpt><trkpt lat="47.8226698" lon="7.1693682"><ele>354.0</ele><time>2026-04-03T13:55:57.901Z</time></trkpt><trkpt lat="47.8226545" lon="7.1694992"><ele>350.79999999999995</ele><time>2026-04-03T13:55:58.901Z</time></trkpt><trkpt lat="47.8226411" lon="7.1696474"><ele>347.59999999999997</ele><time>2026-04-03T13:55:59.9Z</time></trkpt><trkpt lat="47.8226229" lon="7.169796"><ele>344.4</ele><time>2026-04-03T13:56:00.901Z</time></trkpt><trkpt lat="47.8226034" lon="7.1699475"><ele>341.2</ele><time>2026-04-03T13:56:01.901Z</time></trkpt><trkpt lat="47.8225831" lon="7.1701048"><ele>338.0</ele><time>2026-04-03T13:56:02.902Z</time></trkpt><trkpt lat="47.8225609" lon="7.1702546"><ele>338.0</ele><time>2026-04-03T13:56:03.9Z</time></trkpt><trkpt lat="47.8225347" lon="7.1703943"><ele>338.0</ele><time>2026-04-03T13:56:04.901Z</time></trkpt><trkpt lat="47.8225038" lon="7.1705224"><ele>338.0</ele><time>2026-04-03T13:56:05.9Z</time></trkpt><trkpt lat="47.8224722" lon="7.1706433"><ele>338.0</ele><time>2026-04-03T13:56:06.901Z</time></trkpt><trkpt lat="47.8224384" lon="7.1707566"><ele>338.0</ele><time>2026-04-03T13:56:07.901Z</time></trkpt><trkpt lat="47.8224022" lon="7.1708806"><ele>337.2</ele><time>2026-04-03T13:56:08.901Z</time></trkpt><trkpt lat="47.8223609" lon="7.1709919"><ele>336.4</ele><time>2026-04-03T13:56:09.9Z</time></trkpt><trkpt lat="47.8223183" lon="7.1711147"><ele>335.59999999999997</ele><time>2026-04-03T13:56:10.9Z</time></trkpt><trkpt lat="47.8222723" lon="7.1712404"><ele>334.79999999999995</ele><time>2026-04-03T13:56:11.901Z</time></trkpt><trkpt lat="47.8222257" lon="7.1713585"><ele>334.0</ele><time>2026-04-03T13:56:12.9Z</time></trkpt><trkpt lat="47.8221758" lon="7.171476"><ele>333.2</ele><time>2026-04-03T13:56:13.9Z</time></trkpt><trkpt lat="47.8221182" lon="7.1715972"><ele>332.4</ele><time>2026-04-03T13:56:14.9Z</time></trkpt><trkpt lat="47.8220523" lon="7.1717182"><ele>331.6</ele><time>2026-04-03T13:56:15.9Z</time></trkpt><trkpt lat="47.8219787" lon="7.1718279"><ele>330.8</ele><time>2026-04-03T13:56:16.901Z</time></trkpt><trkpt lat="47.8219041" lon="7.1719395"><ele>330.0</ele><time>2026-04-03T13:56:17.901Z</time></trkpt><trkpt lat="47.8218311" lon="7.1720474"><ele>329.4</ele><time>2026-04-03T13:56:18.9Z</time></trkpt><trkpt lat="47.8217639" lon="7.1721501"><ele>328.8</ele><time>2026-04-03T13:56:19.901Z</time></trkpt><trkpt lat="47.8217037" lon="7.1722502"><ele>328.20000000000005</ele><time>2026-04-03T13:56:20.901Z</time></trkpt><trkpt lat="47.8216506" lon="7.1723646"><ele>327.6</ele><time>2026-04-03T13:56:21.901Z</time></trkpt><trkpt lat="47.8216032" lon="7.1724956"><ele>327.0</ele><time>2026-04-03T13:56:22.901Z</time></trkpt><trkpt lat="47.8215534" lon="7.1726356"><ele>326.6</ele><time>2026-04-03T13:56:23.901Z</time></trkpt><trkpt lat="47.821504" lon="7.1727739"><ele>326.20000000000005</ele><time>2026-04-03T13:56:24.901Z</time></trkpt><trkpt lat="47.8214553" lon="7.1729212"><ele>325.8</ele><time>2026-04-03T13:56:25.902Z</time></trkpt><trkpt lat="47.8214134" lon="7.1730508"><ele>325.4</ele><time>2026-04-03T13:56:26.9Z</time></trkpt><trkpt lat="47.8213752" lon="7.1731846"><ele>325.0</ele><time>2026-04-03T13:56:27.9Z</time></trkpt><trkpt lat="47.8213377" lon="7.1733213"><ele>324.8</ele><time>2026-04-03T13:56:28.9Z</time></trkpt><trkpt lat="47.8212971" lon="7.1734566"><ele>324.6</ele><time>2026-04-03T13:56:29.901Z</time></trkpt><trkpt lat="47.8212581" lon="7.1735932"><ele>324.4</ele><time>2026-04-03T13:56:30.9Z</time></trkpt><trkpt lat="47.8212255" lon="7.1737308"><ele>324.2</ele><time>2026-04-03T13:56:31.901Z</time></trkpt><trkpt lat="47.8211932" lon="7.1738579"><ele>324.0</ele><time>2026-04-03T13:56:32.901Z</time></trkpt><trkpt lat="47.8211631" lon="7.1739758"><ele>323.4</ele><time>2026-04-03T13:56:33.901Z</time></trkpt><trkpt lat="47.8211331" lon="7.1741078"><ele>322.79999999999995</ele><time>2026-04-03T13:56:34.9Z</time></trkpt><trkpt lat="47.8210944" lon="7.1742415"><ele>322.20000000000005</ele><time>2026-04-03T13:56:35.9Z</time></trkpt><trkpt lat="47.8210652" lon="7.174387"><ele>321.6</ele><time>2026-04-03T13:56:36.9Z</time></trkpt><trkpt lat="47.8210273" lon="7.1745308"><ele>321.0</ele><time>2026-04-03T13:56:37.901Z</time></trkpt><trkpt lat="47.8209835" lon="7.1746689"><ele>321.0</ele><time>2026-04-03T13:56:38.901Z</time></trkpt><trkpt lat="47.8209407" lon="7.1748068"><ele>321.0</ele><time>2026-04-03T13:56:39.9Z</time></trkpt><trkpt lat="47.8208981" lon="7.1749434"><ele>321.0</ele><time>2026-04-03T13:56:40.9Z</time></trkpt><trkpt lat="47.8208657" lon="7.1750848"><ele>321.0</ele><time>2026-04-03T13:56:41.9Z</time></trkpt><trkpt lat="47.820847" lon="7.1752316"><ele>321.0</ele><time>2026-04-03T13:56:42.901Z</time></trkpt><trkpt lat="47.8208413" lon="7.1753797"><ele>320.6</ele><time>2026-04-03T13:56:43.9Z</time></trkpt><trkpt lat="47.8208441" lon="7.1755276"><ele>320.20000000000005</ele><time>2026-04-03T13:56:44.901Z</time></trkpt><trkpt lat="47.8208464" lon="7.1756736"><ele>319.79999999999995</ele><time>2026-04-03T13:56:45.901Z</time></trkpt><trkpt lat="47.820846" lon="7.1758191"><ele>319.4</ele><time>2026-04-03T13:56:46.9Z</time></trkpt><trkpt lat="47.8208366" lon="7.1759628"><ele>319.0</ele><time>2026-04-03T13:56:47.9Z</time></trkpt><trkpt lat="47.8208248" lon="7.1761052"><ele>318.4</ele><time>2026-04-03T13:56:48.9Z</time></trkpt><trkpt lat="47.8208086" lon="7.1762455"><ele>317.79999999999995</ele><time>2026-04-03T13:56:49.901Z</time></trkpt><trkpt lat="47.8207791" lon="7.176378"><ele>317.20000000000005</ele><time>2026-04-03T13:56:50.901Z</time></trkpt><trkpt lat="47.8207388" lon="7.1765032"><ele>316.6</ele><time>2026-04-03T13:56:51.901Z</time></trkpt><trkpt lat="47.8206869" lon="7.1766198"><ele>316.0</ele><time>2026-04-03T13:56:52.901Z</time></trkpt><trkpt lat="47.8206236" lon="7.1767288"><ele>315.6</ele><time>2026-04-03T13:56:53.901Z</time></trkpt><trkpt lat="47.8205513" lon="7.1768295"><ele>315.20000000000005</ele><time>2026-04-03T13:56:54.9Z</time></trkpt><trkpt lat="47.8204763" lon="7.1769239"><ele>314.79999999999995</ele><time>2026-04-03T13:56:55.902Z</time></trkpt><trkpt lat="47.8203991" lon="7.1770182"><ele>314.4</ele><time>2026-04-03T13:56:56.9Z</time></trkpt><trkpt lat="47.8203232" lon="7.1771148"><ele>314.0</ele><time>2026-04-03T13:56:57.901Z</time></trkpt><trkpt lat="47.8202512" lon="7.1772113"><ele>314.0</ele><time>2026-04-03T13:56:58.9Z</time></trkpt><trkpt lat="47.8201786" lon="7.1773028"><ele>314.0</ele><time>2026-04-03T13:56:59.901Z</time></trkpt><trkpt lat="47.8201081" lon="7.1774004"><ele>314.0</ele><time>2026-04-03T13:57:00.9Z</time></trkpt><trkpt lat="47.8200403" lon="7.1775034"><ele>314.0</ele><time>2026-04-03T13:57:01.9Z</time></trkpt><trkpt lat="47.8199718" lon="7.1776138"><ele>314.0</ele><time>2026-04-03T13:57:02.9Z</time></trkpt><trkpt lat="47.8199086" lon="7.1777372"><ele>313.4</ele><time>2026-04-03T13:57:03.902Z</time></trkpt><trkpt lat="47.8198513" lon="7.1778676"><ele>312.79999999999995</ele><time>2026-04-03T13:57:04.9Z</time></trkpt><trkpt lat="47.8197943" lon="7.1780068"><ele>312.20000000000005</ele><time>2026-04-03T13:57:05.9Z</time></trkpt><trkpt lat="47.8197356" lon="7.1781394"><ele>311.6</ele><time>2026-04-03T13:57:06.9Z</time></trkpt><trkpt lat="47.8196815" lon="7.1782778"><ele>311.0</ele><time>2026-04-03T13:57:07.901Z</time></trkpt><trkpt lat="47.8196297" lon="7.1784217"><ele>310.8</ele><time>2026-04-03T13:57:08.9Z</time></trkpt><trkpt lat="47.8195789" lon="7.1785683"><ele>310.6</ele><time>2026-04-03T13:57:09.9Z</time></trkpt><trkpt lat="47.8195322" lon="7.1786979"><ele>310.4</ele><time>2026-04-03T13:57:10.9Z</time></trkpt><trkpt lat="47.8194859" lon="7.1788156"><ele>310.2</ele><time>2026-04-03T13:57:11.901Z</time></trkpt><trkpt lat="47.8194384" lon="7.1789213"><ele>310.0</ele><time>2026-04-03T13:57:12.9Z</time></trkpt><trkpt lat="47.8193927" lon="7.1790143"><ele>309.2</ele><time>2026-04-03T13:57:13.9Z</time></trkpt><trkpt lat="47.819335" lon="7.1791111"><ele>308.4</ele><time>2026-04-03T13:57:14.9Z</time></trkpt><trkpt lat="47.8192673" lon="7.1792144"><ele>307.6</ele><time>2026-04-03T13:57:15.9Z</time></trkpt><trkpt lat="47.8191885" lon="7.1793106"><ele>306.8</ele><time>2026-04-03T13:57:16.9Z</time></trkpt><trkpt lat="47.8191034" lon="7.1793989"><ele>306.0</ele><time>2026-04-03T13:57:17.901Z</time></trkpt><trkpt lat="47.8190207" lon="7.1794896"><ele>305.8</ele><time>2026-04-03T13:57:18.9Z</time></trkpt><trkpt lat="47.8189354" lon="7.1795755"><ele>305.6</ele><time>2026-04-03T13:57:19.9Z</time></trkpt><trkpt lat="47.8188495" lon="7.1796597"><ele>305.4</ele><time>2026-04-03T13:57:20.901Z</time></trkpt><trkpt lat="47.8187645" lon="7.1797373"><ele>305.2</ele><time>2026-04-03T13:57:21.901Z</time></trkpt><trkpt lat="47.8186777" lon="7.1798076"><ele>305.0</ele><time>2026-04-03T13:57:22.901Z</time></trkpt><trkpt lat="47.8185957" lon="7.1798872"><ele>304.6666666666667</ele><time>2026-04-03T13:57:23.9Z</time></trkpt><trkpt lat="47.8185185" lon="7.1799792"><ele>304.33333333333337</ele><time>2026-04-03T13:57:24.901Z</time></trkpt><trkpt lat="47.8184459" lon="7.1800642"><ele>304.0</ele><time>2026-04-03T13:57:25.901Z</time></trkpt><trkpt lat="47.8183731" lon="7.1801495"><ele>303.6666666666667</ele><time>2026-04-03T13:57:26.901Z</time></trkpt><trkpt lat="47.8183075" lon="7.1802269"><ele>303.3333333333333</ele><time>2026-04-03T13:57:27.9Z</time></trkpt><trkpt lat="47.8182483" lon="7.1802936"><ele>303.0</ele><time>2026-04-03T13:57:28.901Z</time></trkpt><trkpt lat="47.8181943" lon="7.1803508"><ele>303.0</ele><time>2026-04-03T13:57:29.901Z</time></trkpt><trkpt lat="47.8181199" lon="7.1804288"><ele>303.0</ele><time>2026-04-03T13:57:31.9Z</time></trkpt><trkpt lat="47.8180974" lon="7.1805265"><ele>303.0</ele><time>2026-04-03T13:57:33.901Z</time></trkpt><trkpt lat="47.8181458" lon="7.1806954"><ele>303.0</ele><time>2026-04-03T13:57:35.9Z</time></trkpt><trkpt lat="47.818185" lon="7.1807885"><ele>303.0</ele><time>2026-04-03T13:57:36.902Z</time></trkpt><trkpt lat="47.8182338" lon="7.1808993"><ele>303.0</ele><time>2026-04-03T13:57:37.9Z</time></trkpt><trkpt lat="47.8182851" lon="7.1810219"><ele>302.5</ele><time>2026-04-03T13:57:38.902Z</time></trkpt><trkpt lat="47.8183375" lon="7.1811615"><ele>302.0</ele><time>2026-04-03T13:57:39.9Z</time></trkpt><trkpt lat="47.8183885" lon="7.181314"><ele>301.5</ele><time>2026-04-03T13:57:40.9Z</time></trkpt><trkpt lat="47.818432" lon="7.1814769"><ele>301.0</ele><time>2026-04-03T13:57:41.901Z</time></trkpt><trkpt lat="47.8184736" lon="7.1816289"><ele>301.0</ele><time>2026-04-03T13:57:42.9Z</time></trkpt><trkpt lat="47.8185145" lon="7.1817653"><ele>301.0</ele><time>2026-04-03T13:57:43.9Z</time></trkpt><trkpt lat="47.8185561" lon="7.18189"><ele>301.0</ele><time>2026-04-03T13:57:44.901Z</time></trkpt><trkpt lat="47.8185923" lon="7.182016"><ele>301.0</ele><time>2026-04-03T13:57:45.901Z</time></trkpt><trkpt lat="47.8186419" lon="7.1821461"><ele>301.0</ele><time>2026-04-03T13:57:46.9Z</time></trkpt><trkpt lat="47.8186958" lon="7.1822713"><ele>300.6</ele><time>2026-04-03T13:57:47.9Z</time></trkpt><trkpt lat="47.8187385" lon="7.1823881"><ele>300.20000000000005</ele><time>2026-04-03T13:57:48.901Z</time></trkpt><trkpt lat="47.8187659" lon="7.1825294"><ele>299.79999999999995</ele><time>2026-04-03T13:57:49.901Z</time></trkpt><trkpt lat="47.8187793" lon="7.1826811"><ele>299.4</ele><time>2026-04-03T13:57:50.902Z</time></trkpt><trkpt lat="47.8187863" lon="7.1828516"><ele>299.0</ele><time>2026-04-03T13:57:51.901Z</time></trkpt><trkpt lat="47.8187895" lon="7.1830355"><ele>298.2</ele><time>2026-04-03T13:57:52.901Z</time></trkpt><trkpt lat="47.8187968" lon="7.1832163"><ele>297.4</ele><time>2026-04-03T13:57:53.9Z</time></trkpt><trkpt lat="47.8188029" lon="7.1833809"><ele>296.6</ele><time>2026-04-03T13:57:54.9Z</time></trkpt><trkpt lat="47.8188084" lon="7.1835412"><ele>295.8</ele><time>2026-04-03T13:57:55.9Z</time></trkpt><trkpt lat="47.8188107" lon="7.1837022"><ele>295.0</ele><time>2026-04-03T13:57:56.901Z</time></trkpt><trkpt lat="47.8188132" lon="7.1838609"><ele>295.0</ele><time>2026-04-03T13:57:57.9Z</time></trkpt><trkpt lat="47.8188193" lon="7.184017"><ele>295.0</ele><time>2026-04-03T13:57:58.901Z</time></trkpt><trkpt lat="47.8188255" lon="7.1841701"><ele>295.0</ele><time>2026-04-03T13:57:59.9Z</time></trkpt><trkpt lat="47.8188319" lon="7.1843188"><ele>295.0</ele><time>2026-04-03T13:58:00.9Z</time></trkpt><trkpt lat="47.8188381" lon="7.1844576"><ele>295.0</ele><time>2026-04-03T13:58:01.9Z</time></trkpt><trkpt lat="47.818849" lon="7.1845797"><ele>295.0</ele><time>2026-04-03T13:58:02.9Z</time></trkpt><trkpt lat="47.8188514" lon="7.1846776"><ele>295.0</ele><time>2026-04-03T13:58:03.901Z</time></trkpt><trkpt lat="47.8188425" lon="7.1848345"><ele>295.0</ele><time>2026-04-03T13:58:05.9Z</time></trkpt><trkpt lat="47.8188356" lon="7.1849569"><ele>295.0</ele><time>2026-04-03T13:58:07.9Z</time></trkpt><trkpt lat="47.8188135" lon="7.1851429"><ele>295.0</ele><time>2026-04-03T13:58:09.9Z</time></trkpt><trkpt lat="47.818802" lon="7.1852445"><ele>294.5</ele><time>2026-04-03T13:58:10.901Z</time></trkpt><trkpt lat="47.8187937" lon="7.1853828"><ele>294.0</ele><time>2026-04-03T13:58:11.901Z</time></trkpt><trkpt lat="47.8187699" lon="7.1855784"><ele>293.5</ele><time>2026-04-03T13:58:12.9Z</time></trkpt><trkpt lat="47.818748" lon="7.1858201"><ele>293.0</ele><time>2026-04-03T13:58:13.9Z</time></trkpt><trkpt lat="47.8187299" lon="7.1861069"><ele>291.5</ele><time>2026-04-03T13:58:14.9Z</time></trkpt><trkpt lat="47.8187177" lon="7.186434"><ele>290.0</ele><time>2026-04-03T13:58:15.901Z</time></trkpt><trkpt lat="47.8187007" lon="7.186783"><ele>289.5</ele><time>2026-04-03T13:58:16.901Z</time></trkpt><trkpt lat="47.8186842" lon="7.1871671"><ele>289.0</ele><time>2026-04-03T13:58:17.9Z</time></trkpt><trkpt lat="47.8186649" lon="7.1875762"><ele>289.0</ele><time>2026-04-03T13:58:18.901Z</time></trkpt><trkpt lat="47.8186424" lon="7.1879976"><ele>289.0</ele><time>2026-04-03T13:58:19.901Z</time></trkpt><trkpt lat="47.8186228" lon="7.1883911"><ele>288.5</ele><time>2026-04-03T13:58:20.901Z</time></trkpt><trkpt lat="47.8186023" lon="7.1887644"><ele>288.0</ele><time>2026-04-03T13:58:21.901Z</time></trkpt><trkpt lat="47.8185746" lon="7.189117"><ele>287.3333333333333</ele><time>2026-04-03T13:58:22.901Z</time></trkpt><trkpt lat="47.8185379" lon="7.1894453"><ele>286.66666666666663</ele><time>2026-04-03T13:58:23.901Z</time></trkpt><trkpt lat="47.8184984" lon="7.1897529"><ele>286.0</ele><time>2026-04-03T13:58:24.902Z</time></trkpt><trkpt lat="47.8184439" lon="7.1900402"><ele>285.66666666666663</ele><time>2026-04-03T13:58:25.902Z</time></trkpt><trkpt lat="47.8183647" lon="7.1903095"><ele>285.3333333333333</ele><time>2026-04-03T13:58:26.9Z</time></trkpt><trkpt lat="47.818268" lon="7.1905615"><ele>285.0</ele><time>2026-04-03T13:58:27.9Z</time></trkpt><trkpt lat="47.8181537" lon="7.1907881"><ele>285.0</ele><time>2026-04-03T13:58:28.901Z</time></trkpt><trkpt lat="47.8180236" lon="7.1909871"><ele>285.0</ele><time>2026-04-03T13:58:29.901Z</time></trkpt><trkpt lat="47.8178874" lon="7.1911724"><ele>285.0</ele><time>2026-04-03T13:58:30.9Z</time></trkpt><trkpt lat="47.817743" lon="7.1913596"><ele>284.6666666666667</ele><time>2026-04-03T13:58:31.901Z</time></trkpt><trkpt lat="47.8175844" lon="7.1915602"><ele>284.33333333333337</ele><time>2026-04-03T13:58:32.901Z</time></trkpt><trkpt lat="47.8174278" lon="7.1917546"><ele>284.0</ele><time>2026-04-03T13:58:33.901Z</time></trkpt><trkpt lat="47.8172771" lon="7.1919347"><ele>284.0</ele><time>2026-04-03T13:58:34.9Z</time></trkpt><trkpt lat="47.8171371" lon="7.1921108"><ele>284.0</ele><time>2026-04-03T13:58:35.9Z</time></trkpt><trkpt lat="47.8169937" lon="7.1922877"><ele>284.0</ele><time>2026-04-03T13:58:36.9Z</time></trkpt><trkpt lat="47.816845" lon="7.1924461"><ele>283.33333333333337</ele><time>2026-04-03T13:58:37.901Z</time></trkpt><trkpt lat="47.8166844" lon="7.1925862"><ele>282.6666666666667</ele><time>2026-04-03T13:58:38.901Z</time></trkpt><trkpt lat="47.8165021" lon="7.1927186"><ele>282.0</ele><time>2026-04-03T13:58:39.9Z</time></trkpt><trkpt lat="47.8163359" lon="7.1928343"><ele>282.0</ele><time>2026-04-03T13:58:40.9Z</time></trkpt><trkpt lat="47.816176" lon="7.1929409"><ele>282.0</ele><time>2026-04-03T13:58:41.9Z</time></trkpt><trkpt lat="47.8160224" lon="7.1930405"><ele>282.0</ele><time>2026-04-03T13:58:42.901Z</time></trkpt><trkpt lat="47.8158947" lon="7.1931428"><ele>282.25</ele><time>2026-04-03T13:58:43.901Z</time></trkpt><trkpt lat="47.8157915" lon="7.1932571"><ele>282.5</ele><time>2026-04-03T13:58:44.9Z</time></trkpt><trkpt lat="47.8157078" lon="7.1933803"><ele>282.75</ele><time>2026-04-03T13:58:45.9Z</time></trkpt><trkpt lat="47.8156171" lon="7.1934562"><ele>283.0</ele><time>2026-04-03T13:58:46.901Z</time></trkpt><trkpt lat="47.8155098" lon="7.1934877"><ele>283.0</ele><time>2026-04-03T13:58:47.9Z</time></trkpt><trkpt lat="47.8153957" lon="7.1935379"><ele>283.0</ele><time>2026-04-03T13:58:48.9Z</time></trkpt><trkpt lat="47.8153031" lon="7.1936451"><ele>283.0</ele><time>2026-04-03T13:58:49.9Z</time></trkpt><trkpt lat="47.8152333" lon="7.1938025"><ele>283.0</ele><time>2026-04-03T13:58:50.9Z</time></trkpt><trkpt lat="47.8151863" lon="7.193996"><ele>282.75</ele><time>2026-04-03T13:58:51.9Z</time></trkpt><trkpt lat="47.815113" lon="7.1941819"><ele>282.5</ele><time>2026-04-03T13:58:52.9Z</time></trkpt><trkpt lat="47.8150018" lon="7.1943243"><ele>282.25</ele><time>2026-04-03T13:58:53.901Z</time></trkpt><trkpt lat="47.8148842" lon="7.1944597"><ele>282.0</ele><time>2026-04-03T13:58:54.9Z</time></trkpt><trkpt lat="47.8147743" lon="7.1946026"><ele>282.0</ele><time>2026-04-03T13:58:55.9Z</time></trkpt><trkpt lat="47.8146724" lon="7.194748"><ele>282.0</ele><time>2026-04-03T13:58:56.901Z</time></trkpt><trkpt lat="47.8145755" lon="7.1949243"><ele>282.0</ele><time>2026-04-03T13:58:57.9Z</time></trkpt><trkpt lat="47.8144739" lon="7.195118"><ele>282.3333333333333</ele><time>2026-04-03T13:58:58.9Z</time></trkpt><trkpt lat="47.8143654" lon="7.1953279"><ele>282.66666666666663</ele><time>2026-04-03T13:58:59.901Z</time></trkpt><trkpt lat="47.8142671" lon="7.1955144"><ele>283.0</ele><time>2026-04-03T13:59:00.902Z</time></trkpt><trkpt lat="47.8141786" lon="7.1956854"><ele>283.66666666666663</ele><time>2026-04-03T13:59:01.901Z</time></trkpt><trkpt lat="47.8140928" lon="7.1958511"><ele>284.3333333333333</ele><time>2026-04-03T13:59:02.901Z</time></trkpt><trkpt lat="47.8139899" lon="7.1960436"><ele>285.0</ele><time>2026-04-03T13:59:03.901Z</time></trkpt><trkpt lat="47.8138717" lon="7.1962672"><ele>284.6666666666667</ele><time>2026-04-03T13:59:04.901Z</time></trkpt><trkpt lat="47.8137391" lon="7.1965222"><ele>284.33333333333337</ele><time>2026-04-03T13:59:05.901Z</time></trkpt><trkpt lat="47.8136068" lon="7.1967778"><ele>284.0</ele><time>2026-04-03T13:59:06.9Z</time></trkpt><trkpt lat="47.8134809" lon="7.1970204"><ele>284.0</ele><time>2026-04-03T13:59:07.9Z</time></trkpt><trkpt lat="47.8133596" lon="7.1972454"><ele>284.0</ele><time>2026-04-03T13:59:08.9Z</time></trkpt><trkpt lat="47.8132444" lon="7.1974623"><ele>284.0</ele><time>2026-04-03T13:59:09.9Z</time></trkpt><trkpt lat="47.813137" lon="7.1976705"><ele>283.6666666666667</ele><time>2026-04-03T13:59:10.901Z</time></trkpt><trkpt lat="47.8130343" lon="7.1978678"><ele>283.3333333333333</ele><time>2026-04-03T13:59:11.9Z</time></trkpt><trkpt lat="47.8129369" lon="7.1980476"><ele>283.0</ele><time>2026-04-03T13:59:12.9Z</time></trkpt><trkpt lat="47.8128556" lon="7.1982063"><ele>283.25</ele><time>2026-04-03T13:59:13.9Z</time></trkpt><trkpt lat="47.8128163" lon="7.1983804"><ele>283.5</ele><time>2026-04-03T13:59:14.901Z</time></trkpt><trkpt lat="47.8128122" lon="7.1985838"><ele>283.75</ele><time>2026-04-03T13:59:15.902Z</time></trkpt><trkpt lat="47.8128483" lon="7.1988054"><ele>284.0</ele><time>2026-04-03T13:59:16.9Z</time></trkpt><trkpt lat="47.8128944" lon="7.1990582"><ele>284.0</ele><time>2026-04-03T13:59:17.901Z</time></trkpt><trkpt lat="47.8129469" lon="7.1993374"><ele>284.0</ele><time>2026-04-03T13:59:18.901Z</time></trkpt><trkpt lat="47.8130071" lon="7.1996351"><ele>284.0</ele><time>2026-04-03T13:59:19.901Z</time></trkpt><trkpt lat="47.8130721" lon="7.1999578"><ele>283.33333333333337</ele><time>2026-04-03T13:59:20.9Z</time></trkpt><trkpt lat="47.8131306" lon="7.200255"><ele>282.6666666666667</ele><time>2026-04-03T13:59:21.9Z</time></trkpt><trkpt lat="47.8131856" lon="7.2005357"><ele>282.0</ele><time>2026-04-03T13:59:22.9Z</time></trkpt><trkpt lat="47.8132371" lon="7.2008012"><ele>281.3333333333333</ele><time>2026-04-03T13:59:23.9Z</time></trkpt><trkpt lat="47.813286" lon="7.2010482"><ele>280.66666666666663</ele><time>2026-04-03T13:59:24.902Z</time></trkpt><trkpt lat="47.8133318" lon="7.2012802"><ele>280.0</ele><time>2026-04-03T13:59:25.902Z</time></trkpt><trkpt lat="47.8133739" lon="7.2014983"><ele>279.75</ele><time>2026-04-03T13:59:26.901Z</time></trkpt><trkpt lat="47.8134133" lon="7.2017031"><ele>279.5</ele><time>2026-04-03T13:59:27.9Z</time></trkpt><trkpt lat="47.813447" lon="7.2018965"><ele>279.25</ele><time>2026-04-03T13:59:28.9Z</time></trkpt><trkpt lat="47.8134745" lon="7.2020836"><ele>279.0</ele><time>2026-04-03T13:59:29.901Z</time></trkpt><trkpt lat="47.8134882" lon="7.2022564"><ele>279.0</ele><time>2026-04-03T13:59:30.9Z</time></trkpt><trkpt lat="47.8134928" lon="7.2024179"><ele>279.0</ele><time>2026-04-03T13:59:31.9Z</time></trkpt><trkpt lat="47.8134845" lon="7.2025712"><ele>279.0</ele><time>2026-04-03T13:59:32.9Z</time></trkpt><trkpt lat="47.8134737" lon="7.2027361"><ele>279.0</ele><time>2026-04-03T13:59:33.901Z</time></trkpt><trkpt lat="47.8134664" lon="7.2029049"><ele>279.0</ele><time>2026-04-03T13:59:34.901Z</time></trkpt><trkpt lat="47.8134602" lon="7.2030826"><ele>278.59999999999997</ele><time>2026-04-03T13:59:35.9Z</time></trkpt><trkpt lat="47.8134512" lon="7.2032666"><ele>278.2</ele><time>2026-04-03T13:59:36.901Z</time></trkpt><trkpt lat="47.8134422" lon="7.2034369"><ele>277.79999999999995</ele><time>2026-04-03T13:59:37.901Z</time></trkpt><trkpt lat="47.8134366" lon="7.2035935"><ele>277.4</ele><time>2026-04-03T13:59:38.901Z</time></trkpt><trkpt lat="47.8134309" lon="7.2037403"><ele>277.0</ele><time>2026-04-03T13:59:39.9Z</time></trkpt><trkpt lat="47.8134273" lon="7.2038856"><ele>277.0</ele><time>2026-04-03T13:59:40.9Z</time></trkpt><trkpt lat="47.813427" lon="7.2040279"><ele>277.0</ele><time>2026-04-03T13:59:41.9Z</time></trkpt><trkpt lat="47.8134272" lon="7.204162"><ele>277.0</ele><time>2026-04-03T13:59:42.9Z</time></trkpt><trkpt lat="47.8134295" lon="7.2042821"><ele>277.0</ele><time>2026-04-03T13:59:43.901Z</time></trkpt><trkpt lat="47.8134377" lon="7.204396"><ele>277.0</ele><time>2026-04-03T13:59:44.9Z</time></trkpt><trkpt lat="47.8134414" lon="7.2044954"><ele>277.0</ele><time>2026-04-03T13:59:45.9Z</time></trkpt><trkpt lat="47.8134503" lon="7.2046729"><ele>277.0</ele><time>2026-04-03T13:59:47.902Z</time></trkpt><trkpt lat="47.8134631" lon="7.2048229"><ele>277.0</ele><time>2026-04-03T13:59:49.901Z</time></trkpt><trkpt lat="47.813472" lon="7.2049336"><ele>277.0</ele><time>2026-04-03T13:59:51.901Z</time></trkpt><trkpt lat="47.8134745" lon="7.2050318"><ele>277.0</ele><time>2026-04-03T14:01:59.901Z</time></trkpt><trkpt lat="47.8135024" lon="7.2051431"><ele>277.0</ele><time>2026-04-03T14:02:01.9Z</time></trkpt><trkpt lat="47.8135184" lon="7.2052409"><ele>277.0</ele><time>2026-04-03T14:02:02.9Z</time></trkpt><trkpt lat="47.8135354" lon="7.2053624"><ele>276.8</ele><time>2026-04-03T14:02:03.901Z</time></trkpt><trkpt lat="47.8135539" lon="7.2054872"><ele>276.6</ele><time>2026-04-03T14:02:04.9Z</time></trkpt><trkpt lat="47.8135883" lon="7.2056325"><ele>276.40000000000003</ele><time>2026-04-03T14:02:05.901Z</time></trkpt><trkpt lat="47.8136311" lon="7.2057917"><ele>276.2</ele><time>2026-04-03T14:02:06.901Z</time></trkpt><trkpt lat="47.8136844" lon="7.2059722"><ele>276.0</ele><time>2026-04-03T14:02:07.9Z</time></trkpt><trkpt lat="47.8137494" lon="7.2061604"><ele>275.75</ele><time>2026-04-03T14:02:08.9Z</time></trkpt><trkpt lat="47.8138244" lon="7.20635"><ele>275.5</ele><time>2026-04-03T14:02:09.9Z</time></trkpt><trkpt lat="47.8139205" lon="7.2065272"><ele>275.25</ele><time>2026-04-03T14:02:10.9Z</time></trkpt><trkpt lat="47.8140191" lon="7.206681"><ele>275.0</ele><time>2026-04-03T14:02:11.901Z</time></trkpt><trkpt lat="47.8141124" lon="7.2068246"><ele>275.0</ele><time>2026-04-03T14:02:12.901Z</time></trkpt><trkpt lat="47.8141974" lon="7.2069563"><ele>275.0</ele><time>2026-04-03T14:02:13.902Z</time></trkpt><trkpt lat="47.8142594" lon="7.2070741"><ele>275.0</ele><time>2026-04-03T14:02:14.901Z</time></trkpt><trkpt lat="47.8143006" lon="7.2071994"><ele>275.0</ele><time>2026-04-03T14:02:15.901Z</time></trkpt><trkpt lat="47.8143296" lon="7.2073175"><ele>275.0</ele><time>2026-04-03T14:02:16.9Z</time></trkpt><trkpt lat="47.8143544" lon="7.2074283"><ele>275.0</ele><time>2026-04-03T14:02:17.901Z</time></trkpt><trkpt lat="47.8143776" lon="7.2075222"><ele>275.0</ele><time>2026-04-03T14:02:18.9Z</time></trkpt><trkpt lat="47.814464" lon="7.207592"><ele>275.0</ele><time>2026-04-03T14:02:20.901Z</time></trkpt><trkpt lat="47.8145267" lon="7.2075582"><ele>275.0</ele><time>2026-04-03T14:02:22.9Z</time></trkpt><trkpt lat="47.814616" lon="7.2076068"><ele>275.0</ele><time>2026-04-03T14:02:25.9Z</time></trkpt><trkpt lat="47.8147472" lon="7.2076159"><ele>275.0</ele><time>2026-04-03T14:02:27.9Z</time></trkpt><trkpt lat="47.8148242" lon="7.2075975"><ele>275.0</ele><time>2026-04-03T14:02:28.9Z</time></trkpt><trkpt lat="47.8149062" lon="7.2075722"><ele>275.0</ele><time>2026-04-03T14:02:29.9Z</time></trkpt><trkpt lat="47.8149711" lon="7.2075528"><ele>275.0</ele><time>2026-04-03T14:02:30.9Z</time></trkpt><trkpt lat="47.8150633" lon="7.2075275"><ele>275.0</ele><time>2026-04-03T14:02:43.899Z</time></trkpt><trkpt lat="47.8151783" lon="7.2074908"><ele>275.0</ele><time>2026-04-03T14:02:45.899Z</time></trkpt><trkpt lat="47.8152482" lon="7.2074664"><ele>275.0</ele><time>2026-04-03T14:02:46.899Z</time></trkpt><trkpt lat="47.8153257" lon="7.2074458"><ele>275.0</ele><time>2026-04-03T14:02:47.9Z</time></trkpt><trkpt lat="47.8154014" lon="7.2074197"><ele>275.0</ele><time>2026-04-03T14:02:48.899Z</time></trkpt><trkpt lat="47.8154803" lon="7.2073935"><ele>275.0</ele><time>2026-04-03T14:02:49.901Z</time></trkpt><trkpt lat="47.8155624" lon="7.2073664"><ele>275.0</ele><time>2026-04-03T14:02:50.9Z</time></trkpt><trkpt lat="47.8156471" lon="7.2073372"><ele>275.0</ele><time>2026-04-03T14:02:51.901Z</time></trkpt><trkpt lat="47.8157335" lon="7.2073093"><ele>275.0</ele><time>2026-04-03T14:02:52.899Z</time></trkpt><trkpt lat="47.815821" lon="7.2072822"><ele>275.0</ele><time>2026-04-03T14:02:53.899Z</time></trkpt><trkpt lat="47.8158998" lon="7.2072558"><ele>275.0</ele><time>2026-04-03T14:02:54.899Z</time></trkpt><trkpt lat="47.8159785" lon="7.2072268"><ele>275.0</ele><time>2026-04-03T14:02:55.899Z</time></trkpt><trkpt lat="47.8160572" lon="7.2072001"><ele>275.0</ele><time>2026-04-03T14:02:56.899Z</time></trkpt><trkpt lat="47.816133" lon="7.2071758"><ele>275.0</ele><time>2026-04-03T14:02:57.899Z</time></trkpt><trkpt lat="47.8162091" lon="7.2071505"><ele>275.0</ele><time>2026-04-03T14:02:58.9Z</time></trkpt><trkpt lat="47.8162866" lon="7.2071225"><ele>275.0</ele><time>2026-04-03T14:02:59.899Z</time></trkpt><trkpt lat="47.8163643" lon="7.2070966"><ele>275.0</ele><time>2026-04-03T14:03:00.899Z</time></trkpt><trkpt lat="47.8164452" lon="7.2070708"><ele>275.0</ele><time>2026-04-03T14:03:01.9Z</time></trkpt><trkpt lat="47.8165307" lon="7.2070422"><ele>275.0</ele><time>2026-04-03T14:03:02.9Z</time></trkpt><trkpt lat="47.8166144" lon="7.2070167"><ele>275.0</ele><time>2026-04-03T14:03:03.899Z</time></trkpt><trkpt lat="47.8166852" lon="7.2069928"><ele>275.0</ele><time>2026-04-03T14:03:04.899Z</time></trkpt><trkpt lat="47.8167936" lon="7.2069629"><ele>275.0</ele><time>2026-04-03T14:03:06.9Z</time></trkpt><trkpt lat="47.8168608" lon="7.2069101"><ele>275.0</ele><time>2026-04-03T14:03:08.901Z</time></trkpt><trkpt lat="47.8168815" lon="7.2067908"><ele>275.0</ele><time>2026-04-03T14:03:10.899Z</time></trkpt><trkpt lat="47.8168589" lon="7.2066154"><ele>275.0</ele><time>2026-04-03T14:03:12.9Z</time></trkpt><trkpt lat="47.8168396" lon="7.20645"><ele>274.8</ele><time>2026-04-03T14:03:14.899Z</time></trkpt><trkpt lat="47.8168416" lon="7.2062981"><ele>274.6</ele><time>2026-04-03T14:03:16.899Z</time></trkpt><trkpt lat="47.8168665" lon="7.2061913"><ele>274.4</ele><time>2026-04-03T14:03:18.899Z</time></trkpt><trkpt lat="47.816941" lon="7.2061541"><ele>274.2</ele><time>2026-04-03T14:03:20.899Z</time></trkpt><trkpt lat="47.817032" lon="7.2061953"><ele>274.0</ele><time>2026-04-03T14:03:22.9Z</time></trkpt><trkpt lat="47.8171271" lon="7.2062548"><ele>274.0</ele><time>2026-04-03T14:03:24.9Z</time></trkpt><trkpt lat="47.8172308" lon="7.2063168"><ele>274.0</ele><time>2026-04-03T14:03:26.9Z</time></trkpt><trkpt lat="47.8173002" lon="7.206362"><ele>274.0</ele><time>2026-04-03T14:03:27.899Z</time></trkpt><trkpt lat="47.8173788" lon="7.2064079"><ele>274.0</ele><time>2026-04-03T14:03:28.9Z</time></trkpt><trkpt lat="47.8174609" lon="7.2064568"><ele>274.0</ele><time>2026-04-03T14:03:29.899Z</time></trkpt><trkpt lat="47.8175389" lon="7.2065073"><ele>274.0</ele><time>2026-04-03T14:03:30.9Z</time></trkpt><trkpt lat="47.8176164" lon="7.2065579"><ele>274.14285714285717</ele><time>2026-04-03T14:03:31.899Z</time></trkpt><trkpt lat="47.817685" lon="7.2065967"><ele>274.2857142857143</ele><time>2026-04-03T14:03:32.899Z</time></trkpt><trkpt lat="47.8177501" lon="7.2066343"><ele>274.42857142857144</ele><time>2026-04-03T14:03:33.899Z</time></trkpt><trkpt lat="47.8178117" lon="7.2066801"><ele>274.57142857142856</ele><time>2026-04-03T14:03:34.899Z</time></trkpt><trkpt lat="47.8178802" lon="7.2067258"><ele>274.7142857142857</ele><time>2026-04-03T14:03:35.899Z</time></trkpt><trkpt lat="47.8179499" lon="7.2067704"><ele>274.8571428571429</ele><time>2026-04-03T14:03:36.9Z</time></trkpt><trkpt lat="47.8180282" lon="7.2068028"><ele>275.0</ele><time>2026-04-03T14:03:37.9Z</time></trkpt><trkpt lat="47.8181046" lon="7.2068243"><ele>275.0</ele><time>2026-04-03T14:03:38.899Z</time></trkpt><trkpt lat="47.8181831" lon="7.206845"><ele>275.0</ele><time>2026-04-03T14:03:39.9Z</time></trkpt><trkpt lat="47.8182665" lon="7.2068598"><ele>275.0</ele><time>2026-04-03T14:03:40.899Z</time></trkpt><trkpt lat="47.818356" lon="7.2068738"><ele>275.0</ele><time>2026-04-03T14:03:41.899Z</time></trkpt><trkpt lat="47.8184411" lon="7.206896"><ele>275.0</ele><time>2026-04-03T14:03:42.899Z</time></trkpt><trkpt lat="47.8185292" lon="7.2069143"><ele>275.0</ele><time>2026-04-03T14:03:43.899Z</time></trkpt><trkpt lat="47.8186209" lon="7.2069322"><ele>275.1666666666667</ele><time>2026-04-03T14:03:44.899Z</time></trkpt><trkpt lat="47.8187084" lon="7.2069414"><ele>275.33333333333337</ele><time>2026-04-03T14:03:45.899Z</time></trkpt><trkpt lat="47.8187957" lon="7.2069414"><ele>275.5</ele><time>2026-04-03T14:03:46.901Z</time></trkpt><trkpt lat="47.8188829" lon="7.2069444"><ele>275.6666666666667</ele><time>2026-04-03T14:03:47.901Z</time></trkpt><trkpt lat="47.8189722" lon="7.2069368"><ele>275.8333333333333</ele><time>2026-04-03T14:03:48.9Z</time></trkpt><trkpt lat="47.8190593" lon="7.2069323"><ele>276.0</ele><time>2026-04-03T14:03:49.9Z</time></trkpt><trkpt lat="47.8191455" lon="7.2069305"><ele>276.0</ele><time>2026-04-03T14:03:50.899Z</time></trkpt><trkpt lat="47.8192233" lon="7.2069286"><ele>276.0</ele><time>2026-04-03T14:03:51.9Z</time></trkpt><trkpt lat="47.8193143" lon="7.206919"><ele>276.0</ele><time>2026-04-03T14:03:52.899Z</time></trkpt><trkpt lat="47.8194001" lon="7.206917"><ele>276.0</ele><time>2026-04-03T14:03:53.899Z</time></trkpt><trkpt lat="47.8194832" lon="7.2069188"><ele>276.0</ele><time>2026-04-03T14:03:54.9Z</time></trkpt><trkpt lat="47.8195591" lon="7.2069243"><ele>276.0</ele><time>2026-04-03T14:03:55.899Z</time></trkpt><trkpt lat="47.8196304" lon="7.2069341"><ele>275.8333333333333</ele><time>2026-04-03T14:03:56.899Z</time></trkpt><trkpt lat="47.8197049" lon="7.2069465"><ele>275.6666666666667</ele><time>2026-04-03T14:03:57.899Z</time></trkpt><trkpt lat="47.8197888" lon="7.2069683"><ele>275.5</ele><time>2026-04-03T14:03:58.9Z</time></trkpt><trkpt lat="47.8198682" lon="7.2069978"><ele>275.33333333333337</ele><time>2026-04-03T14:03:59.899Z</time></trkpt><trkpt lat="47.8199292" lon="7.2070329"><ele>275.1666666666667</ele><time>2026-04-03T14:04:00.9Z</time></trkpt><trkpt lat="47.8200051" lon="7.2071232"><ele>275.0</ele><time>2026-04-03T14:04:02.901Z</time></trkpt><trkpt lat="47.8200646" lon="7.2072386"><ele>274.83333333333337</ele><time>2026-04-03T14:04:04.899Z</time></trkpt><trkpt lat="47.8201256" lon="7.2073848"><ele>274.6666666666667</ele><time>2026-04-03T14:04:06.9Z</time></trkpt><trkpt lat="47.8201914" lon="7.2075323"><ele>274.5</ele><time>2026-04-03T14:04:08.899Z</time></trkpt><trkpt lat="47.8202255" lon="7.2076166"><ele>274.3333333333333</ele><time>2026-04-03T14:04:09.899Z</time></trkpt><trkpt lat="47.8202515" lon="7.207711"><ele>274.16666666666663</ele><time>2026-04-03T14:04:10.9Z</time></trkpt><trkpt lat="47.8202742" lon="7.2078095"><ele>274.0</ele><time>2026-04-03T14:04:11.899Z</time></trkpt><trkpt lat="47.8203001" lon="7.2079123"><ele>274.0</ele><time>2026-04-03T14:04:12.899Z</time></trkpt><trkpt lat="47.8203211" lon="7.2080175"><ele>274.0</ele><time>2026-04-03T14:04:13.899Z</time></trkpt><trkpt lat="47.8203428" lon="7.2081219"><ele>274.0</ele><time>2026-04-03T14:04:14.9Z</time></trkpt><trkpt lat="47.8203682" lon="7.2082326"><ele>274.0</ele><time>2026-04-03T14:04:15.9Z</time></trkpt><trkpt lat="47.8203926" lon="7.2083495"><ele>274.0</ele><time>2026-04-03T14:04:16.9Z</time></trkpt><trkpt lat="47.8204173" lon="7.2084564"><ele>274.0</ele><time>2026-04-03T14:04:17.899Z</time></trkpt><trkpt lat="47.8204493" lon="7.2085734"><ele>273.8333333333333</ele><time>2026-04-03T14:04:18.899Z</time></trkpt><trkpt lat="47.8204899" lon="7.2086827"><ele>273.66666666666663</ele><time>2026-04-03T14:04:19.9Z</time></trkpt><trkpt lat="47.8205395" lon="7.2087872"><ele>273.5</ele><time>2026-04-03T14:04:20.899Z</time></trkpt><trkpt lat="47.8205973" lon="7.2088917"><ele>273.3333333333333</ele><time>2026-04-03T14:04:21.899Z</time></trkpt><trkpt lat="47.8206468" lon="7.2089957"><ele>273.1666666666667</ele><time>2026-04-03T14:04:22.899Z</time></trkpt><trkpt lat="47.8206977" lon="7.2090974"><ele>273.0</ele><time>2026-04-03T14:04:23.9Z</time></trkpt><trkpt lat="47.8207534" lon="7.209201"><ele>273.0</ele><time>2026-04-03T14:04:24.9Z</time></trkpt><trkpt lat="47.8208118" lon="7.2093081"><ele>273.0</ele><time>2026-04-03T14:04:25.899Z</time></trkpt><trkpt lat="47.8208675" lon="7.2093988"><ele>273.0</ele><time>2026-04-03T14:04:26.899Z</time></trkpt><trkpt lat="47.8209211" lon="7.209485"><ele>273.0</ele><time>2026-04-03T14:04:27.899Z</time></trkpt><trkpt lat="47.8209753" lon="7.2095724"><ele>273.0</ele><time>2026-04-03T14:04:28.9Z</time></trkpt><trkpt lat="47.8210327" lon="7.2096476"><ele>273.0</ele><time>2026-04-03T14:04:29.9Z</time></trkpt><trkpt lat="47.8210944" lon="7.2097173"><ele>272.8333333333333</ele><time>2026-04-03T14:04:30.899Z</time></trkpt><trkpt lat="47.8211674" lon="7.209782"><ele>272.6666666666667</ele><time>2026-04-03T14:04:31.899Z</time></trkpt><trkpt lat="47.8212441" lon="7.2098325"><ele>272.5</ele><time>2026-04-03T14:04:32.9Z</time></trkpt><trkpt lat="47.8213271" lon="7.2098718"><ele>272.33333333333337</ele><time>2026-04-03T14:04:33.899Z</time></trkpt><trkpt lat="47.8214043" lon="7.20991"><ele>272.1666666666667</ele><time>2026-04-03T14:04:34.899Z</time></trkpt><trkpt lat="47.8214893" lon="7.209955"><ele>272.0</ele><time>2026-04-03T14:04:35.9Z</time></trkpt><trkpt lat="47.8215738" lon="7.2100051"><ele>271.8</ele><time>2026-04-03T14:04:36.9Z</time></trkpt><trkpt lat="47.821658" lon="7.2100667"><ele>271.6</ele><time>2026-04-03T14:04:37.899Z</time></trkpt><trkpt lat="47.8217433" lon="7.21014"><ele>271.40000000000003</ele><time>2026-04-03T14:04:38.901Z</time></trkpt><trkpt lat="47.8218284" lon="7.2102248"><ele>271.2</ele><time>2026-04-03T14:04:39.901Z</time></trkpt><trkpt lat="47.8219087" lon="7.2103244"><ele>271.0</ele><time>2026-04-03T14:04:40.9Z</time></trkpt><trkpt lat="47.8219852" lon="7.2104289"><ele>271.0</ele><time>2026-04-03T14:04:41.899Z</time></trkpt><trkpt lat="47.8220569" lon="7.2105334"><ele>271.0</ele><time>2026-04-03T14:04:42.899Z</time></trkpt><trkpt lat="47.8221177" lon="7.210625"><ele>271.0</ele><time>2026-04-03T14:04:43.9Z</time></trkpt><trkpt lat="47.8221814" lon="7.2107195"><ele>271.0</ele><time>2026-04-03T14:04:44.899Z</time></trkpt><trkpt lat="47.8222452" lon="7.210811"><ele>271.0</ele><time>2026-04-03T14:04:45.9Z</time></trkpt><trkpt lat="47.8223079" lon="7.2109019"><ele>271.0</ele><time>2026-04-03T14:04:46.9Z</time></trkpt><trkpt lat="47.8223726" lon="7.2109907"><ele>271.0</ele><time>2026-04-03T14:04:47.899Z</time></trkpt><trkpt lat="47.8224385" lon="7.211082"><ele>271.0</ele><time>2026-04-03T14:04:48.899Z</time></trkpt><trkpt lat="47.8225113" lon="7.2111766"><ele>271.0</ele><time>2026-04-03T14:04:49.901Z</time></trkpt><trkpt lat="47.822583" lon="7.2112688"><ele>271.0</ele><time>2026-04-03T14:04:50.899Z</time></trkpt><trkpt lat="47.8226519" lon="7.2113538"><ele>271.0</ele><time>2026-04-03T14:04:51.899Z</time></trkpt><trkpt lat="47.8227201" lon="7.2114403"><ele>271.0</ele><time>2026-04-03T14:04:52.899Z</time></trkpt><trkpt lat="47.8227859" lon="7.21152"><ele>271.0</ele><time>2026-04-03T14:04:53.9Z</time></trkpt><trkpt lat="47.8228517" lon="7.2115975"><ele>271.0</ele><time>2026-04-03T14:04:54.899Z</time></trkpt><trkpt lat="47.8229165" lon="7.2116705"><ele>271.0</ele><time>2026-04-03T14:04:55.899Z</time></trkpt><trkpt lat="47.8229747" lon="7.2117212"><ele>271.0</ele><time>2026-04-03T14:04:56.899Z</time></trkpt><trkpt lat="47.8230339" lon="7.2117674"><ele>271.0</ele><time>2026-04-03T14:04:57.899Z</time></trkpt><trkpt lat="47.8231415" lon="7.2117963"><ele>271.0</ele><time>2026-04-03T14:04:59.9Z</time></trkpt><trkpt lat="47.8232515" lon="7.2117469"><ele>271.0</ele><time>2026-04-03T14:05:01.9Z</time></trkpt><trkpt lat="47.8233515" lon="7.2116513"><ele>271.0</ele><time>2026-04-03T14:05:03.899Z</time></trkpt><trkpt lat="47.8234064" lon="7.2115989"><ele>271.0</ele><time>2026-04-03T14:05:04.899Z</time></trkpt><trkpt lat="47.8234592" lon="7.2115391"><ele>270.5</ele><time>2026-04-03T14:05:05.899Z</time></trkpt><trkpt lat="47.8235158" lon="7.2114845"><ele>270.0</ele><time>2026-04-03T14:05:06.9Z</time></trkpt><trkpt lat="47.8235723" lon="7.2114266"><ele>269.5</ele><time>2026-04-03T14:05:07.899Z</time></trkpt><trkpt lat="47.8236293" lon="7.2113694"><ele>269.0</ele><time>2026-04-03T14:05:08.9Z</time></trkpt><trkpt lat="47.8236852" lon="7.2113242"><ele>268.5</ele><time>2026-04-03T14:05:09.9Z</time></trkpt><trkpt lat="47.8237881" lon="7.2112554"><ele>268.0</ele><time>2026-04-03T14:05:11.899Z</time></trkpt><trkpt lat="47.8238659" lon="7.2112936"><ele>268.0</ele><time>2026-04-03T14:05:13.901Z</time></trkpt><trkpt lat="47.8239243" lon="7.2113749"><ele>268.0</ele><time>2026-04-03T14:05:15.899Z</time></trkpt><trkpt lat="47.823989" lon="7.211424"><ele>268.0</ele><time>2026-04-03T14:05:17.901Z</time></trkpt><trkpt lat="47.82407" lon="7.211412"><ele>268.0</ele><time>2026-04-03T14:05:19.899Z</time></trkpt><trkpt lat="47.8241853" lon="7.2113755"><ele>268.0</ele><time>2026-04-03T14:05:21.9Z</time></trkpt><trkpt lat="47.8243004" lon="7.2113008"><ele>268.3333333333333</ele><time>2026-04-03T14:05:23.899Z</time></trkpt><trkpt lat="47.8243608" lon="7.211242"><ele>268.66666666666663</ele><time>2026-04-03T14:05:24.899Z</time></trkpt><trkpt lat="47.8244216" lon="7.2111788"><ele>269.0</ele><time>2026-04-03T14:05:25.899Z</time></trkpt><trkpt lat="47.824474" lon="7.2111171"><ele>269.3333333333333</ele><time>2026-04-03T14:05:26.9Z</time></trkpt><trkpt lat="47.8245357" lon="7.2110638"><ele>269.6666666666667</ele><time>2026-04-03T14:05:27.899Z</time></trkpt><trkpt lat="47.8246044" lon="7.2110448"><ele>270.0</ele><time>2026-04-03T14:05:28.899Z</time></trkpt><trkpt lat="47.8247187" lon="7.2110687"><ele>270.0</ele><time>2026-04-03T14:05:30.899Z</time></trkpt><trkpt lat="47.8247994" lon="7.2111482"><ele>270.0</ele><time>2026-04-03T14:05:32.9Z</time></trkpt><trkpt lat="47.8248587" lon="7.211279"><ele>270.0</ele><time>2026-04-03T14:05:34.9Z</time></trkpt><trkpt lat="47.8249245" lon="7.2114335"><ele>270.0</ele><time>2026-04-03T14:05:36.899Z</time></trkpt><trkpt lat="47.8249589" lon="7.211521"><ele>270.0</ele><time>2026-04-03T14:05:37.899Z</time></trkpt><trkpt lat="47.8249962" lon="7.2116177"><ele>270.0</ele><time>2026-04-03T14:05:38.9Z</time></trkpt><trkpt lat="47.8250397" lon="7.2117196"><ele>270.0</ele><time>2026-04-03T14:05:39.899Z</time></trkpt><trkpt lat="47.8250821" lon="7.2118158"><ele>270.0</ele><time>2026-04-03T14:05:40.901Z</time></trkpt><trkpt lat="47.8251193" lon="7.2118988"><ele>270.0</ele><time>2026-04-03T14:05:41.899Z</time></trkpt><trkpt lat="47.8251792" lon="7.2120374"><ele>270.0</ele><time>2026-04-03T14:05:43.899Z</time></trkpt><trkpt lat="47.8252164" lon="7.2121142"><ele>270.0</ele><time>2026-04-03T14:05:44.9Z</time></trkpt><trkpt lat="47.8252566" lon="7.2122009"><ele>269.5</ele><time>2026-04-03T14:05:45.9Z</time></trkpt><trkpt lat="47.825318" lon="7.2123298"><ele>269.0</ele><time>2026-04-03T14:05:46.9Z</time></trkpt><trkpt lat="47.8253933" lon="7.2124819"><ele>268.5</ele><time>2026-04-03T14:05:47.899Z</time></trkpt><trkpt lat="47.8254777" lon="7.21265"><ele>268.0</ele><time>2026-04-03T14:05:48.899Z</time></trkpt><trkpt lat="47.8255744" lon="7.2128311"><ele>268.0</ele><time>2026-04-03T14:05:49.9Z</time></trkpt><trkpt lat="47.8256699" lon="7.213002"><ele>268.0</ele><time>2026-04-03T14:05:50.9Z</time></trkpt><trkpt lat="47.825758" lon="7.2131528"><ele>268.0</ele><time>2026-04-03T14:05:51.899Z</time></trkpt><trkpt lat="47.8258357" lon="7.2132893"><ele>268.0</ele><time>2026-04-03T14:05:52.9Z</time></trkpt><trkpt lat="47.8259017" lon="7.2134039"><ele>267.8333333333333</ele><time>2026-04-03T14:05:53.899Z</time></trkpt><trkpt lat="47.8259622" lon="7.2135046"><ele>267.66666666666663</ele><time>2026-04-03T14:05:54.9Z</time></trkpt><trkpt lat="47.826016" lon="7.2135961"><ele>267.5</ele><time>2026-04-03T14:05:55.9Z</time></trkpt><trkpt lat="47.8260734" lon="7.213686"><ele>267.3333333333333</ele><time>2026-04-03T14:05:56.899Z</time></trkpt><trkpt lat="47.8261296" lon="7.2137633"><ele>267.1666666666667</ele><time>2026-04-03T14:05:57.899Z</time></trkpt><trkpt lat="47.8261831" lon="7.2138446"><ele>267.0</ele><time>2026-04-03T14:05:58.899Z</time></trkpt><trkpt lat="47.8262389" lon="7.2139209"><ele>266.8</ele><time>2026-04-03T14:05:59.899Z</time></trkpt><trkpt lat="47.8262938" lon="7.2139958"><ele>266.6</ele><time>2026-04-03T14:06:00.901Z</time></trkpt><trkpt lat="47.8263536" lon="7.2140892"><ele>266.40000000000003</ele><time>2026-04-03T14:06:01.899Z</time></trkpt><trkpt lat="47.8264174" lon="7.2141916"><ele>266.2</ele><time>2026-04-03T14:06:02.899Z</time></trkpt><trkpt lat="47.826483" lon="7.2143001"><ele>266.0</ele><time>2026-04-03T14:06:03.899Z</time></trkpt><trkpt lat="47.8265723" lon="7.2144291"><ele>266.0</ele><time>2026-04-03T14:06:04.899Z</time></trkpt><trkpt lat="47.8266932" lon="7.2145986"><ele>266.0</ele><time>2026-04-03T14:06:05.901Z</time></trkpt><trkpt lat="47.8268219" lon="7.2147803"><ele>266.0</ele><time>2026-04-03T14:06:06.899Z</time></trkpt><trkpt lat="47.8269299" lon="7.214938"><ele>265.75</ele><time>2026-04-03T14:06:07.899Z</time></trkpt><trkpt lat="47.8270312" lon="7.2150824"><ele>265.5</ele><time>2026-04-03T14:06:08.899Z</time></trkpt><trkpt lat="47.8271222" lon="7.2152083"><ele>265.25</ele><time>2026-04-03T14:06:09.899Z</time></trkpt><trkpt lat="47.827211" lon="7.2153271"><ele>265.0</ele><time>2026-04-03T14:06:10.899Z</time></trkpt><trkpt lat="47.8273198" lon="7.2154573"><ele>265.0</ele><time>2026-04-03T14:06:11.9Z</time></trkpt><trkpt lat="47.8274388" lon="7.2156056"><ele>265.0</ele><time>2026-04-03T14:06:12.899Z</time></trkpt><trkpt lat="47.8275732" lon="7.2157692"><ele>265.0</ele><time>2026-04-03T14:06:13.9Z</time></trkpt><trkpt lat="47.8277202" lon="7.2159447"><ele>264.66666666666663</ele><time>2026-04-03T14:06:14.899Z</time></trkpt><trkpt lat="47.8278555" lon="7.2161071"><ele>264.3333333333333</ele><time>2026-04-03T14:06:15.9Z</time></trkpt><trkpt lat="47.8279817" lon="7.2162581"><ele>264.0</ele><time>2026-04-03T14:06:16.9Z</time></trkpt><trkpt lat="47.8280995" lon="7.2163974"><ele>264.0</ele><time>2026-04-03T14:06:17.9Z</time></trkpt><trkpt lat="47.828209" lon="7.2165254"><ele>264.0</ele><time>2026-04-03T14:06:18.901Z</time></trkpt><trkpt lat="47.8283249" lon="7.2166609"><ele>264.0</ele><time>2026-04-03T14:06:19.901Z</time></trkpt><trkpt lat="47.8284376" lon="7.2167915"><ele>264.0</ele><time>2026-04-03T14:06:20.901Z</time></trkpt><trkpt lat="47.8285384" lon="7.2169104"><ele>264.0</ele><time>2026-04-03T14:06:21.899Z</time></trkpt><trkpt lat="47.8286385" lon="7.2170252"><ele>264.0</ele><time>2026-04-03T14:06:22.899Z</time></trkpt><trkpt lat="47.8287509" lon="7.2171517"><ele>264.0</ele><time>2026-04-03T14:06:23.899Z</time></trkpt><trkpt lat="47.8288524" lon="7.2172665"><ele>264.0</ele><time>2026-04-03T14:06:24.9Z</time></trkpt><trkpt lat="47.8289635" lon="7.2173907"><ele>263.5</ele><time>2026-04-03T14:06:25.899Z</time></trkpt><trkpt lat="47.8290645" lon="7.2175079"><ele>263.0</ele><time>2026-04-03T14:06:26.899Z</time></trkpt><trkpt lat="47.8291615" lon="7.2176182"><ele>262.5</ele><time>2026-04-03T14:06:27.899Z</time></trkpt><trkpt lat="47.8292636" lon="7.2177377"><ele>262.0</ele><time>2026-04-03T14:06:28.9Z</time></trkpt><trkpt lat="47.8293655" lon="7.2178569"><ele>262.0</ele><time>2026-04-03T14:06:29.9Z</time></trkpt><trkpt lat="47.8294614" lon="7.217967"><ele>262.0</ele><time>2026-04-03T14:06:30.899Z</time></trkpt><trkpt lat="47.8295562" lon="7.2180706"><ele>262.0</ele><time>2026-04-03T14:06:31.9Z</time></trkpt><trkpt lat="47.8296488" lon="7.2181725"><ele>262.0</ele><time>2026-04-03T14:06:32.899Z</time></trkpt><trkpt lat="47.8297386" lon="7.2182733"><ele>261.75</ele><time>2026-04-03T14:06:33.899Z</time></trkpt><trkpt lat="47.8298317" lon="7.2183812"><ele>261.5</ele><time>2026-04-03T14:06:34.899Z</time></trkpt><trkpt lat="47.8299307" lon="7.218496"><ele>261.25</ele><time>2026-04-03T14:06:35.899Z</time></trkpt><trkpt lat="47.8300372" lon="7.2186149"><ele>261.0</ele><time>2026-04-03T14:06:36.9Z</time></trkpt><trkpt lat="47.8301445" lon="7.2187314"><ele>261.0</ele><time>2026-04-03T14:06:37.899Z</time></trkpt><trkpt lat="47.8302494" lon="7.2188472"><ele>261.0</ele><time>2026-04-03T14:06:38.899Z</time></trkpt><trkpt lat="47.830355" lon="7.2189679"><ele>261.0</ele><time>2026-04-03T14:06:39.899Z</time></trkpt><trkpt lat="47.8304665" lon="7.219095"><ele>261.0</ele><time>2026-04-03T14:06:40.899Z</time></trkpt><trkpt lat="47.8305763" lon="7.2192198"><ele>261.0</ele><time>2026-04-03T14:06:41.899Z</time></trkpt><trkpt lat="47.8306839" lon="7.2193417"><ele>261.0</ele><time>2026-04-03T14:06:42.9Z</time></trkpt><trkpt lat="47.8307922" lon="7.2194689"><ele>261.0</ele><time>2026-04-03T14:06:43.9Z</time></trkpt><trkpt lat="47.8309024" lon="7.2195963"><ele>261.0</ele><time>2026-04-03T14:06:44.899Z</time></trkpt><trkpt lat="47.8310123" lon="7.2197208"><ele>260.75</ele><time>2026-04-03T14:06:45.899Z</time></trkpt><trkpt lat="47.8311202" lon="7.2198474"><ele>260.5</ele><time>2026-04-03T14:06:46.9Z</time></trkpt><trkpt lat="47.8312284" lon="7.2199721"><ele>260.25</ele><time>2026-04-03T14:06:47.9Z</time></trkpt><trkpt lat="47.8313384" lon="7.2200961"><ele>260.0</ele><time>2026-04-03T14:06:48.9Z</time></trkpt><trkpt lat="47.8314465" lon="7.2202233"><ele>260.0</ele><time>2026-04-03T14:06:49.9Z</time></trkpt><trkpt lat="47.8315565" lon="7.2203496"><ele>260.0</ele><time>2026-04-03T14:06:50.899Z</time></trkpt><trkpt lat="47.8316728" lon="7.2204808"><ele>260.0</ele><time>2026-04-03T14:06:51.899Z</time></trkpt><trkpt lat="47.8317827" lon="7.2206132"><ele>260.0</ele><time>2026-04-03T14:06:52.899Z</time></trkpt><trkpt lat="47.831886" lon="7.2207425"><ele>260.25</ele><time>2026-04-03T14:06:53.899Z</time></trkpt><trkpt lat="47.8319874" lon="7.2208681"><ele>260.5</ele><time>2026-04-03T14:06:54.9Z</time></trkpt><trkpt lat="47.8320821" lon="7.2209889"><ele>260.75</ele><time>2026-04-03T14:06:55.9Z</time></trkpt><trkpt lat="47.8321745" lon="7.2211073"><ele>261.0</ele><time>2026-04-03T14:06:56.9Z</time></trkpt><trkpt lat="47.8322635" lon="7.221219"><ele>261.0</ele><time>2026-04-03T14:06:57.9Z</time></trkpt><trkpt lat="47.8323431" lon="7.2213268"><ele>261.0</ele><time>2026-04-03T14:06:58.9Z</time></trkpt><trkpt lat="47.8324225" lon="7.221447"><ele>261.0</ele><time>2026-04-03T14:06:59.899Z</time></trkpt><trkpt lat="47.8324959" lon="7.2215818"><ele>261.0</ele><time>2026-04-03T14:07:00.9Z</time></trkpt><trkpt lat="47.8325551" lon="7.2217228"><ele>261.0</ele><time>2026-04-03T14:07:01.899Z</time></trkpt><trkpt lat="47.8325923" lon="7.2218642"><ele>261.0</ele><time>2026-04-03T14:07:02.899Z</time></trkpt><trkpt lat="47.8326185" lon="7.2220194"><ele>261.0</ele><time>2026-04-03T14:07:03.9Z</time></trkpt><trkpt lat="47.832638" lon="7.2221862"><ele>261.0</ele><time>2026-04-03T14:07:04.9Z</time></trkpt><trkpt lat="47.8326481" lon="7.222356"><ele>261.0</ele><time>2026-04-03T14:07:05.899Z</time></trkpt><trkpt lat="47.8326546" lon="7.2225233"><ele>261.0</ele><time>2026-04-03T14:07:06.899Z</time></trkpt><trkpt lat="47.8326608" lon="7.2226886"><ele>261.2</ele><time>2026-04-03T14:07:07.899Z</time></trkpt><trkpt lat="47.832672" lon="7.222856"><ele>261.40000000000003</ele><time>2026-04-03T14:07:08.899Z</time></trkpt><trkpt lat="47.8326983" lon="7.2230185"><ele>261.6</ele><time>2026-04-03T14:07:09.9Z</time></trkpt><trkpt lat="47.8327356" lon="7.2231711"><ele>261.8</ele><time>2026-04-03T14:07:10.9Z</time></trkpt><trkpt lat="47.8327687" lon="7.2233198"><ele>262.0</ele><time>2026-04-03T14:07:11.9Z</time></trkpt><trkpt lat="47.8327861" lon="7.2234599"><ele>262.16666666666663</ele><time>2026-04-03T14:07:12.9Z</time></trkpt><trkpt lat="47.8327847" lon="7.2235815"><ele>262.3333333333333</ele><time>2026-04-03T14:07:13.899Z</time></trkpt><trkpt lat="47.8327614" lon="7.2236943"><ele>262.5</ele><time>2026-04-03T14:07:14.899Z</time></trkpt><trkpt lat="47.8327204" lon="7.2238022"><ele>262.6666666666667</ele><time>2026-04-03T14:07:15.899Z</time></trkpt><trkpt lat="47.8326718" lon="7.2239097"><ele>262.83333333333337</ele><time>2026-04-03T14:07:16.899Z</time></trkpt><trkpt lat="47.8326202" lon="7.22401"><ele>263.0</ele><time>2026-04-03T14:07:17.9Z</time></trkpt><trkpt lat="47.8325736" lon="7.224095"><ele>263.0</ele><time>2026-04-03T14:07:18.9Z</time></trkpt><trkpt lat="47.8325252" lon="7.2242408"><ele>263.0</ele><time>2026-04-03T14:07:20.9Z</time></trkpt><trkpt lat="47.8325192" lon="7.2243442"><ele>263.0</ele><time>2026-04-03T14:07:22.9Z</time></trkpt><trkpt lat="47.8325177" lon="7.2244547"><ele>263.0</ele><time>2026-04-03T14:07:25.899Z</time></trkpt><trkpt lat="47.8324513" lon="7.2245964"><ele>263.0</ele><time>2026-04-03T14:07:27.9Z</time></trkpt><trkpt lat="47.8323824" lon="7.2246964"><ele>263.0</ele><time>2026-04-03T14:07:28.899Z</time></trkpt><trkpt lat="47.8322965" lon="7.2248244"><ele>263.0</ele><time>2026-04-03T14:07:29.899Z</time></trkpt><trkpt lat="47.8321955" lon="7.2249746"><ele>263.0</ele><time>2026-04-03T14:07:30.9Z</time></trkpt><trkpt lat="47.8320799" lon="7.225119"><ele>263.0</ele><time>2026-04-03T14:07:31.899Z</time></trkpt><trkpt lat="47.8319519" lon="7.2252688"><ele>263.0</ele><time>2026-04-03T14:07:32.899Z</time></trkpt><trkpt lat="47.8318152" lon="7.2254209"><ele>263.0</ele><time>2026-04-03T14:07:33.9Z</time></trkpt><trkpt lat="47.8316663" lon="7.2255849"><ele>263.0</ele><time>2026-04-03T14:07:34.899Z</time></trkpt><trkpt lat="47.8315033" lon="7.2257513"><ele>262.6666666666667</ele><time>2026-04-03T14:07:35.9Z</time></trkpt><trkpt lat="47.8313363" lon="7.2259171"><ele>262.3333333333333</ele><time>2026-04-03T14:07:36.9Z</time></trkpt><trkpt lat="47.831157" lon="7.2260663"><ele>262.0</ele><time>2026-04-03T14:07:37.899Z</time></trkpt><trkpt lat="47.8309749" lon="7.2262068"><ele>262.0</ele><time>2026-04-03T14:07:38.899Z</time></trkpt><trkpt lat="47.8308029" lon="7.2263447"><ele>262.0</ele><time>2026-04-03T14:07:39.9Z</time></trkpt><trkpt lat="47.8306416" lon="7.2264794"><ele>262.0</ele><time>2026-04-03T14:07:40.899Z</time></trkpt><trkpt lat="47.8304872" lon="7.2266358"><ele>262.0</ele><time>2026-04-03T14:07:41.9Z</time></trkpt><trkpt lat="47.8303246" lon="7.2268196"><ele>262.0</ele><time>2026-04-03T14:07:42.9Z</time></trkpt><trkpt lat="47.8301537" lon="7.2270114"><ele>262.0</ele><time>2026-04-03T14:07:43.899Z</time></trkpt><trkpt lat="47.8299855" lon="7.2272083"><ele>263.0</ele><time>2026-04-03T14:07:44.899Z</time></trkpt><trkpt lat="47.8298248" lon="7.2273931"><ele>264.0</ele><time>2026-04-03T14:07:45.899Z</time></trkpt><trkpt lat="47.8296478" lon="7.2275885"><ele>265.0</ele><time>2026-04-03T14:07:46.9Z</time></trkpt><trkpt lat="47.8294725" lon="7.2277784"><ele>264.66666666666663</ele><time>2026-04-03T14:07:47.899Z</time></trkpt><trkpt lat="47.8293078" lon="7.2279569"><ele>264.3333333333333</ele><time>2026-04-03T14:07:48.9Z</time></trkpt><trkpt lat="47.8291492" lon="7.2281329"><ele>264.0</ele><time>2026-04-03T14:07:49.899Z</time></trkpt><trkpt lat="47.8289888" lon="7.2283294"><ele>264.0</ele><time>2026-04-03T14:07:50.899Z</time></trkpt><trkpt lat="47.8288321" lon="7.2285424"><ele>264.0</ele><time>2026-04-03T14:07:51.899Z</time></trkpt><trkpt lat="47.8286788" lon="7.2287703"><ele>264.0</ele><time>2026-04-03T14:07:52.899Z</time></trkpt><trkpt lat="47.8285378" lon="7.2290063"><ele>264.0</ele><time>2026-04-03T14:07:53.899Z</time></trkpt><trkpt lat="47.8284081" lon="7.2292495"><ele>264.0</ele><time>2026-04-03T14:07:54.899Z</time></trkpt><trkpt lat="47.8282764" lon="7.2294939"><ele>264.0</ele><time>2026-04-03T14:07:55.9Z</time></trkpt><trkpt lat="47.8281523" lon="7.2297531"><ele>264.3333333333333</ele><time>2026-04-03T14:07:56.899Z</time></trkpt><trkpt lat="47.8280337" lon="7.2300306"><ele>264.66666666666663</ele><time>2026-04-03T14:07:57.899Z</time></trkpt><trkpt lat="47.8279273" lon="7.2303192"><ele>265.0</ele><time>2026-04-03T14:07:58.9Z</time></trkpt><trkpt lat="47.8278309" lon="7.230616"><ele>264.0</ele><time>2026-04-03T14:07:59.9Z</time></trkpt><trkpt lat="47.8277435" lon="7.2308978"><ele>263.0</ele><time>2026-04-03T14:08:00.9Z</time></trkpt><trkpt lat="47.8276589" lon="7.2311726"><ele>262.0</ele><time>2026-04-03T14:08:01.9Z</time></trkpt><trkpt lat="47.8275852" lon="7.2314518"><ele>261.66666666666663</ele><time>2026-04-03T14:08:02.9Z</time></trkpt><trkpt lat="47.8275299" lon="7.2317449"><ele>261.3333333333333</ele><time>2026-04-03T14:08:03.899Z</time></trkpt><trkpt lat="47.8275039" lon="7.2320492"><ele>261.0</ele><time>2026-04-03T14:08:04.899Z</time></trkpt><trkpt lat="47.8275082" lon="7.2323547"><ele>261.0</ele><time>2026-04-03T14:08:05.9Z</time></trkpt><trkpt lat="47.8275426" lon="7.2326572"><ele>261.0</ele><time>2026-04-03T14:08:06.899Z</time></trkpt><trkpt lat="47.8276073" lon="7.2329547"><ele>261.0</ele><time>2026-04-03T14:08:07.899Z</time></trkpt><trkpt lat="47.8277081" lon="7.2332411"><ele>261.0</ele><time>2026-04-03T14:08:08.899Z</time></trkpt><trkpt lat="47.827849" lon="7.2335198"><ele>261.0</ele><time>2026-04-03T14:08:09.901Z</time></trkpt><trkpt lat="47.8280158" lon="7.2337994"><ele>261.5</ele><time>2026-04-03T14:08:10.899Z</time></trkpt><trkpt lat="47.8281887" lon="7.2340993"><ele>262.0</ele><time>2026-04-03T14:08:11.899Z</time></trkpt><trkpt lat="47.8283636" lon="7.2344223"><ele>262.5</ele><time>2026-04-03T14:08:12.899Z</time></trkpt><trkpt lat="47.8285406" lon="7.2347694"><ele>263.0</ele><time>2026-04-03T14:08:13.9Z</time></trkpt><trkpt lat="47.8287233" lon="7.2351273"><ele>261.0</ele><time>2026-04-03T14:08:14.901Z</time></trkpt><trkpt lat="47.8288914" lon="7.2354628"><ele>259.0</ele><time>2026-04-03T14:08:15.899Z</time></trkpt><trkpt lat="47.8290506" lon="7.2357852"><ele>258.5</ele><time>2026-04-03T14:08:16.899Z</time></trkpt><trkpt lat="47.829212" lon="7.2361221"><ele>258.0</ele><time>2026-04-03T14:08:17.9Z</time></trkpt><trkpt lat="47.8293515" lon="7.2364783"><ele>256.5</ele><time>2026-04-03T14:08:18.9Z</time></trkpt><trkpt lat="47.8294569" lon="7.2368508"><ele>255.0</ele><time>2026-04-03T14:08:19.9Z</time></trkpt><trkpt lat="47.8295197" lon="7.2372116"><ele>255.0</ele><time>2026-04-03T14:08:20.899Z</time></trkpt><trkpt lat="47.8295497" lon="7.237572"><ele>255.0</ele><time>2026-04-03T14:08:21.899Z</time></trkpt><trkpt lat="47.8295465" lon="7.2379205"><ele>255.0</ele><time>2026-04-03T14:08:22.899Z</time></trkpt><trkpt lat="47.8295175" lon="7.2382641"><ele>255.0</ele><time>2026-04-03T14:08:23.901Z</time></trkpt><trkpt lat="47.8294602" lon="7.2385858"><ele>255.0</ele><time>2026-04-03T14:08:24.899Z</time></trkpt><trkpt lat="47.8293759" lon="7.2388796"><ele>255.0</ele><time>2026-04-03T14:08:25.9Z</time></trkpt><trkpt lat="47.8292753" lon="7.2391398"><ele>255.0</ele><time>2026-04-03T14:08:26.899Z</time></trkpt><trkpt lat="47.8291721" lon="7.239379"><ele>254.66666666666669</ele><time>2026-04-03T14:08:27.899Z</time></trkpt><trkpt lat="47.829074" lon="7.2396061"><ele>254.33333333333334</ele><time>2026-04-03T14:08:28.899Z</time></trkpt><trkpt lat="47.8289799" lon="7.2398185"><ele>254.0</ele><time>2026-04-03T14:08:29.899Z</time></trkpt><trkpt lat="47.8288909" lon="7.2400206"><ele>254.0</ele><time>2026-04-03T14:08:30.899Z</time></trkpt><trkpt lat="47.8288076" lon="7.2402136"><ele>254.0</ele><time>2026-04-03T14:08:31.899Z</time></trkpt><trkpt lat="47.8287269" lon="7.2403959"><ele>254.0</ele><time>2026-04-03T14:08:32.9Z</time></trkpt><trkpt lat="47.8286483" lon="7.2405639"><ele>254.0</ele><time>2026-04-03T14:08:33.899Z</time></trkpt><trkpt lat="47.8285674" lon="7.2407147"><ele>253.5</ele><time>2026-04-03T14:08:34.9Z</time></trkpt><trkpt lat="47.8284933" lon="7.2408576"><ele>253.0</ele><time>2026-04-03T14:08:35.899Z</time></trkpt><trkpt lat="47.8284439" lon="7.241011"><ele>252.5</ele><time>2026-04-03T14:08:36.9Z</time></trkpt><trkpt lat="47.8284057" lon="7.2411819"><ele>252.0</ele><time>2026-04-03T14:08:37.9Z</time></trkpt><trkpt lat="47.8283636" lon="7.2413727"><ele>251.25</ele><time>2026-04-03T14:08:38.899Z</time></trkpt><trkpt lat="47.8283314" lon="7.2415605"><ele>250.5</ele><time>2026-04-03T14:08:39.899Z</time></trkpt><trkpt lat="47.828312" lon="7.2417407"><ele>249.75</ele><time>2026-04-03T14:08:40.9Z</time></trkpt><trkpt lat="47.8283023" lon="7.2419358"><ele>249.0</ele><time>2026-04-03T14:08:41.899Z</time></trkpt><trkpt lat="47.8282997" lon="7.2421585"><ele>249.25</ele><time>2026-04-03T14:08:42.9Z</time></trkpt><trkpt lat="47.8283097" lon="7.242359"><ele>249.5</ele><time>2026-04-03T14:08:43.9Z</time></trkpt><trkpt lat="47.8283339" lon="7.2425628"><ele>249.75</ele><time>2026-04-03T14:08:44.9Z</time></trkpt><trkpt lat="47.8283636" lon="7.2427676"><ele>250.0</ele><time>2026-04-03T14:08:45.9Z</time></trkpt><trkpt lat="47.8283985" lon="7.2429783"><ele>250.0</ele><time>2026-04-03T14:08:46.899Z</time></trkpt><trkpt lat="47.8284361" lon="7.243196"><ele>250.0</ele><time>2026-04-03T14:08:47.899Z</time></trkpt><trkpt lat="47.8284749" lon="7.2434231"><ele>250.0</ele><time>2026-04-03T14:08:48.899Z</time></trkpt><trkpt lat="47.8285168" lon="7.2436476"><ele>250.33333333333331</ele><time>2026-04-03T14:08:49.899Z</time></trkpt><trkpt lat="47.8285507" lon="7.2438551"><ele>250.66666666666669</ele><time>2026-04-03T14:08:50.901Z</time></trkpt><trkpt lat="47.8285856" lon="7.244074"><ele>251.0</ele><time>2026-04-03T14:08:51.899Z</time></trkpt><trkpt lat="47.8286234" lon="7.2443013"><ele>251.0</ele><time>2026-04-03T14:08:52.899Z</time></trkpt><trkpt lat="47.8286605" lon="7.2445143"><ele>251.0</ele><time>2026-04-03T14:08:53.9Z</time></trkpt><trkpt lat="47.8286977" lon="7.2447245"><ele>251.0</ele><time>2026-04-03T14:08:54.9Z</time></trkpt><trkpt lat="47.8287338" lon="7.2449312"><ele>251.0</ele><time>2026-04-03T14:08:55.899Z</time></trkpt><trkpt lat="47.8287685" lon="7.2451364"><ele>251.25</ele><time>2026-04-03T14:08:56.9Z</time></trkpt><trkpt lat="47.8288017" lon="7.245339"><ele>251.5</ele><time>2026-04-03T14:08:57.9Z</time></trkpt><trkpt lat="47.8288361" lon="7.2455409"><ele>251.75</ele><time>2026-04-03T14:08:58.899Z</time></trkpt><trkpt lat="47.8288704" lon="7.2457368"><ele>252.0</ele><time>2026-04-03T14:08:59.9Z</time></trkpt><trkpt lat="47.8289028" lon="7.2459307"><ele>252.0</ele><time>2026-04-03T14:09:00.9Z</time></trkpt><trkpt lat="47.8289307" lon="7.2461215"><ele>252.0</ele><time>2026-04-03T14:09:01.9Z</time></trkpt><trkpt lat="47.8289514" lon="7.2463092"><ele>252.0</ele><time>2026-04-03T14:09:02.9Z</time></trkpt><trkpt lat="47.8289657" lon="7.2465003"><ele>252.0</ele><time>2026-04-03T14:09:03.899Z</time></trkpt><trkpt lat="47.828976" lon="7.2466927"><ele>251.5</ele><time>2026-04-03T14:09:04.899Z</time></trkpt><trkpt lat="47.8289823" lon="7.2468851"><ele>251.0</ele><time>2026-04-03T14:09:05.899Z</time></trkpt><trkpt lat="47.8289841" lon="7.2470799"><ele>250.5</ele><time>2026-04-03T14:09:06.899Z</time></trkpt><trkpt lat="47.8289847" lon="7.2472824"><ele>250.0</ele><time>2026-04-03T14:09:07.899Z</time></trkpt><trkpt lat="47.8289788" lon="7.2474947"><ele>250.0</ele><time>2026-04-03T14:09:08.899Z</time></trkpt><trkpt lat="47.8289697" lon="7.2477002"><ele>250.0</ele><time>2026-04-03T14:09:09.899Z</time></trkpt><trkpt lat="47.8289561" lon="7.2479045"><ele>250.0</ele><time>2026-04-03T14:09:10.899Z</time></trkpt><trkpt lat="47.8289368" lon="7.2480992"><ele>250.0</ele><time>2026-04-03T14:09:11.899Z</time></trkpt><trkpt lat="47.8289127" lon="7.2482845"><ele>250.25</ele><time>2026-04-03T14:09:12.899Z</time></trkpt><trkpt lat="47.828886" lon="7.2484657"><ele>250.5</ele><time>2026-04-03T14:09:13.899Z</time></trkpt><trkpt lat="47.8288604" lon="7.2486392"><ele>250.75</ele><time>2026-04-03T14:09:14.899Z</time></trkpt><trkpt lat="47.8288303" lon="7.2488141"><ele>251.0</ele><time>2026-04-03T14:09:15.899Z</time></trkpt><trkpt lat="47.8287956" lon="7.2489858"><ele>250.5</ele><time>2026-04-03T14:09:16.899Z</time></trkpt><trkpt lat="47.8287625" lon="7.2491561"><ele>250.0</ele><time>2026-04-03T14:09:17.899Z</time></trkpt><trkpt lat="47.8287308" lon="7.2493224"><ele>249.5</ele><time>2026-04-03T14:09:18.899Z</time></trkpt><trkpt lat="47.8286994" lon="7.2494831"><ele>249.0</ele><time>2026-04-03T14:09:19.899Z</time></trkpt><trkpt lat="47.8286708" lon="7.2496407"><ele>249.2</ele><time>2026-04-03T14:09:20.9Z</time></trkpt><trkpt lat="47.8286418" lon="7.2497945"><ele>249.39999999999998</ele><time>2026-04-03T14:09:21.9Z</time></trkpt><trkpt lat="47.8286132" lon="7.2499473"><ele>249.6</ele><time>2026-04-03T14:09:22.899Z</time></trkpt><trkpt lat="47.8285863" lon="7.2500856"><ele>249.8</ele><time>2026-04-03T14:09:23.899Z</time></trkpt><trkpt lat="47.8285633" lon="7.2502069"><ele>250.0</ele><time>2026-04-03T14:09:24.899Z</time></trkpt><trkpt lat="47.8285433" lon="7.2503143"><ele>249.99999999999997</ele><time>2026-04-03T14:09:25.899Z</time></trkpt><trkpt lat="47.8285189" lon="7.250427"><ele>250.0</ele><time>2026-04-03T14:09:26.899Z</time></trkpt><trkpt lat="47.8285032" lon="7.2505366"><ele>250.0</ele><time>2026-04-03T14:09:27.899Z</time></trkpt><trkpt lat="47.8284717" lon="7.2507001"><ele>250.0</ele><time>2026-04-03T14:09:29.899Z</time></trkpt><trkpt lat="47.8284507" lon="7.250829"><ele>249.99999999999997</ele><time>2026-04-03T14:09:31.9Z</time></trkpt><trkpt lat="47.8284531" lon="7.2509268"><ele>250.0</ele><time>2026-04-03T14:09:33.899Z</time></trkpt><trkpt lat="47.8285421" lon="7.251028"><ele>250.25</ele><time>2026-04-03T14:09:35.9Z</time></trkpt><trkpt lat="47.8286247" lon="7.2510886"><ele>250.5</ele><time>2026-04-03T14:09:36.899Z</time></trkpt><trkpt lat="47.8287327" lon="7.251144"><ele>250.75</ele><time>2026-04-03T14:09:37.899Z</time></trkpt><trkpt lat="47.828864" lon="7.2511946"><ele>251.0</ele><time>2026-04-03T14:09:38.899Z</time></trkpt><trkpt lat="47.8289845" lon="7.2512367"><ele>251.0</ele><time>2026-04-03T14:09:39.899Z</time></trkpt><trkpt lat="47.8290956" lon="7.2512733"><ele>251.00000000000003</ele><time>2026-04-03T14:09:40.9Z</time></trkpt><trkpt lat="47.8291976" lon="7.2513084"><ele>251.00000000000003</ele><time>2026-04-03T14:09:41.899Z</time></trkpt><trkpt lat="47.8292976" lon="7.2513453"><ele>251.0</ele><time>2026-04-03T14:09:42.901Z</time></trkpt><trkpt lat="47.8294034" lon="7.2513818"><ele>251.0</ele><time>2026-04-03T14:09:43.899Z</time></trkpt><trkpt lat="47.829513" lon="7.2514184"><ele>250.75</ele><time>2026-04-03T14:09:44.9Z</time></trkpt><trkpt lat="47.8296247" lon="7.2514535"><ele>250.5</ele><time>2026-04-03T14:09:45.899Z</time></trkpt><trkpt lat="47.8297381" lon="7.2514864"><ele>250.25</ele><time>2026-04-03T14:09:46.899Z</time></trkpt><trkpt lat="47.8298471" lon="7.2515308"><ele>250.0</ele><time>2026-04-03T14:09:47.899Z</time></trkpt><trkpt lat="47.8299627" lon="7.2515695"><ele>250.0</ele><time>2026-04-03T14:09:48.9Z</time></trkpt><trkpt lat="47.83009" lon="7.2516163"><ele>250.0</ele><time>2026-04-03T14:09:49.9Z</time></trkpt><trkpt lat="47.8302108" lon="7.2516569"><ele>250.0</ele><time>2026-04-03T14:09:50.899Z</time></trkpt><trkpt lat="47.8303216" lon="7.251697"><ele>250.0</ele><time>2026-04-03T14:09:51.899Z</time></trkpt><trkpt lat="47.8304209" lon="7.2517362"><ele>249.75</ele><time>2026-04-03T14:09:52.899Z</time></trkpt><trkpt lat="47.830527" lon="7.2517762"><ele>249.5</ele><time>2026-04-03T14:09:53.899Z</time></trkpt><trkpt lat="47.8306541" lon="7.2518155"><ele>249.25</ele><time>2026-04-03T14:09:54.901Z</time></trkpt><trkpt lat="47.8307945" lon="7.2518618"><ele>249.0</ele><time>2026-04-03T14:09:55.9Z</time></trkpt><trkpt lat="47.8309251" lon="7.2519073"><ele>248.5</ele><time>2026-04-03T14:09:56.899Z</time></trkpt><trkpt lat="47.8310427" lon="7.251952"><ele>248.0</ele><time>2026-04-03T14:09:57.9Z</time></trkpt><trkpt lat="47.8311587" lon="7.2519883"><ele>247.5</ele><time>2026-04-03T14:09:58.9Z</time></trkpt><trkpt lat="47.83128" lon="7.2520144"><ele>247.0</ele><time>2026-04-03T14:09:59.901Z</time></trkpt><trkpt lat="47.831401" lon="7.2520392"><ele>247.0</ele><time>2026-04-03T14:10:00.899Z</time></trkpt><trkpt lat="47.8315106" lon="7.2520619"><ele>247.0</ele><time>2026-04-03T14:10:01.9Z</time></trkpt><trkpt lat="47.8316085" lon="7.2520889"><ele>247.0</ele><time>2026-04-03T14:10:02.9Z</time></trkpt><trkpt lat="47.8316914" lon="7.2521263"><ele>247.0</ele><time>2026-04-03T14:10:03.9Z</time></trkpt><trkpt lat="47.83176" lon="7.2521819"><ele>247.0</ele><time>2026-04-03T14:10:04.899Z</time></trkpt><trkpt lat="47.8318084" lon="7.2522693"><ele>247.2</ele><time>2026-04-03T14:10:05.9Z</time></trkpt><trkpt lat="47.8318411" lon="7.2523872"><ele>247.39999999999998</ele><time>2026-04-03T14:10:06.899Z</time></trkpt><trkpt lat="47.8318617" lon="7.2525287"><ele>247.60000000000002</ele><time>2026-04-03T14:10:07.9Z</time></trkpt><trkpt lat="47.8318643" lon="7.2526903"><ele>247.8</ele><time>2026-04-03T14:10:08.9Z</time></trkpt><trkpt lat="47.8318559" lon="7.2528932"><ele>248.0</ele><time>2026-04-03T14:10:09.899Z</time></trkpt><trkpt lat="47.8318383" lon="7.2531329"><ele>248.66666666666669</ele><time>2026-04-03T14:10:10.9Z</time></trkpt><trkpt lat="47.8318095" lon="7.2534179"><ele>249.33333333333331</ele><time>2026-04-03T14:10:11.899Z</time></trkpt><trkpt lat="47.8317638" lon="7.2537303"><ele>250.0</ele><time>2026-04-03T14:10:12.899Z</time></trkpt><trkpt lat="47.8316977" lon="7.254051"><ele>250.66666666666666</ele><time>2026-04-03T14:10:13.899Z</time></trkpt><trkpt lat="47.8316259" lon="7.2543414"><ele>251.33333333333331</ele><time>2026-04-03T14:10:14.901Z</time></trkpt><trkpt lat="47.8315478" lon="7.2546077"><ele>252.0</ele><time>2026-04-03T14:10:15.9Z</time></trkpt><trkpt lat="47.8314688" lon="7.2548434"><ele>252.0</ele><time>2026-04-03T14:10:16.899Z</time></trkpt><trkpt lat="47.8313877" lon="7.2550711"><ele>252.0</ele><time>2026-04-03T14:10:17.899Z</time></trkpt><trkpt lat="47.8313074" lon="7.2552975"><ele>252.0</ele><time>2026-04-03T14:10:18.9Z</time></trkpt><trkpt lat="47.8312258" lon="7.2555199"><ele>251.66666666666669</ele><time>2026-04-03T14:10:19.901Z</time></trkpt><trkpt lat="47.8311496" lon="7.2557246"><ele>251.33333333333334</ele><time>2026-04-03T14:10:20.899Z</time></trkpt><trkpt lat="47.8310766" lon="7.2559323"><ele>251.0</ele><time>2026-04-03T14:10:21.899Z</time></trkpt><trkpt lat="47.831003" lon="7.2561411"><ele>250.33333333333334</ele><time>2026-04-03T14:10:22.899Z</time></trkpt><trkpt lat="47.830928" lon="7.2563474"><ele>249.66666666666669</ele><time>2026-04-03T14:10:23.9Z</time></trkpt><trkpt lat="47.8308547" lon="7.2565557"><ele>249.0</ele><time>2026-04-03T14:10:24.899Z</time></trkpt><trkpt lat="47.8307738" lon="7.2567631"><ele>248.33333333333331</ele><time>2026-04-03T14:10:25.899Z</time></trkpt><trkpt lat="47.8306967" lon="7.2569721"><ele>247.66666666666666</ele><time>2026-04-03T14:10:26.899Z</time></trkpt><trkpt lat="47.8306151" lon="7.2571849"><ele>247.0</ele><time>2026-04-03T14:10:27.9Z</time></trkpt><trkpt lat="47.8305328" lon="7.2573983"><ele>247.0</ele><time>2026-04-03T14:10:28.899Z</time></trkpt><trkpt lat="47.8304606" lon="7.2576221"><ele>247.0</ele><time>2026-04-03T14:10:29.901Z</time></trkpt><trkpt lat="47.8303861" lon="7.2578307"><ele>247.0</ele><time>2026-04-03T14:10:30.899Z</time></trkpt><trkpt lat="47.8303163" lon="7.2580234"><ele>247.0</ele><time>2026-04-03T14:10:31.899Z</time></trkpt><trkpt lat="47.8302513" lon="7.2582028"><ele>247.0</ele><time>2026-04-03T14:10:32.9Z</time></trkpt><trkpt lat="47.8301907" lon="7.2583705"><ele>247.0</ele><time>2026-04-03T14:10:33.899Z</time></trkpt><trkpt lat="47.8301298" lon="7.2585204"><ele>247.0</ele><time>2026-04-03T14:10:34.9Z</time></trkpt><trkpt lat="47.8300687" lon="7.258654"><ele>247.0</ele><time>2026-04-03T14:10:35.9Z</time></trkpt><trkpt lat="47.8300106" lon="7.2587744"><ele>247.0</ele><time>2026-04-03T14:10:36.899Z</time></trkpt><trkpt lat="47.829953" lon="7.2588802"><ele>247.0</ele><time>2026-04-03T14:10:37.9Z</time></trkpt><trkpt lat="47.8298913" lon="7.2589986"><ele>247.0</ele><time>2026-04-03T14:10:38.899Z</time></trkpt><trkpt lat="47.8298188" lon="7.259116"><ele>247.0</ele><time>2026-04-03T14:10:39.9Z</time></trkpt><trkpt lat="47.8297401" lon="7.2592376"><ele>247.0</ele><time>2026-04-03T14:10:40.899Z</time></trkpt><trkpt lat="47.8296537" lon="7.2593592"><ele>247.0</ele><time>2026-04-03T14:10:41.899Z</time></trkpt><trkpt lat="47.8295645" lon="7.2594747"><ele>247.0</ele><time>2026-04-03T14:10:42.9Z</time></trkpt><trkpt lat="47.8294749" lon="7.2595868"><ele>247.0</ele><time>2026-04-03T14:10:43.9Z</time></trkpt><trkpt lat="47.8293798" lon="7.2596953"><ele>246.5</ele><time>2026-04-03T14:10:44.901Z</time></trkpt><trkpt lat="47.8292685" lon="7.2597973"><ele>246.0</ele><time>2026-04-03T14:10:45.9Z</time></trkpt><trkpt lat="47.8291668" lon="7.2598793"><ele>245.5</ele><time>2026-04-03T14:10:46.899Z</time></trkpt><trkpt lat="47.8290648" lon="7.2599442"><ele>245.0</ele><time>2026-04-03T14:10:47.899Z</time></trkpt><trkpt lat="47.8289638" lon="7.2599851"><ele>245.00000000000003</ele><time>2026-04-03T14:10:48.899Z</time></trkpt><trkpt lat="47.8288687" lon="7.2600032"><ele>245.0</ele><time>2026-04-03T14:10:49.899Z</time></trkpt><trkpt lat="47.8287824" lon="7.2599928"><ele>245.0</ele><time>2026-04-03T14:10:50.9Z</time></trkpt><trkpt lat="47.828712" lon="7.2599519"><ele>245.0</ele><time>2026-04-03T14:10:51.899Z</time></trkpt><trkpt lat="47.8286571" lon="7.2599014"><ele>245.00000000000003</ele><time>2026-04-03T14:10:52.9Z</time></trkpt><trkpt lat="47.8285642" lon="7.2599469"><ele>245.0</ele><time>2026-04-03T14:10:54.899Z</time></trkpt><trkpt lat="47.8285573" lon="7.2600987"><ele>245.0</ele><time>2026-04-03T14:10:56.899Z</time></trkpt><trkpt lat="47.8285803" lon="7.2602071"><ele>245.0</ele><time>2026-04-03T14:10:57.9Z</time></trkpt><trkpt lat="47.8285869" lon="7.2603492"><ele>245.0</ele><time>2026-04-03T14:10:58.899Z</time></trkpt><trkpt lat="47.8285895" lon="7.2605122"><ele>245.0</ele><time>2026-04-03T14:10:59.9Z</time></trkpt><trkpt lat="47.8285927" lon="7.2606836"><ele>245.0</ele><time>2026-04-03T14:11:00.9Z</time></trkpt><trkpt lat="47.8285953" lon="7.2608722"><ele>245.0</ele><time>2026-04-03T14:11:01.901Z</time></trkpt><trkpt lat="47.8285974" lon="7.2610412"><ele>245.0</ele><time>2026-04-03T14:11:02.899Z</time></trkpt><trkpt lat="47.8285997" lon="7.2612006"><ele>245.0</ele><time>2026-04-03T14:11:03.899Z</time></trkpt><trkpt lat="47.8286006" lon="7.2613552"><ele>245.0</ele><time>2026-04-03T14:11:04.899Z</time></trkpt><trkpt lat="47.8286035" lon="7.2615172"><ele>245.0</ele><time>2026-04-03T14:11:05.899Z</time></trkpt><trkpt lat="47.8286039" lon="7.2616634"><ele>245.0</ele><time>2026-04-03T14:11:06.9Z</time></trkpt><trkpt lat="47.8286055" lon="7.2618112"><ele>245.0</ele><time>2026-04-03T14:11:07.899Z</time></trkpt><trkpt lat="47.8286068" lon="7.2619507"><ele>245.0</ele><time>2026-04-03T14:11:08.899Z</time></trkpt><trkpt lat="47.828609" lon="7.2621002"><ele>245.0</ele><time>2026-04-03T14:11:09.899Z</time></trkpt><trkpt lat="47.8286078" lon="7.2622595"><ele>245.0</ele><time>2026-04-03T14:11:10.899Z</time></trkpt><trkpt lat="47.828608" lon="7.2624191"><ele>245.0</ele><time>2026-04-03T14:11:11.899Z</time></trkpt><trkpt lat="47.828607" lon="7.2625739"><ele>245.0</ele><time>2026-04-03T14:11:12.9Z</time></trkpt><trkpt lat="47.8286062" lon="7.2627335"><ele>245.0</ele><time>2026-04-03T14:11:13.899Z</time></trkpt><trkpt lat="47.8286032" lon="7.2629236"><ele>245.0</ele><time>2026-04-03T14:11:14.899Z</time></trkpt><trkpt lat="47.8285974" lon="7.2631664"><ele>244.0</ele><time>2026-04-03T14:11:15.899Z</time></trkpt><trkpt lat="47.8285834" lon="7.2634257"><ele>243.0</ele><time>2026-04-03T14:11:16.899Z</time></trkpt><trkpt lat="47.8285661" lon="7.2636743"><ele>242.0</ele><time>2026-04-03T14:11:17.9Z</time></trkpt><trkpt lat="47.8285482" lon="7.2638973"><ele>242.5</ele><time>2026-04-03T14:11:18.899Z</time></trkpt><trkpt lat="47.8285328" lon="7.264095"><ele>243.0</ele><time>2026-04-03T14:11:19.899Z</time></trkpt><trkpt lat="47.8285182" lon="7.2642721"><ele>243.5</ele><time>2026-04-03T14:11:20.899Z</time></trkpt><trkpt lat="47.8285009" lon="7.264453"><ele>244.0</ele><time>2026-04-03T14:11:21.899Z</time></trkpt><trkpt lat="47.8284809" lon="7.2646535"><ele>244.25</ele><time>2026-04-03T14:11:22.9Z</time></trkpt><trkpt lat="47.8284654" lon="7.2648375"><ele>244.5</ele><time>2026-04-03T14:11:23.9Z</time></trkpt><trkpt lat="47.8284481" lon="7.2650239"><ele>244.75</ele><time>2026-04-03T14:11:24.9Z</time></trkpt><trkpt lat="47.8284268" lon="7.2652106"><ele>245.0</ele><time>2026-04-03T14:11:25.9Z</time></trkpt><trkpt lat="47.8284092" lon="7.265397"><ele>245.0</ele><time>2026-04-03T14:11:26.9Z</time></trkpt><trkpt lat="47.8283912" lon="7.2655763"><ele>245.0</ele><time>2026-04-03T14:11:27.899Z</time></trkpt><trkpt lat="47.8283735" lon="7.2657474"><ele>245.0</ele><time>2026-04-03T14:11:28.899Z</time></trkpt><trkpt lat="47.8283564" lon="7.2659237"><ele>245.0</ele><time>2026-04-03T14:11:29.899Z</time></trkpt><trkpt lat="47.8283382" lon="7.2661141"><ele>245.0</ele><time>2026-04-03T14:11:30.899Z</time></trkpt><trkpt lat="47.8283208" lon="7.2663027"><ele>245.0</ele><time>2026-04-03T14:11:31.899Z</time></trkpt><trkpt lat="47.8283041" lon="7.2664778"><ele>245.0</ele><time>2026-04-03T14:11:32.9Z</time></trkpt><trkpt lat="47.8282854" lon="7.26665"><ele>245.0</ele><time>2026-04-03T14:11:33.9Z</time></trkpt><trkpt lat="47.8282641" lon="7.2668136"><ele>245.0</ele><time>2026-04-03T14:11:34.899Z</time></trkpt><trkpt lat="47.8282311" lon="7.2669662"><ele>245.0</ele><time>2026-04-03T14:11:35.899Z</time></trkpt><trkpt lat="47.8281834" lon="7.2671051"><ele>245.0</ele><time>2026-04-03T14:11:36.899Z</time></trkpt><trkpt lat="47.8281225" lon="7.2672197"><ele>245.0</ele><time>2026-04-03T14:11:37.9Z</time></trkpt><trkpt lat="47.8280503" lon="7.267306"><ele>245.0</ele><time>2026-04-03T14:11:38.9Z</time></trkpt><trkpt lat="47.8279782" lon="7.2673735"><ele>245.0</ele><time>2026-04-03T14:11:39.899Z</time></trkpt><trkpt lat="47.8279044" lon="7.2674051"><ele>245.0</ele><time>2026-04-03T14:11:40.899Z</time></trkpt><trkpt lat="47.8277931" lon="7.26733"><ele>245.0</ele><time>2026-04-03T14:11:42.9Z</time></trkpt><trkpt lat="47.8277622" lon="7.2672211"><ele>245.0</ele><time>2026-04-03T14:11:43.899Z</time></trkpt><trkpt lat="47.8277433" lon="7.2670856"><ele>245.0</ele><time>2026-04-03T14:11:44.899Z</time></trkpt><trkpt lat="47.8277324" lon="7.2669625"><ele>245.0</ele><time>2026-04-03T14:11:45.901Z</time></trkpt><trkpt lat="47.8277164" lon="7.2668532"><ele>245.0</ele><time>2026-04-03T14:11:46.899Z</time></trkpt><trkpt lat="47.8277049" lon="7.2667461"><ele>245.0</ele><time>2026-04-03T14:11:47.899Z</time></trkpt><trkpt lat="47.827693" lon="7.2666424"><ele>245.0</ele><time>2026-04-03T14:11:48.899Z</time></trkpt><trkpt lat="47.8276835" lon="7.2665384"><ele>245.0</ele><time>2026-04-03T14:11:49.899Z</time></trkpt><trkpt lat="47.8276743" lon="7.2664344"><ele>245.0</ele><time>2026-04-03T14:11:50.9Z</time></trkpt><trkpt lat="47.8276596" lon="7.2663165"><ele>245.0</ele><time>2026-04-03T14:11:51.9Z</time></trkpt><trkpt lat="47.8276489" lon="7.2662056"><ele>244.6</ele><time>2026-04-03T14:11:52.899Z</time></trkpt><trkpt lat="47.8276279" lon="7.2660399"><ele>244.2</ele><time>2026-04-03T14:11:54.899Z</time></trkpt><trkpt lat="47.8275744" lon="7.2658889"><ele>243.8</ele><time>2026-04-03T14:11:56.899Z</time></trkpt><trkpt lat="47.8274568" lon="7.2658568"><ele>243.4</ele><time>2026-04-03T14:11:58.9Z</time></trkpt><trkpt lat="47.8273798" lon="7.2658839"><ele>243.0</ele><time>2026-04-03T14:11:59.9Z</time></trkpt><trkpt lat="47.8273103" lon="7.2659041"><ele>243.0</ele><time>2026-04-03T14:12:00.9Z</time></trkpt><trkpt lat="47.8272313" lon="7.2659291"><ele>243.0</ele><time>2026-04-03T14:12:01.899Z</time></trkpt><trkpt lat="47.8271456" lon="7.2659549"><ele>243.0</ele><time>2026-04-03T14:12:02.899Z</time></trkpt><trkpt lat="47.8270563" lon="7.2659801"><ele>243.0</ele><time>2026-04-03T14:12:03.9Z</time></trkpt><trkpt lat="47.8269612" lon="7.2660101"><ele>243.0</ele><time>2026-04-03T14:12:04.9Z</time></trkpt><trkpt lat="47.8268601" lon="7.2660416"><ele>243.2</ele><time>2026-04-03T14:12:05.901Z</time></trkpt><trkpt lat="47.8267557" lon="7.2660739"><ele>243.4</ele><time>2026-04-03T14:12:06.9Z</time></trkpt><trkpt lat="47.8266447" lon="7.2661082"><ele>243.59999999999997</ele><time>2026-04-03T14:12:07.9Z</time></trkpt><trkpt lat="47.8265281" lon="7.2661436"><ele>243.79999999999998</ele><time>2026-04-03T14:12:08.9Z</time></trkpt><trkpt lat="47.8264215" lon="7.2661763"><ele>244.0</ele><time>2026-04-03T14:12:09.9Z</time></trkpt><trkpt lat="47.8263236" lon="7.2662062"><ele>243.99999999999997</ele><time>2026-04-03T14:12:10.899Z</time></trkpt><trkpt lat="47.826235" lon="7.2662307"><ele>244.0</ele><time>2026-04-03T14:12:11.899Z</time></trkpt><trkpt lat="47.8261573" lon="7.2662542"><ele>244.0</ele><time>2026-04-03T14:12:12.9Z</time></trkpt><trkpt lat="47.8260785" lon="7.266285"><ele>244.0</ele><time>2026-04-03T14:12:13.899Z</time></trkpt><trkpt lat="47.8259883" lon="7.266312"><ele>243.99999999999997</ele><time>2026-04-03T14:12:14.899Z</time></trkpt><trkpt lat="47.8259113" lon="7.266338"><ele>244.0</ele><time>2026-04-03T14:12:15.899Z</time></trkpt><trkpt lat="47.8258481" lon="7.2663618"><ele>243.99999999999997</ele><time>2026-04-03T14:12:16.9Z</time></trkpt><trkpt lat="47.8257537" lon="7.2664024"><ele>244.0</ele><time>2026-04-03T14:12:18.9Z</time></trkpt><trkpt lat="47.825654" lon="7.2664527"><ele>244.0</ele><time>2026-04-03T14:12:20.901Z</time></trkpt><trkpt lat="47.8255992" lon="7.2665162"><ele>244.0</ele><time>2026-04-03T14:12:21.899Z</time></trkpt><trkpt lat="47.8255563" lon="7.266596"><ele>243.99999999999997</ele><time>2026-04-03T14:12:22.9Z</time></trkpt><trkpt lat="47.8255214" lon="7.2666833"><ele>244.0</ele><time>2026-04-03T14:12:23.9Z</time></trkpt><trkpt lat="47.8254797" lon="7.2667766"><ele>243.99999999999997</ele><time>2026-04-03T14:12:24.899Z</time></trkpt><trkpt lat="47.8254327" lon="7.2668783"><ele>244.0</ele><time>2026-04-03T14:12:25.899Z</time></trkpt><trkpt lat="47.8253818" lon="7.2669871"><ele>244.0</ele><time>2026-04-03T14:12:26.901Z</time></trkpt><trkpt lat="47.8253313" lon="7.2670993"><ele>244.0</ele><time>2026-04-03T14:12:27.9Z</time></trkpt><trkpt lat="47.8252814" lon="7.2672142"><ele>243.99999999999997</ele><time>2026-04-03T14:12:28.899Z</time></trkpt><trkpt lat="47.8252319" lon="7.267328"><ele>244.0</ele><time>2026-04-03T14:12:29.899Z</time></trkpt><trkpt lat="47.8251838" lon="7.2674375"><ele>243.99999999999997</ele><time>2026-04-03T14:12:30.899Z</time></trkpt><trkpt lat="47.8251421" lon="7.267534"><ele>244.0</ele><time>2026-04-03T14:12:31.9Z</time></trkpt><trkpt lat="47.8251041" lon="7.2676112"><ele>243.99999999999997</ele><time>2026-04-03T14:12:32.899Z</time></trkpt><trkpt lat="47.825067" lon="7.2676953"><ele>243.99999999999997</ele><time>2026-04-03T14:12:33.899Z</time></trkpt><trkpt lat="47.8250302" lon="7.2677818"><ele>244.0</ele><time>2026-04-03T14:12:34.899Z</time></trkpt><trkpt lat="47.8249891" lon="7.2678808"><ele>243.99999999999997</ele><time>2026-04-03T14:12:35.899Z</time></trkpt><trkpt lat="47.8249429" lon="7.2679841"><ele>243.99999999999997</ele><time>2026-04-03T14:12:36.9Z</time></trkpt><trkpt lat="47.8248949" lon="7.2680829"><ele>244.39999999999998</ele><time>2026-04-03T14:12:37.9Z</time></trkpt><trkpt lat="47.8248427" lon="7.2681962"><ele>244.79999999999998</ele><time>2026-04-03T14:12:38.899Z</time></trkpt><trkpt lat="47.8247888" lon="7.268321"><ele>245.20000000000002</ele><time>2026-04-03T14:12:39.9Z</time></trkpt><trkpt lat="47.8247356" lon="7.2684486"><ele>245.60000000000002</ele><time>2026-04-03T14:12:40.899Z</time></trkpt><trkpt lat="47.8246812" lon="7.2685796"><ele>246.0</ele><time>2026-04-03T14:12:41.899Z</time></trkpt><trkpt lat="47.8246285" lon="7.2687177"><ele>246.0</ele><time>2026-04-03T14:12:42.899Z</time></trkpt><trkpt lat="47.8245707" lon="7.2688485"><ele>246.00000000000003</ele><time>2026-04-03T14:12:43.9Z</time></trkpt><trkpt lat="47.824516" lon="7.2689756"><ele>246.00000000000003</ele><time>2026-04-03T14:12:44.9Z</time></trkpt><trkpt lat="47.8244619" lon="7.2691026"><ele>246.0</ele><time>2026-04-03T14:12:45.899Z</time></trkpt><trkpt lat="47.8244097" lon="7.2692176"><ele>246.0</ele><time>2026-04-03T14:12:46.899Z</time></trkpt><trkpt lat="47.8243623" lon="7.2693207"><ele>245.83333333333334</ele><time>2026-04-03T14:12:47.9Z</time></trkpt><trkpt lat="47.8243202" lon="7.2694109"><ele>245.66666666666669</ele><time>2026-04-03T14:12:48.899Z</time></trkpt><trkpt lat="47.8242803" lon="7.2695056"><ele>245.5</ele><time>2026-04-03T14:12:49.899Z</time></trkpt><trkpt lat="47.82424" lon="7.2696025"><ele>245.33333333333334</ele><time>2026-04-03T14:12:50.899Z</time></trkpt><trkpt lat="47.8241991" lon="7.2697055"><ele>245.16666666666669</ele><time>2026-04-03T14:12:51.9Z</time></trkpt><trkpt lat="47.8241509" lon="7.2698161"><ele>245.0</ele><time>2026-04-03T14:12:52.899Z</time></trkpt><trkpt lat="47.8240998" lon="7.2699307"><ele>244.6</ele><time>2026-04-03T14:12:53.899Z</time></trkpt><trkpt lat="47.8240502" lon="7.2700577"><ele>244.2</ele><time>2026-04-03T14:12:54.899Z</time></trkpt><trkpt lat="47.8239924" lon="7.2701907"><ele>243.8</ele><time>2026-04-03T14:12:55.899Z</time></trkpt><trkpt lat="47.8239309" lon="7.2703289"><ele>243.4</ele><time>2026-04-03T14:12:56.9Z</time></trkpt><trkpt lat="47.8238689" lon="7.2704674"><ele>243.0</ele><time>2026-04-03T14:12:57.899Z</time></trkpt><trkpt lat="47.8238072" lon="7.2706105"><ele>242.75</ele><time>2026-04-03T14:12:58.9Z</time></trkpt><trkpt lat="47.8237456" lon="7.2707517"><ele>242.5</ele><time>2026-04-03T14:12:59.899Z</time></trkpt><trkpt lat="47.8236827" lon="7.2708984"><ele>242.25</ele><time>2026-04-03T14:13:00.899Z</time></trkpt><trkpt lat="47.8236209" lon="7.2710492"><ele>242.0</ele><time>2026-04-03T14:13:01.9Z</time></trkpt><trkpt lat="47.8235562" lon="7.2711966"><ele>242.0</ele><time>2026-04-03T14:13:02.9Z</time></trkpt><trkpt lat="47.8234941" lon="7.2713294"><ele>242.0</ele><time>2026-04-03T14:13:03.901Z</time></trkpt><trkpt lat="47.8234425" lon="7.2714526"><ele>242.0</ele><time>2026-04-03T14:13:04.9Z</time></trkpt><trkpt lat="47.8233898" lon="7.2715638"><ele>242.0</ele><time>2026-04-03T14:13:05.899Z</time></trkpt><trkpt lat="47.8233388" lon="7.271683"><ele>242.0</ele><time>2026-04-03T14:13:06.899Z</time></trkpt><trkpt lat="47.8232859" lon="7.2718065"><ele>241.8</ele><time>2026-04-03T14:13:07.9Z</time></trkpt><trkpt lat="47.823228" lon="7.2719406"><ele>241.6</ele><time>2026-04-03T14:13:08.9Z</time></trkpt><trkpt lat="47.8231701" lon="7.2720685"><ele>241.40000000000003</ele><time>2026-04-03T14:13:09.899Z</time></trkpt><trkpt lat="47.8231075" lon="7.2722082"><ele>241.20000000000002</ele><time>2026-04-03T14:13:10.899Z</time></trkpt><trkpt lat="47.8230464" lon="7.2723339"><ele>241.0</ele><time>2026-04-03T14:13:11.9Z</time></trkpt><trkpt lat="47.8229799" lon="7.2724479"><ele>241.0</ele><time>2026-04-03T14:13:12.9Z</time></trkpt><trkpt lat="47.8229056" lon="7.2725463"><ele>241.00000000000003</ele><time>2026-04-03T14:13:13.9Z</time></trkpt><trkpt lat="47.8228275" lon="7.272645"><ele>241.00000000000003</ele><time>2026-04-03T14:13:14.9Z</time></trkpt><trkpt lat="47.8227472" lon="7.2727446"><ele>241.0</ele><time>2026-04-03T14:13:15.899Z</time></trkpt><trkpt lat="47.8226683" lon="7.2728389"><ele>241.0</ele><time>2026-04-03T14:13:16.899Z</time></trkpt><trkpt lat="47.8225943" lon="7.2729322"><ele>241.20000000000002</ele><time>2026-04-03T14:13:17.899Z</time></trkpt><trkpt lat="47.8225234" lon="7.2730278"><ele>241.40000000000003</ele><time>2026-04-03T14:13:18.901Z</time></trkpt><trkpt lat="47.822454" lon="7.2731216"><ele>241.6</ele><time>2026-04-03T14:13:19.9Z</time></trkpt><trkpt lat="47.8223793" lon="7.273214"><ele>241.8</ele><time>2026-04-03T14:13:20.899Z</time></trkpt><trkpt lat="47.8223024" lon="7.2733124"><ele>242.0</ele><time>2026-04-03T14:13:21.899Z</time></trkpt><trkpt lat="47.8222297" lon="7.2734061"><ele>242.00000000000003</ele><time>2026-04-03T14:13:22.9Z</time></trkpt><trkpt lat="47.8221636" lon="7.2734915"><ele>242.0</ele><time>2026-04-03T14:13:23.9Z</time></trkpt><trkpt lat="47.8220943" lon="7.2735775"><ele>242.0</ele><time>2026-04-03T14:13:24.899Z</time></trkpt><trkpt lat="47.8220302" lon="7.2736578"><ele>242.0</ele><time>2026-04-03T14:13:25.899Z</time></trkpt><trkpt lat="47.8219673" lon="7.2737366"><ele>242.00000000000003</ele><time>2026-04-03T14:13:26.899Z</time></trkpt><trkpt lat="47.8219069" lon="7.2738125"><ele>242.0</ele><time>2026-04-03T14:13:27.899Z</time></trkpt><trkpt lat="47.8218546" lon="7.2738747"><ele>242.16666666666669</ele><time>2026-04-03T14:13:28.899Z</time></trkpt><trkpt lat="47.8217681" lon="7.2739828"><ele>242.33333333333334</ele><time>2026-04-03T14:13:30.899Z</time></trkpt><trkpt lat="47.8217208" lon="7.2740506"><ele>242.5</ele><time>2026-04-03T14:13:32.899Z</time></trkpt><trkpt lat="47.8216717" lon="7.2741146"><ele>242.66666666666669</ele><time>2026-04-03T14:13:38.9Z</time></trkpt><trkpt lat="47.8216838" lon="7.274261"><ele>242.83333333333334</ele><time>2026-04-03T14:13:40.899Z</time></trkpt><trkpt lat="47.8217233" lon="7.274369"><ele>243.0</ele><time>2026-04-03T14:13:41.899Z</time></trkpt><trkpt lat="47.8217814" lon="7.2745104"><ele>243.0</ele><time>2026-04-03T14:13:42.899Z</time></trkpt><trkpt lat="47.8218524" lon="7.2746812"><ele>243.0</ele><time>2026-04-03T14:13:43.901Z</time></trkpt><trkpt lat="47.8219169" lon="7.2748408"><ele>243.0</ele><time>2026-04-03T14:13:44.9Z</time></trkpt><trkpt lat="47.8219843" lon="7.2749926"><ele>243.0</ele><time>2026-04-03T14:13:45.9Z</time></trkpt><trkpt lat="47.8220428" lon="7.2751378"><ele>243.0</ele><time>2026-04-03T14:13:46.9Z</time></trkpt><trkpt lat="47.822095" lon="7.275278"><ele>243.0</ele><time>2026-04-03T14:13:47.9Z</time></trkpt><trkpt lat="47.8221325" lon="7.2754154"><ele>243.0</ele><time>2026-04-03T14:13:48.9Z</time></trkpt><trkpt lat="47.8221502" lon="7.2755494"><ele>243.0</ele><time>2026-04-03T14:13:49.899Z</time></trkpt><trkpt lat="47.8221461" lon="7.275657"><ele>243.0</ele><time>2026-04-03T14:13:50.9Z</time></trkpt><trkpt lat="47.8221196" lon="7.2757598"><ele>243.0</ele><time>2026-04-03T14:13:52.9Z</time></trkpt><trkpt lat="47.8220974" lon="7.275853"><ele>243.0</ele><time>2026-04-03T14:14:25.899Z</time></trkpt><trkpt lat="47.8220707" lon="7.2759391"><ele>243.0</ele><time>2026-04-03T14:14:26.899Z</time></trkpt><trkpt lat="47.8220805" lon="7.2761222"><ele>243.0</ele><time>2026-04-03T14:14:28.901Z</time></trkpt><trkpt lat="47.8221272" lon="7.2762063"><ele>243.0</ele><time>2026-04-03T14:14:29.9Z</time></trkpt><trkpt lat="47.8221992" lon="7.2762827"><ele>243.0</ele><time>2026-04-03T14:14:30.899Z</time></trkpt><trkpt lat="47.822287" lon="7.2763949"><ele>243.0</ele><time>2026-04-03T14:14:31.899Z</time></trkpt><trkpt lat="47.8224058" lon="7.2765393"><ele>243.0</ele><time>2026-04-03T14:14:32.899Z</time></trkpt><trkpt lat="47.8225455" lon="7.2767145"><ele>243.0</ele><time>2026-04-03T14:14:33.899Z</time></trkpt><trkpt lat="47.82267" lon="7.2768903"><ele>243.0</ele><time>2026-04-03T14:14:34.9Z</time></trkpt><trkpt lat="47.822778" lon="7.2770636"><ele>243.0</ele><time>2026-04-03T14:14:35.899Z</time></trkpt><trkpt lat="47.8228813" lon="7.2772421"><ele>243.0</ele><time>2026-04-03T14:14:36.899Z</time></trkpt><trkpt lat="47.8229752" lon="7.2774255"><ele>243.33333333333331</ele><time>2026-04-03T14:14:37.899Z</time></trkpt><trkpt lat="47.8230623" lon="7.2776151"><ele>243.66666666666666</ele><time>2026-04-03T14:14:38.899Z</time></trkpt><trkpt lat="47.8231505" lon="7.277814"><ele>244.0</ele><time>2026-04-03T14:14:39.899Z</time></trkpt><trkpt lat="47.8232411" lon="7.2780202"><ele>243.33333333333331</ele><time>2026-04-03T14:14:40.9Z</time></trkpt><trkpt lat="47.8233285" lon="7.2782228"><ele>242.66666666666669</ele><time>2026-04-03T14:14:41.899Z</time></trkpt><trkpt lat="47.8234141" lon="7.2784223"><ele>242.0</ele><time>2026-04-03T14:14:42.899Z</time></trkpt><trkpt lat="47.8234981" lon="7.2786215"><ele>242.0</ele><time>2026-04-03T14:14:43.899Z</time></trkpt><trkpt lat="47.8235807" lon="7.2788203"><ele>242.0</ele><time>2026-04-03T14:14:44.899Z</time></trkpt><trkpt lat="47.8236623" lon="7.2790187"><ele>242.0</ele><time>2026-04-03T14:14:45.899Z</time></trkpt><trkpt lat="47.8237433" lon="7.2792235"><ele>242.66666666666669</ele><time>2026-04-03T14:14:46.899Z</time></trkpt><trkpt lat="47.8238279" lon="7.2794465"><ele>243.33333333333331</ele><time>2026-04-03T14:14:47.9Z</time></trkpt><trkpt lat="47.8239189" lon="7.2796826"><ele>244.0</ele><time>2026-04-03T14:14:48.899Z</time></trkpt><trkpt lat="47.8240042" lon="7.2799093"><ele>244.33333333333331</ele><time>2026-04-03T14:14:49.899Z</time></trkpt><trkpt lat="47.8240856" lon="7.2801202"><ele>244.66666666666669</ele><time>2026-04-03T14:14:50.899Z</time></trkpt><trkpt lat="47.8241668" lon="7.2803194"><ele>245.0</ele><time>2026-04-03T14:14:51.9Z</time></trkpt><trkpt lat="47.824252" lon="7.2805196"><ele>244.0</ele><time>2026-04-03T14:14:52.901Z</time></trkpt><trkpt lat="47.824335" lon="7.2807197"><ele>243.0</ele><time>2026-04-03T14:14:53.901Z</time></trkpt><trkpt lat="47.8244195" lon="7.2809222"><ele>242.0</ele><time>2026-04-03T14:14:54.899Z</time></trkpt><trkpt lat="47.8245041" lon="7.2811228"><ele>242.0</ele><time>2026-04-03T14:14:55.9Z</time></trkpt><trkpt lat="47.824594" lon="7.2813246"><ele>242.0</ele><time>2026-04-03T14:14:56.899Z</time></trkpt><trkpt lat="47.8246895" lon="7.2815238"><ele>242.0</ele><time>2026-04-03T14:14:57.899Z</time></trkpt><trkpt lat="47.8247854" lon="7.2817247"><ele>242.0</ele><time>2026-04-03T14:14:58.899Z</time></trkpt><trkpt lat="47.8248814" lon="7.2819309"><ele>242.0</ele><time>2026-04-03T14:14:59.899Z</time></trkpt><trkpt lat="47.824975" lon="7.282136"><ele>242.0</ele><time>2026-04-03T14:15:00.899Z</time></trkpt><trkpt lat="47.8250635" lon="7.2823483"><ele>242.33333333333334</ele><time>2026-04-03T14:15:01.9Z</time></trkpt><trkpt lat="47.8251517" lon="7.2825612"><ele>242.66666666666669</ele><time>2026-04-03T14:15:02.899Z</time></trkpt><trkpt lat="47.8252411" lon="7.2827735"><ele>243.0</ele><time>2026-04-03T14:15:03.899Z</time></trkpt><trkpt lat="47.8253286" lon="7.2829918"><ele>243.33333333333331</ele><time>2026-04-03T14:15:04.899Z</time></trkpt><trkpt lat="47.8254152" lon="7.2832084"><ele>243.66666666666666</ele><time>2026-04-03T14:15:05.899Z</time></trkpt><trkpt lat="47.8255052" lon="7.2834278"><ele>244.0</ele><time>2026-04-03T14:15:06.901Z</time></trkpt><trkpt lat="47.8255918" lon="7.2836447"><ele>244.0</ele><time>2026-04-03T14:15:07.9Z</time></trkpt><trkpt lat="47.8256778" lon="7.2838633"><ele>244.0</ele><time>2026-04-03T14:15:08.899Z</time></trkpt><trkpt lat="47.8257667" lon="7.2840815"><ele>244.0</ele><time>2026-04-03T14:15:09.9Z</time></trkpt><trkpt lat="47.8258564" lon="7.2842985"><ele>244.0</ele><time>2026-04-03T14:15:10.899Z</time></trkpt><trkpt lat="47.8259418" lon="7.2845093"><ele>244.0</ele><time>2026-04-03T14:15:11.899Z</time></trkpt><trkpt lat="47.8260276" lon="7.2847186"><ele>244.0</ele><time>2026-04-03T14:15:12.899Z</time></trkpt><trkpt lat="47.826113" lon="7.284929"><ele>242.33333333333331</ele><time>2026-04-03T14:15:13.9Z</time></trkpt><trkpt lat="47.826201" lon="7.2851416"><ele>240.66666666666669</ele><time>2026-04-03T14:15:14.899Z</time></trkpt><trkpt lat="47.826288" lon="7.2853535"><ele>239.0</ele><time>2026-04-03T14:15:15.9Z</time></trkpt><trkpt lat="47.8263788" lon="7.2855709"><ele>239.33333333333334</ele><time>2026-04-03T14:15:16.899Z</time></trkpt><trkpt lat="47.8264703" lon="7.2857926"><ele>239.66666666666669</ele><time>2026-04-03T14:15:17.899Z</time></trkpt><trkpt lat="47.8265642" lon="7.2860177"><ele>240.0</ele><time>2026-04-03T14:15:18.899Z</time></trkpt><trkpt lat="47.8266611" lon="7.2862533"><ele>240.0</ele><time>2026-04-03T14:15:19.899Z</time></trkpt><trkpt lat="47.8267571" lon="7.2864938"><ele>240.0</ele><time>2026-04-03T14:15:20.9Z</time></trkpt><trkpt lat="47.8268507" lon="7.2867208"><ele>240.0</ele><time>2026-04-03T14:15:21.9Z</time></trkpt><trkpt lat="47.8269394" lon="7.2869351"><ele>240.0</ele><time>2026-04-03T14:15:22.9Z</time></trkpt><trkpt lat="47.8270304" lon="7.2871486"><ele>240.0</ele><time>2026-04-03T14:15:23.899Z</time></trkpt><trkpt lat="47.8271236" lon="7.2873663"><ele>240.0</ele><time>2026-04-03T14:15:24.9Z</time></trkpt><trkpt lat="47.8272194" lon="7.2875916"><ele>240.33333333333331</ele><time>2026-04-03T14:15:25.9Z</time></trkpt><trkpt lat="47.827318" lon="7.2878214"><ele>240.66666666666666</ele><time>2026-04-03T14:15:26.9Z</time></trkpt><trkpt lat="47.8274183" lon="7.2880615"><ele>241.0</ele><time>2026-04-03T14:15:27.9Z</time></trkpt><trkpt lat="47.8275178" lon="7.2883034"><ele>240.66666666666666</ele><time>2026-04-03T14:15:28.9Z</time></trkpt><trkpt lat="47.8276189" lon="7.2885406"><ele>240.33333333333331</ele><time>2026-04-03T14:15:29.901Z</time></trkpt><trkpt lat="47.8277177" lon="7.2887819"><ele>240.0</ele><time>2026-04-03T14:15:30.9Z</time></trkpt><trkpt lat="47.8278109" lon="7.289019"><ele>239.33333333333331</ele><time>2026-04-03T14:15:31.9Z</time></trkpt><trkpt lat="47.8279071" lon="7.2892573"><ele>238.66666666666666</ele><time>2026-04-03T14:15:32.9Z</time></trkpt><trkpt lat="47.8280094" lon="7.2894932"><ele>238.0</ele><time>2026-04-03T14:15:33.9Z</time></trkpt><trkpt lat="47.828111" lon="7.2897319"><ele>238.33333333333331</ele><time>2026-04-03T14:15:34.901Z</time></trkpt><trkpt lat="47.828219" lon="7.2899785"><ele>238.66666666666669</ele><time>2026-04-03T14:15:35.9Z</time></trkpt><trkpt lat="47.8283222" lon="7.2902275"><ele>239.0</ele><time>2026-04-03T14:15:36.901Z</time></trkpt><trkpt lat="47.828424" lon="7.2904808"><ele>238.33333333333334</ele><time>2026-04-03T14:15:37.9Z</time></trkpt><trkpt lat="47.8285333" lon="7.2907373"><ele>237.66666666666669</ele><time>2026-04-03T14:15:38.899Z</time></trkpt><trkpt lat="47.8286406" lon="7.2909957"><ele>237.0</ele><time>2026-04-03T14:15:39.899Z</time></trkpt><trkpt lat="47.8287463" lon="7.2912568"><ele>237.0</ele><time>2026-04-03T14:15:40.899Z</time></trkpt><trkpt lat="47.8288486" lon="7.2915046"><ele>237.0</ele><time>2026-04-03T14:15:41.9Z</time></trkpt><trkpt lat="47.8289435" lon="7.2917399"><ele>237.0</ele><time>2026-04-03T14:15:42.899Z</time></trkpt><trkpt lat="47.8290387" lon="7.2919736"><ele>237.0</ele><time>2026-04-03T14:15:43.9Z</time></trkpt><trkpt lat="47.8291378" lon="7.2922142"><ele>237.0</ele><time>2026-04-03T14:15:44.901Z</time></trkpt><trkpt lat="47.8292417" lon="7.2924601"><ele>237.0</ele><time>2026-04-03T14:15:45.9Z</time></trkpt><trkpt lat="47.8293488" lon="7.2927124"><ele>235.66666666666669</ele><time>2026-04-03T14:15:46.899Z</time></trkpt><trkpt lat="47.8294541" lon="7.2929631"><ele>234.33333333333334</ele><time>2026-04-03T14:15:47.9Z</time></trkpt><trkpt lat="47.8295572" lon="7.2932209"><ele>233.0</ele><time>2026-04-03T14:15:48.901Z</time></trkpt><trkpt lat="47.8296665" lon="7.2934746"><ele>232.66666666666669</ele><time>2026-04-03T14:15:49.9Z</time></trkpt><trkpt lat="47.8297729" lon="7.2937217"><ele>232.33333333333331</ele><time>2026-04-03T14:15:50.9Z</time></trkpt><trkpt lat="47.8298779" lon="7.2939716"><ele>232.0</ele><time>2026-04-03T14:15:51.899Z</time></trkpt><trkpt lat="47.8299803" lon="7.2942233"><ele>232.0</ele><time>2026-04-03T14:15:52.9Z</time></trkpt><trkpt lat="47.830081" lon="7.2944773"><ele>232.0</ele><time>2026-04-03T14:15:53.899Z</time></trkpt><trkpt lat="47.8301823" lon="7.2947307"><ele>232.0</ele><time>2026-04-03T14:15:54.9Z</time></trkpt><trkpt lat="47.8302848" lon="7.2949836"><ele>231.66666666666666</ele><time>2026-04-03T14:15:55.9Z</time></trkpt><trkpt lat="47.8303921" lon="7.2952386"><ele>231.33333333333331</ele><time>2026-04-03T14:15:56.899Z</time></trkpt><trkpt lat="47.8305086" lon="7.2954865"><ele>231.0</ele><time>2026-04-03T14:15:57.899Z</time></trkpt><trkpt lat="47.8306486" lon="7.295712"><ele>231.0</ele><time>2026-04-03T14:15:58.899Z</time></trkpt><trkpt lat="47.830777" lon="7.2959325"><ele>231.0</ele><time>2026-04-03T14:15:59.9Z</time></trkpt><trkpt lat="47.8309021" lon="7.2961393"><ele>231.0</ele><time>2026-04-03T14:16:00.899Z</time></trkpt><trkpt lat="47.831023" lon="7.2963338"><ele>231.0</ele><time>2026-04-03T14:16:01.899Z</time></trkpt><trkpt lat="47.8311368" lon="7.2965186"><ele>231.0</ele><time>2026-04-03T14:16:02.899Z</time></trkpt><trkpt lat="47.8312468" lon="7.2966972"><ele>231.0</ele><time>2026-04-03T14:16:03.9Z</time></trkpt><trkpt lat="47.8313571" lon="7.2968746"><ele>231.0</ele><time>2026-04-03T14:16:04.9Z</time></trkpt><trkpt lat="47.8314689" lon="7.2970522"><ele>231.0</ele><time>2026-04-03T14:16:05.899Z</time></trkpt><trkpt lat="47.8315814" lon="7.2972323"><ele>231.0</ele><time>2026-04-03T14:16:06.9Z</time></trkpt><trkpt lat="47.8316952" lon="7.2974136"><ele>230.0</ele><time>2026-04-03T14:16:07.899Z</time></trkpt><trkpt lat="47.8318084" lon="7.2975942"><ele>229.0</ele><time>2026-04-03T14:16:08.899Z</time></trkpt><trkpt lat="47.831914" lon="7.2977662"><ele>228.0</ele><time>2026-04-03T14:16:09.899Z</time></trkpt><trkpt lat="47.8320125" lon="7.2979298"><ele>228.0</ele><time>2026-04-03T14:16:10.9Z</time></trkpt><trkpt lat="47.8321077" lon="7.298084"><ele>228.0</ele><time>2026-04-03T14:16:11.899Z</time></trkpt><trkpt lat="47.8322086" lon="7.2982412"><ele>228.0</ele><time>2026-04-03T14:16:12.899Z</time></trkpt><trkpt lat="47.8323054" lon="7.2983911"><ele>228.0</ele><time>2026-04-03T14:16:13.899Z</time></trkpt><trkpt lat="47.8323968" lon="7.2985322"><ele>228.25</ele><time>2026-04-03T14:16:14.9Z</time></trkpt><trkpt lat="47.8324789" lon="7.2986658"><ele>228.5</ele><time>2026-04-03T14:16:15.9Z</time></trkpt><trkpt lat="47.8325564" lon="7.2987888"><ele>228.75</ele><time>2026-04-03T14:16:16.899Z</time></trkpt><trkpt lat="47.8326334" lon="7.2989108"><ele>229.0</ele><time>2026-04-03T14:16:17.899Z</time></trkpt><trkpt lat="47.8327096" lon="7.2990322"><ele>229.0</ele><time>2026-04-03T14:16:18.9Z</time></trkpt><trkpt lat="47.8327779" lon="7.2991448"><ele>228.99999999999997</ele><time>2026-04-03T14:16:19.899Z</time></trkpt><trkpt lat="47.8328411" lon="7.2992469"><ele>228.99999999999997</ele><time>2026-04-03T14:16:20.899Z</time></trkpt><trkpt lat="47.832906" lon="7.2993501"><ele>229.0</ele><time>2026-04-03T14:16:21.899Z</time></trkpt><trkpt lat="47.8329647" lon="7.2994505"><ele>229.0</ele><time>2026-04-03T14:16:22.899Z</time></trkpt><trkpt lat="47.8330222" lon="7.2995414"><ele>229.0</ele><time>2026-04-03T14:16:23.899Z</time></trkpt><trkpt lat="47.833081" lon="7.2996383"><ele>228.99999999999997</ele><time>2026-04-03T14:16:24.899Z</time></trkpt><trkpt lat="47.8331354" lon="7.2997257"><ele>228.99999999999997</ele><time>2026-04-03T14:16:25.899Z</time></trkpt><trkpt lat="47.8331833" lon="7.2998009"><ele>229.0</ele><time>2026-04-03T14:16:26.899Z</time></trkpt><trkpt lat="47.8332642" lon="7.2999308"><ele>229.0</ele><time>2026-04-03T14:16:28.899Z</time></trkpt><trkpt lat="47.8333523" lon="7.3000728"><ele>229.49999999999997</ele><time>2026-04-03T14:16:30.9Z</time></trkpt><trkpt lat="47.8334036" lon="7.3001579"><ele>230.0</ele><time>2026-04-03T14:16:31.9Z</time></trkpt><trkpt lat="47.8334578" lon="7.3002457"><ele>230.5</ele><time>2026-04-03T14:16:32.9Z</time></trkpt><trkpt lat="47.8335114" lon="7.3003355"><ele>231.0</ele><time>2026-04-03T14:16:33.9Z</time></trkpt><trkpt lat="47.8335641" lon="7.3004182"><ele>231.49999999999997</ele><time>2026-04-03T14:16:34.899Z</time></trkpt><trkpt lat="47.8336152" lon="7.3005021"><ele>232.0</ele><time>2026-04-03T14:16:35.9Z</time></trkpt><trkpt lat="47.8336603" lon="7.3005791"><ele>232.0</ele><time>2026-04-03T14:16:36.9Z</time></trkpt><trkpt lat="47.8337433" lon="7.3006923"><ele>232.0</ele><time>2026-04-03T14:16:38.899Z</time></trkpt><trkpt lat="47.8337959" lon="7.3007717"><ele>232.0</ele><time>2026-04-03T14:17:34.9Z</time></trkpt><trkpt lat="47.8338944" lon="7.3009361"><ele>232.0</ele><time>2026-04-03T14:17:36.899Z</time></trkpt><trkpt lat="47.8339738" lon="7.301085"><ele>232.0</ele><time>2026-04-03T14:17:37.899Z</time></trkpt><trkpt lat="47.8340658" lon="7.3012589"><ele>232.0</ele><time>2026-04-03T14:17:38.9Z</time></trkpt><trkpt lat="47.8341578" lon="7.3014356"><ele>232.0</ele><time>2026-04-03T14:17:39.899Z</time></trkpt><trkpt lat="47.834241" lon="7.3015927"><ele>232.0</ele><time>2026-04-03T14:17:40.9Z</time></trkpt><trkpt lat="47.8343212" lon="7.3017404"><ele>231.75</ele><time>2026-04-03T14:17:41.899Z</time></trkpt><trkpt lat="47.8344044" lon="7.3018901"><ele>231.5</ele><time>2026-04-03T14:17:42.899Z</time></trkpt><trkpt lat="47.8344869" lon="7.3020354"><ele>231.25</ele><time>2026-04-03T14:17:43.9Z</time></trkpt><trkpt lat="47.8345589" lon="7.3021718"><ele>231.0</ele><time>2026-04-03T14:17:44.9Z</time></trkpt><trkpt lat="47.8346261" lon="7.3022941"><ele>231.0</ele><time>2026-04-03T14:17:45.899Z</time></trkpt><trkpt lat="47.8346807" lon="7.3024145"><ele>231.00000000000003</ele><time>2026-04-03T14:17:46.9Z</time></trkpt><trkpt lat="47.8346995" lon="7.3025404"><ele>231.00000000000003</ele><time>2026-04-03T14:17:47.9Z</time></trkpt><trkpt lat="47.8346918" lon="7.3026882"><ele>231.0</ele><time>2026-04-03T14:17:48.901Z</time></trkpt><trkpt lat="47.8346529" lon="7.3028418"><ele>231.0</ele><time>2026-04-03T14:17:49.899Z</time></trkpt><trkpt lat="47.8346004" lon="7.3029917"><ele>231.20000000000002</ele><time>2026-04-03T14:17:50.9Z</time></trkpt><trkpt lat="47.8345505" lon="7.3031257"><ele>231.40000000000003</ele><time>2026-04-03T14:17:51.9Z</time></trkpt><trkpt lat="47.8344994" lon="7.3032605"><ele>231.6</ele><time>2026-04-03T14:17:52.9Z</time></trkpt><trkpt lat="47.8344476" lon="7.3034002"><ele>231.8</ele><time>2026-04-03T14:17:53.9Z</time></trkpt><trkpt lat="47.8343976" lon="7.3035364"><ele>232.0</ele><time>2026-04-03T14:17:54.899Z</time></trkpt><trkpt lat="47.8343512" lon="7.3036533"><ele>232.2</ele><time>2026-04-03T14:17:55.9Z</time></trkpt><trkpt lat="47.8343029" lon="7.3037787"><ele>232.39999999999998</ele><time>2026-04-03T14:17:56.9Z</time></trkpt><trkpt lat="47.8342557" lon="7.3039115"><ele>232.60000000000002</ele><time>2026-04-03T14:17:57.899Z</time></trkpt><trkpt lat="47.8342048" lon="7.304052"><ele>232.8</ele><time>2026-04-03T14:17:58.899Z</time></trkpt><trkpt lat="47.8341505" lon="7.3041994"><ele>233.0</ele><time>2026-04-03T14:17:59.899Z</time></trkpt><trkpt lat="47.8340915" lon="7.3043467"><ele>233.25</ele><time>2026-04-03T14:18:00.899Z</time></trkpt><trkpt lat="47.83403" lon="7.3045017"><ele>233.5</ele><time>2026-04-03T14:18:01.9Z</time></trkpt><trkpt lat="47.8339702" lon="7.3046629"><ele>233.75</ele><time>2026-04-03T14:18:02.899Z</time></trkpt><trkpt lat="47.8339128" lon="7.3048259"><ele>234.0</ele><time>2026-04-03T14:18:03.9Z</time></trkpt><trkpt lat="47.8338551" lon="7.304986"><ele>233.0</ele><time>2026-04-03T14:18:04.899Z</time></trkpt><trkpt lat="47.8337942" lon="7.3051405"><ele>232.0</ele><time>2026-04-03T14:18:05.899Z</time></trkpt><trkpt lat="47.833735" lon="7.3052938"><ele>231.0</ele><time>2026-04-03T14:18:06.9Z</time></trkpt><trkpt lat="47.8336819" lon="7.3054566"><ele>230.0</ele><time>2026-04-03T14:18:07.9Z</time></trkpt><trkpt lat="47.8336293" lon="7.3056119"><ele>230.0</ele><time>2026-04-03T14:18:08.9Z</time></trkpt><trkpt lat="47.8335737" lon="7.3057644"><ele>230.0</ele><time>2026-04-03T14:18:09.9Z</time></trkpt><trkpt lat="47.8335156" lon="7.3059139"><ele>230.0</ele><time>2026-04-03T14:18:10.9Z</time></trkpt><trkpt lat="47.8334594" lon="7.306062"><ele>230.0</ele><time>2026-04-03T14:18:11.899Z</time></trkpt><trkpt lat="47.8334028" lon="7.3062125"><ele>230.0</ele><time>2026-04-03T14:18:12.9Z</time></trkpt><trkpt lat="47.8333463" lon="7.3063616"><ele>230.0</ele><time>2026-04-03T14:18:13.9Z</time></trkpt><trkpt lat="47.8332908" lon="7.3065105"><ele>230.0</ele><time>2026-04-03T14:18:14.899Z</time></trkpt><trkpt lat="47.8332302" lon="7.3066551"><ele>230.0</ele><time>2026-04-03T14:18:15.899Z</time></trkpt><trkpt lat="47.8331658" lon="7.3067945"><ele>230.0</ele><time>2026-04-03T14:18:16.899Z</time></trkpt><trkpt lat="47.8331041" lon="7.3069424"><ele>230.0</ele><time>2026-04-03T14:18:17.899Z</time></trkpt><trkpt lat="47.8330391" lon="7.307096"><ele>230.0</ele><time>2026-04-03T14:18:18.899Z</time></trkpt><trkpt lat="47.8329749" lon="7.3072633"><ele>230.0</ele><time>2026-04-03T14:18:19.899Z</time></trkpt><trkpt lat="47.8329084" lon="7.3074289"><ele>230.0</ele><time>2026-04-03T14:18:20.9Z</time></trkpt><trkpt lat="47.8328365" lon="7.307591"><ele>230.0</ele><time>2026-04-03T14:18:21.899Z</time></trkpt><trkpt lat="47.8327546" lon="7.3077536"><ele>230.0</ele><time>2026-04-03T14:18:22.899Z</time></trkpt><trkpt lat="47.8326615" lon="7.307915"><ele>230.0</ele><time>2026-04-03T14:18:23.899Z</time></trkpt><trkpt lat="47.832569" lon="7.3080601"><ele>230.25</ele><time>2026-04-03T14:18:24.9Z</time></trkpt><trkpt lat="47.8324643" lon="7.3082002"><ele>230.5</ele><time>2026-04-03T14:18:25.899Z</time></trkpt><trkpt lat="47.8323503" lon="7.3083358"><ele>230.75</ele><time>2026-04-03T14:18:26.899Z</time></trkpt><trkpt lat="47.832235" lon="7.3084727"><ele>231.0</ele><time>2026-04-03T14:18:27.899Z</time></trkpt><trkpt lat="47.8321175" lon="7.3086096"><ele>231.0</ele><time>2026-04-03T14:18:28.899Z</time></trkpt><trkpt lat="47.8319982" lon="7.3087542"><ele>231.0</ele><time>2026-04-03T14:18:29.901Z</time></trkpt><trkpt lat="47.8318758" lon="7.3089086"><ele>231.0</ele><time>2026-04-03T14:18:30.899Z</time></trkpt><trkpt lat="47.8317503" lon="7.3090885"><ele>231.0</ele><time>2026-04-03T14:18:31.899Z</time></trkpt><trkpt lat="47.8316305" lon="7.3093132"><ele>231.0</ele><time>2026-04-03T14:18:32.9Z</time></trkpt><trkpt lat="47.8315229" lon="7.3095816"><ele>231.0</ele><time>2026-04-03T14:18:33.9Z</time></trkpt><trkpt lat="47.8314406" lon="7.3098993"><ele>230.5</ele><time>2026-04-03T14:18:34.899Z</time></trkpt><trkpt lat="47.8313779" lon="7.3102621"><ele>230.0</ele><time>2026-04-03T14:18:35.899Z</time></trkpt><trkpt lat="47.831316" lon="7.3106578"><ele>230.0</ele><time>2026-04-03T14:18:36.899Z</time></trkpt><trkpt lat="47.8312552" lon="7.3110619"><ele>230.0</ele><time>2026-04-03T14:18:37.901Z</time></trkpt><trkpt lat="47.8311959" lon="7.3114354"><ele>230.5</ele><time>2026-04-03T14:18:38.9Z</time></trkpt><trkpt lat="47.8311416" lon="7.3117883"><ele>231.0</ele><time>2026-04-03T14:18:39.899Z</time></trkpt><trkpt lat="47.8310888" lon="7.3121391"><ele>230.0</ele><time>2026-04-03T14:18:40.899Z</time></trkpt><trkpt lat="47.8310356" lon="7.3124947"><ele>229.0</ele><time>2026-04-03T14:18:41.899Z</time></trkpt><trkpt lat="47.8309759" lon="7.3128534"><ele>229.5</ele><time>2026-04-03T14:18:42.9Z</time></trkpt><trkpt lat="47.8309278" lon="7.3132217"><ele>230.0</ele><time>2026-04-03T14:18:43.899Z</time></trkpt><trkpt lat="47.8308986" lon="7.3136018"><ele>230.0</ele><time>2026-04-03T14:18:44.899Z</time></trkpt><trkpt lat="47.8308987" lon="7.3139986"><ele>230.0</ele><time>2026-04-03T14:18:45.9Z</time></trkpt><trkpt lat="47.8308995" lon="7.314412"><ele>230.0</ele><time>2026-04-03T14:18:46.899Z</time></trkpt><trkpt lat="47.8309009" lon="7.3148404"><ele>230.0</ele><time>2026-04-03T14:18:47.899Z</time></trkpt><trkpt lat="47.8309022" lon="7.3152384"><ele>230.5</ele><time>2026-04-03T14:18:48.899Z</time></trkpt><trkpt lat="47.8309036" lon="7.3156171"><ele>231.0</ele><time>2026-04-03T14:18:49.901Z</time></trkpt><trkpt lat="47.8309052" lon="7.3159764"><ele>231.0</ele><time>2026-04-03T14:18:50.9Z</time></trkpt><trkpt lat="47.8309072" lon="7.3163307"><ele>231.0</ele><time>2026-04-03T14:18:51.899Z</time></trkpt><trkpt lat="47.8309115" lon="7.316692"><ele>231.0</ele><time>2026-04-03T14:18:52.901Z</time></trkpt><trkpt lat="47.8309128" lon="7.3170568"><ele>231.0</ele><time>2026-04-03T14:18:53.901Z</time></trkpt><trkpt lat="47.8309143" lon="7.3174496"><ele>231.5</ele><time>2026-04-03T14:18:54.899Z</time></trkpt><trkpt lat="47.8309178" lon="7.317861"><ele>232.0</ele><time>2026-04-03T14:18:55.899Z</time></trkpt><trkpt lat="47.8309211" lon="7.3182932"><ele>229.5</ele><time>2026-04-03T14:18:56.899Z</time></trkpt><trkpt lat="47.8309242" lon="7.3187392"><ele>227.0</ele><time>2026-04-03T14:18:57.9Z</time></trkpt><trkpt lat="47.8309295" lon="7.3191722"><ele>227.0</ele><time>2026-04-03T14:18:58.9Z</time></trkpt><trkpt lat="47.8309336" lon="7.3195762"><ele>227.0</ele><time>2026-04-03T14:18:59.9Z</time></trkpt><trkpt lat="47.8309363" lon="7.3199546"><ele>227.0</ele><time>2026-04-03T14:19:00.899Z</time></trkpt><trkpt lat="47.8309383" lon="7.3203092"><ele>227.0</ele><time>2026-04-03T14:19:01.899Z</time></trkpt><trkpt lat="47.8309411" lon="7.3206431"><ele>227.5</ele><time>2026-04-03T14:19:02.9Z</time></trkpt><trkpt lat="47.830942" lon="7.3209774"><ele>228.0</ele><time>2026-04-03T14:19:03.9Z</time></trkpt><trkpt lat="47.8309409" lon="7.3213261"><ele>228.0</ele><time>2026-04-03T14:19:04.901Z</time></trkpt><trkpt lat="47.8309404" lon="7.321666"><ele>228.0</ele><time>2026-04-03T14:19:05.899Z</time></trkpt><trkpt lat="47.8309424" lon="7.3219809"><ele>228.0</ele><time>2026-04-03T14:19:06.899Z</time></trkpt><trkpt lat="47.8309461" lon="7.3222915"><ele>227.66666666666669</ele><time>2026-04-03T14:19:07.901Z</time></trkpt><trkpt lat="47.830951" lon="7.3226087"><ele>227.33333333333334</ele><time>2026-04-03T14:19:08.899Z</time></trkpt><trkpt lat="47.8309553" lon="7.3229188"><ele>227.0</ele><time>2026-04-03T14:19:09.9Z</time></trkpt><trkpt lat="47.8309573" lon="7.3232127"><ele>226.0</ele><time>2026-04-03T14:19:10.899Z</time></trkpt><trkpt lat="47.8309596" lon="7.3234956"><ele>225.0</ele><time>2026-04-03T14:19:11.899Z</time></trkpt><trkpt lat="47.8309623" lon="7.3237781"><ele>224.0</ele><time>2026-04-03T14:19:12.9Z</time></trkpt><trkpt lat="47.8309673" lon="7.3240676"><ele>223.66666666666669</ele><time>2026-04-03T14:19:13.899Z</time></trkpt><trkpt lat="47.8309694" lon="7.3243531"><ele>223.33333333333331</ele><time>2026-04-03T14:19:14.9Z</time></trkpt><trkpt lat="47.830973" lon="7.324624"><ele>223.0</ele><time>2026-04-03T14:19:15.9Z</time></trkpt><trkpt lat="47.8309768" lon="7.3248833"><ele>223.66666666666666</ele><time>2026-04-03T14:19:16.9Z</time></trkpt><trkpt lat="47.8309817" lon="7.3251258"><ele>224.33333333333331</ele><time>2026-04-03T14:19:17.9Z</time></trkpt><trkpt lat="47.8309851" lon="7.3253549"><ele>225.0</ele><time>2026-04-03T14:19:18.899Z</time></trkpt><trkpt lat="47.830987" lon="7.3255741"><ele>225.0</ele><time>2026-04-03T14:19:19.899Z</time></trkpt><trkpt lat="47.830983" lon="7.3257846"><ele>225.0</ele><time>2026-04-03T14:19:20.899Z</time></trkpt><trkpt lat="47.8309669" lon="7.3259939"><ele>225.0</ele><time>2026-04-03T14:19:21.9Z</time></trkpt><trkpt lat="47.8309342" lon="7.3261828"><ele>225.0</ele><time>2026-04-03T14:19:22.899Z</time></trkpt><trkpt lat="47.8308806" lon="7.3263605"><ele>225.0</ele><time>2026-04-03T14:19:23.899Z</time></trkpt><trkpt lat="47.8308128" lon="7.326522"><ele>225.0</ele><time>2026-04-03T14:19:24.9Z</time></trkpt><trkpt lat="47.8307349" lon="7.3266732"><ele>225.0</ele><time>2026-04-03T14:19:25.899Z</time></trkpt><trkpt lat="47.8306449" lon="7.326819"><ele>225.0</ele><time>2026-04-03T14:19:26.9Z</time></trkpt><trkpt lat="47.8305546" lon="7.326961"><ele>225.0</ele><time>2026-04-03T14:19:27.901Z</time></trkpt><trkpt lat="47.8304717" lon="7.3270906"><ele>225.0</ele><time>2026-04-03T14:19:28.899Z</time></trkpt><trkpt lat="47.8303896" lon="7.3272205"><ele>225.0</ele><time>2026-04-03T14:19:29.9Z</time></trkpt><trkpt lat="47.8303044" lon="7.3273449"><ele>225.0</ele><time>2026-04-03T14:19:30.9Z</time></trkpt><trkpt lat="47.8302154" lon="7.3274748"><ele>225.0</ele><time>2026-04-03T14:19:31.899Z</time></trkpt><trkpt lat="47.8301279" lon="7.3276179"><ele>225.0</ele><time>2026-04-03T14:19:32.9Z</time></trkpt><trkpt lat="47.830039" lon="7.3277511"><ele>225.0</ele><time>2026-04-03T14:19:33.9Z</time></trkpt><trkpt lat="47.8299494" lon="7.3278839"><ele>225.0</ele><time>2026-04-03T14:19:34.899Z</time></trkpt><trkpt lat="47.8298681" lon="7.3280081"><ele>225.5</ele><time>2026-04-03T14:19:35.899Z</time></trkpt><trkpt lat="47.8297822" lon="7.3281309"><ele>226.0</ele><time>2026-04-03T14:19:36.9Z</time></trkpt><trkpt lat="47.8296982" lon="7.3282513"><ele>226.5</ele><time>2026-04-03T14:19:37.9Z</time></trkpt><trkpt lat="47.8296179" lon="7.3283717"><ele>227.0</ele><time>2026-04-03T14:19:38.9Z</time></trkpt><trkpt lat="47.829534" lon="7.3284949"><ele>227.0</ele><time>2026-04-03T14:19:39.899Z</time></trkpt><trkpt lat="47.8294467" lon="7.328623"><ele>227.0</ele><time>2026-04-03T14:19:40.9Z</time></trkpt><trkpt lat="47.8293634" lon="7.3287561"><ele>227.0</ele><time>2026-04-03T14:19:41.9Z</time></trkpt><trkpt lat="47.8292819" lon="7.3288781"><ele>227.0</ele><time>2026-04-03T14:19:42.899Z</time></trkpt><trkpt lat="47.8291955" lon="7.329008"><ele>226.5</ele><time>2026-04-03T14:19:43.901Z</time></trkpt><trkpt lat="47.8291113" lon="7.3291543"><ele>226.0</ele><time>2026-04-03T14:19:44.901Z</time></trkpt><trkpt lat="47.8290354" lon="7.3293139"><ele>225.5</ele><time>2026-04-03T14:19:45.899Z</time></trkpt><trkpt lat="47.8289721" lon="7.3294853"><ele>225.0</ele><time>2026-04-03T14:19:46.899Z</time></trkpt><trkpt lat="47.8289209" lon="7.329666"><ele>224.75</ele><time>2026-04-03T14:19:47.9Z</time></trkpt><trkpt lat="47.828882" lon="7.329844"><ele>224.5</ele><time>2026-04-03T14:19:48.899Z</time></trkpt><trkpt lat="47.8288467" lon="7.3300112"><ele>224.25</ele><time>2026-04-03T14:19:49.899Z</time></trkpt><trkpt lat="47.8288141" lon="7.3301684"><ele>224.0</ele><time>2026-04-03T14:19:50.901Z</time></trkpt><trkpt lat="47.8287843" lon="7.3303106"><ele>224.00000000000003</ele><time>2026-04-03T14:19:51.9Z</time></trkpt><trkpt lat="47.8287565" lon="7.3304399"><ele>224.0</ele><time>2026-04-03T14:19:52.9Z</time></trkpt><trkpt lat="47.8287318" lon="7.3305621"><ele>224.0</ele><time>2026-04-03T14:19:53.9Z</time></trkpt><trkpt lat="47.8287109" lon="7.3306686"><ele>224.0</ele><time>2026-04-03T14:19:54.899Z</time></trkpt><trkpt lat="47.8286864" lon="7.3307752"><ele>224.00000000000003</ele><time>2026-04-03T14:19:55.9Z</time></trkpt><trkpt lat="47.8286583" lon="7.3309003"><ele>224.0</ele><time>2026-04-03T14:19:56.9Z</time></trkpt><trkpt lat="47.8286246" lon="7.331007"><ele>224.00000000000003</ele><time>2026-04-03T14:19:57.9Z</time></trkpt><trkpt lat="47.8285745" lon="7.3311125"><ele>224.0</ele><time>2026-04-03T14:19:58.9Z</time></trkpt><trkpt lat="47.8285116" lon="7.3311973"><ele>224.0</ele><time>2026-04-03T14:19:59.899Z</time></trkpt><trkpt lat="47.8284613" lon="7.3312724"><ele>224.0</ele><time>2026-04-03T14:20:00.899Z</time></trkpt><trkpt lat="47.8284587" lon="7.3313663"><ele>224.00000000000003</ele><time>2026-04-03T14:20:01.9Z</time></trkpt><trkpt lat="47.8284757" lon="7.3314863"><ele>224.0</ele><time>2026-04-03T14:20:02.899Z</time></trkpt><trkpt lat="47.8284826" lon="7.3316377"><ele>224.25</ele><time>2026-04-03T14:20:03.901Z</time></trkpt><trkpt lat="47.8284663" lon="7.3318174"><ele>224.5</ele><time>2026-04-03T14:20:04.901Z</time></trkpt><trkpt lat="47.8284308" lon="7.3320277"><ele>224.75</ele><time>2026-04-03T14:20:05.899Z</time></trkpt><trkpt lat="47.8283831" lon="7.3322689"><ele>225.0</ele><time>2026-04-03T14:20:06.899Z</time></trkpt><trkpt lat="47.828342" lon="7.3324724"><ele>225.0</ele><time>2026-04-03T14:20:07.899Z</time></trkpt><trkpt lat="47.8283039" lon="7.3326675"><ele>225.0</ele><time>2026-04-03T14:20:08.9Z</time></trkpt><trkpt lat="47.8282674" lon="7.3328477"><ele>225.0</ele><time>2026-04-03T14:20:09.899Z</time></trkpt><trkpt lat="47.8282301" lon="7.3330298"><ele>225.0</ele><time>2026-04-03T14:20:10.899Z</time></trkpt><trkpt lat="47.8281922" lon="7.3332102"><ele>225.25</ele><time>2026-04-03T14:20:11.899Z</time></trkpt><trkpt lat="47.828155" lon="7.3333905"><ele>225.5</ele><time>2026-04-03T14:20:12.899Z</time></trkpt><trkpt lat="47.8281174" lon="7.3335683"><ele>225.75</ele><time>2026-04-03T14:20:13.9Z</time></trkpt><trkpt lat="47.8280842" lon="7.333732"><ele>226.0</ele><time>2026-04-03T14:20:14.9Z</time></trkpt><trkpt lat="47.8280547" lon="7.3338754"><ele>226.20000000000002</ele><time>2026-04-03T14:20:15.9Z</time></trkpt><trkpt lat="47.8280292" lon="7.3340044"><ele>226.40000000000003</ele><time>2026-04-03T14:20:16.9Z</time></trkpt><trkpt lat="47.8280065" lon="7.3341223"><ele>226.6</ele><time>2026-04-03T14:20:17.9Z</time></trkpt><trkpt lat="47.8279851" lon="7.3342212"><ele>226.8</ele><time>2026-04-03T14:20:18.899Z</time></trkpt><trkpt lat="47.8279554" lon="7.3343663"><ele>227.0</ele><time>2026-04-03T14:20:20.9Z</time></trkpt><trkpt lat="47.8279237" lon="7.3345464"><ele>227.0</ele><time>2026-04-03T14:20:40.899Z</time></trkpt><trkpt lat="47.8278983" lon="7.3346703"><ele>227.0</ele><time>2026-04-03T14:20:41.9Z</time></trkpt><trkpt lat="47.8278684" lon="7.3348271"><ele>227.0</ele><time>2026-04-03T14:20:42.9Z</time></trkpt><trkpt lat="47.8278315" lon="7.3350165"><ele>227.0</ele><time>2026-04-03T14:20:43.899Z</time></trkpt><trkpt lat="47.8277862" lon="7.3352414"><ele>227.0</ele><time>2026-04-03T14:20:44.899Z</time></trkpt><trkpt lat="47.8277387" lon="7.3354772"><ele>227.0</ele><time>2026-04-03T14:20:45.899Z</time></trkpt><trkpt lat="47.8276908" lon="7.3357054"><ele>227.0</ele><time>2026-04-03T14:20:46.899Z</time></trkpt><trkpt lat="47.8276458" lon="7.3359178"><ele>226.25</ele><time>2026-04-03T14:20:47.899Z</time></trkpt><trkpt lat="47.8276024" lon="7.3361176"><ele>225.5</ele><time>2026-04-03T14:20:48.899Z</time></trkpt><trkpt lat="47.8275595" lon="7.3363154"><ele>224.75</ele><time>2026-04-03T14:20:49.901Z</time></trkpt><trkpt lat="47.8275145" lon="7.3365127"><ele>224.0</ele><time>2026-04-03T14:20:50.9Z</time></trkpt><trkpt lat="47.8274754" lon="7.3367225"><ele>224.0</ele><time>2026-04-03T14:20:51.9Z</time></trkpt><trkpt lat="47.8274663" lon="7.3369608"><ele>224.0</ele><time>2026-04-03T14:20:52.9Z</time></trkpt><trkpt lat="47.8274567" lon="7.3372047"><ele>224.0</ele><time>2026-04-03T14:20:53.899Z</time></trkpt><trkpt lat="47.8274457" lon="7.3374259"><ele>224.0</ele><time>2026-04-03T14:20:54.9Z</time></trkpt><trkpt lat="47.8274361" lon="7.3376345"><ele>224.0</ele><time>2026-04-03T14:20:55.899Z</time></trkpt><trkpt lat="47.8274273" lon="7.3378288"><ele>224.0</ele><time>2026-04-03T14:20:56.899Z</time></trkpt><trkpt lat="47.8274213" lon="7.3380255"><ele>224.0</ele><time>2026-04-03T14:20:57.899Z</time></trkpt><trkpt lat="47.8274134" lon="7.3382278"><ele>223.75</ele><time>2026-04-03T14:20:58.9Z</time></trkpt><trkpt lat="47.8274047" lon="7.3384208"><ele>223.5</ele><time>2026-04-03T14:20:59.901Z</time></trkpt><trkpt lat="47.827398" lon="7.3386023"><ele>223.25</ele><time>2026-04-03T14:21:00.899Z</time></trkpt><trkpt lat="47.8273916" lon="7.3387865"><ele>223.0</ele><time>2026-04-03T14:21:01.9Z</time></trkpt><trkpt lat="47.8273816" lon="7.3389682"><ele>223.0</ele><time>2026-04-03T14:21:02.899Z</time></trkpt><trkpt lat="47.8273739" lon="7.3391436"><ele>223.0</ele><time>2026-04-03T14:21:03.899Z</time></trkpt><trkpt lat="47.8273665" lon="7.3393032"><ele>223.0</ele><time>2026-04-03T14:21:04.899Z</time></trkpt><trkpt lat="47.8273616" lon="7.3394459"><ele>223.0</ele><time>2026-04-03T14:21:05.899Z</time></trkpt><trkpt lat="47.8273549" lon="7.3395657"><ele>223.0</ele><time>2026-04-03T14:21:06.899Z</time></trkpt><trkpt lat="47.827351" lon="7.3396612"><ele>223.0</ele><time>2026-04-03T14:21:07.899Z</time></trkpt><trkpt lat="47.8273452" lon="7.3397761"><ele>223.0</ele><time>2026-04-03T14:21:09.9Z</time></trkpt><trkpt lat="47.827338" lon="7.3399111"><ele>223.0</ele><time>2026-04-03T14:21:41.899Z</time></trkpt><trkpt lat="47.827326" lon="7.3400508"><ele>223.0</ele><time>2026-04-03T14:21:42.899Z</time></trkpt><trkpt lat="47.8273114" lon="7.3402471"><ele>223.0</ele><time>2026-04-03T14:21:43.9Z</time></trkpt><trkpt lat="47.8272998" lon="7.3404985"><ele>222.66666666666666</ele><time>2026-04-03T14:21:44.9Z</time></trkpt><trkpt lat="47.8272866" lon="7.3407952"><ele>222.33333333333331</ele><time>2026-04-03T14:21:45.899Z</time></trkpt><trkpt lat="47.8272699" lon="7.3411335"><ele>222.0</ele><time>2026-04-03T14:21:46.899Z</time></trkpt><trkpt lat="47.8272548" lon="7.3414878"><ele>221.66666666666669</ele><time>2026-04-03T14:21:47.899Z</time></trkpt><trkpt lat="47.8272401" lon="7.3418171"><ele>221.33333333333334</ele><time>2026-04-03T14:21:48.9Z</time></trkpt><trkpt lat="47.8272222" lon="7.3421237"><ele>221.0</ele><time>2026-04-03T14:21:49.882Z</time></trkpt><trkpt lat="47.8271969" lon="7.3424103"><ele>220.66666666666669</ele><time>2026-04-03T14:21:50.878Z</time></trkpt><trkpt lat="47.8271692" lon="7.342677"><ele>220.33333333333331</ele><time>2026-04-03T14:21:51.878Z</time></trkpt><trkpt lat="47.827141" lon="7.3429379"><ele>220.0</ele><time>2026-04-03T14:21:52.876Z</time></trkpt><trkpt lat="47.8271089" lon="7.3431951"><ele>219.66666666666666</ele><time>2026-04-03T14:21:53.878Z</time></trkpt><trkpt lat="47.8270813" lon="7.343452"><ele>219.33333333333331</ele><time>2026-04-03T14:21:54.877Z</time></trkpt><trkpt lat="47.8270529" lon="7.3437216"><ele>219.0</ele><time>2026-04-03T14:21:55.877Z</time></trkpt><trkpt lat="47.8270245" lon="7.343986"><ele>219.0</ele><time>2026-04-03T14:21:56.878Z</time></trkpt><trkpt lat="47.8269948" lon="7.3442346"><ele>219.0</ele><time>2026-04-03T14:21:57.877Z</time></trkpt><trkpt lat="47.8269654" lon="7.344494"><ele>219.0</ele><time>2026-04-03T14:21:58.877Z</time></trkpt><trkpt lat="47.8269364" lon="7.3447594"><ele>219.33333333333331</ele><time>2026-04-03T14:21:59.877Z</time></trkpt><trkpt lat="47.8269079" lon="7.3450304"><ele>219.66666666666666</ele><time>2026-04-03T14:22:00.878Z</time></trkpt><trkpt lat="47.8268786" lon="7.3452899"><ele>220.0</ele><time>2026-04-03T14:22:01.878Z</time></trkpt><trkpt lat="47.8268496" lon="7.3455456"><ele>220.0</ele><time>2026-04-03T14:22:02.877Z</time></trkpt><trkpt lat="47.8268213" lon="7.345801"><ele>220.0</ele><time>2026-04-03T14:22:03.877Z</time></trkpt><trkpt lat="47.8267946" lon="7.3460599"><ele>220.0</ele><time>2026-04-03T14:22:04.877Z</time></trkpt><trkpt lat="47.8267693" lon="7.3463032"><ele>219.66666666666666</ele><time>2026-04-03T14:22:05.877Z</time></trkpt><trkpt lat="47.8267464" lon="7.3465504"><ele>219.33333333333331</ele><time>2026-04-03T14:22:06.877Z</time></trkpt><trkpt lat="47.8267283" lon="7.3467947"><ele>219.0</ele><time>2026-04-03T14:22:07.877Z</time></trkpt><trkpt lat="47.8267121" lon="7.3470442"><ele>218.66666666666669</ele><time>2026-04-03T14:22:08.877Z</time></trkpt><trkpt lat="47.826698" lon="7.3472734"><ele>218.33333333333334</ele><time>2026-04-03T14:22:09.878Z</time></trkpt><trkpt lat="47.8266814" lon="7.3475057"><ele>218.0</ele><time>2026-04-03T14:22:10.877Z</time></trkpt><trkpt lat="47.8266603" lon="7.347733"><ele>218.0</ele><time>2026-04-03T14:22:11.877Z</time></trkpt><trkpt lat="47.8266374" lon="7.3479398"><ele>218.0</ele><time>2026-04-03T14:22:12.877Z</time></trkpt><trkpt lat="47.8266061" lon="7.3481498"><ele>218.0</ele><time>2026-04-03T14:22:13.877Z</time></trkpt><trkpt lat="47.82657" lon="7.3483543"><ele>218.0</ele><time>2026-04-03T14:22:14.877Z</time></trkpt><trkpt lat="47.8265294" lon="7.3485513"><ele>218.5</ele><time>2026-04-03T14:22:15.877Z</time></trkpt><trkpt lat="47.8264834" lon="7.3487535"><ele>219.0</ele><time>2026-04-03T14:22:16.877Z</time></trkpt><trkpt lat="47.8264398" lon="7.3489453"><ele>219.5</ele><time>2026-04-03T14:22:17.878Z</time></trkpt><trkpt lat="47.826395" lon="7.3491361"><ele>220.0</ele><time>2026-04-03T14:22:18.877Z</time></trkpt><trkpt lat="47.8263493" lon="7.3493299"><ele>220.0</ele><time>2026-04-03T14:22:19.877Z</time></trkpt><trkpt lat="47.8263059" lon="7.3495111"><ele>220.0</ele><time>2026-04-03T14:22:20.877Z</time></trkpt><trkpt lat="47.8262659" lon="7.3496774"><ele>220.0</ele><time>2026-04-03T14:22:21.877Z</time></trkpt><trkpt lat="47.8262269" lon="7.3498411"><ele>220.0</ele><time>2026-04-03T14:22:22.877Z</time></trkpt><trkpt lat="47.8261896" lon="7.3500061"><ele>220.0</ele><time>2026-04-03T14:22:23.877Z</time></trkpt><trkpt lat="47.8261519" lon="7.3501688"><ele>220.0</ele><time>2026-04-03T14:22:24.877Z</time></trkpt><trkpt lat="47.8261211" lon="7.3503186"><ele>220.0</ele><time>2026-04-03T14:22:25.877Z</time></trkpt><trkpt lat="47.8260978" lon="7.3504693"><ele>220.0</ele><time>2026-04-03T14:22:26.877Z</time></trkpt><trkpt lat="47.8260829" lon="7.350625"><ele>220.0</ele><time>2026-04-03T14:22:27.878Z</time></trkpt><trkpt lat="47.826073" lon="7.3507714"><ele>220.0</ele><time>2026-04-03T14:22:28.877Z</time></trkpt><trkpt lat="47.8260638" lon="7.3509077"><ele>220.0</ele><time>2026-04-03T14:22:29.878Z</time></trkpt><trkpt lat="47.8260569" lon="7.3510532"><ele>220.0</ele><time>2026-04-03T14:22:30.877Z</time></trkpt><trkpt lat="47.8260486" lon="7.3512017"><ele>220.0</ele><time>2026-04-03T14:22:31.877Z</time></trkpt><trkpt lat="47.8260394" lon="7.3513708"><ele>220.0</ele><time>2026-04-03T14:22:32.877Z</time></trkpt><trkpt lat="47.8260303" lon="7.3515432"><ele>220.0</ele><time>2026-04-03T14:22:33.877Z</time></trkpt><trkpt lat="47.826023" lon="7.3517205"><ele>220.0</ele><time>2026-04-03T14:22:34.878Z</time></trkpt><trkpt lat="47.8260153" lon="7.3518884"><ele>220.0</ele><time>2026-04-03T14:22:35.877Z</time></trkpt><trkpt lat="47.8260063" lon="7.3520509"><ele>220.0</ele><time>2026-04-03T14:22:36.877Z</time></trkpt><trkpt lat="47.8259995" lon="7.352221"><ele>220.0</ele><time>2026-04-03T14:22:37.877Z</time></trkpt><trkpt lat="47.8259879" lon="7.3523988"><ele>220.0</ele><time>2026-04-03T14:22:38.877Z</time></trkpt><trkpt lat="47.8259672" lon="7.3525801"><ele>220.0</ele><time>2026-04-03T14:22:39.877Z</time></trkpt><trkpt lat="47.8259351" lon="7.3527715"><ele>220.0</ele><time>2026-04-03T14:22:40.877Z</time></trkpt><trkpt lat="47.8258945" lon="7.352948"><ele>220.25</ele><time>2026-04-03T14:22:41.878Z</time></trkpt><trkpt lat="47.8258376" lon="7.3531262"><ele>220.5</ele><time>2026-04-03T14:22:42.877Z</time></trkpt><trkpt lat="47.8257707" lon="7.3532906"><ele>220.75</ele><time>2026-04-03T14:22:43.877Z</time></trkpt><trkpt lat="47.8256974" lon="7.35344"><ele>221.0</ele><time>2026-04-03T14:22:44.878Z</time></trkpt><trkpt lat="47.825625" lon="7.3535824"><ele>221.0</ele><time>2026-04-03T14:22:45.877Z</time></trkpt><trkpt lat="47.8255529" lon="7.3537148"><ele>221.0</ele><time>2026-04-03T14:22:46.878Z</time></trkpt><trkpt lat="47.8254795" lon="7.3538466"><ele>221.0</ele><time>2026-04-03T14:22:47.877Z</time></trkpt><trkpt lat="47.8253998" lon="7.3539857"><ele>221.0</ele><time>2026-04-03T14:22:48.877Z</time></trkpt><trkpt lat="47.8253207" lon="7.3541214"><ele>221.0</ele><time>2026-04-03T14:22:49.878Z</time></trkpt><trkpt lat="47.8252341" lon="7.3542642"><ele>221.0</ele><time>2026-04-03T14:22:50.877Z</time></trkpt><trkpt lat="47.8251467" lon="7.3544038"><ele>221.0</ele><time>2026-04-03T14:22:51.878Z</time></trkpt><trkpt lat="47.825072" lon="7.3545452"><ele>221.0</ele><time>2026-04-03T14:22:52.877Z</time></trkpt><trkpt lat="47.8249903" lon="7.3546769"><ele>221.25</ele><time>2026-04-03T14:22:53.878Z</time></trkpt><trkpt lat="47.824913" lon="7.35482"><ele>221.5</ele><time>2026-04-03T14:22:54.878Z</time></trkpt><trkpt lat="47.8248186" lon="7.3549807"><ele>221.75</ele><time>2026-04-03T14:22:55.899Z</time></trkpt><trkpt lat="47.8247245" lon="7.355136"><ele>222.0</ele><time>2026-04-03T14:22:56.9Z</time></trkpt><trkpt lat="47.8246413" lon="7.3552744"><ele>222.0</ele><time>2026-04-03T14:22:57.899Z</time></trkpt><trkpt lat="47.8245626" lon="7.3554061"><ele>222.0</ele><time>2026-04-03T14:22:58.899Z</time></trkpt><trkpt lat="47.8244837" lon="7.3555402"><ele>222.0</ele><time>2026-04-03T14:22:59.9Z</time></trkpt><trkpt lat="47.8244064" lon="7.3556759"><ele>222.0</ele><time>2026-04-03T14:23:00.9Z</time></trkpt><trkpt lat="47.8243353" lon="7.355831"><ele>222.25</ele><time>2026-04-03T14:23:01.878Z</time></trkpt><trkpt lat="47.8242541" lon="7.355966"><ele>222.5</ele><time>2026-04-03T14:23:02.876Z</time></trkpt><trkpt lat="47.8241777" lon="7.3560926"><ele>222.75</ele><time>2026-04-03T14:23:03.88Z</time></trkpt><trkpt lat="47.8240985" lon="7.3562245"><ele>223.0</ele><time>2026-04-03T14:23:04.877Z</time></trkpt><trkpt lat="47.824023" lon="7.3563536"><ele>223.0</ele><time>2026-04-03T14:23:05.878Z</time></trkpt><trkpt lat="47.8239452" lon="7.356486"><ele>223.0</ele><time>2026-04-03T14:23:06.877Z</time></trkpt><trkpt lat="47.8238659" lon="7.3566255"><ele>223.0</ele><time>2026-04-03T14:23:07.877Z</time></trkpt><trkpt lat="47.8237862" lon="7.3567625"><ele>223.0</ele><time>2026-04-03T14:23:08.877Z</time></trkpt><trkpt lat="47.8237138" lon="7.3568992"><ele>223.0</ele><time>2026-04-03T14:23:09.878Z</time></trkpt><trkpt lat="47.8236545" lon="7.357044"><ele>223.0</ele><time>2026-04-03T14:23:10.878Z</time></trkpt><trkpt lat="47.8236116" lon="7.3571869"><ele>223.0</ele><time>2026-04-03T14:23:11.877Z</time></trkpt><trkpt lat="47.8235843" lon="7.3573371"><ele>223.0</ele><time>2026-04-03T14:23:12.878Z</time></trkpt><trkpt lat="47.8235815" lon="7.3574834"><ele>223.0</ele><time>2026-04-03T14:23:13.877Z</time></trkpt><trkpt lat="47.8235982" lon="7.3576366"><ele>222.8</ele><time>2026-04-03T14:23:14.878Z</time></trkpt><trkpt lat="47.8236128" lon="7.3577914"><ele>222.60000000000002</ele><time>2026-04-03T14:23:15.878Z</time></trkpt><trkpt lat="47.8236132" lon="7.3579376"><ele>222.39999999999998</ele><time>2026-04-03T14:23:16.877Z</time></trkpt><trkpt lat="47.8235957" lon="7.3580625"><ele>222.2</ele><time>2026-04-03T14:23:17.877Z</time></trkpt><trkpt lat="47.8235666" lon="7.3581853"><ele>222.0</ele><time>2026-04-03T14:23:18.877Z</time></trkpt><trkpt lat="47.8235348" lon="7.358305"><ele>221.66666666666666</ele><time>2026-04-03T14:23:19.877Z</time></trkpt><trkpt lat="47.8235026" lon="7.3584175"><ele>221.33333333333331</ele><time>2026-04-03T14:23:20.877Z</time></trkpt><trkpt lat="47.8234745" lon="7.3585083"><ele>221.0</ele><time>2026-04-03T14:23:21.877Z</time></trkpt><trkpt lat="47.8233986" lon="7.3586473"><ele>220.66666666666666</ele><time>2026-04-03T14:23:23.878Z</time></trkpt><trkpt lat="47.8233358" lon="7.3586838"><ele>220.33333333333331</ele><time>2026-04-03T14:23:24.878Z</time></trkpt><trkpt lat="47.8232609" lon="7.3586961"><ele>220.0</ele><time>2026-04-03T14:23:25.877Z</time></trkpt><trkpt lat="47.823181" lon="7.3586994"><ele>220.66666666666666</ele><time>2026-04-03T14:23:26.877Z</time></trkpt><trkpt lat="47.8231035" lon="7.3586995"><ele>221.33333333333331</ele><time>2026-04-03T14:23:27.878Z</time></trkpt><trkpt lat="47.823025" lon="7.3586976"><ele>222.0</ele><time>2026-04-03T14:23:28.877Z</time></trkpt><trkpt lat="47.8229521" lon="7.3586964"><ele>222.66666666666669</ele><time>2026-04-03T14:23:29.877Z</time></trkpt><trkpt lat="47.822871" lon="7.3586954"><ele>223.33333333333334</ele><time>2026-04-03T14:23:30.877Z</time></trkpt><trkpt lat="47.8227889" lon="7.3586988"><ele>224.0</ele><time>2026-04-03T14:23:31.877Z</time></trkpt><trkpt lat="47.8227074" lon="7.358709"><ele>223.83333333333334</ele><time>2026-04-03T14:23:32.878Z</time></trkpt><trkpt lat="47.8226271" lon="7.3587168"><ele>223.66666666666669</ele><time>2026-04-03T14:23:33.878Z</time></trkpt><trkpt lat="47.8225496" lon="7.358714"><ele>223.5</ele><time>2026-04-03T14:23:34.877Z</time></trkpt><trkpt lat="47.822471" lon="7.3587049"><ele>223.33333333333331</ele><time>2026-04-03T14:23:35.877Z</time></trkpt><trkpt lat="47.8223903" lon="7.3586944"><ele>223.16666666666666</ele><time>2026-04-03T14:23:36.878Z</time></trkpt><trkpt lat="47.8223109" lon="7.3586842"><ele>223.0</ele><time>2026-04-03T14:23:37.877Z</time></trkpt><trkpt lat="47.8222201" lon="7.3586747"><ele>223.0</ele><time>2026-04-03T14:23:38.877Z</time></trkpt><trkpt lat="47.8221099" lon="7.3586644"><ele>223.0</ele><time>2026-04-03T14:23:39.877Z</time></trkpt><trkpt lat="47.8219903" lon="7.3586523"><ele>223.0</ele><time>2026-04-03T14:23:40.877Z</time></trkpt><trkpt lat="47.8218845" lon="7.3586378"><ele>223.0</ele><time>2026-04-03T14:23:41.878Z</time></trkpt><trkpt lat="47.8217893" lon="7.3586222"><ele>223.0</ele><time>2026-04-03T14:23:42.877Z</time></trkpt><trkpt lat="47.8216974" lon="7.3586042"><ele>223.2</ele><time>2026-04-03T14:23:43.877Z</time></trkpt><trkpt lat="47.8216002" lon="7.3585802"><ele>223.4</ele><time>2026-04-03T14:23:44.877Z</time></trkpt><trkpt lat="47.821503" lon="7.3585603"><ele>223.59999999999997</ele><time>2026-04-03T14:23:45.878Z</time></trkpt><trkpt lat="47.8214024" lon="7.3585581"><ele>223.79999999999998</ele><time>2026-04-03T14:23:46.877Z</time></trkpt><trkpt lat="47.8212922" lon="7.3585751"><ele>224.0</ele><time>2026-04-03T14:23:47.877Z</time></trkpt><trkpt lat="47.8211931" lon="7.3586004"><ele>224.0</ele><time>2026-04-03T14:23:48.877Z</time></trkpt><trkpt lat="47.8210932" lon="7.3586287"><ele>223.99999999999997</ele><time>2026-04-03T14:23:49.877Z</time></trkpt><trkpt lat="47.8209931" lon="7.3586566"><ele>223.99999999999997</ele><time>2026-04-03T14:23:50.877Z</time></trkpt><trkpt lat="47.8208934" lon="7.3586784"><ele>224.0</ele><time>2026-04-03T14:23:51.877Z</time></trkpt><trkpt lat="47.8207906" lon="7.3586951"><ele>224.0</ele><time>2026-04-03T14:23:52.877Z</time></trkpt><trkpt lat="47.8206925" lon="7.3587098"><ele>224.0</ele><time>2026-04-03T14:23:53.877Z</time></trkpt><trkpt lat="47.8205888" lon="7.3587236"><ele>223.99999999999997</ele><time>2026-04-03T14:23:54.877Z</time></trkpt><trkpt lat="47.8204829" lon="7.3587399"><ele>223.99999999999997</ele><time>2026-04-03T14:23:55.877Z</time></trkpt><trkpt lat="47.8203846" lon="7.3587594"><ele>224.0</ele><time>2026-04-03T14:23:56.877Z</time></trkpt><trkpt lat="47.8202934" lon="7.358778"><ele>224.0</ele><time>2026-04-03T14:23:57.877Z</time></trkpt><trkpt lat="47.8202132" lon="7.358794"><ele>224.16666666666669</ele><time>2026-04-03T14:23:58.877Z</time></trkpt><trkpt lat="47.8201421" lon="7.3588055"><ele>224.33333333333334</ele><time>2026-04-03T14:23:59.877Z</time></trkpt><trkpt lat="47.8200706" lon="7.3588128"><ele>224.5</ele><time>2026-04-03T14:24:00.877Z</time></trkpt><trkpt lat="47.819955" lon="7.3587946"><ele>224.66666666666669</ele><time>2026-04-03T14:24:02.877Z</time></trkpt><trkpt lat="47.8198802" lon="7.3587835"><ele>224.83333333333334</ele><time>2026-04-03T14:24:04.878Z</time></trkpt><trkpt lat="47.8198201" lon="7.3588473"><ele>225.0</ele><time>2026-04-03T14:24:06.877Z</time></trkpt><trkpt lat="47.8197909" lon="7.3589391"><ele>225.25</ele><time>2026-04-03T14:24:07.878Z</time></trkpt><trkpt lat="47.8197704" lon="7.3590704"><ele>225.5</ele><time>2026-04-03T14:24:08.877Z</time></trkpt><trkpt lat="47.8197518" lon="7.3592367"><ele>225.75</ele><time>2026-04-03T14:24:09.877Z</time></trkpt><trkpt lat="47.8197323" lon="7.3594207"><ele>226.0</ele><time>2026-04-03T14:24:10.878Z</time></trkpt><trkpt lat="47.8197134" lon="7.3596"><ele>225.5</ele><time>2026-04-03T14:24:11.877Z</time></trkpt><trkpt lat="47.8196948" lon="7.3597673"><ele>225.0</ele><time>2026-04-03T14:24:12.877Z</time></trkpt><trkpt lat="47.8196746" lon="7.3599395"><ele>224.5</ele><time>2026-04-03T14:24:13.877Z</time></trkpt><trkpt lat="47.8196537" lon="7.3601111"><ele>224.0</ele><time>2026-04-03T14:24:14.877Z</time></trkpt><trkpt lat="47.8196346" lon="7.3602807"><ele>224.0</ele><time>2026-04-03T14:24:15.878Z</time></trkpt><trkpt lat="47.8196173" lon="7.3604669"><ele>224.0</ele><time>2026-04-03T14:24:16.878Z</time></trkpt><trkpt lat="47.819603" lon="7.360651"><ele>224.0</ele><time>2026-04-03T14:24:17.877Z</time></trkpt><trkpt lat="47.8195902" lon="7.3608488"><ele>224.0</ele><time>2026-04-03T14:24:18.877Z</time></trkpt><trkpt lat="47.8195775" lon="7.3610797"><ele>224.33333333333334</ele><time>2026-04-03T14:24:19.877Z</time></trkpt><trkpt lat="47.8195689" lon="7.3613233"><ele>224.66666666666669</ele><time>2026-04-03T14:24:20.877Z</time></trkpt><trkpt lat="47.819564" lon="7.3615575"><ele>225.0</ele><time>2026-04-03T14:24:21.877Z</time></trkpt><trkpt lat="47.8195606" lon="7.3617944"><ele>225.0</ele><time>2026-04-03T14:24:22.878Z</time></trkpt><trkpt lat="47.8195588" lon="7.3620109"><ele>225.0</ele><time>2026-04-03T14:24:23.877Z</time></trkpt><trkpt lat="47.8195572" lon="7.3622427"><ele>225.0</ele><time>2026-04-03T14:24:24.877Z</time></trkpt><trkpt lat="47.8195556" lon="7.362467"><ele>224.66666666666669</ele><time>2026-04-03T14:24:25.877Z</time></trkpt><trkpt lat="47.8195523" lon="7.3626993"><ele>224.33333333333334</ele><time>2026-04-03T14:24:26.877Z</time></trkpt><trkpt lat="47.819547" lon="7.3629482"><ele>224.0</ele><time>2026-04-03T14:24:27.877Z</time></trkpt><trkpt lat="47.8195376" lon="7.3631865"><ele>224.0</ele><time>2026-04-03T14:24:28.878Z</time></trkpt><trkpt lat="47.8195244" lon="7.3634196"><ele>224.0</ele><time>2026-04-03T14:24:29.877Z</time></trkpt><trkpt lat="47.8195031" lon="7.3636681"><ele>224.0</ele><time>2026-04-03T14:24:30.877Z</time></trkpt><trkpt lat="47.8194755" lon="7.3639284"><ele>223.66666666666669</ele><time>2026-04-03T14:24:31.877Z</time></trkpt><trkpt lat="47.819458" lon="7.3642126"><ele>223.33333333333331</ele><time>2026-04-03T14:24:32.877Z</time></trkpt><trkpt lat="47.8194382" lon="7.3645149"><ele>223.0</ele><time>2026-04-03T14:24:33.878Z</time></trkpt><trkpt lat="47.8194218" lon="7.364816"><ele>223.0</ele><time>2026-04-03T14:24:34.877Z</time></trkpt><trkpt lat="47.8193922" lon="7.3650812"><ele>223.0</ele><time>2026-04-03T14:24:35.877Z</time></trkpt><trkpt lat="47.8193685" lon="7.3653607"><ele>223.0</ele><time>2026-04-03T14:24:36.877Z</time></trkpt><trkpt lat="47.8193462" lon="7.3656229"><ele>223.0</ele><time>2026-04-03T14:24:37.877Z</time></trkpt><trkpt lat="47.8193223" lon="7.3658923"><ele>223.0</ele><time>2026-04-03T14:24:38.877Z</time></trkpt><trkpt lat="47.8192979" lon="7.3661647"><ele>223.0</ele><time>2026-04-03T14:24:39.878Z</time></trkpt><trkpt lat="47.8192702" lon="7.3664509"><ele>222.66666666666666</ele><time>2026-04-03T14:24:40.877Z</time></trkpt><trkpt lat="47.8192409" lon="7.3667321"><ele>222.33333333333331</ele><time>2026-04-03T14:24:41.878Z</time></trkpt><trkpt lat="47.8192068" lon="7.36703"><ele>222.0</ele><time>2026-04-03T14:24:42.877Z</time></trkpt><trkpt lat="47.8191691" lon="7.3673318"><ele>221.66666666666669</ele><time>2026-04-03T14:24:43.877Z</time></trkpt><trkpt lat="47.8191266" lon="7.3676454"><ele>221.33333333333334</ele><time>2026-04-03T14:24:44.877Z</time></trkpt><trkpt lat="47.8190848" lon="7.3679453"><ele>221.0</ele><time>2026-04-03T14:24:45.877Z</time></trkpt><trkpt lat="47.8190418" lon="7.3682374"><ele>221.0</ele><time>2026-04-03T14:24:46.877Z</time></trkpt><trkpt lat="47.8189961" lon="7.3685234"><ele>221.0</ele><time>2026-04-03T14:24:47.877Z</time></trkpt><trkpt lat="47.8189477" lon="7.3688166"><ele>221.0</ele><time>2026-04-03T14:24:48.877Z</time></trkpt><trkpt lat="47.8188974" lon="7.369102"><ele>221.33333333333334</ele><time>2026-04-03T14:24:49.878Z</time></trkpt><trkpt lat="47.8188416" lon="7.3694085"><ele>221.66666666666669</ele><time>2026-04-03T14:24:50.877Z</time></trkpt><trkpt lat="47.8187913" lon="7.3697233"><ele>222.0</ele><time>2026-04-03T14:24:51.877Z</time></trkpt><trkpt lat="47.818751" lon="7.3700304"><ele>222.0</ele><time>2026-04-03T14:24:52.877Z</time></trkpt><trkpt lat="47.8187193" lon="7.3703266"><ele>222.0</ele><time>2026-04-03T14:24:53.877Z</time></trkpt><trkpt lat="47.8186923" lon="7.3706222"><ele>222.0</ele><time>2026-04-03T14:24:54.877Z</time></trkpt><trkpt lat="47.818669" lon="7.3709056"><ele>222.33333333333331</ele><time>2026-04-03T14:24:55.877Z</time></trkpt><trkpt lat="47.8186472" lon="7.3711901"><ele>222.66666666666666</ele><time>2026-04-03T14:24:56.877Z</time></trkpt><trkpt lat="47.8186275" lon="7.3714527"><ele>223.0</ele><time>2026-04-03T14:24:57.877Z</time></trkpt><trkpt lat="47.8186118" lon="7.3717046"><ele>223.0</ele><time>2026-04-03T14:24:58.877Z</time></trkpt><trkpt lat="47.8186061" lon="7.3719532"><ele>223.0</ele><time>2026-04-03T14:24:59.878Z</time></trkpt><trkpt lat="47.8186207" lon="7.3721915"><ele>223.0</ele><time>2026-04-03T14:25:00.878Z</time></trkpt><trkpt lat="47.8186555" lon="7.3724423"><ele>223.0</ele><time>2026-04-03T14:25:01.877Z</time></trkpt><trkpt lat="47.8187102" lon="7.3726822"><ele>223.0</ele><time>2026-04-03T14:25:02.877Z</time></trkpt><trkpt lat="47.818793" lon="7.3729094"><ele>223.0</ele><time>2026-04-03T14:25:03.877Z</time></trkpt><trkpt lat="47.8188896" lon="7.3731193"><ele>222.33333333333331</ele><time>2026-04-03T14:25:04.878Z</time></trkpt><trkpt lat="47.8189793" lon="7.3733102"><ele>221.66666666666669</ele><time>2026-04-03T14:25:05.878Z</time></trkpt><trkpt lat="47.8190691" lon="7.3734959"><ele>221.0</ele><time>2026-04-03T14:25:06.878Z</time></trkpt><trkpt lat="47.8191559" lon="7.3737025"><ele>221.0</ele><time>2026-04-03T14:25:07.877Z</time></trkpt><trkpt lat="47.8192292" lon="7.3739051"><ele>221.0</ele><time>2026-04-03T14:25:08.877Z</time></trkpt><trkpt lat="47.8192953" lon="7.3741088"><ele>221.0</ele><time>2026-04-03T14:25:09.877Z</time></trkpt><trkpt lat="47.8193573" lon="7.3743073"><ele>221.0</ele><time>2026-04-03T14:25:10.877Z</time></trkpt><trkpt lat="47.8194129" lon="7.3745063"><ele>221.0</ele><time>2026-04-03T14:25:11.877Z</time></trkpt><trkpt lat="47.819467" lon="7.374719"><ele>221.0</ele><time>2026-04-03T14:25:12.877Z</time></trkpt><trkpt lat="47.8195139" lon="7.374922"><ele>221.0</ele><time>2026-04-03T14:25:13.877Z</time></trkpt><trkpt lat="47.8195549" lon="7.3751187"><ele>221.25</ele><time>2026-04-03T14:25:14.878Z</time></trkpt><trkpt lat="47.8195909" lon="7.375301"><ele>221.5</ele><time>2026-04-03T14:25:15.878Z</time></trkpt><trkpt lat="47.8196242" lon="7.3754719"><ele>221.75</ele><time>2026-04-03T14:25:16.877Z</time></trkpt><trkpt lat="47.8196531" lon="7.3756306"><ele>222.0</ele><time>2026-04-03T14:25:17.877Z</time></trkpt><trkpt lat="47.8196838" lon="7.375792"><ele>222.2</ele><time>2026-04-03T14:25:18.898Z</time></trkpt><trkpt lat="47.8197071" lon="7.3759467"><ele>222.39999999999998</ele><time>2026-04-03T14:25:19.898Z</time></trkpt><trkpt lat="47.8197274" lon="7.3761047"><ele>222.60000000000002</ele><time>2026-04-03T14:25:20.899Z</time></trkpt><trkpt lat="47.8197498" lon="7.3762636"><ele>222.8</ele><time>2026-04-03T14:25:21.899Z</time></trkpt><trkpt lat="47.8197718" lon="7.376422"><ele>223.0</ele><time>2026-04-03T14:25:22.898Z</time></trkpt><trkpt lat="47.8197938" lon="7.3765818"><ele>223.0</ele><time>2026-04-03T14:25:23.898Z</time></trkpt><trkpt lat="47.8198129" lon="7.3767349"><ele>223.0</ele><time>2026-04-03T14:25:24.9Z</time></trkpt><trkpt lat="47.8198306" lon="7.3768838"><ele>223.0</ele><time>2026-04-03T14:25:25.898Z</time></trkpt><trkpt lat="47.8198505" lon="7.3770347"><ele>223.0</ele><time>2026-04-03T14:25:26.898Z</time></trkpt><trkpt lat="47.8198806" lon="7.3771838"><ele>223.0</ele><time>2026-04-03T14:25:27.898Z</time></trkpt><trkpt lat="47.8199003" lon="7.3773057"><ele>222.99999999999997</ele><time>2026-04-03T14:25:28.899Z</time></trkpt><trkpt lat="47.8199186" lon="7.3774075"><ele>223.0</ele><time>2026-04-03T14:25:29.898Z</time></trkpt><trkpt lat="47.8199393" lon="7.3775572"><ele>223.0</ele><time>2026-04-03T14:25:31.898Z</time></trkpt><trkpt lat="47.8199585" lon="7.3776864"><ele>223.0</ele><time>2026-04-03T14:25:33.899Z</time></trkpt><trkpt lat="47.8199841" lon="7.3778467"><ele>222.99999999999997</ele><time>2026-04-03T14:25:35.898Z</time></trkpt><trkpt lat="47.8200046" lon="7.3779355"><ele>223.0</ele><time>2026-04-03T14:25:36.899Z</time></trkpt><trkpt lat="47.8200532" lon="7.3781046"><ele>223.33333333333331</ele><time>2026-04-03T14:25:38.899Z</time></trkpt><trkpt lat="47.8200797" lon="7.3782013"><ele>223.66666666666666</ele><time>2026-04-03T14:25:39.898Z</time></trkpt><trkpt lat="47.8201115" lon="7.3783092"><ele>224.0</ele><time>2026-04-03T14:25:40.899Z</time></trkpt><trkpt lat="47.8201444" lon="7.3784213"><ele>224.33333333333331</ele><time>2026-04-03T14:25:41.899Z</time></trkpt><trkpt lat="47.8201766" lon="7.3785412"><ele>224.66666666666666</ele><time>2026-04-03T14:25:42.898Z</time></trkpt><trkpt lat="47.8202114" lon="7.3786665"><ele>225.0</ele><time>2026-04-03T14:25:43.899Z</time></trkpt><trkpt lat="47.8202421" lon="7.3787751"><ele>224.8571428571429</ele><time>2026-04-03T14:25:44.898Z</time></trkpt><trkpt lat="47.8202666" lon="7.3788741"><ele>224.71428571428572</ele><time>2026-04-03T14:25:45.898Z</time></trkpt><trkpt lat="47.8202827" lon="7.3789772"><ele>224.57142857142858</ele><time>2026-04-03T14:25:46.898Z</time></trkpt><trkpt lat="47.8202794" lon="7.3790788"><ele>224.42857142857144</ele><time>2026-04-03T14:25:47.898Z</time></trkpt><trkpt lat="47.8202692" lon="7.3791767"><ele>224.28571428571428</ele><time>2026-04-03T14:25:48.898Z</time></trkpt><trkpt lat="47.8202911" lon="7.3792768"><ele>224.14285714285714</ele><time>2026-04-03T14:25:49.898Z</time></trkpt><trkpt lat="47.8203235" lon="7.379384"><ele>224.0</ele><time>2026-04-03T14:25:50.899Z</time></trkpt><trkpt lat="47.8203448" lon="7.3795057"><ele>224.0</ele><time>2026-04-03T14:25:51.9Z</time></trkpt><trkpt lat="47.8203596" lon="7.3796359"><ele>223.99999999999997</ele><time>2026-04-03T14:25:52.898Z</time></trkpt><trkpt lat="47.8203661" lon="7.3797719"><ele>223.99999999999997</ele><time>2026-04-03T14:25:53.898Z</time></trkpt><trkpt lat="47.8203682" lon="7.3799105"><ele>224.0</ele><time>2026-04-03T14:25:54.898Z</time></trkpt><trkpt lat="47.8203663" lon="7.3800516"><ele>224.0</ele><time>2026-04-03T14:25:55.9Z</time></trkpt><trkpt lat="47.8203702" lon="7.3801954"><ele>224.16666666666669</ele><time>2026-04-03T14:25:56.899Z</time></trkpt><trkpt lat="47.8203776" lon="7.3803358"><ele>224.33333333333334</ele><time>2026-04-03T14:25:57.898Z</time></trkpt><trkpt lat="47.8203838" lon="7.3804616"><ele>224.5</ele><time>2026-04-03T14:25:58.899Z</time></trkpt><trkpt lat="47.8203958" lon="7.3805944"><ele>224.66666666666669</ele><time>2026-04-03T14:25:59.898Z</time></trkpt><trkpt lat="47.8204077" lon="7.380721"><ele>224.83333333333334</ele><time>2026-04-03T14:26:00.9Z</time></trkpt><trkpt lat="47.8204213" lon="7.3808518"><ele>225.0</ele><time>2026-04-03T14:26:01.898Z</time></trkpt><trkpt lat="47.8204289" lon="7.3809841"><ele>225.0</ele><time>2026-04-03T14:26:02.899Z</time></trkpt><trkpt lat="47.8204339" lon="7.3811188"><ele>225.0</ele><time>2026-04-03T14:26:03.898Z</time></trkpt><trkpt lat="47.8204401" lon="7.381255"><ele>225.0</ele><time>2026-04-03T14:26:04.898Z</time></trkpt><trkpt lat="47.8204472" lon="7.3813937"><ele>225.0</ele><time>2026-04-03T14:26:05.898Z</time></trkpt><trkpt lat="47.8204534" lon="7.3815331"><ele>225.0</ele><time>2026-04-03T14:26:06.9Z</time></trkpt><trkpt lat="47.8204576" lon="7.3816634"><ele>225.16666666666666</ele><time>2026-04-03T14:26:07.899Z</time></trkpt><trkpt lat="47.8204609" lon="7.3817812"><ele>225.33333333333331</ele><time>2026-04-03T14:26:08.899Z</time></trkpt><trkpt lat="47.8204634" lon="7.3818877"><ele>225.5</ele><time>2026-04-03T14:26:09.898Z</time></trkpt><trkpt lat="47.8204644" lon="7.3820027"><ele>225.66666666666666</ele><time>2026-04-03T14:26:10.899Z</time></trkpt><trkpt lat="47.8204655" lon="7.3821247"><ele>225.83333333333331</ele><time>2026-04-03T14:26:11.899Z</time></trkpt><trkpt lat="47.8204596" lon="7.3822339"><ele>226.0</ele><time>2026-04-03T14:26:12.9Z</time></trkpt><trkpt lat="47.8204241" lon="7.3823298"><ele>226.16666666666666</ele><time>2026-04-03T14:26:13.898Z</time></trkpt><trkpt lat="47.820362" lon="7.3823978"><ele>226.33333333333331</ele><time>2026-04-03T14:26:14.899Z</time></trkpt><trkpt lat="47.8202826" lon="7.3824324"><ele>226.5</ele><time>2026-04-03T14:26:15.899Z</time></trkpt><trkpt lat="47.8201948" lon="7.3824485"><ele>226.66666666666669</ele><time>2026-04-03T14:26:16.898Z</time></trkpt><trkpt lat="47.820106" lon="7.3824553"><ele>226.83333333333334</ele><time>2026-04-03T14:26:17.898Z</time></trkpt><trkpt lat="47.8200101" lon="7.3824626"><ele>227.0</ele><time>2026-04-03T14:26:18.898Z</time></trkpt><trkpt lat="47.8199056" lon="7.3824724"><ele>227.0</ele><time>2026-04-03T14:26:19.899Z</time></trkpt><trkpt lat="47.8198087" lon="7.3824707"><ele>227.0</ele><time>2026-04-03T14:26:20.898Z</time></trkpt><trkpt lat="47.8197065" lon="7.3824499"><ele>227.0</ele><time>2026-04-03T14:26:21.898Z</time></trkpt><trkpt lat="47.8196005" lon="7.3824544"><ele>227.0</ele><time>2026-04-03T14:26:22.898Z</time></trkpt><trkpt lat="47.8194913" lon="7.3824644"><ele>227.0</ele><time>2026-04-03T14:26:23.899Z</time></trkpt><trkpt lat="47.8193827" lon="7.3824758"><ele>226.8</ele><time>2026-04-03T14:26:24.898Z</time></trkpt><trkpt lat="47.8192789" lon="7.3824877"><ele>226.6</ele><time>2026-04-03T14:26:25.898Z</time></trkpt><trkpt lat="47.8191727" lon="7.3824978"><ele>226.40000000000003</ele><time>2026-04-03T14:26:26.898Z</time></trkpt><trkpt lat="47.8190653" lon="7.3825062"><ele>226.20000000000002</ele><time>2026-04-03T14:26:27.899Z</time></trkpt><trkpt lat="47.8189572" lon="7.3825172"><ele>226.0</ele><time>2026-04-03T14:26:28.898Z</time></trkpt><trkpt lat="47.818848" lon="7.3825336"><ele>226.0</ele><time>2026-04-03T14:26:29.899Z</time></trkpt><trkpt lat="47.8187364" lon="7.3825494"><ele>226.0</ele><time>2026-04-03T14:26:30.899Z</time></trkpt><trkpt lat="47.8186234" lon="7.3825655"><ele>226.0</ele><time>2026-04-03T14:26:31.898Z</time></trkpt><trkpt lat="47.8185093" lon="7.3825858"><ele>226.0</ele><time>2026-04-03T14:26:32.899Z</time></trkpt><trkpt lat="47.8183953" lon="7.382604"><ele>226.0</ele><time>2026-04-03T14:26:33.9Z</time></trkpt><trkpt lat="47.8182852" lon="7.3826178"><ele>226.0</ele><time>2026-04-03T14:26:34.898Z</time></trkpt><trkpt lat="47.8181742" lon="7.3826347"><ele>226.0</ele><time>2026-04-03T14:26:35.898Z</time></trkpt><trkpt lat="47.8180595" lon="7.3826484"><ele>226.0</ele><time>2026-04-03T14:26:36.899Z</time></trkpt><trkpt lat="47.8179462" lon="7.382675"><ele>226.0</ele><time>2026-04-03T14:26:37.898Z</time></trkpt><trkpt lat="47.8178314" lon="7.382709"><ele>226.0</ele><time>2026-04-03T14:26:38.898Z</time></trkpt><trkpt lat="47.8177206" lon="7.3827408"><ele>226.0</ele><time>2026-04-03T14:26:39.898Z</time></trkpt><trkpt lat="47.8176079" lon="7.3827595"><ele>226.0</ele><time>2026-04-03T14:26:40.899Z</time></trkpt><trkpt lat="47.8174947" lon="7.382778"><ele>226.0</ele><time>2026-04-03T14:26:41.9Z</time></trkpt><trkpt lat="47.8173896" lon="7.3827978"><ele>226.00000000000003</ele><time>2026-04-03T14:26:42.898Z</time></trkpt><trkpt lat="47.8172812" lon="7.3828157"><ele>226.00000000000003</ele><time>2026-04-03T14:26:43.898Z</time></trkpt><trkpt lat="47.8171735" lon="7.3828286"><ele>226.0</ele><time>2026-04-03T14:26:44.899Z</time></trkpt><trkpt lat="47.8170614" lon="7.3828421"><ele>226.0</ele><time>2026-04-03T14:26:45.899Z</time></trkpt><trkpt lat="47.8169526" lon="7.3828565"><ele>226.0</ele><time>2026-04-03T14:26:46.899Z</time></trkpt><trkpt lat="47.8168446" lon="7.3828707"><ele>226.00000000000003</ele><time>2026-04-03T14:26:47.898Z</time></trkpt><trkpt lat="47.8167368" lon="7.3828801"><ele>226.00000000000003</ele><time>2026-04-03T14:26:48.898Z</time></trkpt><trkpt lat="47.8166257" lon="7.3828911"><ele>226.0</ele><time>2026-04-03T14:26:49.898Z</time></trkpt><trkpt lat="47.8165122" lon="7.3829057"><ele>226.0</ele><time>2026-04-03T14:26:50.899Z</time></trkpt><trkpt lat="47.8163988" lon="7.3829196"><ele>226.0</ele><time>2026-04-03T14:26:51.899Z</time></trkpt><trkpt lat="47.8162872" lon="7.3829365"><ele>226.0</ele><time>2026-04-03T14:26:52.899Z</time></trkpt><trkpt lat="47.8161723" lon="7.3829561"><ele>226.0</ele><time>2026-04-03T14:26:53.899Z</time></trkpt><trkpt lat="47.8160585" lon="7.3829777"><ele>226.0</ele><time>2026-04-03T14:26:54.899Z</time></trkpt><trkpt lat="47.8159442" lon="7.383001"><ele>225.75</ele><time>2026-04-03T14:26:55.898Z</time></trkpt><trkpt lat="47.8158191" lon="7.3830222"><ele>225.5</ele><time>2026-04-03T14:26:56.9Z</time></trkpt><trkpt lat="47.8156698" lon="7.3830448"><ele>225.25</ele><time>2026-04-03T14:26:57.898Z</time></trkpt><trkpt lat="47.8154999" lon="7.383073"><ele>225.0</ele><time>2026-04-03T14:26:58.899Z</time></trkpt><trkpt lat="47.81533" lon="7.3831063"><ele>225.0</ele><time>2026-04-03T14:26:59.898Z</time></trkpt><trkpt lat="47.8151608" lon="7.3831421"><ele>225.0</ele><time>2026-04-03T14:27:00.899Z</time></trkpt><trkpt lat="47.8149971" lon="7.3831764"><ele>225.0</ele><time>2026-04-03T14:27:01.899Z</time></trkpt><trkpt lat="47.8148329" lon="7.3832021"><ele>225.0</ele><time>2026-04-03T14:27:02.899Z</time></trkpt><trkpt lat="47.8146687" lon="7.3832324"><ele>225.0</ele><time>2026-04-03T14:27:03.899Z</time></trkpt><trkpt lat="47.8145068" lon="7.3832601"><ele>225.0</ele><time>2026-04-03T14:27:04.899Z</time></trkpt><trkpt lat="47.8143426" lon="7.3832894"><ele>224.0</ele><time>2026-04-03T14:27:05.899Z</time></trkpt><trkpt lat="47.8141798" lon="7.3833165"><ele>223.0</ele><time>2026-04-03T14:27:06.898Z</time></trkpt><trkpt lat="47.8140157" lon="7.3833473"><ele>222.0</ele><time>2026-04-03T14:27:07.898Z</time></trkpt><trkpt lat="47.8138477" lon="7.3833779"><ele>222.0</ele><time>2026-04-03T14:27:08.898Z</time></trkpt><trkpt lat="47.8136678" lon="7.3834075"><ele>222.0</ele><time>2026-04-03T14:27:09.899Z</time></trkpt><trkpt lat="47.8134743" lon="7.3834385"><ele>222.0</ele><time>2026-04-03T14:27:10.898Z</time></trkpt><trkpt lat="47.8132807" lon="7.383471"><ele>222.66666666666669</ele><time>2026-04-03T14:27:11.899Z</time></trkpt><trkpt lat="47.8130877" lon="7.3835008"><ele>223.33333333333334</ele><time>2026-04-03T14:27:12.898Z</time></trkpt><trkpt lat="47.8128943" lon="7.3835317"><ele>224.0</ele><time>2026-04-03T14:27:13.898Z</time></trkpt><trkpt lat="47.8126953" lon="7.3835694"><ele>224.0</ele><time>2026-04-03T14:27:14.898Z</time></trkpt><trkpt lat="47.8124979" lon="7.3836023"><ele>224.0</ele><time>2026-04-03T14:27:15.898Z</time></trkpt><trkpt lat="47.8122991" lon="7.3836361"><ele>224.0</ele><time>2026-04-03T14:27:16.898Z</time></trkpt><trkpt lat="47.8120986" lon="7.3836681"><ele>224.0</ele><time>2026-04-03T14:27:17.898Z</time></trkpt><trkpt lat="47.8118945" lon="7.3837046"><ele>224.0</ele><time>2026-04-03T14:27:18.898Z</time></trkpt><trkpt lat="47.8116924" lon="7.3837408"><ele>224.0</ele><time>2026-04-03T14:27:19.898Z</time></trkpt><trkpt lat="47.8114978" lon="7.3837719"><ele>224.0</ele><time>2026-04-03T14:27:20.899Z</time></trkpt><trkpt lat="47.8113017" lon="7.3838047"><ele>224.0</ele><time>2026-04-03T14:27:21.898Z</time></trkpt><trkpt lat="47.8111041" lon="7.3838372"><ele>224.0</ele><time>2026-04-03T14:27:22.899Z</time></trkpt><trkpt lat="47.8109092" lon="7.383868"><ele>224.0</ele><time>2026-04-03T14:27:23.898Z</time></trkpt><trkpt lat="47.8107111" lon="7.3839018"><ele>224.0</ele><time>2026-04-03T14:27:24.899Z</time></trkpt><trkpt lat="47.8105134" lon="7.3839407"><ele>224.0</ele><time>2026-04-03T14:27:25.898Z</time></trkpt><trkpt lat="47.8103131" lon="7.3839762"><ele>224.33333333333334</ele><time>2026-04-03T14:27:26.9Z</time></trkpt><trkpt lat="47.8101112" lon="7.3840087"><ele>224.66666666666669</ele><time>2026-04-03T14:27:27.9Z</time></trkpt><trkpt lat="47.8099081" lon="7.3840428"><ele>225.0</ele><time>2026-04-03T14:27:28.9Z</time></trkpt><trkpt lat="47.8097021" lon="7.3840767"><ele>225.0</ele><time>2026-04-03T14:27:29.899Z</time></trkpt><trkpt lat="47.8094934" lon="7.3841111"><ele>225.0</ele><time>2026-04-03T14:27:30.899Z</time></trkpt><trkpt lat="47.8092853" lon="7.3841462"><ele>225.0</ele><time>2026-04-03T14:27:31.899Z</time></trkpt><trkpt lat="47.809075" lon="7.3841821"><ele>225.0</ele><time>2026-04-03T14:27:32.898Z</time></trkpt><trkpt lat="47.8088644" lon="7.3842142"><ele>225.0</ele><time>2026-04-03T14:27:33.898Z</time></trkpt><trkpt lat="47.8086524" lon="7.3842481"><ele>225.0</ele><time>2026-04-03T14:27:34.9Z</time></trkpt><trkpt lat="47.8084381" lon="7.3842848"><ele>225.0</ele><time>2026-04-03T14:27:35.898Z</time></trkpt><trkpt lat="47.8082254" lon="7.3843236"><ele>225.0</ele><time>2026-04-03T14:27:36.898Z</time></trkpt><trkpt lat="47.808013" lon="7.384363"><ele>225.0</ele><time>2026-04-03T14:27:37.899Z</time></trkpt><trkpt lat="47.8078029" lon="7.3843935"><ele>225.0</ele><time>2026-04-03T14:27:38.899Z</time></trkpt><trkpt lat="47.8076003" lon="7.3844295"><ele>225.0</ele><time>2026-04-03T14:27:39.898Z</time></trkpt><trkpt lat="47.8074017" lon="7.3844643"><ele>225.0</ele><time>2026-04-03T14:27:40.898Z</time></trkpt><trkpt lat="47.807201" lon="7.384495"><ele>225.0</ele><time>2026-04-03T14:27:41.899Z</time></trkpt><trkpt lat="47.8069999" lon="7.3845245"><ele>225.0</ele><time>2026-04-03T14:27:42.9Z</time></trkpt><trkpt lat="47.806807" lon="7.384555"><ele>225.0</ele><time>2026-04-03T14:27:43.898Z</time></trkpt><trkpt lat="47.8066288" lon="7.3845871"><ele>225.0</ele><time>2026-04-03T14:27:44.899Z</time></trkpt><trkpt lat="47.8064549" lon="7.3846166"><ele>225.0</ele><time>2026-04-03T14:27:45.898Z</time></trkpt><trkpt lat="47.8062776" lon="7.384646"><ele>225.0</ele><time>2026-04-03T14:27:46.899Z</time></trkpt><trkpt lat="47.8061036" lon="7.3846768"><ele>224.66666666666669</ele><time>2026-04-03T14:27:47.898Z</time></trkpt><trkpt lat="47.8059332" lon="7.3847049"><ele>224.33333333333334</ele><time>2026-04-03T14:27:48.899Z</time></trkpt><trkpt lat="47.8057722" lon="7.3847317"><ele>224.0</ele><time>2026-04-03T14:27:49.899Z</time></trkpt><trkpt lat="47.805624" lon="7.3847591"><ele>224.0</ele><time>2026-04-03T14:27:50.899Z</time></trkpt><trkpt lat="47.805488" lon="7.3847887"><ele>224.0</ele><time>2026-04-03T14:27:51.898Z</time></trkpt><trkpt lat="47.8053483" lon="7.3848094"><ele>224.0</ele><time>2026-04-03T14:27:52.899Z</time></trkpt><trkpt lat="47.80521" lon="7.3848284"><ele>224.0</ele><time>2026-04-03T14:27:53.898Z</time></trkpt><trkpt lat="47.8050744" lon="7.3848484"><ele>224.5</ele><time>2026-04-03T14:27:54.898Z</time></trkpt><trkpt lat="47.8049388" lon="7.3848643"><ele>225.0</ele><time>2026-04-03T14:27:55.898Z</time></trkpt><trkpt lat="47.8048036" lon="7.3848865"><ele>225.5</ele><time>2026-04-03T14:27:56.898Z</time></trkpt><trkpt lat="47.8046665" lon="7.3849093"><ele>226.0</ele><time>2026-04-03T14:27:57.9Z</time></trkpt><trkpt lat="47.8045324" lon="7.384932"><ele>226.0</ele><time>2026-04-03T14:27:58.898Z</time></trkpt><trkpt lat="47.8044042" lon="7.3849562"><ele>226.0</ele><time>2026-04-03T14:27:59.899Z</time></trkpt><trkpt lat="47.8042794" lon="7.3849807"><ele>226.0</ele><time>2026-04-03T14:28:00.898Z</time></trkpt><trkpt lat="47.8041548" lon="7.3850061"><ele>226.0</ele><time>2026-04-03T14:28:01.898Z</time></trkpt><trkpt lat="47.8040274" lon="7.3850329"><ele>226.0</ele><time>2026-04-03T14:28:02.898Z</time></trkpt><trkpt lat="47.8039034" lon="7.3850542"><ele>226.0</ele><time>2026-04-03T14:28:03.899Z</time></trkpt><trkpt lat="47.8037781" lon="7.3850739"><ele>226.0</ele><time>2026-04-03T14:28:04.899Z</time></trkpt><trkpt lat="47.8036513" lon="7.3850959"><ele>226.0</ele><time>2026-04-03T14:28:05.898Z</time></trkpt><trkpt lat="47.803522" lon="7.3851174"><ele>225.75</ele><time>2026-04-03T14:28:06.899Z</time></trkpt><trkpt lat="47.803396" lon="7.3851399"><ele>225.5</ele><time>2026-04-03T14:28:07.898Z</time></trkpt><trkpt lat="47.8032716" lon="7.3851622"><ele>225.25</ele><time>2026-04-03T14:28:08.898Z</time></trkpt><trkpt lat="47.8031472" lon="7.3851824"><ele>225.0</ele><time>2026-04-03T14:28:09.899Z</time></trkpt><trkpt lat="47.8030258" lon="7.3852017"><ele>225.0</ele><time>2026-04-03T14:28:10.899Z</time></trkpt><trkpt lat="47.8029133" lon="7.3852221"><ele>225.0</ele><time>2026-04-03T14:28:11.899Z</time></trkpt><trkpt lat="47.8027988" lon="7.38524"><ele>225.0</ele><time>2026-04-03T14:28:12.898Z</time></trkpt><trkpt lat="47.8026848" lon="7.3852574"><ele>225.0</ele><time>2026-04-03T14:28:13.898Z</time></trkpt><trkpt lat="47.8025773" lon="7.3852766"><ele>225.0</ele><time>2026-04-03T14:28:14.899Z</time></trkpt><trkpt lat="47.8024685" lon="7.3852902"><ele>225.0</ele><time>2026-04-03T14:28:15.898Z</time></trkpt><trkpt lat="47.8023688" lon="7.3853041"><ele>225.0</ele><time>2026-04-03T14:28:16.898Z</time></trkpt><trkpt lat="47.8022782" lon="7.3853145"><ele>225.0</ele><time>2026-04-03T14:28:17.899Z</time></trkpt><trkpt lat="47.8021955" lon="7.3853239"><ele>225.0</ele><time>2026-04-03T14:28:18.898Z</time></trkpt><trkpt lat="47.8021212" lon="7.3853351"><ele>225.0</ele><time>2026-04-03T14:28:19.899Z</time></trkpt><trkpt lat="47.8020446" lon="7.3853494"><ele>225.0</ele><time>2026-04-03T14:28:20.9Z</time></trkpt><trkpt lat="47.8019653" lon="7.3853613"><ele>225.0</ele><time>2026-04-03T14:28:21.898Z</time></trkpt><trkpt lat="47.8018835" lon="7.385377"><ele>225.0</ele><time>2026-04-03T14:28:22.898Z</time></trkpt><trkpt lat="47.8018027" lon="7.385395"><ele>227.0</ele><time>2026-04-03T14:28:23.898Z</time></trkpt></trkseg><trkseg><trkpt lat="47.7988743" lon="7.3859048"><ele>228.0</ele><time>2026-04-03T14:28:50.898Z</time></trkpt><trkpt lat="47.7987048" lon="7.3859368"><ele>228.0</ele><time>2026-04-03T14:28:51.899Z</time></trkpt><trkpt lat="47.7985361" lon="7.3859657"><ele>228.0</ele><time>2026-04-03T14:28:52.898Z</time></trkpt><trkpt lat="47.7983636" lon="7.3859954"><ele>227.66666666666669</ele><time>2026-04-03T14:28:53.899Z</time></trkpt><trkpt lat="47.7981855" lon="7.3860279"><ele>227.33333333333334</ele><time>2026-04-03T14:28:54.899Z</time></trkpt><trkpt lat="47.7980074" lon="7.38606"><ele>227.0</ele><time>2026-04-03T14:28:55.898Z</time></trkpt><trkpt lat="47.7978264" lon="7.3860903"><ele>227.0</ele><time>2026-04-03T14:28:56.899Z</time></trkpt><trkpt lat="47.7976431" lon="7.3861228"><ele>227.0</ele><time>2026-04-03T14:28:57.898Z</time></trkpt><trkpt lat="47.7974554" lon="7.3861632"><ele>227.0</ele><time>2026-04-03T14:28:58.898Z</time></trkpt><trkpt lat="47.7972629" lon="7.3861972"><ele>227.0</ele><time>2026-04-03T14:28:59.898Z</time></trkpt><trkpt lat="47.7970651" lon="7.3862316"><ele>227.0</ele><time>2026-04-03T14:29:00.899Z</time></trkpt><trkpt lat="47.7968667" lon="7.3862656"><ele>227.0</ele><time>2026-04-03T14:29:01.898Z</time></trkpt><trkpt lat="47.7966641" lon="7.3862989"><ele>227.33333333333334</ele><time>2026-04-03T14:29:02.898Z</time></trkpt><trkpt lat="47.7964579" lon="7.3863325"><ele>227.66666666666669</ele><time>2026-04-03T14:29:03.898Z</time></trkpt><trkpt lat="47.7962502" lon="7.3863664"><ele>228.0</ele><time>2026-04-03T14:29:04.899Z</time></trkpt><trkpt lat="47.7960578" lon="7.3864047"><ele>227.33333333333331</ele><time>2026-04-03T14:29:05.899Z</time></trkpt><trkpt lat="47.7958754" lon="7.3864249"><ele>226.66666666666666</ele><time>2026-04-03T14:29:06.898Z</time></trkpt><trkpt lat="47.7956941" lon="7.3864646"><ele>226.0</ele><time>2026-04-03T14:29:07.899Z</time></trkpt><trkpt lat="47.7955108" lon="7.3864991"><ele>226.0</ele><time>2026-04-03T14:29:08.898Z</time></trkpt><trkpt lat="47.7953249" lon="7.386519"><ele>226.0</ele><time>2026-04-03T14:29:09.898Z</time></trkpt><trkpt lat="47.7951523" lon="7.3865487"><ele>226.0</ele><time>2026-04-03T14:29:10.899Z</time></trkpt><trkpt lat="47.7949902" lon="7.3865762"><ele>226.0</ele><time>2026-04-03T14:29:11.898Z</time></trkpt><trkpt lat="47.7948375" lon="7.3866018"><ele>226.0</ele><time>2026-04-03T14:29:12.898Z</time></trkpt><trkpt lat="47.7946737" lon="7.38663"><ele>226.0</ele><time>2026-04-03T14:29:13.9Z</time></trkpt><trkpt lat="47.7944872" lon="7.3866631"><ele>226.66666666666666</ele><time>2026-04-03T14:29:14.899Z</time></trkpt><trkpt lat="47.7942829" lon="7.3866982"><ele>227.33333333333331</ele><time>2026-04-03T14:29:15.898Z</time></trkpt><trkpt lat="47.794071" lon="7.3867342"><ele>228.0</ele><time>2026-04-03T14:29:16.899Z</time></trkpt><trkpt lat="47.7938664" lon="7.3867679"><ele>228.0</ele><time>2026-04-03T14:29:17.899Z</time></trkpt><trkpt lat="47.7936719" lon="7.3867998"><ele>228.0</ele><time>2026-04-03T14:29:18.898Z</time></trkpt><trkpt lat="47.793488" lon="7.3868271"><ele>228.0</ele><time>2026-04-03T14:29:19.899Z</time></trkpt><trkpt lat="47.7933076" lon="7.3868559"><ele>228.0</ele><time>2026-04-03T14:29:20.898Z</time></trkpt><trkpt lat="47.7931192" lon="7.3868843"><ele>228.0</ele><time>2026-04-03T14:29:21.898Z</time></trkpt><trkpt lat="47.7929254" lon="7.3869184"><ele>228.0</ele><time>2026-04-03T14:29:22.898Z</time></trkpt><trkpt lat="47.7927339" lon="7.3869546"><ele>227.33333333333331</ele><time>2026-04-03T14:29:23.899Z</time></trkpt><trkpt lat="47.7925549" lon="7.3869862"><ele>226.66666666666666</ele><time>2026-04-03T14:29:24.899Z</time></trkpt><trkpt lat="47.7923778" lon="7.3870179"><ele>226.0</ele><time>2026-04-03T14:29:25.898Z</time></trkpt><trkpt lat="47.7921978" lon="7.387044"><ele>226.0</ele><time>2026-04-03T14:29:26.899Z</time></trkpt><trkpt lat="47.7920199" lon="7.3870757"><ele>226.0</ele><time>2026-04-03T14:29:27.9Z</time></trkpt><trkpt lat="47.7918449" lon="7.3871081"><ele>226.0</ele><time>2026-04-03T14:29:28.898Z</time></trkpt><trkpt lat="47.7916731" lon="7.3871374"><ele>226.0</ele><time>2026-04-03T14:29:29.899Z</time></trkpt><trkpt lat="47.7915059" lon="7.3871644"><ele>226.0</ele><time>2026-04-03T14:29:30.898Z</time></trkpt><trkpt lat="47.7913412" lon="7.3871924"><ele>226.0</ele><time>2026-04-03T14:29:31.898Z</time></trkpt><trkpt lat="47.7911854" lon="7.3872168"><ele>226.0</ele><time>2026-04-03T14:29:32.9Z</time></trkpt><trkpt lat="47.7910373" lon="7.3872408"><ele>226.0</ele><time>2026-04-03T14:29:33.898Z</time></trkpt><trkpt lat="47.7908906" lon="7.3872647"><ele>226.0</ele><time>2026-04-03T14:29:34.899Z</time></trkpt><trkpt lat="47.7907438" lon="7.3872897"><ele>226.0</ele><time>2026-04-03T14:29:35.899Z</time></trkpt><trkpt lat="47.7905987" lon="7.387314"><ele>226.75</ele><time>2026-04-03T14:29:36.899Z</time></trkpt><trkpt lat="47.7904641" lon="7.3873356"><ele>227.5</ele><time>2026-04-03T14:29:37.898Z</time></trkpt><trkpt lat="47.7903348" lon="7.3873589"><ele>228.25</ele><time>2026-04-03T14:29:38.899Z</time></trkpt><trkpt lat="47.7902068" lon="7.3873784"><ele>229.0</ele><time>2026-04-03T14:29:39.898Z</time></trkpt><trkpt lat="47.7900889" lon="7.3873966"><ele>229.0</ele><time>2026-04-03T14:29:40.899Z</time></trkpt><trkpt lat="47.7899812" lon="7.3874183"><ele>228.99999999999997</ele><time>2026-04-03T14:29:41.9Z</time></trkpt><trkpt lat="47.7898826" lon="7.3874351"><ele>228.99999999999997</ele><time>2026-04-03T14:29:42.898Z</time></trkpt><trkpt lat="47.7897941" lon="7.3874452"><ele>229.0</ele><time>2026-04-03T14:29:43.898Z</time></trkpt><trkpt lat="47.789714" lon="7.3874319"><ele>229.0</ele><time>2026-04-03T14:29:44.899Z</time></trkpt><trkpt lat="47.7896354" lon="7.3873849"><ele>228.99999999999997</ele><time>2026-04-03T14:29:45.898Z</time></trkpt><trkpt lat="47.7895638" lon="7.38732"><ele>229.0</ele><time>2026-04-03T14:29:46.898Z</time></trkpt><trkpt lat="47.7894914" lon="7.3872792"><ele>229.0</ele><time>2026-04-03T14:29:47.898Z</time></trkpt><trkpt lat="47.7894097" lon="7.3872801"><ele>229.0</ele><time>2026-04-03T14:29:48.898Z</time></trkpt><trkpt lat="47.7893343" lon="7.387327"><ele>228.99999999999997</ele><time>2026-04-03T14:29:49.899Z</time></trkpt><trkpt lat="47.7892697" lon="7.3874113"><ele>229.0</ele><time>2026-04-03T14:29:50.898Z</time></trkpt><trkpt lat="47.7891981" lon="7.3874846"><ele>229.0</ele><time>2026-04-03T14:29:51.898Z</time></trkpt><trkpt lat="47.7891193" lon="7.3875405"><ele>228.99999999999997</ele><time>2026-04-03T14:29:52.899Z</time></trkpt><trkpt lat="47.7890372" lon="7.3875657"><ele>228.99999999999997</ele><time>2026-04-03T14:29:53.898Z</time></trkpt><trkpt lat="47.7889518" lon="7.3875839"><ele>229.0</ele><time>2026-04-03T14:29:54.899Z</time></trkpt><trkpt lat="47.7888578" lon="7.3876033"><ele>229.0</ele><time>2026-04-03T14:29:55.898Z</time></trkpt><trkpt lat="47.7887474" lon="7.387624"><ele>229.0</ele><time>2026-04-03T14:29:56.899Z</time></trkpt><trkpt lat="47.7886219" lon="7.3876475"><ele>229.0</ele><time>2026-04-03T14:29:57.899Z</time></trkpt><trkpt lat="47.7884922" lon="7.3876693"><ele>229.0</ele><time>2026-04-03T14:29:58.898Z</time></trkpt><trkpt lat="47.7883599" lon="7.3876936"><ele>229.0</ele><time>2026-04-03T14:29:59.899Z</time></trkpt><trkpt lat="47.7882252" lon="7.3877176"><ele>228.75</ele><time>2026-04-03T14:30:00.899Z</time></trkpt><trkpt lat="47.7880891" lon="7.387739"><ele>228.5</ele><time>2026-04-03T14:30:01.898Z</time></trkpt><trkpt lat="47.7879571" lon="7.3877628"><ele>228.25</ele><time>2026-04-03T14:30:02.899Z</time></trkpt><trkpt lat="47.7878199" lon="7.3877846"><ele>228.0</ele><time>2026-04-03T14:30:03.898Z</time></trkpt><trkpt lat="47.7876812" lon="7.3878073"><ele>228.25</ele><time>2026-04-03T14:30:04.899Z</time></trkpt><trkpt lat="47.7875472" lon="7.3878267"><ele>228.5</ele><time>2026-04-03T14:30:05.9Z</time></trkpt><trkpt lat="47.7874129" lon="7.3878475"><ele>228.75</ele><time>2026-04-03T14:30:06.898Z</time></trkpt><trkpt lat="47.7872875" lon="7.387867"><ele>229.0</ele><time>2026-04-03T14:30:07.899Z</time></trkpt><trkpt lat="47.787172" lon="7.387885"><ele>229.0</ele><time>2026-04-03T14:30:08.898Z</time></trkpt><trkpt lat="47.7870617" lon="7.3879016"><ele>228.99999999999997</ele><time>2026-04-03T14:30:09.899Z</time></trkpt><trkpt lat="47.7869499" lon="7.3879233"><ele>228.99999999999997</ele><time>2026-04-03T14:30:10.898Z</time></trkpt><trkpt lat="47.7868381" lon="7.3879556"><ele>229.0</ele><time>2026-04-03T14:30:11.898Z</time></trkpt><trkpt lat="47.7867357" lon="7.3879955"><ele>229.0</ele><time>2026-04-03T14:30:12.9Z</time></trkpt><trkpt lat="47.786645" lon="7.3880431"><ele>228.99999999999997</ele><time>2026-04-03T14:30:13.898Z</time></trkpt><trkpt lat="47.7865579" lon="7.3880732"><ele>229.0</ele><time>2026-04-03T14:30:14.899Z</time></trkpt><trkpt lat="47.7864646" lon="7.3880612"><ele>229.0</ele><time>2026-04-03T14:30:15.899Z</time></trkpt><trkpt lat="47.7863778" lon="7.3880033"><ele>229.0</ele><time>2026-04-03T14:30:16.899Z</time></trkpt><trkpt lat="47.7862948" lon="7.3879606"><ele>228.99999999999997</ele><time>2026-04-03T14:30:17.898Z</time></trkpt><trkpt lat="47.786213" lon="7.3879631"><ele>229.0</ele><time>2026-04-03T14:30:18.898Z</time></trkpt><trkpt lat="47.786129" lon="7.3880031"><ele>229.0</ele><time>2026-04-03T14:30:19.899Z</time></trkpt><trkpt lat="47.7860469" lon="7.3880726"><ele>228.99999999999997</ele><time>2026-04-03T14:30:20.898Z</time></trkpt><trkpt lat="47.785954" lon="7.3881096"><ele>228.99999999999997</ele><time>2026-04-03T14:30:21.899Z</time></trkpt><trkpt lat="47.7858646" lon="7.3881248"><ele>229.0</ele><time>2026-04-03T14:30:22.898Z</time></trkpt><trkpt lat="47.7857694" lon="7.3881351"><ele>229.0</ele><time>2026-04-03T14:30:23.899Z</time></trkpt><trkpt lat="47.7856637" lon="7.3881449"><ele>228.5</ele><time>2026-04-03T14:30:24.898Z</time></trkpt><trkpt lat="47.7855514" lon="7.388162"><ele>228.0</ele><time>2026-04-03T14:30:25.899Z</time></trkpt><trkpt lat="47.7854361" lon="7.3881824"><ele>227.5</ele><time>2026-04-03T14:30:26.898Z</time></trkpt><trkpt lat="47.7853245" lon="7.3882065"><ele>227.0</ele><time>2026-04-03T14:30:27.898Z</time></trkpt><trkpt lat="47.7852041" lon="7.3882296"><ele>227.25</ele><time>2026-04-03T14:30:28.898Z</time></trkpt><trkpt lat="47.7850813" lon="7.3882475"><ele>227.5</ele><time>2026-04-03T14:30:29.898Z</time></trkpt><trkpt lat="47.7849582" lon="7.3882701"><ele>227.75</ele><time>2026-04-03T14:30:30.899Z</time></trkpt><trkpt lat="47.7848326" lon="7.3882931"><ele>228.0</ele><time>2026-04-03T14:30:31.898Z</time></trkpt><trkpt lat="47.7847118" lon="7.388316"><ele>228.0</ele><time>2026-04-03T14:30:32.898Z</time></trkpt><trkpt lat="47.7845915" lon="7.3883383"><ele>228.0</ele><time>2026-04-03T14:30:33.9Z</time></trkpt><trkpt lat="47.7844709" lon="7.3883614"><ele>228.0</ele><time>2026-04-03T14:30:34.898Z</time></trkpt><trkpt lat="47.7843503" lon="7.3883804"><ele>228.0</ele><time>2026-04-03T14:30:35.898Z</time></trkpt><trkpt lat="47.7842301" lon="7.3883931"><ele>228.25</ele><time>2026-04-03T14:30:36.898Z</time></trkpt><trkpt lat="47.7841102" lon="7.3884121"><ele>228.5</ele><time>2026-04-03T14:30:37.899Z</time></trkpt><trkpt lat="47.7839895" lon="7.3884378"><ele>228.75</ele><time>2026-04-03T14:30:38.899Z</time></trkpt><trkpt lat="47.7838719" lon="7.388461"><ele>229.0</ele><time>2026-04-03T14:30:39.898Z</time></trkpt><trkpt lat="47.7837495" lon="7.3884816"><ele>229.0</ele><time>2026-04-03T14:30:40.898Z</time></trkpt><trkpt lat="47.7836247" lon="7.3885004"><ele>229.0</ele><time>2026-04-03T14:30:41.898Z</time></trkpt><trkpt lat="47.7834989" lon="7.3885182"><ele>229.0</ele><time>2026-04-03T14:30:42.899Z</time></trkpt><trkpt lat="47.7833783" lon="7.3885396"><ele>229.0</ele><time>2026-04-03T14:30:43.899Z</time></trkpt><trkpt lat="47.7832598" lon="7.388559"><ele>229.0</ele><time>2026-04-03T14:30:44.898Z</time></trkpt><trkpt lat="47.7831433" lon="7.3885766"><ele>229.0</ele><time>2026-04-03T14:30:45.898Z</time></trkpt><trkpt lat="47.7830312" lon="7.3885926"><ele>229.0</ele><time>2026-04-03T14:30:46.899Z</time></trkpt><trkpt lat="47.7829159" lon="7.3886094"><ele>229.0</ele><time>2026-04-03T14:30:47.898Z</time></trkpt><trkpt lat="47.7827998" lon="7.3886271"><ele>229.0</ele><time>2026-04-03T14:30:48.898Z</time></trkpt><trkpt lat="47.7826842" lon="7.3886394"><ele>229.0</ele><time>2026-04-03T14:30:49.898Z</time></trkpt><trkpt lat="47.7825671" lon="7.3886499"><ele>229.0</ele><time>2026-04-03T14:30:50.898Z</time></trkpt><trkpt lat="47.782446" lon="7.3886744"><ele>229.0</ele><time>2026-04-03T14:30:51.899Z</time></trkpt><trkpt lat="47.7823275" lon="7.3887033"><ele>230.0</ele><time>2026-04-03T14:30:52.899Z</time></trkpt><trkpt lat="47.7822068" lon="7.3887222"><ele>231.0</ele><time>2026-04-03T14:30:53.899Z</time></trkpt><trkpt lat="47.7820877" lon="7.3887366"><ele>232.0</ele><time>2026-04-03T14:30:54.9Z</time></trkpt><trkpt lat="47.7819777" lon="7.3887562"><ele>233.0</ele><time>2026-04-03T14:30:55.899Z</time></trkpt><trkpt lat="47.7818732" lon="7.3887755"><ele>232.60000000000002</ele><time>2026-04-03T14:30:56.898Z</time></trkpt><trkpt lat="47.7817653" lon="7.3887933"><ele>232.20000000000002</ele><time>2026-04-03T14:30:57.899Z</time></trkpt><trkpt lat="47.7816537" lon="7.3888116"><ele>231.8</ele><time>2026-04-03T14:30:58.898Z</time></trkpt><trkpt lat="47.7815402" lon="7.3888331"><ele>231.4</ele><time>2026-04-03T14:30:59.898Z</time></trkpt><trkpt lat="47.7814276" lon="7.3888495"><ele>231.0</ele><time>2026-04-03T14:31:00.899Z</time></trkpt><trkpt lat="47.7813219" lon="7.388863"><ele>231.0</ele><time>2026-04-03T14:31:01.899Z</time></trkpt><trkpt lat="47.7812106" lon="7.3888774"><ele>231.00000000000003</ele><time>2026-04-03T14:31:02.898Z</time></trkpt><trkpt lat="47.7811052" lon="7.3888921"><ele>231.00000000000003</ele><time>2026-04-03T14:31:03.899Z</time></trkpt><trkpt lat="47.7809932" lon="7.3889114"><ele>231.0</ele><time>2026-04-03T14:31:04.898Z</time></trkpt><trkpt lat="47.7808771" lon="7.3889242"><ele>231.0</ele><time>2026-04-03T14:31:05.899Z</time></trkpt><trkpt lat="47.780766" lon="7.3889188"><ele>231.0</ele><time>2026-04-03T14:31:06.898Z</time></trkpt><trkpt lat="47.7806677" lon="7.3889063"><ele>231.00000000000003</ele><time>2026-04-03T14:31:07.899Z</time></trkpt><trkpt lat="47.780581" lon="7.3888922"><ele>231.00000000000003</ele><time>2026-04-03T14:31:08.898Z</time></trkpt><trkpt lat="47.7804924" lon="7.3888786"><ele>231.0</ele><time>2026-04-03T14:31:09.9Z</time></trkpt><trkpt lat="47.780403" lon="7.3888494"><ele>231.0</ele><time>2026-04-03T14:31:10.899Z</time></trkpt><trkpt lat="47.7803235" lon="7.3887936"><ele>231.0</ele><time>2026-04-03T14:31:11.898Z</time></trkpt><trkpt lat="47.7802668" lon="7.3887174"><ele>231.0</ele><time>2026-04-03T14:31:12.899Z</time></trkpt><trkpt lat="47.780221" lon="7.3886447"><ele>231.0</ele><time>2026-04-03T14:31:13.898Z</time></trkpt><trkpt lat="47.7801709" lon="7.3885808"><ele>231.0</ele><time>2026-04-03T14:31:14.898Z</time></trkpt><trkpt lat="47.7800646" lon="7.3885306"><ele>231.0</ele><time>2026-04-03T14:31:16.898Z</time></trkpt><trkpt lat="47.7799442" lon="7.3885716"><ele>231.0</ele><time>2026-04-03T14:31:18.898Z</time></trkpt><trkpt lat="47.7798702" lon="7.3887087"><ele>231.0</ele><time>2026-04-03T14:31:20.898Z</time></trkpt><trkpt lat="47.779846" lon="7.3887973"><ele>231.0</ele><time>2026-04-03T14:31:21.899Z</time></trkpt><trkpt lat="47.7798082" lon="7.3888931"><ele>231.0</ele><time>2026-04-03T14:31:22.898Z</time></trkpt><trkpt lat="47.7797527" lon="7.388987"><ele>231.0</ele><time>2026-04-03T14:31:23.898Z</time></trkpt><trkpt lat="47.77968" lon="7.3890596"><ele>231.0</ele><time>2026-04-03T14:31:24.899Z</time></trkpt><trkpt lat="47.779595" lon="7.3891067"><ele>231.0</ele><time>2026-04-03T14:31:25.899Z</time></trkpt><trkpt lat="47.7795003" lon="7.389143"><ele>231.0</ele><time>2026-04-03T14:31:26.899Z</time></trkpt><trkpt lat="47.7793942" lon="7.3891727"><ele>231.00000000000003</ele><time>2026-04-03T14:31:27.899Z</time></trkpt><trkpt lat="47.7792897" lon="7.3892022"><ele>231.00000000000003</ele><time>2026-04-03T14:31:28.898Z</time></trkpt><trkpt lat="47.7791758" lon="7.3892264"><ele>231.0</ele><time>2026-04-03T14:31:29.898Z</time></trkpt><trkpt lat="47.779057" lon="7.3892484"><ele>231.0</ele><time>2026-04-03T14:31:30.898Z</time></trkpt><trkpt lat="47.7789313" lon="7.3892701"><ele>231.0</ele><time>2026-04-03T14:31:31.9Z</time></trkpt><trkpt lat="47.7788004" lon="7.3892924"><ele>231.0</ele><time>2026-04-03T14:31:32.898Z</time></trkpt><trkpt lat="47.7786647" lon="7.3893145"><ele>231.0</ele><time>2026-04-03T14:31:33.898Z</time></trkpt><trkpt lat="47.7785334" lon="7.3893363"><ele>231.0</ele><time>2026-04-03T14:31:34.899Z</time></trkpt><trkpt lat="47.7783975" lon="7.3893593"><ele>231.0</ele><time>2026-04-03T14:31:35.898Z</time></trkpt><trkpt lat="47.7782634" lon="7.3893795"><ele>231.0</ele><time>2026-04-03T14:31:36.899Z</time></trkpt><trkpt lat="47.7781243" lon="7.3894027"><ele>231.0</ele><time>2026-04-03T14:31:37.898Z</time></trkpt><trkpt lat="47.777983" lon="7.3894262"><ele>231.0</ele><time>2026-04-03T14:31:38.899Z</time></trkpt><trkpt lat="47.7778465" lon="7.3894506"><ele>231.0</ele><time>2026-04-03T14:31:39.898Z</time></trkpt><trkpt lat="47.7777215" lon="7.3894716"><ele>231.0</ele><time>2026-04-03T14:31:40.898Z</time></trkpt><trkpt lat="47.7775947" lon="7.3894939"><ele>231.0</ele><time>2026-04-03T14:31:41.898Z</time></trkpt><trkpt lat="47.7774643" lon="7.3895165"><ele>231.0</ele><time>2026-04-03T14:31:42.898Z</time></trkpt><trkpt lat="47.7773284" lon="7.389538"><ele>231.25</ele><time>2026-04-03T14:31:43.898Z</time></trkpt><trkpt lat="47.7771884" lon="7.3895588"><ele>231.5</ele><time>2026-04-03T14:31:44.9Z</time></trkpt><trkpt lat="47.7770492" lon="7.3895827"><ele>231.75</ele><time>2026-04-03T14:31:45.898Z</time></trkpt><trkpt lat="47.7769194" lon="7.3896015"><ele>232.0</ele><time>2026-04-03T14:31:46.899Z</time></trkpt><trkpt lat="47.7767998" lon="7.3896234"><ele>232.0</ele><time>2026-04-03T14:31:47.898Z</time></trkpt><trkpt lat="47.7766881" lon="7.3896422"><ele>232.0</ele><time>2026-04-03T14:31:48.899Z</time></trkpt><trkpt lat="47.7765749" lon="7.389668"><ele>232.0</ele><time>2026-04-03T14:31:49.899Z</time></trkpt><trkpt lat="47.7764591" lon="7.3896976"><ele>232.0</ele><time>2026-04-03T14:31:50.898Z</time></trkpt><trkpt lat="47.7763397" lon="7.3897231"><ele>232.0</ele><time>2026-04-03T14:31:51.898Z</time></trkpt><trkpt lat="47.7762153" lon="7.3897438"><ele>232.0</ele><time>2026-04-03T14:31:52.898Z</time></trkpt><trkpt lat="47.7760905" lon="7.3897625"><ele>232.0</ele><time>2026-04-03T14:31:53.898Z</time></trkpt><trkpt lat="47.7759638" lon="7.3897807"><ele>232.0</ele><time>2026-04-03T14:31:54.899Z</time></trkpt><trkpt lat="47.7758367" lon="7.3898024"><ele>231.5</ele><time>2026-04-03T14:31:55.899Z</time></trkpt><trkpt lat="47.77571" lon="7.3898267"><ele>231.0</ele><time>2026-04-03T14:31:56.898Z</time></trkpt><trkpt lat="47.7755826" lon="7.38985"><ele>230.5</ele><time>2026-04-03T14:31:57.899Z</time></trkpt><trkpt lat="47.7754571" lon="7.3898689"><ele>230.0</ele><time>2026-04-03T14:31:58.898Z</time></trkpt><trkpt lat="47.7753385" lon="7.3898839"><ele>230.0</ele><time>2026-04-03T14:31:59.898Z</time></trkpt><trkpt lat="47.7752228" lon="7.3898945"><ele>230.0</ele><time>2026-04-03T14:32:00.899Z</time></trkpt><trkpt lat="47.7751075" lon="7.3899098"><ele>230.0</ele><time>2026-04-03T14:32:01.899Z</time></trkpt><trkpt lat="47.7749899" lon="7.3899253"><ele>230.0</ele><time>2026-04-03T14:32:02.898Z</time></trkpt><trkpt lat="47.7748775" lon="7.3899356"><ele>230.8</ele><time>2026-04-03T14:32:03.898Z</time></trkpt><trkpt lat="47.7747747" lon="7.3899453"><ele>231.6</ele><time>2026-04-03T14:32:04.898Z</time></trkpt><trkpt lat="47.7746793" lon="7.3899523"><ele>232.39999999999998</ele><time>2026-04-03T14:32:05.898Z</time></trkpt><trkpt lat="47.7745843" lon="7.3899604"><ele>233.2</ele><time>2026-04-03T14:32:06.898Z</time></trkpt><trkpt lat="47.7744897" lon="7.3899692"><ele>234.0</ele><time>2026-04-03T14:32:07.898Z</time></trkpt><trkpt lat="47.7743964" lon="7.3899707"><ele>233.2</ele><time>2026-04-03T14:32:08.898Z</time></trkpt><trkpt lat="47.7743098" lon="7.3899648"><ele>232.39999999999998</ele><time>2026-04-03T14:32:09.898Z</time></trkpt><trkpt lat="47.7741891" lon="7.389933"><ele>231.6</ele><time>2026-04-03T14:32:11.899Z</time></trkpt><trkpt lat="47.7741141" lon="7.3898665"><ele>230.8</ele><time>2026-04-03T14:32:12.898Z</time></trkpt><trkpt lat="47.7740387" lon="7.3897706"><ele>230.0</ele><time>2026-04-03T14:32:13.899Z</time></trkpt><trkpt lat="47.7739543" lon="7.3897103"><ele>230.0</ele><time>2026-04-03T14:32:14.898Z</time></trkpt><trkpt lat="47.7738566" lon="7.3897037"><ele>230.0</ele><time>2026-04-03T14:32:15.898Z</time></trkpt><trkpt lat="47.773755" lon="7.3897466"><ele>230.0</ele><time>2026-04-03T14:32:16.9Z</time></trkpt><trkpt lat="47.773662" lon="7.3898157"><ele>230.0</ele><time>2026-04-03T14:32:17.898Z</time></trkpt><trkpt lat="47.7735632" lon="7.3898357"><ele>230.0</ele><time>2026-04-03T14:32:18.897Z</time></trkpt><trkpt lat="47.773455" lon="7.3898213"><ele>230.0</ele><time>2026-04-03T14:32:19.897Z</time></trkpt><trkpt lat="47.7733469" lon="7.3897758"><ele>230.0</ele><time>2026-04-03T14:32:20.899Z</time></trkpt><trkpt lat="47.773236" lon="7.3897083"><ele>230.0</ele><time>2026-04-03T14:32:21.897Z</time></trkpt><trkpt lat="47.7731193" lon="7.3896187"><ele>230.0</ele><time>2026-04-03T14:32:22.897Z</time></trkpt><trkpt lat="47.7729968" lon="7.3895026"><ele>230.0</ele><time>2026-04-03T14:32:23.897Z</time></trkpt><trkpt lat="47.7728737" lon="7.3893676"><ele>230.0</ele><time>2026-04-03T14:32:24.897Z</time></trkpt><trkpt lat="47.7727486" lon="7.3892306"><ele>230.0</ele><time>2026-04-03T14:32:25.899Z</time></trkpt><trkpt lat="47.7726194" lon="7.3890891"><ele>230.33333333333334</ele><time>2026-04-03T14:32:26.897Z</time></trkpt><trkpt lat="47.7724914" lon="7.3889453"><ele>230.66666666666669</ele><time>2026-04-03T14:32:27.899Z</time></trkpt><trkpt lat="47.772365" lon="7.3887983"><ele>231.0</ele><time>2026-04-03T14:32:28.897Z</time></trkpt><trkpt lat="47.7722383" lon="7.3886507"><ele>231.0</ele><time>2026-04-03T14:32:29.897Z</time></trkpt><trkpt lat="47.7721102" lon="7.3885031"><ele>231.0</ele><time>2026-04-03T14:32:30.897Z</time></trkpt><trkpt lat="47.7719908" lon="7.3883651"><ele>231.0</ele><time>2026-04-03T14:32:31.898Z</time></trkpt><trkpt lat="47.77188" lon="7.3882382"><ele>231.25</ele><time>2026-04-03T14:32:32.898Z</time></trkpt><trkpt lat="47.7717691" lon="7.3881088"><ele>231.5</ele><time>2026-04-03T14:32:33.898Z</time></trkpt><trkpt lat="47.7716651" lon="7.3879855"><ele>231.75</ele><time>2026-04-03T14:32:34.897Z</time></trkpt><trkpt lat="47.771569" lon="7.3878703"><ele>232.0</ele><time>2026-04-03T14:32:35.897Z</time></trkpt><trkpt lat="47.7714807" lon="7.3877641"><ele>231.66666666666666</ele><time>2026-04-03T14:32:36.898Z</time></trkpt><trkpt lat="47.7714046" lon="7.3876682"><ele>231.33333333333331</ele><time>2026-04-03T14:32:37.899Z</time></trkpt><trkpt lat="47.7713423" lon="7.3875775"><ele>231.0</ele><time>2026-04-03T14:32:38.897Z</time></trkpt><trkpt lat="47.7712921" lon="7.3874863"><ele>230.66666666666669</ele><time>2026-04-03T14:32:39.897Z</time></trkpt><trkpt lat="47.7712542" lon="7.3873691"><ele>230.33333333333334</ele><time>2026-04-03T14:32:40.897Z</time></trkpt><trkpt lat="47.7712431" lon="7.3872341"><ele>230.0</ele><time>2026-04-03T14:32:41.897Z</time></trkpt><trkpt lat="47.7712433" lon="7.3870915"><ele>230.0</ele><time>2026-04-03T14:32:42.897Z</time></trkpt><trkpt lat="47.7712131" lon="7.3869588"><ele>230.0</ele><time>2026-04-03T14:32:43.899Z</time></trkpt><trkpt lat="47.7711559" lon="7.3868475"><ele>230.0</ele><time>2026-04-03T14:32:44.897Z</time></trkpt><trkpt lat="47.7710745" lon="7.3867615"><ele>230.0</ele><time>2026-04-03T14:32:45.897Z</time></trkpt><trkpt lat="47.7709831" lon="7.386731"><ele>230.0</ele><time>2026-04-03T14:32:46.897Z</time></trkpt><trkpt lat="47.7709008" lon="7.3867451"><ele>229.8</ele><time>2026-04-03T14:32:47.897Z</time></trkpt><trkpt lat="47.7708377" lon="7.3867761"><ele>229.6</ele><time>2026-04-03T14:32:48.897Z</time></trkpt><trkpt lat="47.7707699" lon="7.3868491"><ele>229.39999999999998</ele><time>2026-04-03T14:32:49.898Z</time></trkpt><trkpt lat="47.7707119" lon="7.3869822"><ele>229.2</ele><time>2026-04-03T14:32:50.897Z</time></trkpt><trkpt lat="47.7706814" lon="7.3871469"><ele>229.0</ele><time>2026-04-03T14:32:51.898Z</time></trkpt><trkpt lat="47.7706576" lon="7.3872932"><ele>229.39999999999998</ele><time>2026-04-03T14:32:52.898Z</time></trkpt><trkpt lat="47.7706072" lon="7.3874064"><ele>229.79999999999998</ele><time>2026-04-03T14:32:53.897Z</time></trkpt><trkpt lat="47.7705355" lon="7.3874943"><ele>230.20000000000002</ele><time>2026-04-03T14:32:54.897Z</time></trkpt><trkpt lat="47.7704503" lon="7.3875496"><ele>230.60000000000002</ele><time>2026-04-03T14:32:55.897Z</time></trkpt><trkpt lat="47.770359" lon="7.3875966"><ele>231.0</ele><time>2026-04-03T14:32:56.897Z</time></trkpt><trkpt lat="47.7702714" lon="7.3876505"><ele>231.20000000000002</ele><time>2026-04-03T14:32:57.897Z</time></trkpt><trkpt lat="47.7701848" lon="7.3877048"><ele>231.40000000000003</ele><time>2026-04-03T14:32:58.898Z</time></trkpt><trkpt lat="47.7700953" lon="7.3877668"><ele>231.6</ele><time>2026-04-03T14:32:59.898Z</time></trkpt><trkpt lat="47.7699961" lon="7.3878377"><ele>231.8</ele><time>2026-04-03T14:33:00.898Z</time></trkpt><trkpt lat="47.7698963" lon="7.387909"><ele>232.0</ele><time>2026-04-03T14:33:01.897Z</time></trkpt><trkpt lat="47.7697914" lon="7.3879947"><ele>232.5</ele><time>2026-04-03T14:33:02.898Z</time></trkpt><trkpt lat="47.7696837" lon="7.3880865"><ele>233.0</ele><time>2026-04-03T14:33:03.897Z</time></trkpt><trkpt lat="47.7695744" lon="7.3881886"><ele>233.5</ele><time>2026-04-03T14:33:04.897Z</time></trkpt><trkpt lat="47.7694722" lon="7.3883156"><ele>234.0</ele><time>2026-04-03T14:33:05.898Z</time></trkpt><trkpt lat="47.7693741" lon="7.388463"><ele>234.25</ele><time>2026-04-03T14:33:06.897Z</time></trkpt><trkpt lat="47.7692851" lon="7.3886243"><ele>234.5</ele><time>2026-04-03T14:33:07.898Z</time></trkpt><trkpt lat="47.7692131" lon="7.388797"><ele>234.75</ele><time>2026-04-03T14:33:08.898Z</time></trkpt><trkpt lat="47.7691528" lon="7.3889676"><ele>235.0</ele><time>2026-04-03T14:33:09.897Z</time></trkpt><trkpt lat="47.7690921" lon="7.3891356"><ele>234.5</ele><time>2026-04-03T14:33:10.897Z</time></trkpt><trkpt lat="47.7690321" lon="7.3893071"><ele>234.0</ele><time>2026-04-03T14:33:11.898Z</time></trkpt><trkpt lat="47.7689761" lon="7.3894699"><ele>233.5</ele><time>2026-04-03T14:33:12.898Z</time></trkpt><trkpt lat="47.7689198" lon="7.3896314"><ele>233.0</ele><time>2026-04-03T14:33:13.899Z</time></trkpt><trkpt lat="47.7688631" lon="7.3897914"><ele>232.25</ele><time>2026-04-03T14:33:14.897Z</time></trkpt><trkpt lat="47.768808" lon="7.389948"><ele>231.5</ele><time>2026-04-03T14:33:15.898Z</time></trkpt><trkpt lat="47.7687538" lon="7.3900997"><ele>230.75</ele><time>2026-04-03T14:33:16.897Z</time></trkpt><trkpt lat="47.7686999" lon="7.3902509"><ele>230.0</ele><time>2026-04-03T14:33:17.898Z</time></trkpt><trkpt lat="47.7686513" lon="7.3904086"><ele>231.2</ele><time>2026-04-03T14:33:18.898Z</time></trkpt><trkpt lat="47.7685988" lon="7.3905538"><ele>232.4</ele><time>2026-04-03T14:33:19.897Z</time></trkpt><trkpt lat="47.7685495" lon="7.3906946"><ele>233.60000000000002</ele><time>2026-04-03T14:33:20.899Z</time></trkpt><trkpt lat="47.7684979" lon="7.3908389"><ele>234.8</ele><time>2026-04-03T14:33:21.897Z</time></trkpt><trkpt lat="47.7684481" lon="7.3909817"><ele>236.0</ele><time>2026-04-03T14:33:22.897Z</time></trkpt><trkpt lat="47.7683975" lon="7.3911199"><ele>236.60000000000002</ele><time>2026-04-03T14:33:23.897Z</time></trkpt><trkpt lat="47.7683502" lon="7.3912537"><ele>237.20000000000002</ele><time>2026-04-03T14:33:24.898Z</time></trkpt><trkpt lat="47.7683003" lon="7.3913845"><ele>237.79999999999998</ele><time>2026-04-03T14:33:25.899Z</time></trkpt><trkpt lat="47.7682417" lon="7.3915165"><ele>238.39999999999998</ele><time>2026-04-03T14:33:26.897Z</time></trkpt><trkpt lat="47.7681696" lon="7.3916471"><ele>239.0</ele><time>2026-04-03T14:33:27.897Z</time></trkpt><trkpt lat="47.7680849" lon="7.3917693"><ele>239.25</ele><time>2026-04-03T14:33:28.897Z</time></trkpt><trkpt lat="47.7679899" lon="7.3918811"><ele>239.5</ele><time>2026-04-03T14:33:29.897Z</time></trkpt><trkpt lat="47.7678842" lon="7.391978"><ele>239.75</ele><time>2026-04-03T14:33:30.897Z</time></trkpt><trkpt lat="47.7677759" lon="7.3920716"><ele>240.0</ele><time>2026-04-03T14:33:31.898Z</time></trkpt><trkpt lat="47.767682" lon="7.3921555"><ele>238.5</ele><time>2026-04-03T14:33:32.897Z</time></trkpt><trkpt lat="47.7675963" lon="7.3922256"><ele>237.0</ele><time>2026-04-03T14:33:33.897Z</time></trkpt><trkpt lat="47.7675088" lon="7.392296"><ele>235.5</ele><time>2026-04-03T14:33:34.898Z</time></trkpt><trkpt lat="47.7674071" lon="7.3923959"><ele>234.0</ele><time>2026-04-03T14:33:35.898Z</time></trkpt><trkpt lat="47.7672904" lon="7.3925035"><ele>234.0</ele><time>2026-04-03T14:33:36.897Z</time></trkpt><trkpt lat="47.7671659" lon="7.3926122"><ele>234.0</ele><time>2026-04-03T14:33:37.898Z</time></trkpt><trkpt lat="47.7670554" lon="7.392718"><ele>234.0</ele><time>2026-04-03T14:33:38.897Z</time></trkpt><trkpt lat="47.7669476" lon="7.3928168"><ele>234.0</ele><time>2026-04-03T14:33:39.899Z</time></trkpt><trkpt lat="47.7668361" lon="7.3929139"><ele>234.0</ele><time>2026-04-03T14:33:40.897Z</time></trkpt><trkpt lat="47.7667264" lon="7.3930165"><ele>234.0</ele><time>2026-04-03T14:33:41.897Z</time></trkpt><trkpt lat="47.7666144" lon="7.393115"><ele>234.0</ele><time>2026-04-03T14:33:42.897Z</time></trkpt><trkpt lat="47.7665014" lon="7.3932122"><ele>234.0</ele><time>2026-04-03T14:33:43.897Z</time></trkpt><trkpt lat="47.7663889" lon="7.3933114"><ele>234.0</ele><time>2026-04-03T14:33:44.898Z</time></trkpt><trkpt lat="47.7662831" lon="7.3934045"><ele>234.0</ele><time>2026-04-03T14:33:45.897Z</time></trkpt><trkpt lat="47.7661745" lon="7.3935022"><ele>234.0</ele><time>2026-04-03T14:33:46.898Z</time></trkpt><trkpt lat="47.7660649" lon="7.3935987"><ele>234.0</ele><time>2026-04-03T14:33:47.899Z</time></trkpt><trkpt lat="47.7659548" lon="7.3936967"><ele>234.25</ele><time>2026-04-03T14:33:48.897Z</time></trkpt><trkpt lat="47.7658455" lon="7.3937957"><ele>234.5</ele><time>2026-04-03T14:33:49.897Z</time></trkpt><trkpt lat="47.7657367" lon="7.393898"><ele>234.75</ele><time>2026-04-03T14:33:50.897Z</time></trkpt><trkpt lat="47.7656246" lon="7.3939963"><ele>235.0</ele><time>2026-04-03T14:33:51.898Z</time></trkpt><trkpt lat="47.7655127" lon="7.3940947"><ele>235.0</ele><time>2026-04-03T14:33:52.897Z</time></trkpt><trkpt lat="47.7653994" lon="7.3941957"><ele>235.0</ele><time>2026-04-03T14:33:53.897Z</time></trkpt><trkpt lat="47.7652852" lon="7.3942973"><ele>235.0</ele><time>2026-04-03T14:33:54.897Z</time></trkpt><trkpt lat="47.7651665" lon="7.3944033"><ele>235.0</ele><time>2026-04-03T14:33:55.897Z</time></trkpt><trkpt lat="47.7650464" lon="7.3945066"><ele>235.0</ele><time>2026-04-03T14:33:56.897Z</time></trkpt><trkpt lat="47.7649312" lon="7.3946102"><ele>235.0</ele><time>2026-04-03T14:33:57.897Z</time></trkpt><trkpt lat="47.7648245" lon="7.3947049"><ele>235.0</ele><time>2026-04-03T14:33:58.898Z</time></trkpt><trkpt lat="47.764722" lon="7.3947983"><ele>235.0</ele><time>2026-04-03T14:33:59.897Z</time></trkpt><trkpt lat="47.7646227" lon="7.3948861"><ele>235.0</ele><time>2026-04-03T14:34:00.897Z</time></trkpt><trkpt lat="47.7645243" lon="7.394968"><ele>235.0</ele><time>2026-04-03T14:34:01.897Z</time></trkpt><trkpt lat="47.7644252" lon="7.3950524"><ele>235.0</ele><time>2026-04-03T14:34:02.897Z</time></trkpt><trkpt lat="47.7643261" lon="7.3951423"><ele>235.0</ele><time>2026-04-03T14:34:03.897Z</time></trkpt><trkpt lat="47.764225" lon="7.3952339"><ele>235.0</ele><time>2026-04-03T14:34:04.897Z</time></trkpt><trkpt lat="47.7641255" lon="7.3953239"><ele>235.0</ele><time>2026-04-03T14:34:05.897Z</time></trkpt><trkpt lat="47.7640255" lon="7.3954096"><ele>235.0</ele><time>2026-04-03T14:34:06.897Z</time></trkpt><trkpt lat="47.7639269" lon="7.3954954"><ele>235.0</ele><time>2026-04-03T14:34:07.897Z</time></trkpt><trkpt lat="47.7638301" lon="7.3955825"><ele>235.2</ele><time>2026-04-03T14:34:08.897Z</time></trkpt><trkpt lat="47.7637353" lon="7.3956686"><ele>235.4</ele><time>2026-04-03T14:34:09.897Z</time></trkpt><trkpt lat="47.7636414" lon="7.3957516"><ele>235.60000000000002</ele><time>2026-04-03T14:34:10.897Z</time></trkpt><trkpt lat="47.7635483" lon="7.3958363"><ele>235.8</ele><time>2026-04-03T14:34:11.898Z</time></trkpt><trkpt lat="47.7634508" lon="7.3959186"><ele>236.0</ele><time>2026-04-03T14:34:12.897Z</time></trkpt><trkpt lat="47.7633525" lon="7.3959932"><ele>235.60000000000002</ele><time>2026-04-03T14:34:13.897Z</time></trkpt><trkpt lat="47.7632583" lon="7.3960608"><ele>235.20000000000002</ele><time>2026-04-03T14:34:14.897Z</time></trkpt><trkpt lat="47.7631694" lon="7.3961345"><ele>234.79999999999998</ele><time>2026-04-03T14:34:15.897Z</time></trkpt><trkpt lat="47.7630824" lon="7.3962101"><ele>234.39999999999998</ele><time>2026-04-03T14:34:16.898Z</time></trkpt><trkpt lat="47.762997" lon="7.3962855"><ele>234.0</ele><time>2026-04-03T14:34:17.897Z</time></trkpt><trkpt lat="47.7629089" lon="7.3963616"><ele>233.79999999999998</ele><time>2026-04-03T14:34:18.897Z</time></trkpt><trkpt lat="47.7628203" lon="7.3964405"><ele>233.59999999999997</ele><time>2026-04-03T14:34:19.897Z</time></trkpt><trkpt lat="47.7627264" lon="7.3965212"><ele>233.4</ele><time>2026-04-03T14:34:20.897Z</time></trkpt><trkpt lat="47.7626343" lon="7.3966101"><ele>233.2</ele><time>2026-04-03T14:34:21.899Z</time></trkpt><trkpt lat="47.7625407" lon="7.3967125"><ele>233.0</ele><time>2026-04-03T14:34:22.897Z</time></trkpt><trkpt lat="47.7624411" lon="7.3968161"><ele>233.0</ele><time>2026-04-03T14:34:23.897Z</time></trkpt><trkpt lat="47.7623345" lon="7.3969064"><ele>233.0</ele><time>2026-04-03T14:34:24.897Z</time></trkpt><trkpt lat="47.7622235" lon="7.3969967"><ele>233.0</ele><time>2026-04-03T14:34:25.897Z</time></trkpt><trkpt lat="47.762105" lon="7.3970764"><ele>233.0</ele><time>2026-04-03T14:34:26.897Z</time></trkpt><trkpt lat="47.7619903" lon="7.3971707"><ele>232.5</ele><time>2026-04-03T14:34:27.897Z</time></trkpt><trkpt lat="47.761875" lon="7.3972768"><ele>232.0</ele><time>2026-04-03T14:34:28.898Z</time></trkpt><trkpt lat="47.7617537" lon="7.3973832"><ele>231.5</ele><time>2026-04-03T14:34:29.897Z</time></trkpt><trkpt lat="47.7616313" lon="7.3974919"><ele>231.0</ele><time>2026-04-03T14:34:30.897Z</time></trkpt><trkpt lat="47.7615096" lon="7.3976006"><ele>231.0</ele><time>2026-04-03T14:34:31.897Z</time></trkpt><trkpt lat="47.7613892" lon="7.3977063"><ele>231.0</ele><time>2026-04-03T14:34:32.898Z</time></trkpt><trkpt lat="47.7612739" lon="7.3978088"><ele>231.0</ele><time>2026-04-03T14:34:33.898Z</time></trkpt><trkpt lat="47.761158" lon="7.3979127"><ele>231.0</ele><time>2026-04-03T14:34:34.897Z</time></trkpt><trkpt lat="47.7610466" lon="7.3980137"><ele>231.0</ele><time>2026-04-03T14:34:35.897Z</time></trkpt><trkpt lat="47.7609358" lon="7.3981146"><ele>231.0</ele><time>2026-04-03T14:34:36.898Z</time></trkpt><trkpt lat="47.7608228" lon="7.3982145"><ele>231.0</ele><time>2026-04-03T14:34:37.897Z</time></trkpt><trkpt lat="47.7607099" lon="7.3983156"><ele>231.0</ele><time>2026-04-03T14:34:38.897Z</time></trkpt><trkpt lat="47.7605971" lon="7.3984147"><ele>231.0</ele><time>2026-04-03T14:34:39.897Z</time></trkpt><trkpt lat="47.7604908" lon="7.3985054"><ele>231.0</ele><time>2026-04-03T14:34:40.898Z</time></trkpt><trkpt lat="47.7603911" lon="7.3985909"><ele>231.0</ele><time>2026-04-03T14:34:41.898Z</time></trkpt><trkpt lat="47.7602926" lon="7.3986778"><ele>231.0</ele><time>2026-04-03T14:34:42.897Z</time></trkpt><trkpt lat="47.7601912" lon="7.3987656"><ele>230.75</ele><time>2026-04-03T14:34:43.897Z</time></trkpt><trkpt lat="47.7600852" lon="7.3988645"><ele>230.5</ele><time>2026-04-03T14:34:44.897Z</time></trkpt><trkpt lat="47.759976" lon="7.3989656"><ele>230.25</ele><time>2026-04-03T14:34:45.897Z</time></trkpt><trkpt lat="47.7598595" lon="7.3990671"><ele>230.0</ele><time>2026-04-03T14:34:46.898Z</time></trkpt><trkpt lat="47.7597429" lon="7.3991725"><ele>230.0</ele><time>2026-04-03T14:34:47.897Z</time></trkpt><trkpt lat="47.7596316" lon="7.3992723"><ele>230.0</ele><time>2026-04-03T14:34:48.898Z</time></trkpt><trkpt lat="47.7595221" lon="7.3993694"><ele>230.0</ele><time>2026-04-03T14:34:49.897Z</time></trkpt><trkpt lat="47.7594129" lon="7.3994725"><ele>230.0</ele><time>2026-04-03T14:34:50.897Z</time></trkpt><trkpt lat="47.7593017" lon="7.3995736"><ele>231.25</ele><time>2026-04-03T14:34:51.898Z</time></trkpt><trkpt lat="47.759188" lon="7.3996712"><ele>232.5</ele><time>2026-04-03T14:34:52.897Z</time></trkpt><trkpt lat="47.7590738" lon="7.3997692"><ele>233.75</ele><time>2026-04-03T14:34:53.897Z</time></trkpt><trkpt lat="47.7589596" lon="7.3998691"><ele>235.0</ele><time>2026-04-03T14:34:54.897Z</time></trkpt><trkpt lat="47.7588459" lon="7.3999641"><ele>235.0</ele><time>2026-04-03T14:34:55.898Z</time></trkpt><trkpt lat="47.7587418" lon="7.4000559"><ele>235.0</ele><time>2026-04-03T14:34:56.897Z</time></trkpt><trkpt lat="47.7586449" lon="7.4001433"><ele>235.0</ele><time>2026-04-03T14:34:57.897Z</time></trkpt><trkpt lat="47.7585474" lon="7.4002313"><ele>235.0</ele><time>2026-04-03T14:34:58.898Z</time></trkpt><trkpt lat="47.7584475" lon="7.4003159"><ele>234.75</ele><time>2026-04-03T14:34:59.897Z</time></trkpt><trkpt lat="47.7583474" lon="7.4004058"><ele>234.5</ele><time>2026-04-03T14:35:00.898Z</time></trkpt><trkpt lat="47.7582448" lon="7.4004988"><ele>234.25</ele><time>2026-04-03T14:35:01.897Z</time></trkpt><trkpt lat="47.7581405" lon="7.4005914"><ele>234.0</ele><time>2026-04-03T14:35:02.897Z</time></trkpt><trkpt lat="47.7580332" lon="7.400682"><ele>234.0</ele><time>2026-04-03T14:35:03.898Z</time></trkpt><trkpt lat="47.7579352" lon="7.4007672"><ele>233.99999999999997</ele><time>2026-04-03T14:35:04.897Z</time></trkpt><trkpt lat="47.7578462" lon="7.4008473"><ele>233.99999999999997</ele><time>2026-04-03T14:35:05.897Z</time></trkpt><trkpt lat="47.7577609" lon="7.4009223"><ele>234.0</ele><time>2026-04-03T14:35:06.897Z</time></trkpt><trkpt lat="47.757685" lon="7.4009893"><ele>234.0</ele><time>2026-04-03T14:35:07.897Z</time></trkpt><trkpt lat="47.7576116" lon="7.4010488"><ele>234.0</ele><time>2026-04-03T14:35:08.898Z</time></trkpt><trkpt lat="47.7575363" lon="7.4011196"><ele>233.99999999999997</ele><time>2026-04-03T14:35:09.897Z</time></trkpt><trkpt lat="47.7574544" lon="7.401193"><ele>233.99999999999997</ele><time>2026-04-03T14:35:10.897Z</time></trkpt><trkpt lat="47.7573654" lon="7.4012736"><ele>234.0</ele><time>2026-04-03T14:35:11.898Z</time></trkpt><trkpt lat="47.7572717" lon="7.4013594"><ele>234.0</ele><time>2026-04-03T14:35:12.897Z</time></trkpt><trkpt lat="47.7571761" lon="7.4014511"><ele>234.0</ele><time>2026-04-03T14:35:13.897Z</time></trkpt><trkpt lat="47.7570851" lon="7.4015343"><ele>233.99999999999997</ele><time>2026-04-03T14:35:14.898Z</time></trkpt><trkpt lat="47.7569987" lon="7.4016051"><ele>233.99999999999997</ele><time>2026-04-03T14:35:15.897Z</time></trkpt><trkpt lat="47.7569202" lon="7.4016727"><ele>234.0</ele><time>2026-04-03T14:35:16.897Z</time></trkpt><trkpt lat="47.7568387" lon="7.4017455"><ele>234.0</ele><time>2026-04-03T14:35:17.897Z</time></trkpt><trkpt lat="47.7567524" lon="7.4018161"><ele>234.0</ele><time>2026-04-03T14:35:18.897Z</time></trkpt><trkpt lat="47.7566613" lon="7.4018968"><ele>234.0</ele><time>2026-04-03T14:35:19.897Z</time></trkpt><trkpt lat="47.7565659" lon="7.4019798"><ele>234.0</ele><time>2026-04-03T14:35:20.897Z</time></trkpt><trkpt lat="47.7564673" lon="7.4020677"><ele>234.0</ele><time>2026-04-03T14:35:21.897Z</time></trkpt><trkpt lat="47.7563654" lon="7.402157"><ele>234.25</ele><time>2026-04-03T14:35:22.898Z</time></trkpt><trkpt lat="47.7562623" lon="7.4022461"><ele>234.5</ele><time>2026-04-03T14:35:23.898Z</time></trkpt><trkpt lat="47.7561605" lon="7.4023365"><ele>234.75</ele><time>2026-04-03T14:35:24.897Z</time></trkpt><trkpt lat="47.7560583" lon="7.4024217"><ele>235.0</ele><time>2026-04-03T14:35:25.897Z</time></trkpt><trkpt lat="47.7559519" lon="7.4025138"><ele>235.0</ele><time>2026-04-03T14:35:26.897Z</time></trkpt><trkpt lat="47.7558483" lon="7.4026037"><ele>235.0</ele><time>2026-04-03T14:35:27.898Z</time></trkpt><trkpt lat="47.7557445" lon="7.4026954"><ele>235.0</ele><time>2026-04-03T14:35:28.897Z</time></trkpt><trkpt lat="47.7556434" lon="7.4027855"><ele>235.0</ele><time>2026-04-03T14:35:29.898Z</time></trkpt><trkpt lat="47.7555444" lon="7.4028775"><ele>235.0</ele><time>2026-04-03T14:35:30.897Z</time></trkpt><trkpt lat="47.755446" lon="7.402974"><ele>235.0</ele><time>2026-04-03T14:35:31.897Z</time></trkpt><trkpt lat="47.7553446" lon="7.4030666"><ele>235.0</ele><time>2026-04-03T14:35:32.898Z</time></trkpt><trkpt lat="47.7552399" lon="7.4031548"><ele>235.0</ele><time>2026-04-03T14:35:33.897Z</time></trkpt><trkpt lat="47.7551364" lon="7.4032468"><ele>235.0</ele><time>2026-04-03T14:35:34.898Z</time></trkpt><trkpt lat="47.7550346" lon="7.40334"><ele>235.0</ele><time>2026-04-03T14:35:35.897Z</time></trkpt><trkpt lat="47.754934" lon="7.4034308"><ele>235.0</ele><time>2026-04-03T14:35:36.897Z</time></trkpt><trkpt lat="47.7548329" lon="7.4035162"><ele>235.0</ele><time>2026-04-03T14:35:37.897Z</time></trkpt><trkpt lat="47.75474" lon="7.4035971"><ele>235.0</ele><time>2026-04-03T14:35:38.897Z</time></trkpt><trkpt lat="47.7546465" lon="7.4036782"><ele>235.0</ele><time>2026-04-03T14:35:39.897Z</time></trkpt><trkpt lat="47.7545514" lon="7.4037585"><ele>235.0</ele><time>2026-04-03T14:35:40.898Z</time></trkpt><trkpt lat="47.7544561" lon="7.4038405"><ele>235.0</ele><time>2026-04-03T14:35:41.898Z</time></trkpt><trkpt lat="47.7543581" lon="7.4039225"><ele>235.0</ele><time>2026-04-03T14:35:42.897Z</time></trkpt><trkpt lat="47.7542595" lon="7.4040087"><ele>235.5</ele><time>2026-04-03T14:35:43.897Z</time></trkpt><trkpt lat="47.7541637" lon="7.4040959"><ele>236.0</ele><time>2026-04-03T14:35:44.897Z</time></trkpt><trkpt lat="47.7540658" lon="7.4041895"><ele>236.5</ele><time>2026-04-03T14:35:45.897Z</time></trkpt><trkpt lat="47.7539649" lon="7.4042822"><ele>237.0</ele><time>2026-04-03T14:35:46.897Z</time></trkpt><trkpt lat="47.7538611" lon="7.4043741"><ele>237.0</ele><time>2026-04-03T14:35:47.897Z</time></trkpt><trkpt lat="47.7537528" lon="7.4044609"><ele>237.0</ele><time>2026-04-03T14:35:48.897Z</time></trkpt><trkpt lat="47.753641" lon="7.4045553"><ele>237.0</ele><time>2026-04-03T14:35:49.898Z</time></trkpt><trkpt lat="47.7535306" lon="7.4046536"><ele>237.0</ele><time>2026-04-03T14:35:50.898Z</time></trkpt><trkpt lat="47.7534177" lon="7.4047531"><ele>236.75</ele><time>2026-04-03T14:35:51.898Z</time></trkpt><trkpt lat="47.7533079" lon="7.404853"><ele>236.5</ele><time>2026-04-03T14:35:52.898Z</time></trkpt><trkpt lat="47.7531988" lon="7.4049481"><ele>236.25</ele><time>2026-04-03T14:35:53.899Z</time></trkpt><trkpt lat="47.7530903" lon="7.4050413"><ele>236.0</ele><time>2026-04-03T14:35:54.898Z</time></trkpt><trkpt lat="47.7529826" lon="7.4051369"><ele>236.0</ele><time>2026-04-03T14:35:55.898Z</time></trkpt><trkpt lat="47.7528763" lon="7.405236"><ele>236.0</ele><time>2026-04-03T14:35:56.897Z</time></trkpt><trkpt lat="47.7527656" lon="7.4053335"><ele>236.0</ele><time>2026-04-03T14:35:57.897Z</time></trkpt><trkpt lat="47.7526608" lon="7.4054205"><ele>236.0</ele><time>2026-04-03T14:35:58.897Z</time></trkpt><trkpt lat="47.7525636" lon="7.4055102"><ele>236.0</ele><time>2026-04-03T14:35:59.897Z</time></trkpt><trkpt lat="47.7524616" lon="7.4055951"><ele>236.0</ele><time>2026-04-03T14:36:00.897Z</time></trkpt><trkpt lat="47.7523584" lon="7.405681"><ele>236.0</ele><time>2026-04-03T14:36:01.897Z</time></trkpt><trkpt lat="47.7522528" lon="7.4057741"><ele>236.0</ele><time>2026-04-03T14:36:02.897Z</time></trkpt><trkpt lat="47.752145" lon="7.4058686"><ele>236.0</ele><time>2026-04-03T14:36:03.898Z</time></trkpt><trkpt lat="47.7520359" lon="7.4059652"><ele>236.0</ele><time>2026-04-03T14:36:04.898Z</time></trkpt><trkpt lat="47.7519304" lon="7.4060582"><ele>236.0</ele><time>2026-04-03T14:36:05.898Z</time></trkpt><trkpt lat="47.7518322" lon="7.4061426"><ele>236.0</ele><time>2026-04-03T14:36:06.897Z</time></trkpt><trkpt lat="47.7517407" lon="7.4062202"><ele>236.0</ele><time>2026-04-03T14:36:07.898Z</time></trkpt><trkpt lat="47.7516563" lon="7.4062904"><ele>236.00000000000003</ele><time>2026-04-03T14:36:08.897Z</time></trkpt><trkpt lat="47.7515797" lon="7.4063601"><ele>236.00000000000003</ele><time>2026-04-03T14:36:09.898Z</time></trkpt><trkpt lat="47.7514968" lon="7.4064347"><ele>236.0</ele><time>2026-04-03T14:36:10.898Z</time></trkpt><trkpt lat="47.7514121" lon="7.4065104"><ele>236.0</ele><time>2026-04-03T14:36:11.899Z</time></trkpt><trkpt lat="47.7513228" lon="7.4065903"><ele>236.0</ele><time>2026-04-03T14:36:12.897Z</time></trkpt><trkpt lat="47.7512322" lon="7.4066671"><ele>236.00000000000003</ele><time>2026-04-03T14:36:13.897Z</time></trkpt><trkpt lat="47.751149" lon="7.4067377"><ele>236.00000000000003</ele><time>2026-04-03T14:36:14.897Z</time></trkpt><trkpt lat="47.7510684" lon="7.4068048"><ele>236.0</ele><time>2026-04-03T14:36:15.897Z</time></trkpt><trkpt lat="47.7509835" lon="7.406878"><ele>236.0</ele><time>2026-04-03T14:36:16.897Z</time></trkpt><trkpt lat="47.7508952" lon="7.4069538"><ele>236.00000000000003</ele><time>2026-04-03T14:36:17.897Z</time></trkpt><trkpt lat="47.7508113" lon="7.4070256"><ele>236.0</ele><time>2026-04-03T14:36:18.898Z</time></trkpt><trkpt lat="47.7507348" lon="7.4070929"><ele>236.0</ele><time>2026-04-03T14:36:19.897Z</time></trkpt><trkpt lat="47.7506671" lon="7.4071548"><ele>236.0</ele><time>2026-04-03T14:36:20.898Z</time></trkpt><trkpt lat="47.7505938" lon="7.4072206"><ele>236.00000000000003</ele><time>2026-04-03T14:36:21.897Z</time></trkpt><trkpt lat="47.750515" lon="7.4072794"><ele>236.0</ele><time>2026-04-03T14:36:22.897Z</time></trkpt><trkpt lat="47.7504338" lon="7.4073417"><ele>236.20000000000002</ele><time>2026-04-03T14:36:23.899Z</time></trkpt><trkpt lat="47.7503496" lon="7.4073995"><ele>236.40000000000003</ele><time>2026-04-03T14:36:24.898Z</time></trkpt><trkpt lat="47.7502691" lon="7.4074601"><ele>236.6</ele><time>2026-04-03T14:36:25.898Z</time></trkpt><trkpt lat="47.7501851" lon="7.4075307"><ele>236.8</ele><time>2026-04-03T14:36:26.899Z</time></trkpt><trkpt lat="47.750109" lon="7.4076162"><ele>237.0</ele><time>2026-04-03T14:36:27.898Z</time></trkpt><trkpt lat="47.7500408" lon="7.4076948"><ele>237.0</ele><time>2026-04-03T14:36:28.898Z</time></trkpt><trkpt lat="47.7499686" lon="7.4077762"><ele>237.0</ele><time>2026-04-03T14:36:29.897Z</time></trkpt><trkpt lat="47.7498846" lon="7.4078504"><ele>237.0</ele><time>2026-04-03T14:36:30.897Z</time></trkpt><trkpt lat="47.7497902" lon="7.40792"><ele>237.0</ele><time>2026-04-03T14:36:31.897Z</time></trkpt><trkpt lat="47.749693" lon="7.4080056"><ele>237.0</ele><time>2026-04-03T14:36:32.898Z</time></trkpt><trkpt lat="47.7495944" lon="7.4080921"><ele>237.0</ele><time>2026-04-03T14:36:33.897Z</time></trkpt><trkpt lat="47.7495012" lon="7.4081754"><ele>237.0</ele><time>2026-04-03T14:36:34.897Z</time></trkpt><trkpt lat="47.7494072" lon="7.4082562"><ele>237.0</ele><time>2026-04-03T14:36:35.898Z</time></trkpt><trkpt lat="47.7493193" lon="7.4083576"><ele>237.0</ele><time>2026-04-03T14:36:36.898Z</time></trkpt><trkpt lat="47.7492297" lon="7.4084492"><ele>237.0</ele><time>2026-04-03T14:36:37.897Z</time></trkpt><trkpt lat="47.7491452" lon="7.4085232"><ele>237.2</ele><time>2026-04-03T14:36:38.897Z</time></trkpt><trkpt lat="47.7490698" lon="7.4085938"><ele>237.39999999999998</ele><time>2026-04-03T14:36:39.898Z</time></trkpt><trkpt lat="47.7490009" lon="7.4086656"><ele>237.60000000000002</ele><time>2026-04-03T14:36:40.897Z</time></trkpt><trkpt lat="47.7489227" lon="7.4087366"><ele>237.8</ele><time>2026-04-03T14:36:41.897Z</time></trkpt><trkpt lat="47.7488408" lon="7.4088092"><ele>238.0</ele><time>2026-04-03T14:36:42.899Z</time></trkpt><trkpt lat="47.7487523" lon="7.4088807"><ele>238.0</ele><time>2026-04-03T14:36:43.899Z</time></trkpt><trkpt lat="47.7486627" lon="7.4089453"><ele>238.0</ele><time>2026-04-03T14:36:44.899Z</time></trkpt><trkpt lat="47.7485762" lon="7.4090098"><ele>238.0</ele><time>2026-04-03T14:36:45.897Z</time></trkpt><trkpt lat="47.7484909" lon="7.4090748"><ele>238.0</ele><time>2026-04-03T14:36:46.897Z</time></trkpt><trkpt lat="47.7484075" lon="7.4091396"><ele>238.0</ele><time>2026-04-03T14:36:47.899Z</time></trkpt><trkpt lat="47.7483314" lon="7.4092116"><ele>237.99999999999997</ele><time>2026-04-03T14:36:48.897Z</time></trkpt><trkpt lat="47.7482595" lon="7.4092836"><ele>238.0</ele><time>2026-04-03T14:36:49.898Z</time></trkpt><trkpt lat="47.7481884" lon="7.4093514"><ele>238.0</ele><time>2026-04-03T14:36:50.897Z</time></trkpt><trkpt lat="47.7481192" lon="7.4094227"><ele>238.0</ele><time>2026-04-03T14:36:51.898Z</time></trkpt><trkpt lat="47.7480541" lon="7.4094876"><ele>237.99999999999997</ele><time>2026-04-03T14:36:52.898Z</time></trkpt><trkpt lat="47.7479935" lon="7.4095523"><ele>238.0</ele><time>2026-04-03T14:36:53.898Z</time></trkpt><trkpt lat="47.7479293" lon="7.4096127"><ele>238.0</ele><time>2026-04-03T14:36:54.897Z</time></trkpt><trkpt lat="47.7478616" lon="7.4096672"><ele>238.0</ele><time>2026-04-03T14:36:55.898Z</time></trkpt><trkpt lat="47.7478008" lon="7.4097143"><ele>238.0</ele><time>2026-04-03T14:36:56.897Z</time></trkpt><trkpt lat="47.7476911" lon="7.4098032"><ele>238.0</ele><time>2026-04-03T14:36:58.898Z</time></trkpt><trkpt lat="47.7475807" lon="7.4098936"><ele>238.0</ele><time>2026-04-03T14:37:00.897Z</time></trkpt><trkpt lat="47.7475139" lon="7.4099459"><ele>238.0</ele><time>2026-04-03T14:37:01.898Z</time></trkpt><trkpt lat="47.747443" lon="7.4099996"><ele>238.0</ele><time>2026-04-03T14:37:02.897Z</time></trkpt><trkpt lat="47.7473666" lon="7.4100616"><ele>238.0</ele><time>2026-04-03T14:37:03.897Z</time></trkpt><trkpt lat="47.7472807" lon="7.4101367"><ele>238.0</ele><time>2026-04-03T14:37:04.897Z</time></trkpt><trkpt lat="47.747191" lon="7.4102153"><ele>238.0</ele><time>2026-04-03T14:37:05.898Z</time></trkpt><trkpt lat="47.747096" lon="7.4102976"><ele>238.0</ele><time>2026-04-03T14:37:06.897Z</time></trkpt><trkpt lat="47.7469993" lon="7.4103879"><ele>238.0</ele><time>2026-04-03T14:37:07.898Z</time></trkpt><trkpt lat="47.7469074" lon="7.4104695"><ele>238.0</ele><time>2026-04-03T14:37:08.897Z</time></trkpt><trkpt lat="47.7468222" lon="7.4105464"><ele>238.0</ele><time>2026-04-03T14:37:09.897Z</time></trkpt><trkpt lat="47.7467438" lon="7.4106153"><ele>238.0</ele><time>2026-04-03T14:37:10.897Z</time></trkpt><trkpt lat="47.7466692" lon="7.4106821"><ele>238.0</ele><time>2026-04-03T14:37:11.897Z</time></trkpt><trkpt lat="47.7465924" lon="7.4107545"><ele>238.0</ele><time>2026-04-03T14:37:12.897Z</time></trkpt><trkpt lat="47.7465087" lon="7.410824"><ele>238.0</ele><time>2026-04-03T14:37:13.899Z</time></trkpt><trkpt lat="47.7464275" lon="7.4108945"><ele>238.0</ele><time>2026-04-03T14:37:14.899Z</time></trkpt><trkpt lat="47.7463458" lon="7.4109633"><ele>238.0</ele><time>2026-04-03T14:37:15.898Z</time></trkpt><trkpt lat="47.7462588" lon="7.4110359"><ele>237.99999999999997</ele><time>2026-04-03T14:37:16.898Z</time></trkpt><trkpt lat="47.7461737" lon="7.411108"><ele>238.0</ele><time>2026-04-03T14:37:17.898Z</time></trkpt><trkpt lat="47.7460973" lon="7.4111685"><ele>238.0</ele><time>2026-04-03T14:37:18.897Z</time></trkpt><trkpt lat="47.7460283" lon="7.4112233"><ele>238.0</ele><time>2026-04-03T14:37:19.897Z</time></trkpt><trkpt lat="47.7459625" lon="7.4112688"><ele>237.99999999999997</ele><time>2026-04-03T14:37:20.897Z</time></trkpt><trkpt lat="47.745898" lon="7.41132"><ele>238.0</ele><time>2026-04-03T14:37:21.897Z</time></trkpt><trkpt lat="47.7458327" lon="7.4113759"><ele>237.8</ele><time>2026-04-03T14:37:22.897Z</time></trkpt><trkpt lat="47.7457782" lon="7.4114357"><ele>237.60000000000002</ele><time>2026-04-03T14:37:23.897Z</time></trkpt><trkpt lat="47.7456808" lon="7.4115423"><ele>237.39999999999998</ele><time>2026-04-03T14:37:25.898Z</time></trkpt><trkpt lat="47.7455765" lon="7.4116502"><ele>237.2</ele><time>2026-04-03T14:37:27.898Z</time></trkpt><trkpt lat="47.74552" lon="7.411718"><ele>237.0</ele><time>2026-04-03T14:37:28.898Z</time></trkpt><trkpt lat="47.7454586" lon="7.4117888"><ele>237.0</ele><time>2026-04-03T14:37:29.898Z</time></trkpt><trkpt lat="47.7453904" lon="7.4118506"><ele>237.0</ele><time>2026-04-03T14:37:30.898Z</time></trkpt><trkpt lat="47.7453236" lon="7.4118995"><ele>237.0</ele><time>2026-04-03T14:37:31.897Z</time></trkpt><trkpt lat="47.7452526" lon="7.4119447"><ele>237.0</ele><time>2026-04-03T14:37:32.897Z</time></trkpt><trkpt lat="47.7451791" lon="7.4119886"><ele>237.0</ele><time>2026-04-03T14:37:33.899Z</time></trkpt><trkpt lat="47.7450993" lon="7.4120384"><ele>237.0</ele><time>2026-04-03T14:37:34.899Z</time></trkpt><trkpt lat="47.7450106" lon="7.4120933"><ele>236.8</ele><time>2026-04-03T14:37:35.899Z</time></trkpt><trkpt lat="47.7449163" lon="7.4121569"><ele>236.6</ele><time>2026-04-03T14:37:36.897Z</time></trkpt><trkpt lat="47.7448287" lon="7.4122339"><ele>236.40000000000003</ele><time>2026-04-03T14:37:37.899Z</time></trkpt><trkpt lat="47.7447466" lon="7.4123255"><ele>236.20000000000002</ele><time>2026-04-03T14:37:38.897Z</time></trkpt><trkpt lat="47.7446691" lon="7.4124149"><ele>236.0</ele><time>2026-04-03T14:37:39.898Z</time></trkpt><trkpt lat="47.7445913" lon="7.4125032"><ele>236.0</ele><time>2026-04-03T14:37:40.897Z</time></trkpt><trkpt lat="47.7445124" lon="7.4125874"><ele>236.00000000000003</ele><time>2026-04-03T14:37:41.899Z</time></trkpt><trkpt lat="47.7444372" lon="7.4126536"><ele>236.00000000000003</ele><time>2026-04-03T14:37:42.898Z</time></trkpt><trkpt lat="47.7443571" lon="7.4127076"><ele>236.0</ele><time>2026-04-03T14:37:43.899Z</time></trkpt><trkpt lat="47.744268" lon="7.4127508"><ele>236.0</ele><time>2026-04-03T14:37:44.898Z</time></trkpt><trkpt lat="47.744176" lon="7.4128081"><ele>236.4</ele><time>2026-04-03T14:37:45.899Z</time></trkpt><trkpt lat="47.7440834" lon="7.4128925"><ele>236.8</ele><time>2026-04-03T14:37:46.898Z</time></trkpt><trkpt lat="47.7439885" lon="7.4129763"><ele>237.20000000000002</ele><time>2026-04-03T14:37:47.898Z</time></trkpt><trkpt lat="47.7438951" lon="7.4130618"><ele>237.60000000000002</ele><time>2026-04-03T14:37:48.898Z</time></trkpt><trkpt lat="47.7438127" lon="7.4131361"><ele>238.0</ele><time>2026-04-03T14:37:49.897Z</time></trkpt><trkpt lat="47.7437367" lon="7.4132049"><ele>237.99999999999997</ele><time>2026-04-03T14:37:50.898Z</time></trkpt><trkpt lat="47.7436682" lon="7.4132663"><ele>238.0</ele><time>2026-04-03T14:37:51.897Z</time></trkpt><trkpt lat="47.7435947" lon="7.4133338"><ele>238.0</ele><time>2026-04-03T14:37:52.898Z</time></trkpt><trkpt lat="47.7435184" lon="7.4134059"><ele>238.0</ele><time>2026-04-03T14:37:53.898Z</time></trkpt><trkpt lat="47.7434415" lon="7.4134882"><ele>237.99999999999997</ele><time>2026-04-03T14:37:54.898Z</time></trkpt><trkpt lat="47.7433707" lon="7.4135845"><ele>238.0</ele><time>2026-04-03T14:37:55.897Z</time></trkpt><trkpt lat="47.743306" lon="7.4136912"><ele>238.2</ele><time>2026-04-03T14:37:56.897Z</time></trkpt><trkpt lat="47.7432472" lon="7.413805"><ele>238.4</ele><time>2026-04-03T14:37:57.898Z</time></trkpt><trkpt lat="47.7431936" lon="7.4139255"><ele>238.59999999999997</ele><time>2026-04-03T14:37:58.898Z</time></trkpt><trkpt lat="47.7431479" lon="7.4140512"><ele>238.79999999999998</ele><time>2026-04-03T14:37:59.898Z</time></trkpt><trkpt lat="47.7431095" lon="7.414165"><ele>239.0</ele><time>2026-04-03T14:38:00.899Z</time></trkpt><trkpt lat="47.7430755" lon="7.4142703"><ele>239.00000000000003</ele><time>2026-04-03T14:38:01.898Z</time></trkpt><trkpt lat="47.7430355" lon="7.4143822"><ele>239.0</ele><time>2026-04-03T14:38:02.897Z</time></trkpt><trkpt lat="47.7429871" lon="7.414483"><ele>239.0</ele><time>2026-04-03T14:38:03.898Z</time></trkpt><trkpt lat="47.7429298" lon="7.4145511"><ele>239.0</ele><time>2026-04-03T14:38:04.897Z</time></trkpt><trkpt lat="47.7428573" lon="7.4145981"><ele>239.00000000000003</ele><time>2026-04-03T14:38:05.898Z</time></trkpt><trkpt lat="47.7427674" lon="7.4146125"><ele>239.0</ele><time>2026-04-03T14:38:06.899Z</time></trkpt><trkpt lat="47.7426879" lon="7.4146365"><ele>238.66666666666669</ele><time>2026-04-03T14:38:07.897Z</time></trkpt><trkpt lat="47.7426205" lon="7.4146915"><ele>238.33333333333334</ele><time>2026-04-03T14:38:08.898Z</time></trkpt><trkpt lat="47.7425557" lon="7.4147671"><ele>238.0</ele><time>2026-04-03T14:38:09.897Z</time></trkpt><trkpt lat="47.7424931" lon="7.414837"><ele>237.66666666666669</ele><time>2026-04-03T14:38:10.897Z</time></trkpt><trkpt lat="47.7424274" lon="7.4148795"><ele>237.33333333333334</ele><time>2026-04-03T14:38:11.897Z</time></trkpt><trkpt lat="47.7423554" lon="7.414889"><ele>237.0</ele><time>2026-04-03T14:38:12.897Z</time></trkpt><trkpt lat="47.7422798" lon="7.4148756"><ele>237.0</ele><time>2026-04-03T14:38:13.897Z</time></trkpt><trkpt lat="47.742194" lon="7.4148511"><ele>237.0</ele><time>2026-04-03T14:38:14.897Z</time></trkpt><trkpt lat="47.7421043" lon="7.4148406"><ele>237.0</ele><time>2026-04-03T14:38:15.897Z</time></trkpt><trkpt lat="47.742022" lon="7.4148607"><ele>237.0</ele><time>2026-04-03T14:38:16.898Z</time></trkpt><trkpt lat="47.7419337" lon="7.4148966"><ele>237.0</ele><time>2026-04-03T14:38:17.897Z</time></trkpt><trkpt lat="47.741847" lon="7.4149497"><ele>237.0</ele><time>2026-04-03T14:38:18.897Z</time></trkpt><trkpt lat="47.741764" lon="7.4150211"><ele>237.2</ele><time>2026-04-03T14:38:19.898Z</time></trkpt><trkpt lat="47.7416795" lon="7.4151007"><ele>237.39999999999998</ele><time>2026-04-03T14:38:20.898Z</time></trkpt><trkpt lat="47.74159" lon="7.4151779"><ele>237.60000000000002</ele><time>2026-04-03T14:38:21.897Z</time></trkpt><trkpt lat="47.7415" lon="7.4152606"><ele>237.8</ele><time>2026-04-03T14:38:22.898Z</time></trkpt><trkpt lat="47.7414058" lon="7.4153443"><ele>238.0</ele><time>2026-04-03T14:38:23.897Z</time></trkpt><trkpt lat="47.7413119" lon="7.4154273"><ele>237.8</ele><time>2026-04-03T14:38:24.899Z</time></trkpt><trkpt lat="47.7412172" lon="7.4155098"><ele>237.60000000000002</ele><time>2026-04-03T14:38:25.897Z</time></trkpt><trkpt lat="47.7411258" lon="7.4155975"><ele>237.39999999999998</ele><time>2026-04-03T14:38:26.897Z</time></trkpt><trkpt lat="47.741043" lon="7.4157066"><ele>237.2</ele><time>2026-04-03T14:38:27.897Z</time></trkpt><trkpt lat="47.7409757" lon="7.4158242"><ele>237.0</ele><time>2026-04-03T14:38:28.897Z</time></trkpt><trkpt lat="47.7409034" lon="7.4159251"><ele>236.5</ele><time>2026-04-03T14:38:29.897Z</time></trkpt><trkpt lat="47.7408168" lon="7.4160059"><ele>236.0</ele><time>2026-04-03T14:38:30.897Z</time></trkpt><trkpt lat="47.740712" lon="7.4160702"><ele>235.5</ele><time>2026-04-03T14:38:31.897Z</time></trkpt><trkpt lat="47.7405926" lon="7.4160979"><ele>235.0</ele><time>2026-04-03T14:38:32.897Z</time></trkpt><trkpt lat="47.7404633" lon="7.4161237"><ele>235.0</ele><time>2026-04-03T14:38:33.897Z</time></trkpt><trkpt lat="47.7403353" lon="7.4161476"><ele>235.0</ele><time>2026-04-03T14:38:34.897Z</time></trkpt><trkpt lat="47.7401834" lon="7.4161244"><ele>235.0</ele><time>2026-04-03T14:38:35.898Z</time></trkpt><trkpt lat="47.7400556" lon="7.4160715"><ele>235.0</ele><time>2026-04-03T14:38:36.897Z</time></trkpt><trkpt lat="47.7399132" lon="7.416034"><ele>235.25</ele><time>2026-04-03T14:38:37.897Z</time></trkpt><trkpt lat="47.7397846" lon="7.4160131"><ele>235.5</ele><time>2026-04-03T14:38:38.898Z</time></trkpt><trkpt lat="47.7396739" lon="7.4160501"><ele>235.75</ele><time>2026-04-03T14:38:39.897Z</time></trkpt><trkpt lat="47.7395704" lon="7.4161282"><ele>236.0</ele><time>2026-04-03T14:38:40.897Z</time></trkpt><trkpt lat="47.7394734" lon="7.4162375"><ele>236.5</ele><time>2026-04-03T14:38:41.897Z</time></trkpt><trkpt lat="47.7393853" lon="7.4163711"><ele>237.0</ele><time>2026-04-03T14:38:42.897Z</time></trkpt><trkpt lat="47.7393045" lon="7.4165144"><ele>237.5</ele><time>2026-04-03T14:38:43.898Z</time></trkpt><trkpt lat="47.7392287" lon="7.4166474"><ele>238.0</ele><time>2026-04-03T14:38:44.897Z</time></trkpt><trkpt lat="47.7391433" lon="7.4167758"><ele>238.0</ele><time>2026-04-03T14:38:45.897Z</time></trkpt><trkpt lat="47.7390418" lon="7.4168816"><ele>238.0</ele><time>2026-04-03T14:38:46.897Z</time></trkpt><trkpt lat="47.7389353" lon="7.4169742"><ele>238.0</ele><time>2026-04-03T14:38:47.898Z</time></trkpt><trkpt lat="47.7388375" lon="7.4170645"><ele>238.0</ele><time>2026-04-03T14:38:48.898Z</time></trkpt><trkpt lat="47.7387348" lon="7.4171528"><ele>237.75</ele><time>2026-04-03T14:38:49.899Z</time></trkpt><trkpt lat="47.7386289" lon="7.4172446"><ele>237.5</ele><time>2026-04-03T14:38:50.899Z</time></trkpt><trkpt lat="47.7385257" lon="7.417333"><ele>237.25</ele><time>2026-04-03T14:38:51.898Z</time></trkpt><trkpt lat="47.7384274" lon="7.4174189"><ele>237.0</ele><time>2026-04-03T14:38:52.897Z</time></trkpt><trkpt lat="47.7383282" lon="7.4175041"><ele>237.0</ele><time>2026-04-03T14:38:53.897Z</time></trkpt><trkpt lat="47.7382283" lon="7.4175838"><ele>237.0</ele><time>2026-04-03T14:38:54.897Z</time></trkpt><trkpt lat="47.738129" lon="7.417645"><ele>237.0</ele><time>2026-04-03T14:38:55.897Z</time></trkpt><trkpt lat="47.7380306" lon="7.4176814"><ele>237.0</ele><time>2026-04-03T14:38:56.897Z</time></trkpt><trkpt lat="47.7379412" lon="7.4176984"><ele>237.0</ele><time>2026-04-03T14:38:57.897Z</time></trkpt><trkpt lat="47.7378599" lon="7.4177018"><ele>237.0</ele><time>2026-04-03T14:38:58.897Z</time></trkpt><trkpt lat="47.7377799" lon="7.4176945"><ele>237.0</ele><time>2026-04-03T14:38:59.897Z</time></trkpt><trkpt lat="47.7376849" lon="7.4176736"><ele>237.0</ele><time>2026-04-03T14:39:00.897Z</time></trkpt><trkpt lat="47.737572" lon="7.4176332"><ele>237.0</ele><time>2026-04-03T14:39:01.897Z</time></trkpt><trkpt lat="47.7374703" lon="7.4175969"><ele>237.0</ele><time>2026-04-03T14:39:02.897Z</time></trkpt><trkpt lat="47.7373798" lon="7.4175686"><ele>237.2</ele><time>2026-04-03T14:39:03.897Z</time></trkpt><trkpt lat="47.7372882" lon="7.4175447"><ele>237.39999999999998</ele><time>2026-04-03T14:39:04.897Z</time></trkpt><trkpt lat="47.7371838" lon="7.417514"><ele>237.60000000000002</ele><time>2026-04-03T14:39:05.897Z</time></trkpt><trkpt lat="47.7370741" lon="7.4174804"><ele>237.8</ele><time>2026-04-03T14:39:06.898Z</time></trkpt><trkpt lat="47.7369712" lon="7.4174503"><ele>238.0</ele><time>2026-04-03T14:39:07.897Z</time></trkpt><trkpt lat="47.7368797" lon="7.4174311"><ele>237.99999999999997</ele><time>2026-04-03T14:39:08.897Z</time></trkpt><trkpt lat="47.7368035" lon="7.4173985"><ele>238.0</ele><time>2026-04-03T14:39:09.898Z</time></trkpt><trkpt lat="47.7367388" lon="7.4174027"><ele>238.0</ele><time>2026-04-03T14:39:10.898Z</time></trkpt><trkpt lat="47.7366868" lon="7.4175254"><ele>238.0</ele><time>2026-04-03T14:39:12.898Z</time></trkpt><trkpt lat="47.7366863" lon="7.4176237"><ele>237.99999999999997</ele><time>2026-04-03T14:39:13.898Z</time></trkpt><trkpt lat="47.7366837" lon="7.4177458"><ele>238.0</ele><time>2026-04-03T14:39:14.897Z</time></trkpt><trkpt lat="47.73668" lon="7.4178858"><ele>237.83333333333331</ele><time>2026-04-03T14:39:15.897Z</time></trkpt><trkpt lat="47.7366729" lon="7.4180198"><ele>237.66666666666666</ele><time>2026-04-03T14:39:16.898Z</time></trkpt><trkpt lat="47.7366669" lon="7.418155"><ele>237.5</ele><time>2026-04-03T14:39:17.897Z</time></trkpt><trkpt lat="47.7366628" lon="7.4182888"><ele>237.33333333333331</ele><time>2026-04-03T14:39:18.898Z</time></trkpt><trkpt lat="47.7366587" lon="7.4184204"><ele>237.16666666666666</ele><time>2026-04-03T14:39:19.897Z</time></trkpt><trkpt lat="47.7366555" lon="7.4185341"><ele>237.0</ele><time>2026-04-03T14:39:20.897Z</time></trkpt><trkpt lat="47.7366524" lon="7.4186348"><ele>237.0</ele><time>2026-04-03T14:39:21.897Z</time></trkpt><trkpt lat="47.7366251" lon="7.418812"><ele>237.0</ele><time>2026-04-03T14:39:23.898Z</time></trkpt><trkpt lat="47.7364943" lon="7.4188798"><ele>237.0</ele><time>2026-04-03T14:39:25.897Z</time></trkpt><trkpt lat="47.7363985" lon="7.4188942"><ele>237.0</ele><time>2026-04-03T14:39:26.898Z</time></trkpt><trkpt lat="47.7362969" lon="7.4189096"><ele>236.8</ele><time>2026-04-03T14:39:27.898Z</time></trkpt><trkpt lat="47.7361914" lon="7.4189238"><ele>236.6</ele><time>2026-04-03T14:39:28.898Z</time></trkpt><trkpt lat="47.7360983" lon="7.4189367"><ele>236.40000000000003</ele><time>2026-04-03T14:39:29.897Z</time></trkpt><trkpt lat="47.7359972" lon="7.4189209"><ele>236.20000000000002</ele><time>2026-04-03T14:39:30.897Z</time></trkpt><trkpt lat="47.7358942" lon="7.4189379"><ele>236.0</ele><time>2026-04-03T14:39:31.897Z</time></trkpt><trkpt lat="47.7357833" lon="7.4189582"><ele>236.0</ele><time>2026-04-03T14:39:32.897Z</time></trkpt><trkpt lat="47.735675" lon="7.4189547"><ele>236.00000000000003</ele><time>2026-04-03T14:39:33.898Z</time></trkpt><trkpt lat="47.7355678" lon="7.4189606"><ele>236.00000000000003</ele><time>2026-04-03T14:39:34.897Z</time></trkpt><trkpt lat="47.735467" lon="7.4189609"><ele>236.0</ele><time>2026-04-03T14:39:35.897Z</time></trkpt><trkpt lat="47.7353621" lon="7.41896"><ele>236.0</ele><time>2026-04-03T14:39:36.897Z</time></trkpt><trkpt lat="47.7352523" lon="7.4189578"><ele>236.0</ele><time>2026-04-03T14:39:37.897Z</time></trkpt><trkpt lat="47.7351384" lon="7.4189593"><ele>236.00000000000003</ele><time>2026-04-03T14:39:38.897Z</time></trkpt><trkpt lat="47.7350284" lon="7.4189606"><ele>236.00000000000003</ele><time>2026-04-03T14:39:39.898Z</time></trkpt><trkpt lat="47.7349294" lon="7.4189608"><ele>236.0</ele><time>2026-04-03T14:39:40.897Z</time></trkpt><trkpt lat="47.7348403" lon="7.4189625"><ele>236.0</ele><time>2026-04-03T14:39:41.897Z</time></trkpt><trkpt lat="47.7347622" lon="7.4189594"><ele>236.0</ele><time>2026-04-03T14:39:42.898Z</time></trkpt><trkpt lat="47.7346962" lon="7.4189558"><ele>236.0</ele><time>2026-04-03T14:39:43.897Z</time></trkpt><trkpt lat="47.734633" lon="7.4189547"><ele>236.0</ele><time>2026-04-03T14:39:44.897Z</time></trkpt><trkpt lat="47.7345655" lon="7.4189515"><ele>236.0</ele><time>2026-04-03T14:39:45.898Z</time></trkpt><trkpt lat="47.734486" lon="7.4189499"><ele>236.0</ele><time>2026-04-03T14:39:46.897Z</time></trkpt><trkpt lat="47.7343992" lon="7.4189453"><ele>236.0</ele><time>2026-04-03T14:39:47.898Z</time></trkpt><trkpt lat="47.7343143" lon="7.4189435"><ele>236.0</ele><time>2026-04-03T14:39:48.898Z</time></trkpt><trkpt lat="47.7342272" lon="7.4189428"><ele>236.33333333333334</ele><time>2026-04-03T14:39:49.897Z</time></trkpt><trkpt lat="47.7341377" lon="7.4189395"><ele>236.66666666666669</ele><time>2026-04-03T14:39:50.897Z</time></trkpt><trkpt lat="47.7340481" lon="7.4189348"><ele>237.0</ele><time>2026-04-03T14:39:51.899Z</time></trkpt><trkpt lat="47.7339657" lon="7.4189281"><ele>237.33333333333331</ele><time>2026-04-03T14:39:52.897Z</time></trkpt><trkpt lat="47.7338913" lon="7.4189145"><ele>237.66666666666666</ele><time>2026-04-03T14:39:53.897Z</time></trkpt><trkpt lat="47.733824" lon="7.4189003"><ele>238.0</ele><time>2026-04-03T14:39:54.898Z</time></trkpt><trkpt lat="47.7337612" lon="7.4188889"><ele>238.0</ele><time>2026-04-03T14:39:55.898Z</time></trkpt><trkpt lat="47.7336484" lon="7.4188711"><ele>238.0</ele><time>2026-04-03T14:39:57.897Z</time></trkpt><trkpt lat="47.7335448" lon="7.4188542"><ele>238.0</ele><time>2026-04-03T14:39:59.898Z</time></trkpt><trkpt lat="47.7334652" lon="7.4188314"><ele>238.0</ele><time>2026-04-03T14:40:01.898Z</time></trkpt><trkpt lat="47.7334489" lon="7.4187318"><ele>238.0</ele><time>2026-04-03T14:40:05.897Z</time></trkpt><trkpt lat="47.7335263" lon="7.4187373"><ele>238.0</ele><time>2026-04-03T14:40:09.897Z</time></trkpt></trkseg></trk></gpx>